<?xml version="1.0" encoding="UTF-8" standalone="no" ?><gpx xmlns="http://www.topografix.com/GPX/1/1" xmlns:gpxx="http://www.garmin.com/xmlschemas/GpxExtensions/v3" xmlns:wptx1="http://www.garmin.com/xmlschemas/WaypointExtension/v1" xmlns:gpxtpx="http://www.garmin.com/xmlschemas/TrackPointExtension/v1" creator="GuideVTT.com" version="1.1" xmlns:xsi="http://www.w3.org/2001/XMLSchema-instance" xsi:schemaLocation="http://www.topografix.com/GPX/1/1 http://www.topografix.com/GPX/1/1/gpx.xsd http://www.garmin.com/xmlschemas/GpxExtensions/v3 http://www8.garmin.com/xmlschemas/GpxExtensionsv3.xsd http://www.garmin.com/xmlschemas/WaypointExtension/v1 http://www8.garmin.com/xmlschemas/WaypointExtensionv1.xsd http://www.garmin.com/xmlschemas/TrackPointExtension/v1 http://www.garmin.com/xmlschemas/TrackPointExtensionv1.xsd">
<metadata><link href="http://www.garmin.com"><text>Garmin International</text></link><time>2013-06-22T15:13:50Z</time></metadata>
<trk><name>grandchamp.gpx</name><extensions><gpxx:TrackExtension><gpxx:DisplayColor>Cyan</gpxx:DisplayColor></gpxx:TrackExtension></extensions><trkseg>
<trkpt lat="45.67784700" lon="4.75192200"><ele></ele><time>2014-4-25T2:7:46Z</time></trkpt>
<trkpt lat="45.67768400" lon="4.75154500"><ele></ele><time>2014-4-25T2:7:49Z</time></trkpt>
<trkpt lat="45.67736900" lon="4.75080000"><ele></ele><time>2014-4-25T2:7:52Z</time></trkpt>
<trkpt lat="45.67722700" lon="4.75040700"><ele></ele><time>2014-4-25T2:7:55Z</time></trkpt>
<trkpt lat="45.67744600" lon="4.75014900"><ele></ele><time>2014-4-25T2:7:58Z</time></trkpt>
<trkpt lat="45.67807300" lon="4.74987100"><ele></ele><time>2014-4-25T2:8:1Z</time></trkpt>
<trkpt lat="45.67837400" lon="4.74974200"><ele></ele><time>2014-4-25T2:8:4Z</time></trkpt>
<trkpt lat="45.67890600" lon="4.74916600"><ele></ele><time>2014-4-25T2:8:7Z</time></trkpt>
<trkpt lat="45.67915000" lon="4.74841400"><ele></ele><time>2014-4-25T2:8:10Z</time></trkpt>
<trkpt lat="45.67969400" lon="4.74794600"><ele></ele><time>2014-4-25T2:8:13Z</time></trkpt>
<trkpt lat="45.67987600" lon="4.74782800"><ele></ele><time>2014-4-25T2:8:16Z</time></trkpt>
<trkpt lat="45.68022300" lon="4.74778000"><ele></ele><time>2014-4-25T2:8:19Z</time></trkpt>
<trkpt lat="45.68043700" lon="4.74784400"><ele></ele><time>2014-4-25T2:8:22Z</time></trkpt>
<trkpt lat="45.68065000" lon="4.74791800"><ele></ele><time>2014-4-25T2:8:25Z</time></trkpt>
<trkpt lat="45.68095500" lon="4.74784900"><ele></ele><time>2014-4-25T2:8:28Z</time></trkpt>
<trkpt lat="45.68167800" lon="4.74717000"><ele></ele><time>2014-4-25T2:8:31Z</time></trkpt>
<trkpt lat="45.68208600" lon="4.74699900"><ele></ele><time>2014-4-25T2:8:34Z</time></trkpt>
<trkpt lat="45.68242000" lon="4.74675500"><ele></ele><time>2014-4-25T2:8:37Z</time></trkpt>
<trkpt lat="45.68316700" lon="4.74616000"><ele></ele><time>2014-4-25T2:8:40Z</time></trkpt>
<trkpt lat="45.68331400" lon="4.74609500"><ele></ele><time>2014-4-25T2:8:43Z</time></trkpt>
<trkpt lat="45.68382400" lon="4.74590900"><ele></ele><time>2014-4-25T2:8:46Z</time></trkpt>
<trkpt lat="45.68404100" lon="4.74565400"><ele></ele><time>2014-4-25T2:8:49Z</time></trkpt>
<trkpt lat="45.68428400" lon="4.74582500"><ele></ele><time>2014-4-25T2:8:52Z</time></trkpt>
<trkpt lat="45.68442900" lon="4.74628000"><ele></ele><time>2014-4-25T2:8:55Z</time></trkpt>
<trkpt lat="45.68465600" lon="4.74698800"><ele></ele><time>2014-4-25T2:8:58Z</time></trkpt>
<trkpt lat="45.68472300" lon="4.74719800"><ele></ele><time>2014-4-25T2:9:1Z</time></trkpt>
<trkpt lat="45.68476100" lon="4.74750700"><ele></ele><time>2014-4-25T2:9:4Z</time></trkpt>
<trkpt lat="45.68479900" lon="4.74767100"><ele></ele><time>2014-4-25T2:9:7Z</time></trkpt>
<trkpt lat="45.68499400" lon="4.74784300"><ele></ele><time>2014-4-25T2:9:10Z</time></trkpt>
<trkpt lat="45.68568400" lon="4.74799700"><ele></ele><time>2014-4-25T2:9:13Z</time></trkpt>
<trkpt lat="45.68601400" lon="4.74794900"><ele></ele><time>2014-4-25T2:9:16Z</time></trkpt>
<trkpt lat="45.68618700" lon="4.74789200"><ele></ele><time>2014-4-25T2:9:19Z</time></trkpt>
<trkpt lat="45.68640200" lon="4.74780300"><ele></ele><time>2014-4-25T2:9:22Z</time></trkpt>
<trkpt lat="45.68671600" lon="4.74738800"><ele></ele><time>2014-4-25T2:9:25Z</time></trkpt>
<trkpt lat="45.68699000" lon="4.74688700"><ele></ele><time>2014-4-25T2:9:28Z</time></trkpt>
<trkpt lat="45.68724700" lon="4.74663000"><ele></ele><time>2014-4-25T2:9:31Z</time></trkpt>
<trkpt lat="45.68775300" lon="4.74637200"><ele></ele><time>2014-4-25T2:9:34Z</time></trkpt>
<trkpt lat="45.68792800" lon="4.74608500"><ele></ele><time>2014-4-25T2:9:37Z</time></trkpt>
<trkpt lat="45.68812500" lon="4.74558300"><ele></ele><time>2014-4-25T2:9:40Z</time></trkpt>
<trkpt lat="45.68826200" lon="4.74396500"><ele></ele><time>2014-4-25T2:9:43Z</time></trkpt>
<trkpt lat="45.68835500" lon="4.74379500"><ele></ele><time>2014-4-25T2:9:46Z</time></trkpt>
<trkpt lat="45.68857200" lon="4.74346000"><ele></ele><time>2014-4-25T2:9:49Z</time></trkpt>
<trkpt lat="45.68904900" lon="4.74180200"><ele></ele><time>2014-4-25T2:9:52Z</time></trkpt>
<trkpt lat="45.68967800" lon="4.74076100"><ele></ele><time>2014-4-25T2:9:55Z</time></trkpt>
<trkpt lat="45.68980100" lon="4.74055600"><ele></ele><time>2014-4-25T2:9:58Z</time></trkpt>
<trkpt lat="45.69026400" lon="4.73949600"><ele></ele><time>2014-4-25T2:10:1Z</time></trkpt>
<trkpt lat="45.69039800" lon="4.73851000"><ele></ele><time>2014-4-25T2:10:4Z</time></trkpt>
<trkpt lat="45.69058800" lon="4.73747500"><ele></ele><time>2014-4-25T2:10:7Z</time></trkpt>
<trkpt lat="45.69061000" lon="4.73723700"><ele></ele><time>2014-4-25T2:10:10Z</time></trkpt>
<trkpt lat="45.69115800" lon="4.73597900"><ele></ele><time>2014-4-25T2:10:13Z</time></trkpt>
<trkpt lat="45.69120500" lon="4.73556200"><ele></ele><time>2014-4-25T2:10:16Z</time></trkpt>
<trkpt lat="45.69215000" lon="4.73394200"><ele></ele><time>2014-4-25T2:10:19Z</time></trkpt>
<trkpt lat="45.69229400" lon="4.73343300"><ele></ele><time>2014-4-25T2:10:22Z</time></trkpt>
<trkpt lat="45.69244800" lon="4.73280300"><ele></ele><time>2014-4-25T2:10:25Z</time></trkpt>
<trkpt lat="45.69245600" lon="4.73260800"><ele></ele><time>2014-4-25T2:10:28Z</time></trkpt>
<trkpt lat="45.69216000" lon="4.73167800"><ele></ele><time>2014-4-25T2:10:31Z</time></trkpt>
<trkpt lat="45.69183200" lon="4.73115400"><ele></ele><time>2014-4-25T2:10:34Z</time></trkpt>
<trkpt lat="45.69153900" lon="4.73067600"><ele></ele><time>2014-4-25T2:10:37Z</time></trkpt>
<trkpt lat="45.69171700" lon="4.72997800"><ele></ele><time>2014-4-25T2:10:40Z</time></trkpt>
<trkpt lat="45.69187700" lon="4.72933200"><ele></ele><time>2014-4-25T2:10:43Z</time></trkpt>
<trkpt lat="45.69233700" lon="4.72883500"><ele></ele><time>2014-4-25T2:10:46Z</time></trkpt>
<trkpt lat="45.69268500" lon="4.72820500"><ele></ele><time>2014-4-25T2:10:49Z</time></trkpt>
<trkpt lat="45.69279300" lon="4.72835600"><ele></ele><time>2014-4-25T2:10:52Z</time></trkpt>
<trkpt lat="45.69270900" lon="4.72846400"><ele></ele><time>2014-4-25T2:10:55Z</time></trkpt>
<trkpt lat="45.69252300" lon="4.72889600"><ele></ele><time>2014-4-25T2:10:58Z</time></trkpt>
<trkpt lat="45.69226200" lon="4.72940300"><ele></ele><time>2014-4-25T2:11:1Z</time></trkpt>
<trkpt lat="45.69216800" lon="4.72962700"><ele></ele><time>2014-4-25T2:11:4Z</time></trkpt>
<trkpt lat="45.69247100" lon="4.72929500"><ele></ele><time>2014-4-25T2:11:7Z</time></trkpt>
<trkpt lat="45.69276000" lon="4.72888300"><ele></ele><time>2014-4-25T2:11:10Z</time></trkpt>
<trkpt lat="45.69293000" lon="4.72864900"><ele></ele><time>2014-4-25T2:11:13Z</time></trkpt>
<trkpt lat="45.69297900" lon="4.72889000"><ele></ele><time>2014-4-25T2:11:16Z</time></trkpt>
<trkpt lat="45.69287000" lon="4.72897900"><ele></ele><time>2014-4-25T2:11:19Z</time></trkpt>
<trkpt lat="45.69284000" lon="4.72906900"><ele></ele><time>2014-4-25T2:11:22Z</time></trkpt>
<trkpt lat="45.69293700" lon="4.72917800"><ele></ele><time>2014-4-25T2:11:25Z</time></trkpt>
<trkpt lat="45.69316600" lon="4.72911600"><ele></ele><time>2014-4-25T2:11:28Z</time></trkpt>
<trkpt lat="45.69325400" lon="4.72910800"><ele></ele><time>2014-4-25T2:11:31Z</time></trkpt>
<trkpt lat="45.69328800" lon="4.72892300"><ele></ele><time>2014-4-25T2:11:34Z</time></trkpt>
<trkpt lat="45.69337000" lon="4.72879000"><ele></ele><time>2014-4-25T2:11:37Z</time></trkpt>
<trkpt lat="45.69343800" lon="4.72873600"><ele></ele><time>2014-4-25T2:11:40Z</time></trkpt>
<trkpt lat="45.69350600" lon="4.72870600"><ele></ele><time>2014-4-25T2:11:43Z</time></trkpt>
<trkpt lat="45.69367800" lon="4.72860000"><ele></ele><time>2014-4-25T2:11:46Z</time></trkpt>
<trkpt lat="45.69376900" lon="4.72853700"><ele></ele><time>2014-4-25T2:11:49Z</time></trkpt>
<trkpt lat="45.69393200" lon="4.72845300"><ele></ele><time>2014-4-25T2:11:52Z</time></trkpt>
<trkpt lat="45.69411900" lon="4.72829500"><ele></ele><time>2014-4-25T2:11:55Z</time></trkpt>
<trkpt lat="45.69414400" lon="4.72800400"><ele></ele><time>2014-4-25T2:11:58Z</time></trkpt>
<trkpt lat="45.69416900" lon="4.72787100"><ele></ele><time>2014-4-25T2:12:1Z</time></trkpt>
<trkpt lat="45.69429100" lon="4.72754800"><ele></ele><time>2014-4-25T2:12:4Z</time></trkpt>
<trkpt lat="45.69437500" lon="4.72733300"><ele></ele><time>2014-4-25T2:12:7Z</time></trkpt>
<trkpt lat="45.69457600" lon="4.72639600"><ele></ele><time>2014-4-25T2:12:10Z</time></trkpt>
<trkpt lat="45.69450100" lon="4.72635900"><ele></ele><time>2014-4-25T2:12:13Z</time></trkpt>
<trkpt lat="45.69440600" lon="4.72639400"><ele></ele><time>2014-4-25T2:12:16Z</time></trkpt>
<trkpt lat="45.69426500" lon="4.72633600"><ele></ele><time>2014-4-25T2:12:19Z</time></trkpt>
<trkpt lat="45.69418500" lon="4.72607400"><ele></ele><time>2014-4-25T2:12:22Z</time></trkpt>
<trkpt lat="45.69412700" lon="4.72596500"><ele></ele><time>2014-4-25T2:12:25Z</time></trkpt>
<trkpt lat="45.69428000" lon="4.72526600"><ele></ele><time>2014-4-25T2:12:28Z</time></trkpt>
<trkpt lat="45.69414200" lon="4.72392900"><ele></ele><time>2014-4-25T2:12:31Z</time></trkpt>
<trkpt lat="45.69428400" lon="4.72399600"><ele></ele><time>2014-4-25T2:12:34Z</time></trkpt>
<trkpt lat="45.69454900" lon="4.72416800"><ele></ele><time>2014-4-25T2:12:37Z</time></trkpt>
<trkpt lat="45.69476700" lon="4.72427300"><ele></ele><time>2014-4-25T2:12:40Z</time></trkpt>
<trkpt lat="45.69477900" lon="4.72410400"><ele></ele><time>2014-4-25T2:12:43Z</time></trkpt>
<trkpt lat="45.69468400" lon="4.72396000"><ele></ele><time>2014-4-25T2:12:46Z</time></trkpt>
<trkpt lat="45.69449700" lon="4.72372500"><ele></ele><time>2014-4-25T2:12:49Z</time></trkpt>
<trkpt lat="45.69440200" lon="4.72334400"><ele></ele><time>2014-4-25T2:12:52Z</time></trkpt>
<trkpt lat="45.69446100" lon="4.72319700"><ele></ele><time>2014-4-25T2:12:55Z</time></trkpt>
<trkpt lat="45.69450600" lon="4.72299200"><ele></ele><time>2014-4-25T2:12:58Z</time></trkpt>
<trkpt lat="45.69450600" lon="4.72276600"><ele></ele><time>2014-4-25T2:13:1Z</time></trkpt>
<trkpt lat="45.69449600" lon="4.72254500"><ele></ele><time>2014-4-25T2:13:4Z</time></trkpt>
<trkpt lat="45.69449100" lon="4.72240600"><ele></ele><time>2014-4-25T2:13:7Z</time></trkpt>
<trkpt lat="45.69445900" lon="4.72209700"><ele></ele><time>2014-4-25T2:13:10Z</time></trkpt>
<trkpt lat="45.69441600" lon="4.72183300"><ele></ele><time>2014-4-25T2:13:13Z</time></trkpt>
<trkpt lat="45.69443000" lon="4.72167200"><ele></ele><time>2014-4-25T2:13:16Z</time></trkpt>
<trkpt lat="45.69442900" lon="4.72134500"><ele></ele><time>2014-4-25T2:13:19Z</time></trkpt>
<trkpt lat="45.69439200" lon="4.72108700"><ele></ele><time>2014-4-25T2:13:22Z</time></trkpt>
<trkpt lat="45.69439300" lon="4.72083800"><ele></ele><time>2014-4-25T2:13:25Z</time></trkpt>
<trkpt lat="45.69440800" lon="4.72062000"><ele></ele><time>2014-4-25T2:13:28Z</time></trkpt>
<trkpt lat="45.69443200" lon="4.72033100"><ele></ele><time>2014-4-25T2:13:31Z</time></trkpt>
<trkpt lat="45.69419200" lon="4.71907200"><ele></ele><time>2014-4-25T2:13:34Z</time></trkpt>
<trkpt lat="45.69366700" lon="4.71834400"><ele></ele><time>2014-4-25T2:13:37Z</time></trkpt>
<trkpt lat="45.69325800" lon="4.71775900"><ele></ele><time>2014-4-25T2:13:40Z</time></trkpt>
<trkpt lat="45.69279000" lon="4.71704600"><ele></ele><time>2014-4-25T2:13:43Z</time></trkpt>
<trkpt lat="45.69235300" lon="4.71624400"><ele></ele><time>2014-4-25T2:13:46Z</time></trkpt>
<trkpt lat="45.69222500" lon="4.71599600"><ele></ele><time>2014-4-25T2:13:49Z</time></trkpt>
<trkpt lat="45.69214100" lon="4.71587300"><ele></ele><time>2014-4-25T2:13:52Z</time></trkpt>
<trkpt lat="45.69150700" lon="4.71546800"><ele></ele><time>2014-4-25T2:13:55Z</time></trkpt>
<trkpt lat="45.69120900" lon="4.71538600"><ele></ele><time>2014-4-25T2:13:58Z</time></trkpt>
<trkpt lat="45.69026200" lon="4.71484500"><ele></ele><time>2014-4-25T2:14:1Z</time></trkpt>
<trkpt lat="45.68932800" lon="4.71416200"><ele></ele><time>2014-4-25T2:14:4Z</time></trkpt>
<trkpt lat="45.68910200" lon="4.71399300"><ele></ele><time>2014-4-25T2:14:7Z</time></trkpt>
<trkpt lat="45.68845100" lon="4.71346600"><ele></ele><time>2014-4-25T2:14:10Z</time></trkpt>
<trkpt lat="45.68794200" lon="4.71296600"><ele></ele><time>2014-4-25T2:14:13Z</time></trkpt>
<trkpt lat="45.68781800" lon="4.71273700"><ele></ele><time>2014-4-25T2:14:16Z</time></trkpt>
<trkpt lat="45.68759100" lon="4.71186100"><ele></ele><time>2014-4-25T2:14:19Z</time></trkpt>
<trkpt lat="45.68737000" lon="4.71109000"><ele></ele><time>2014-4-25T2:14:22Z</time></trkpt>
<trkpt lat="45.68735300" lon="4.71099600"><ele></ele><time>2014-4-25T2:14:25Z</time></trkpt>
<trkpt lat="45.68717700" lon="4.71034600"><ele></ele><time>2014-4-25T2:14:28Z</time></trkpt>
<trkpt lat="45.68710600" lon="4.71010000"><ele></ele><time>2014-4-25T2:14:31Z</time></trkpt>
<trkpt lat="45.68711800" lon="4.70953000"><ele></ele><time>2014-4-25T2:14:34Z</time></trkpt>
<trkpt lat="45.68735200" lon="4.70952500"><ele></ele><time>2014-4-25T2:14:37Z</time></trkpt>
<trkpt lat="45.68798100" lon="4.70820800"><ele></ele><time>2014-4-25T2:14:40Z</time></trkpt>
<trkpt lat="45.68805600" lon="4.70801000"><ele></ele><time>2014-4-25T2:14:43Z</time></trkpt>
<trkpt lat="45.68817300" lon="4.70773500"><ele></ele><time>2014-4-25T2:14:46Z</time></trkpt>
<trkpt lat="45.68824300" lon="4.70743300"><ele></ele><time>2014-4-25T2:14:49Z</time></trkpt>
<trkpt lat="45.68860900" lon="4.70641700"><ele></ele><time>2014-4-25T2:14:52Z</time></trkpt>
<trkpt lat="45.68914000" lon="4.70557800"><ele></ele><time>2014-4-25T2:14:55Z</time></trkpt>
<trkpt lat="45.69001500" lon="4.70501500"><ele></ele><time>2014-4-25T2:14:58Z</time></trkpt>
<trkpt lat="45.69107000" lon="4.70503900"><ele></ele><time>2014-4-25T2:15:1Z</time></trkpt>
<trkpt lat="45.69120500" lon="4.70509000"><ele></ele><time>2014-4-25T2:15:4Z</time></trkpt>
<trkpt lat="45.69227100" lon="4.70511800"><ele></ele><time>2014-4-25T2:15:7Z</time></trkpt>
<trkpt lat="45.69263500" lon="4.70494600"><ele></ele><time>2014-4-25T2:15:10Z</time></trkpt>
<trkpt lat="45.69361600" lon="4.70377000"><ele></ele><time>2014-4-25T2:15:13Z</time></trkpt>
<trkpt lat="45.69398400" lon="4.70227000"><ele></ele><time>2014-4-25T2:15:16Z</time></trkpt>
<trkpt lat="45.69385400" lon="4.70087800"><ele></ele><time>2014-4-25T2:15:19Z</time></trkpt>
<trkpt lat="45.69361900" lon="4.70017400"><ele></ele><time>2014-4-25T2:15:22Z</time></trkpt>
<trkpt lat="45.69361900" lon="4.70017400"><ele></ele><time>2014-4-25T2:15:25Z</time></trkpt>
<trkpt lat="45.69317600" lon="4.69910100"><ele></ele><time>2014-4-25T2:15:28Z</time></trkpt>
<trkpt lat="45.69284500" lon="4.69770600"><ele></ele><time>2014-4-25T2:15:31Z</time></trkpt>
<trkpt lat="45.69315800" lon="4.69569800"><ele></ele><time>2014-4-25T2:15:34Z</time></trkpt>
<trkpt lat="45.69377800" lon="4.69478400"><ele></ele><time>2014-4-25T2:15:37Z</time></trkpt>
<trkpt lat="45.69382000" lon="4.69474500"><ele></ele><time>2014-4-25T2:15:40Z</time></trkpt>
<trkpt lat="45.69460800" lon="4.69441000"><ele></ele><time>2014-4-25T2:15:43Z</time></trkpt>
<trkpt lat="45.69475600" lon="4.69446300"><ele></ele><time>2014-4-25T2:15:46Z</time></trkpt>
<trkpt lat="45.69535100" lon="4.69469200"><ele></ele><time>2014-4-25T2:15:49Z</time></trkpt>
<trkpt lat="45.69549800" lon="4.69455100"><ele></ele><time>2014-4-25T2:15:52Z</time></trkpt>
<trkpt lat="45.69551400" lon="4.69440100"><ele></ele><time>2014-4-25T2:15:55Z</time></trkpt>
<trkpt lat="45.69550100" lon="4.69406100"><ele></ele><time>2014-4-25T2:15:58Z</time></trkpt>
<trkpt lat="45.69550900" lon="4.69374400"><ele></ele><time>2014-4-25T2:16:1Z</time></trkpt>
<trkpt lat="45.69555900" lon="4.69323000"><ele></ele><time>2014-4-25T2:16:4Z</time></trkpt>
<trkpt lat="45.69539300" lon="4.69287900"><ele></ele><time>2014-4-25T2:16:7Z</time></trkpt>
<trkpt lat="45.69528500" lon="4.69254000"><ele></ele><time>2014-4-25T2:16:10Z</time></trkpt>
<trkpt lat="45.69521000" lon="4.69204400"><ele></ele><time>2014-4-25T2:16:13Z</time></trkpt>
<trkpt lat="45.69516900" lon="4.69169600"><ele></ele><time>2014-4-25T2:16:16Z</time></trkpt>
<trkpt lat="45.69524300" lon="4.69139800"><ele></ele><time>2014-4-25T2:16:19Z</time></trkpt>
<trkpt lat="45.69543200" lon="4.69086100"><ele></ele><time>2014-4-25T2:16:22Z</time></trkpt>
<trkpt lat="45.69595100" lon="4.68953600"><ele></ele><time>2014-4-25T2:16:25Z</time></trkpt>
<trkpt lat="45.69605800" lon="4.68925100"><ele></ele><time>2014-4-25T2:16:28Z</time></trkpt>
<trkpt lat="45.69613600" lon="4.68904500"><ele></ele><time>2014-4-25T2:16:31Z</time></trkpt>
<trkpt lat="45.69663800" lon="4.68759000"><ele></ele><time>2014-4-25T2:16:34Z</time></trkpt>
<trkpt lat="45.69680100" lon="4.68726200"><ele></ele><time>2014-4-25T2:16:37Z</time></trkpt>
<trkpt lat="45.69734600" lon="4.68648100"><ele></ele><time>2014-4-25T2:16:40Z</time></trkpt>
<trkpt lat="45.69740800" lon="4.68621600"><ele></ele><time>2014-4-25T2:16:43Z</time></trkpt>
<trkpt lat="45.69739900" lon="4.68598400"><ele></ele><time>2014-4-25T2:16:46Z</time></trkpt>
<trkpt lat="45.69756200" lon="4.68599600"><ele></ele><time>2014-4-25T2:16:49Z</time></trkpt>
<trkpt lat="45.69829500" lon="4.68639800"><ele></ele><time>2014-4-25T2:16:52Z</time></trkpt>
<trkpt lat="45.69883000" lon="4.68708200"><ele></ele><time>2014-4-25T2:16:55Z</time></trkpt>
<trkpt lat="45.69900100" lon="4.68722000"><ele></ele><time>2014-4-25T2:16:58Z</time></trkpt>
<trkpt lat="45.69950900" lon="4.68682000"><ele></ele><time>2014-4-25T2:17:1Z</time></trkpt>
<trkpt lat="45.69964900" lon="4.68612000"><ele></ele><time>2014-4-25T2:17:4Z</time></trkpt>
<trkpt lat="45.70001500" lon="4.68443200"><ele></ele><time>2014-4-25T2:17:7Z</time></trkpt>
<trkpt lat="45.69995000" lon="4.68370900"><ele></ele><time>2014-4-25T2:17:10Z</time></trkpt>
<trkpt lat="45.69981000" lon="4.68291900"><ele></ele><time>2014-4-25T2:17:13Z</time></trkpt>
<trkpt lat="45.69983000" lon="4.68255600"><ele></ele><time>2014-4-25T2:17:16Z</time></trkpt>
<trkpt lat="45.69991400" lon="4.68208400"><ele></ele><time>2014-4-25T2:17:19Z</time></trkpt>
<trkpt lat="45.70003000" lon="4.68167200"><ele></ele><time>2014-4-25T2:17:22Z</time></trkpt>
<trkpt lat="45.70018000" lon="4.68126500"><ele></ele><time>2014-4-25T2:17:25Z</time></trkpt>
<trkpt lat="45.70028200" lon="4.68081500"><ele></ele><time>2014-4-25T2:17:28Z</time></trkpt>
<trkpt lat="45.70049600" lon="4.68011300"><ele></ele><time>2014-4-25T2:17:31Z</time></trkpt>
<trkpt lat="45.70059200" lon="4.67994900"><ele></ele><time>2014-4-25T2:17:34Z</time></trkpt>
<trkpt lat="45.70067900" lon="4.68002100"><ele></ele><time>2014-4-25T2:17:37Z</time></trkpt>
<trkpt lat="45.70090100" lon="4.68032000"><ele></ele><time>2014-4-25T2:17:40Z</time></trkpt>
<trkpt lat="45.70107900" lon="4.68017600"><ele></ele><time>2014-4-25T2:17:43Z</time></trkpt>
<trkpt lat="45.70149700" lon="4.67952100"><ele></ele><time>2014-4-25T2:17:46Z</time></trkpt>
<trkpt lat="45.70178900" lon="4.67895000"><ele></ele><time>2014-4-25T2:17:49Z</time></trkpt>
<trkpt lat="45.70220900" lon="4.67748300"><ele></ele><time>2014-4-25T2:17:52Z</time></trkpt>
<trkpt lat="45.70255500" lon="4.67673400"><ele></ele><time>2014-4-25T2:17:55Z</time></trkpt>
<trkpt lat="45.70277200" lon="4.67590300"><ele></ele><time>2014-4-25T2:17:58Z</time></trkpt>
<trkpt lat="45.70282400" lon="4.67584200"><ele></ele><time>2014-4-25T2:18:1Z</time></trkpt>
<trkpt lat="45.70290800" lon="4.67573000"><ele></ele><time>2014-4-25T2:18:4Z</time></trkpt>
<trkpt lat="45.70311400" lon="4.67531600"><ele></ele><time>2014-4-25T2:18:7Z</time></trkpt>
<trkpt lat="45.70336300" lon="4.67475700"><ele></ele><time>2014-4-25T2:18:10Z</time></trkpt>
<trkpt lat="45.70354000" lon="4.67429600"><ele></ele><time>2014-4-25T2:18:13Z</time></trkpt>
<trkpt lat="45.70370000" lon="4.67363600"><ele></ele><time>2014-4-25T2:18:16Z</time></trkpt>
<trkpt lat="45.70370700" lon="4.67306600"><ele></ele><time>2014-4-25T2:18:19Z</time></trkpt>
<trkpt lat="45.70376900" lon="4.67279400"><ele></ele><time>2014-4-25T2:18:22Z</time></trkpt>
<trkpt lat="45.70379000" lon="4.67041200"><ele></ele><time>2014-4-25T2:18:25Z</time></trkpt>
<trkpt lat="45.70386700" lon="4.66889000"><ele></ele><time>2014-4-25T2:18:28Z</time></trkpt>
<trkpt lat="45.70395400" lon="4.66863500"><ele></ele><time>2014-4-25T2:18:31Z</time></trkpt>
<trkpt lat="45.70404400" lon="4.66826700"><ele></ele><time>2014-4-25T2:18:34Z</time></trkpt>
<trkpt lat="45.70409700" lon="4.66792100"><ele></ele><time>2014-4-25T2:18:37Z</time></trkpt>
<trkpt lat="45.70419000" lon="4.66735500"><ele></ele><time>2014-4-25T2:18:40Z</time></trkpt>
<trkpt lat="45.70425600" lon="4.66698900"><ele></ele><time>2014-4-25T2:18:43Z</time></trkpt>
<trkpt lat="45.70439700" lon="4.66646300"><ele></ele><time>2014-4-25T2:18:46Z</time></trkpt>
<trkpt lat="45.70454600" lon="4.66605800"><ele></ele><time>2014-4-25T2:18:49Z</time></trkpt>
<trkpt lat="45.70465800" lon="4.66568400"><ele></ele><time>2014-4-25T2:18:52Z</time></trkpt>
<trkpt lat="45.70476600" lon="4.66520200"><ele></ele><time>2014-4-25T2:18:55Z</time></trkpt>
<trkpt lat="45.70482400" lon="4.66492600"><ele></ele><time>2014-4-25T2:18:58Z</time></trkpt>
<trkpt lat="45.70490400" lon="4.66459700"><ele></ele><time>2014-4-25T2:19:1Z</time></trkpt>
<trkpt lat="45.70501500" lon="4.66421900"><ele></ele><time>2014-4-25T2:19:4Z</time></trkpt>
<trkpt lat="45.70514100" lon="4.66377500"><ele></ele><time>2014-4-25T2:19:7Z</time></trkpt>
<trkpt lat="45.70526200" lon="4.66326100"><ele></ele><time>2014-4-25T2:19:10Z</time></trkpt>
<trkpt lat="45.70516600" lon="4.66290900"><ele></ele><time>2014-4-25T2:19:13Z</time></trkpt>
<trkpt lat="45.70507100" lon="4.66296300"><ele></ele><time>2014-4-25T2:19:16Z</time></trkpt>
<trkpt lat="45.70443500" lon="4.66368900"><ele></ele><time>2014-4-25T2:19:19Z</time></trkpt>
<trkpt lat="45.70435500" lon="4.66382500"><ele></ele><time>2014-4-25T2:19:22Z</time></trkpt>
<trkpt lat="45.70428700" lon="4.66397400"><ele></ele><time>2014-4-25T2:19:25Z</time></trkpt>
<trkpt lat="45.70414600" lon="4.66417800"><ele></ele><time>2014-4-25T2:19:28Z</time></trkpt>
<trkpt lat="45.70390300" lon="4.66446500"><ele></ele><time>2014-4-25T2:19:31Z</time></trkpt>
<trkpt lat="45.70377600" lon="4.66461000"><ele></ele><time>2014-4-25T2:19:34Z</time></trkpt>
<trkpt lat="45.70338400" lon="4.66494800"><ele></ele><time>2014-4-25T2:19:37Z</time></trkpt>
<trkpt lat="45.70330000" lon="4.66502700"><ele></ele><time>2014-4-25T2:19:40Z</time></trkpt>
<trkpt lat="45.70304700" lon="4.66514700"><ele></ele><time>2014-4-25T2:19:43Z</time></trkpt>
<trkpt lat="45.70296400" lon="4.66516800"><ele></ele><time>2014-4-25T2:19:46Z</time></trkpt>
<trkpt lat="45.70276500" lon="4.66525900"><ele></ele><time>2014-4-25T2:19:49Z</time></trkpt>
<trkpt lat="45.70268300" lon="4.66528600"><ele></ele><time>2014-4-25T2:19:52Z</time></trkpt>
<trkpt lat="45.70251600" lon="4.66535400"><ele></ele><time>2014-4-25T2:19:55Z</time></trkpt>
<trkpt lat="45.70245100" lon="4.66537200"><ele></ele><time>2014-4-25T2:19:58Z</time></trkpt>
<trkpt lat="45.70168900" lon="4.66551100"><ele></ele><time>2014-4-25T2:20:1Z</time></trkpt>
<trkpt lat="45.70165200" lon="4.66588200"><ele></ele><time>2014-4-25T2:20:4Z</time></trkpt>
<trkpt lat="45.70163400" lon="4.66605300"><ele></ele><time>2014-4-25T2:20:7Z</time></trkpt>
<trkpt lat="45.70138500" lon="4.66624600"><ele></ele><time>2014-4-25T2:20:10Z</time></trkpt>
<trkpt lat="45.70122300" lon="4.66620800"><ele></ele><time>2014-4-25T2:20:13Z</time></trkpt>
<trkpt lat="45.70114400" lon="4.66622100"><ele></ele><time>2014-4-25T2:20:16Z</time></trkpt>
<trkpt lat="45.70095800" lon="4.66648400"><ele></ele><time>2014-4-25T2:20:19Z</time></trkpt>
<trkpt lat="45.70094200" lon="4.66654700"><ele></ele><time>2014-4-25T2:20:22Z</time></trkpt>
<trkpt lat="45.70093400" lon="4.66659100"><ele></ele><time>2014-4-25T2:20:25Z</time></trkpt>
<trkpt lat="45.70084400" lon="4.66710200"><ele></ele><time>2014-4-25T2:20:28Z</time></trkpt>
<trkpt lat="45.70073500" lon="4.66740600"><ele></ele><time>2014-4-25T2:20:31Z</time></trkpt>
<trkpt lat="45.70035400" lon="4.66828700"><ele></ele><time>2014-4-25T2:20:34Z</time></trkpt>
<trkpt lat="45.70023900" lon="4.66849700"><ele></ele><time>2014-4-25T2:20:37Z</time></trkpt>
<trkpt lat="45.70003400" lon="4.66851100"><ele></ele><time>2014-4-25T2:20:40Z</time></trkpt>
<trkpt lat="45.70001700" lon="4.66842100"><ele></ele><time>2014-4-25T2:20:43Z</time></trkpt>
<trkpt lat="45.69983200" lon="4.66749700"><ele></ele><time>2014-4-25T2:20:46Z</time></trkpt>
<trkpt lat="45.69963800" lon="4.66659100"><ele></ele><time>2014-4-25T2:20:49Z</time></trkpt>
<trkpt lat="45.69945900" lon="4.66576500"><ele></ele><time>2014-4-25T2:20:52Z</time></trkpt>
<trkpt lat="45.69932000" lon="4.66512300"><ele></ele><time>2014-4-25T2:20:55Z</time></trkpt>
<trkpt lat="45.69918600" lon="4.66449900"><ele></ele><time>2014-4-25T2:20:58Z</time></trkpt>
<trkpt lat="45.69899500" lon="4.66374200"><ele></ele><time>2014-4-25T2:21:1Z</time></trkpt>
<trkpt lat="45.69870800" lon="4.66293300"><ele></ele><time>2014-4-25T2:21:4Z</time></trkpt>
<trkpt lat="45.69847200" lon="4.66201900"><ele></ele><time>2014-4-25T2:21:7Z</time></trkpt>
<trkpt lat="45.69848100" lon="4.66164400"><ele></ele><time>2014-4-25T2:21:10Z</time></trkpt>
<trkpt lat="45.69851800" lon="4.66114200"><ele></ele><time>2014-4-25T2:21:13Z</time></trkpt>
<trkpt lat="45.69858400" lon="4.66077700"><ele></ele><time>2014-4-25T2:21:16Z</time></trkpt>
<trkpt lat="45.69866600" lon="4.66030600"><ele></ele><time>2014-4-25T2:21:19Z</time></trkpt>
<trkpt lat="45.69871900" lon="4.65973400"><ele></ele><time>2014-4-25T2:21:22Z</time></trkpt>
<trkpt lat="45.69876900" lon="4.65919000"><ele></ele><time>2014-4-25T2:21:25Z</time></trkpt>
<trkpt lat="45.69886400" lon="4.65770300"><ele></ele><time>2014-4-25T2:21:28Z</time></trkpt>
<trkpt lat="45.69888100" lon="4.65718400"><ele></ele><time>2014-4-25T2:21:31Z</time></trkpt>
<trkpt lat="45.69888700" lon="4.65703200"><ele></ele><time>2014-4-25T2:21:34Z</time></trkpt>
<trkpt lat="45.69890700" lon="4.65683200"><ele></ele><time>2014-4-25T2:21:37Z</time></trkpt>
<trkpt lat="45.69885400" lon="4.65674000"><ele></ele><time>2014-4-25T2:21:40Z</time></trkpt>
<trkpt lat="45.69854700" lon="4.65671200"><ele></ele><time>2014-4-25T2:21:43Z</time></trkpt>
<trkpt lat="45.69835500" lon="4.65652000"><ele></ele><time>2014-4-25T2:21:46Z</time></trkpt>
<trkpt lat="45.69810800" lon="4.65604100"><ele></ele><time>2014-4-25T2:21:49Z</time></trkpt>
<trkpt lat="45.69809900" lon="4.65588000"><ele></ele><time>2014-4-25T2:21:52Z</time></trkpt>
<trkpt lat="45.69809100" lon="4.65580000"><ele></ele><time>2014-4-25T2:21:55Z</time></trkpt>
<trkpt lat="45.69803800" lon="4.65559200"><ele></ele><time>2014-4-25T2:21:58Z</time></trkpt>
<trkpt lat="45.69801900" lon="4.65551400"><ele></ele><time>2014-4-25T2:22:1Z</time></trkpt>
<trkpt lat="45.69794300" lon="4.65515300"><ele></ele><time>2014-4-25T2:22:4Z</time></trkpt>
<trkpt lat="45.69784600" lon="4.65489000"><ele></ele><time>2014-4-25T2:22:7Z</time></trkpt>
<trkpt lat="45.69775300" lon="4.65462500"><ele></ele><time>2014-4-25T2:22:10Z</time></trkpt>
<trkpt lat="45.69769000" lon="4.65444100"><ele></ele><time>2014-4-25T2:22:13Z</time></trkpt>
<trkpt lat="45.69762300" lon="4.65422600"><ele></ele><time>2014-4-25T2:22:16Z</time></trkpt>
<trkpt lat="45.69759700" lon="4.65405200"><ele></ele><time>2014-4-25T2:22:19Z</time></trkpt>
<trkpt lat="45.69757700" lon="4.65375300"><ele></ele><time>2014-4-25T2:22:22Z</time></trkpt>
<trkpt lat="45.69755700" lon="4.65348700"><ele></ele><time>2014-4-25T2:22:25Z</time></trkpt>
<trkpt lat="45.69759600" lon="4.65320300"><ele></ele><time>2014-4-25T2:22:28Z</time></trkpt>
<trkpt lat="45.69756200" lon="4.65301400"><ele></ele><time>2014-4-25T2:22:31Z</time></trkpt>
<trkpt lat="45.69742400" lon="4.65288700"><ele></ele><time>2014-4-25T2:22:34Z</time></trkpt>
<trkpt lat="45.69734400" lon="4.65267300"><ele></ele><time>2014-4-25T2:22:37Z</time></trkpt>
<trkpt lat="45.69722900" lon="4.65250500"><ele></ele><time>2014-4-25T2:22:40Z</time></trkpt>
<trkpt lat="45.69718400" lon="4.65239600"><ele></ele><time>2014-4-25T2:22:43Z</time></trkpt>
<trkpt lat="45.69716000" lon="4.65216700"><ele></ele><time>2014-4-25T2:22:46Z</time></trkpt>
<trkpt lat="45.69719500" lon="4.65196500"><ele></ele><time>2014-4-25T2:22:49Z</time></trkpt>
<trkpt lat="45.69725700" lon="4.65171100"><ele></ele><time>2014-4-25T2:22:52Z</time></trkpt>
<trkpt lat="45.69735600" lon="4.65136900"><ele></ele><time>2014-4-25T2:22:55Z</time></trkpt>
<trkpt lat="45.69760900" lon="4.65075600"><ele></ele><time>2014-4-25T2:22:58Z</time></trkpt>
<trkpt lat="45.69761200" lon="4.65069200"><ele></ele><time>2014-4-25T2:23:1Z</time></trkpt>
<trkpt lat="45.69756000" lon="4.65061900"><ele></ele><time>2014-4-25T2:23:4Z</time></trkpt>
<trkpt lat="45.69734900" lon="4.65052400"><ele></ele><time>2014-4-25T2:23:7Z</time></trkpt>
<trkpt lat="45.69726600" lon="4.65027800"><ele></ele><time>2014-4-25T2:23:10Z</time></trkpt>
<trkpt lat="45.69724900" lon="4.65002800"><ele></ele><time>2014-4-25T2:23:13Z</time></trkpt>
<trkpt lat="45.69695300" lon="4.64857200"><ele></ele><time>2014-4-25T2:23:16Z</time></trkpt>
<trkpt lat="45.69688300" lon="4.64776700"><ele></ele><time>2014-4-25T2:23:19Z</time></trkpt>
<trkpt lat="45.69699100" lon="4.64669100"><ele></ele><time>2014-4-25T2:23:22Z</time></trkpt>
<trkpt lat="45.69718800" lon="4.64619500"><ele></ele><time>2014-4-25T2:23:25Z</time></trkpt>
<trkpt lat="45.69740400" lon="4.64574800"><ele></ele><time>2014-4-25T2:23:28Z</time></trkpt>
<trkpt lat="45.69794500" lon="4.64504300"><ele></ele><time>2014-4-25T2:23:31Z</time></trkpt>
<trkpt lat="45.69795400" lon="4.64456300"><ele></ele><time>2014-4-25T2:23:34Z</time></trkpt>
<trkpt lat="45.69769900" lon="4.64447000"><ele></ele><time>2014-4-25T2:23:37Z</time></trkpt>
<trkpt lat="45.69736800" lon="4.64438700"><ele></ele><time>2014-4-25T2:23:40Z</time></trkpt>
<trkpt lat="45.69708000" lon="4.64394900"><ele></ele><time>2014-4-25T2:23:43Z</time></trkpt>
<trkpt lat="45.69705800" lon="4.64390300"><ele></ele><time>2014-4-25T2:23:46Z</time></trkpt>
<trkpt lat="45.69703100" lon="4.64356000"><ele></ele><time>2014-4-25T2:23:49Z</time></trkpt>
<trkpt lat="45.69703900" lon="4.64333000"><ele></ele><time>2014-4-25T2:23:52Z</time></trkpt>
<trkpt lat="45.69718100" lon="4.64272700"><ele></ele><time>2014-4-25T2:23:55Z</time></trkpt>
<trkpt lat="45.69725000" lon="4.64245200"><ele></ele><time>2014-4-25T2:23:58Z</time></trkpt>
<trkpt lat="45.69756200" lon="4.64218200"><ele></ele><time>2014-4-25T2:24:1Z</time></trkpt>
<trkpt lat="45.69763300" lon="4.64210000"><ele></ele><time>2014-4-25T2:24:4Z</time></trkpt>
<trkpt lat="45.69776000" lon="4.64192900"><ele></ele><time>2014-4-25T2:24:7Z</time></trkpt>
<trkpt lat="45.69790800" lon="4.64167800"><ele></ele><time>2014-4-25T2:24:10Z</time></trkpt>
<trkpt lat="45.69804600" lon="4.64118200"><ele></ele><time>2014-4-25T2:24:13Z</time></trkpt>
<trkpt lat="45.69772000" lon="4.64067000"><ele></ele><time>2014-4-25T2:24:16Z</time></trkpt>
<trkpt lat="45.69765100" lon="4.64005500"><ele></ele><time>2014-4-25T2:24:19Z</time></trkpt>
<trkpt lat="45.69775600" lon="4.63973700"><ele></ele><time>2014-4-25T2:24:22Z</time></trkpt>
<trkpt lat="45.69792800" lon="4.63939300"><ele></ele><time>2014-4-25T2:24:25Z</time></trkpt>
<trkpt lat="45.69783600" lon="4.63919200"><ele></ele><time>2014-4-25T2:24:28Z</time></trkpt>
<trkpt lat="45.69773000" lon="4.63915100"><ele></ele><time>2014-4-25T2:24:31Z</time></trkpt>
<trkpt lat="45.69757700" lon="4.63909200"><ele></ele><time>2014-4-25T2:24:34Z</time></trkpt>
<trkpt lat="45.69739700" lon="4.63905900"><ele></ele><time>2014-4-25T2:24:37Z</time></trkpt>
<trkpt lat="45.69754700" lon="4.63908000"><ele></ele><time>2014-4-25T2:24:40Z</time></trkpt>
<trkpt lat="45.69761000" lon="4.63884200"><ele></ele><time>2014-4-25T2:24:43Z</time></trkpt>
<trkpt lat="45.69770600" lon="4.63869900"><ele></ele><time>2014-4-25T2:24:46Z</time></trkpt>
<trkpt lat="45.69772500" lon="4.63858000"><ele></ele><time>2014-4-25T2:24:49Z</time></trkpt>
<trkpt lat="45.69763800" lon="4.63817100"><ele></ele><time>2014-4-25T2:24:52Z</time></trkpt>
<trkpt lat="45.69768600" lon="4.63796200"><ele></ele><time>2014-4-25T2:24:55Z</time></trkpt>
<trkpt lat="45.69785100" lon="4.63776300"><ele></ele><time>2014-4-25T2:24:58Z</time></trkpt>
<trkpt lat="45.69799300" lon="4.63744100"><ele></ele><time>2014-4-25T2:25:1Z</time></trkpt>
<trkpt lat="45.69816200" lon="4.63712900"><ele></ele><time>2014-4-25T2:25:4Z</time></trkpt>
<trkpt lat="45.69835000" lon="4.63680100"><ele></ele><time>2014-4-25T2:25:7Z</time></trkpt>
<trkpt lat="45.69842500" lon="4.63642700"><ele></ele><time>2014-4-25T2:25:10Z</time></trkpt>
<trkpt lat="45.69848900" lon="4.63610000"><ele></ele><time>2014-4-25T2:25:13Z</time></trkpt>
<trkpt lat="45.69856500" lon="4.63578300"><ele></ele><time>2014-4-25T2:25:16Z</time></trkpt>
<trkpt lat="45.69869800" lon="4.63541200"><ele></ele><time>2014-4-25T2:25:19Z</time></trkpt>
<trkpt lat="45.69871000" lon="4.63517400"><ele></ele><time>2014-4-25T2:25:22Z</time></trkpt>
<trkpt lat="45.69865200" lon="4.63480700"><ele></ele><time>2014-4-25T2:25:25Z</time></trkpt>
<trkpt lat="45.69867600" lon="4.63466000"><ele></ele><time>2014-4-25T2:25:28Z</time></trkpt>
<trkpt lat="45.69868300" lon="4.63435800"><ele></ele><time>2014-4-25T2:25:31Z</time></trkpt>
<trkpt lat="45.69855900" lon="4.63397200"><ele></ele><time>2014-4-25T2:25:34Z</time></trkpt>
<trkpt lat="45.69828300" lon="4.63371600"><ele></ele><time>2014-4-25T2:25:37Z</time></trkpt>
<trkpt lat="45.69803300" lon="4.63338500"><ele></ele><time>2014-4-25T2:25:40Z</time></trkpt>
<trkpt lat="45.69797400" lon="4.63301900"><ele></ele><time>2014-4-25T2:25:43Z</time></trkpt>
<trkpt lat="45.69798400" lon="4.63273000"><ele></ele><time>2014-4-25T2:25:46Z</time></trkpt>
<trkpt lat="45.69799400" lon="4.63245500"><ele></ele><time>2014-4-25T2:25:49Z</time></trkpt>
<trkpt lat="45.69804700" lon="4.63213300"><ele></ele><time>2014-4-25T2:25:52Z</time></trkpt>
<trkpt lat="45.69813300" lon="4.63181000"><ele></ele><time>2014-4-25T2:25:55Z</time></trkpt>
<trkpt lat="45.69824900" lon="4.63155500"><ele></ele><time>2014-4-25T2:25:58Z</time></trkpt>
<trkpt lat="45.69836700" lon="4.63130300"><ele></ele><time>2014-4-25T2:26:1Z</time></trkpt>
<trkpt lat="45.69850200" lon="4.63116400"><ele></ele><time>2014-4-25T2:26:4Z</time></trkpt>
<trkpt lat="45.69861200" lon="4.63096200"><ele></ele><time>2014-4-25T2:26:7Z</time></trkpt>
<trkpt lat="45.69871400" lon="4.63082400"><ele></ele><time>2014-4-25T2:26:10Z</time></trkpt>
<trkpt lat="45.69883800" lon="4.63059800"><ele></ele><time>2014-4-25T2:26:13Z</time></trkpt>
<trkpt lat="45.69900900" lon="4.63036000"><ele></ele><time>2014-4-25T2:26:16Z</time></trkpt>
<trkpt lat="45.69914100" lon="4.63022500"><ele></ele><time>2014-4-25T2:26:19Z</time></trkpt>
<trkpt lat="45.69923000" lon="4.63010400"><ele></ele><time>2014-4-25T2:26:22Z</time></trkpt>
<trkpt lat="45.69935100" lon="4.63004700"><ele></ele><time>2014-4-25T2:26:25Z</time></trkpt>
<trkpt lat="45.69988000" lon="4.63003300"><ele></ele><time>2014-4-25T2:26:28Z</time></trkpt>
<trkpt lat="45.70000400" lon="4.62999300"><ele></ele><time>2014-4-25T2:26:31Z</time></trkpt>
<trkpt lat="45.70023900" lon="4.62988300"><ele></ele><time>2014-4-25T2:26:34Z</time></trkpt>
<trkpt lat="45.70047100" lon="4.62975500"><ele></ele><time>2014-4-25T2:26:37Z</time></trkpt>
<trkpt lat="45.70070300" lon="4.62965400"><ele></ele><time>2014-4-25T2:26:40Z</time></trkpt>
<trkpt lat="45.70093500" lon="4.62954900"><ele></ele><time>2014-4-25T2:26:43Z</time></trkpt>
<trkpt lat="45.70131200" lon="4.62919800"><ele></ele><time>2014-4-25T2:26:46Z</time></trkpt>
<trkpt lat="45.70172600" lon="4.62865500"><ele></ele><time>2014-4-25T2:26:49Z</time></trkpt>
<trkpt lat="45.70189800" lon="4.62839200"><ele></ele><time>2014-4-25T2:26:52Z</time></trkpt>
<trkpt lat="45.70208300" lon="4.62817100"><ele></ele><time>2014-4-25T2:26:55Z</time></trkpt>
<trkpt lat="45.70225800" lon="4.62798200"><ele></ele><time>2014-4-25T2:26:58Z</time></trkpt>
<trkpt lat="45.70245900" lon="4.62769400"><ele></ele><time>2014-4-25T2:27:1Z</time></trkpt>
<trkpt lat="45.70264000" lon="4.62730500"><ele></ele><time>2014-4-25T2:27:4Z</time></trkpt>
<trkpt lat="45.70281200" lon="4.62687600"><ele></ele><time>2014-4-25T2:27:7Z</time></trkpt>
<trkpt lat="45.70289800" lon="4.62662800"><ele></ele><time>2014-4-25T2:27:10Z</time></trkpt>
<trkpt lat="45.70304400" lon="4.62625400"><ele></ele><time>2014-4-25T2:27:13Z</time></trkpt>
<trkpt lat="45.70310200" lon="4.62610800"><ele></ele><time>2014-4-25T2:27:16Z</time></trkpt>
<trkpt lat="45.70324000" lon="4.62594600"><ele></ele><time>2014-4-25T2:27:19Z</time></trkpt>
<trkpt lat="45.70336900" lon="4.62591000"><ele></ele><time>2014-4-25T2:27:22Z</time></trkpt>
<trkpt lat="45.70344200" lon="4.62592800"><ele></ele><time>2014-4-25T2:27:25Z</time></trkpt>
<trkpt lat="45.70347300" lon="4.62599900"><ele></ele><time>2014-4-25T2:27:28Z</time></trkpt>
<trkpt lat="45.70341800" lon="4.62662500"><ele></ele><time>2014-4-25T2:27:31Z</time></trkpt>
<trkpt lat="45.70333800" lon="4.62698700"><ele></ele><time>2014-4-25T2:27:34Z</time></trkpt>
<trkpt lat="45.70316200" lon="4.62750700"><ele></ele><time>2014-4-25T2:27:37Z</time></trkpt>
<trkpt lat="45.70310200" lon="4.62786100"><ele></ele><time>2014-4-25T2:27:40Z</time></trkpt>
<trkpt lat="45.70314000" lon="4.62839900"><ele></ele><time>2014-4-25T2:27:43Z</time></trkpt>
<trkpt lat="45.70301800" lon="4.62893900"><ele></ele><time>2014-4-25T2:27:46Z</time></trkpt>
<trkpt lat="45.70284600" lon="4.62947500"><ele></ele><time>2014-4-25T2:27:49Z</time></trkpt>
<trkpt lat="45.70264600" lon="4.63004800"><ele></ele><time>2014-4-25T2:27:52Z</time></trkpt>
<trkpt lat="45.70253500" lon="4.63062500"><ele></ele><time>2014-4-25T2:27:55Z</time></trkpt>
<trkpt lat="45.70243300" lon="4.63079300"><ele></ele><time>2014-4-25T2:27:58Z</time></trkpt>
<trkpt lat="45.70219500" lon="4.63116500"><ele></ele><time>2014-4-25T2:28:1Z</time></trkpt>
<trkpt lat="45.70179100" lon="4.63181300"><ele></ele><time>2014-4-25T2:28:4Z</time></trkpt>
<trkpt lat="45.70163200" lon="4.63244900"><ele></ele><time>2014-4-25T2:28:7Z</time></trkpt>
<trkpt lat="45.70171500" lon="4.63276300"><ele></ele><time>2014-4-25T2:28:10Z</time></trkpt>
<trkpt lat="45.70166600" lon="4.63300200"><ele></ele><time>2014-4-25T2:28:13Z</time></trkpt>
<trkpt lat="45.70159200" lon="4.63314800"><ele></ele><time>2014-4-25T2:28:16Z</time></trkpt>
<trkpt lat="45.70154100" lon="4.63340700"><ele></ele><time>2014-4-25T2:28:19Z</time></trkpt>
<trkpt lat="45.70158000" lon="4.63394900"><ele></ele><time>2014-4-25T2:28:22Z</time></trkpt>
<trkpt lat="45.70156500" lon="4.63440100"><ele></ele><time>2014-4-25T2:28:25Z</time></trkpt>
<trkpt lat="45.70153900" lon="4.63496400"><ele></ele><time>2014-4-25T2:28:28Z</time></trkpt>
<trkpt lat="45.70152100" lon="4.63533000"><ele></ele><time>2014-4-25T2:28:31Z</time></trkpt>
<trkpt lat="45.70149700" lon="4.63590700"><ele></ele><time>2014-4-25T2:28:34Z</time></trkpt>
<trkpt lat="45.70149900" lon="4.63603600"><ele></ele><time>2014-4-25T2:28:37Z</time></trkpt>
<trkpt lat="45.70164200" lon="4.63645700"><ele></ele><time>2014-4-25T2:28:40Z</time></trkpt>
<trkpt lat="45.70169800" lon="4.63669100"><ele></ele><time>2014-4-25T2:28:43Z</time></trkpt>
<trkpt lat="45.70183400" lon="4.63697800"><ele></ele><time>2014-4-25T2:28:46Z</time></trkpt>
<trkpt lat="45.70191700" lon="4.63710900"><ele></ele><time>2014-4-25T2:28:49Z</time></trkpt>
<trkpt lat="45.70206600" lon="4.63732100"><ele></ele><time>2014-4-25T2:28:52Z</time></trkpt>
<trkpt lat="45.70216100" lon="4.63749700"><ele></ele><time>2014-4-25T2:28:55Z</time></trkpt>
<trkpt lat="45.70238600" lon="4.63786100"><ele></ele><time>2014-4-25T2:28:58Z</time></trkpt>
<trkpt lat="45.70249000" lon="4.63800600"><ele></ele><time>2014-4-25T2:29:1Z</time></trkpt>
<trkpt lat="45.70261300" lon="4.63826200"><ele></ele><time>2014-4-25T2:29:4Z</time></trkpt>
<trkpt lat="45.70284000" lon="4.63902700"><ele></ele><time>2014-4-25T2:29:7Z</time></trkpt>
<trkpt lat="45.70296800" lon="4.63926300"><ele></ele><time>2014-4-25T2:29:10Z</time></trkpt>
<trkpt lat="45.70307900" lon="4.63937800"><ele></ele><time>2014-4-25T2:29:13Z</time></trkpt>
<trkpt lat="45.70315800" lon="4.64002200"><ele></ele><time>2014-4-25T2:29:16Z</time></trkpt>
<trkpt lat="45.70312200" lon="4.64066200"><ele></ele><time>2014-4-25T2:29:19Z</time></trkpt>
<trkpt lat="45.70302000" lon="4.64126800"><ele></ele><time>2014-4-25T2:29:22Z</time></trkpt>
<trkpt lat="45.70339100" lon="4.64105700"><ele></ele><time>2014-4-25T2:29:25Z</time></trkpt>
<trkpt lat="45.70358800" lon="4.64063400"><ele></ele><time>2014-4-25T2:29:28Z</time></trkpt>
<trkpt lat="45.70372100" lon="4.64001300"><ele></ele><time>2014-4-25T2:29:31Z</time></trkpt>
<trkpt lat="45.70379900" lon="4.63947000"><ele></ele><time>2014-4-25T2:29:34Z</time></trkpt>
<trkpt lat="45.70390600" lon="4.63880000"><ele></ele><time>2014-4-25T2:29:37Z</time></trkpt>
<trkpt lat="45.70391500" lon="4.63897100"><ele></ele><time>2014-4-25T2:29:40Z</time></trkpt>
<trkpt lat="45.70392900" lon="4.63924600"><ele></ele><time>2014-4-25T2:29:43Z</time></trkpt>
<trkpt lat="45.70399800" lon="4.64025100"><ele></ele><time>2014-4-25T2:29:46Z</time></trkpt>
<trkpt lat="45.70403600" lon="4.64059900"><ele></ele><time>2014-4-25T2:29:49Z</time></trkpt>
<trkpt lat="45.70423000" lon="4.64139600"><ele></ele><time>2014-4-25T2:29:52Z</time></trkpt>
<trkpt lat="45.70427900" lon="4.64204400"><ele></ele><time>2014-4-25T2:29:55Z</time></trkpt>
<trkpt lat="45.70427500" lon="4.64231100"><ele></ele><time>2014-4-25T2:29:58Z</time></trkpt>
<trkpt lat="45.70417200" lon="4.64284800"><ele></ele><time>2014-4-25T2:30:1Z</time></trkpt>
<trkpt lat="45.70393200" lon="4.64357500"><ele></ele><time>2014-4-25T2:30:4Z</time></trkpt>
<trkpt lat="45.70390200" lon="4.64364500"><ele></ele><time>2014-4-25T2:30:7Z</time></trkpt>
<trkpt lat="45.70345300" lon="4.64438700"><ele></ele><time>2014-4-25T2:30:10Z</time></trkpt>
<trkpt lat="45.70317900" lon="4.64475800"><ele></ele><time>2014-4-25T2:30:13Z</time></trkpt>
<trkpt lat="45.70312300" lon="4.64482200"><ele></ele><time>2014-4-25T2:30:16Z</time></trkpt>
<trkpt lat="45.70282800" lon="4.64508800"><ele></ele><time>2014-4-25T2:30:19Z</time></trkpt>
<trkpt lat="45.70270000" lon="4.64514500"><ele></ele><time>2014-4-25T2:30:22Z</time></trkpt>
<trkpt lat="45.70257200" lon="4.64555300"><ele></ele><time>2014-4-25T2:30:25Z</time></trkpt>
<trkpt lat="45.70226600" lon="4.64618200"><ele></ele><time>2014-4-25T2:30:28Z</time></trkpt>
<trkpt lat="45.70192200" lon="4.64648900"><ele></ele><time>2014-4-25T2:30:31Z</time></trkpt>
<trkpt lat="45.70159800" lon="4.64692500"><ele></ele><time>2014-4-25T2:30:34Z</time></trkpt>
<trkpt lat="45.70121400" lon="4.64731100"><ele></ele><time>2014-4-25T2:30:37Z</time></trkpt>
<trkpt lat="45.70094800" lon="4.64758800"><ele></ele><time>2014-4-25T2:30:40Z</time></trkpt>
<trkpt lat="45.70078900" lon="4.64768700"><ele></ele><time>2014-4-25T2:30:43Z</time></trkpt>
<trkpt lat="45.70049300" lon="4.64786400"><ele></ele><time>2014-4-25T2:30:46Z</time></trkpt>
<trkpt lat="45.70030500" lon="4.64816900"><ele></ele><time>2014-4-25T2:30:49Z</time></trkpt>
<trkpt lat="45.70001500" lon="4.64864200"><ele></ele><time>2014-4-25T2:30:52Z</time></trkpt>
<trkpt lat="45.69969600" lon="4.64896700"><ele></ele><time>2014-4-25T2:30:55Z</time></trkpt>
<trkpt lat="45.69909600" lon="4.64935700"><ele></ele><time>2014-4-25T2:30:58Z</time></trkpt>
<trkpt lat="45.69846200" lon="4.64952300"><ele></ele><time>2014-4-25T2:31:1Z</time></trkpt>
<trkpt lat="45.69804900" lon="4.64992300"><ele></ele><time>2014-4-25T2:31:4Z</time></trkpt>
<trkpt lat="45.69767700" lon="4.65051700"><ele></ele><time>2014-4-25T2:31:7Z</time></trkpt>
<trkpt lat="45.69845900" lon="4.65077500"><ele></ele><time>2014-4-25T2:31:10Z</time></trkpt>
<trkpt lat="45.69940500" lon="4.65071800"><ele></ele><time>2014-4-25T2:31:13Z</time></trkpt>
<trkpt lat="45.70026100" lon="4.65069000"><ele></ele><time>2014-4-25T2:31:16Z</time></trkpt>
<trkpt lat="45.70098100" lon="4.65068800"><ele></ele><time>2014-4-25T2:31:19Z</time></trkpt>
<trkpt lat="45.70153400" lon="4.65006900"><ele></ele><time>2014-4-25T2:31:22Z</time></trkpt>
<trkpt lat="45.70170600" lon="4.64933800"><ele></ele><time>2014-4-25T2:31:25Z</time></trkpt>
<trkpt lat="45.70211100" lon="4.64935500"><ele></ele><time>2014-4-25T2:31:28Z</time></trkpt>
<trkpt lat="45.70225700" lon="4.64881500"><ele></ele><time>2014-4-25T2:31:31Z</time></trkpt>
<trkpt lat="45.70282600" lon="4.64851800"><ele></ele><time>2014-4-25T2:31:34Z</time></trkpt>
<trkpt lat="45.70302900" lon="4.64826100"><ele></ele><time>2014-4-25T2:31:37Z</time></trkpt>
<trkpt lat="45.70319400" lon="4.64769600"><ele></ele><time>2014-4-25T2:31:40Z</time></trkpt>
<trkpt lat="45.70337200" lon="4.64767900"><ele></ele><time>2014-4-25T2:31:43Z</time></trkpt>
<trkpt lat="45.70356200" lon="4.64774600"><ele></ele><time>2014-4-25T2:31:46Z</time></trkpt>
<trkpt lat="45.70389200" lon="4.64808100"><ele></ele><time>2014-4-25T2:31:49Z</time></trkpt>
<trkpt lat="45.70395200" lon="4.64843700"><ele></ele><time>2014-4-25T2:31:52Z</time></trkpt>
<trkpt lat="45.70396500" lon="4.64892600"><ele></ele><time>2014-4-25T2:31:55Z</time></trkpt>
<trkpt lat="45.70409400" lon="4.64923700"><ele></ele><time>2014-4-25T2:31:58Z</time></trkpt>
<trkpt lat="45.70419100" lon="4.64945400"><ele></ele><time>2014-4-25T2:32:1Z</time></trkpt>
<trkpt lat="45.70432700" lon="4.64989700"><ele></ele><time>2014-4-25T2:32:4Z</time></trkpt>
<trkpt lat="45.70436300" lon="4.65034900"><ele></ele><time>2014-4-25T2:32:7Z</time></trkpt>
<trkpt lat="45.70426000" lon="4.65095400"><ele></ele><time>2014-4-25T2:32:10Z</time></trkpt>
<trkpt lat="45.70432100" lon="4.65128800"><ele></ele><time>2014-4-25T2:32:13Z</time></trkpt>
<trkpt lat="45.70445400" lon="4.65176800"><ele></ele><time>2014-4-25T2:32:16Z</time></trkpt>
<trkpt lat="45.70454400" lon="4.65191700"><ele></ele><time>2014-4-25T2:32:19Z</time></trkpt>
<trkpt lat="45.70470400" lon="4.65227600"><ele></ele><time>2014-4-25T2:32:22Z</time></trkpt>
<trkpt lat="45.70491800" lon="4.65270400"><ele></ele><time>2014-4-25T2:32:25Z</time></trkpt>
<trkpt lat="45.70521000" lon="4.65312700"><ele></ele><time>2014-4-25T2:32:28Z</time></trkpt>
<trkpt lat="45.70530400" lon="4.65323900"><ele></ele><time>2014-4-25T2:32:31Z</time></trkpt>
<trkpt lat="45.70540800" lon="4.65332300"><ele></ele><time>2014-4-25T2:32:34Z</time></trkpt>
<trkpt lat="45.70560400" lon="4.65347600"><ele></ele><time>2014-4-25T2:32:37Z</time></trkpt>
<trkpt lat="45.70589800" lon="4.65373800"><ele></ele><time>2014-4-25T2:32:40Z</time></trkpt>
<trkpt lat="45.70610500" lon="4.65424400"><ele></ele><time>2014-4-25T2:32:43Z</time></trkpt>
<trkpt lat="45.70634200" lon="4.65476700"><ele></ele><time>2014-4-25T2:32:46Z</time></trkpt>
<trkpt lat="45.70642500" lon="4.65509200"><ele></ele><time>2014-4-25T2:32:49Z</time></trkpt>
<trkpt lat="45.70668700" lon="4.65522000"><ele></ele><time>2014-4-25T2:32:52Z</time></trkpt>
<trkpt lat="45.70676200" lon="4.65512600"><ele></ele><time>2014-4-25T2:32:55Z</time></trkpt>
<trkpt lat="45.70666900" lon="4.65469100"><ele></ele><time>2014-4-25T2:32:58Z</time></trkpt>
<trkpt lat="45.70675700" lon="4.65446500"><ele></ele><time>2014-4-25T2:33:1Z</time></trkpt>
<trkpt lat="45.70678700" lon="4.65409400"><ele></ele><time>2014-4-25T2:33:4Z</time></trkpt>
<trkpt lat="45.70669400" lon="4.65381900"><ele></ele><time>2014-4-25T2:33:7Z</time></trkpt>
<trkpt lat="45.70674200" lon="4.65368000"><ele></ele><time>2014-4-25T2:33:10Z</time></trkpt>
<trkpt lat="45.70695000" lon="4.65319100"><ele></ele><time>2014-4-25T2:33:13Z</time></trkpt>
<trkpt lat="45.70708400" lon="4.65264000"><ele></ele><time>2014-4-25T2:33:16Z</time></trkpt>
<trkpt lat="45.70725300" lon="4.65234000"><ele></ele><time>2014-4-25T2:33:19Z</time></trkpt>
<trkpt lat="45.70754100" lon="4.65250000"><ele></ele><time>2014-4-25T2:33:22Z</time></trkpt>
<trkpt lat="45.70798300" lon="4.65291700"><ele></ele><time>2014-4-25T2:33:25Z</time></trkpt>
<trkpt lat="45.70833500" lon="4.65286400"><ele></ele><time>2014-4-25T2:33:28Z</time></trkpt>
<trkpt lat="45.70861700" lon="4.65294000"><ele></ele><time>2014-4-25T2:33:31Z</time></trkpt>
<trkpt lat="45.70897900" lon="4.65301000"><ele></ele><time>2014-4-25T2:33:34Z</time></trkpt>
<trkpt lat="45.70928500" lon="4.65321700"><ele></ele><time>2014-4-25T2:33:37Z</time></trkpt>
<trkpt lat="45.70963300" lon="4.65347200"><ele></ele><time>2014-4-25T2:33:40Z</time></trkpt>
<trkpt lat="45.70983500" lon="4.65390200"><ele></ele><time>2014-4-25T2:33:43Z</time></trkpt>
<trkpt lat="45.71011300" lon="4.65412200"><ele></ele><time>2014-4-25T2:33:46Z</time></trkpt>
<trkpt lat="45.71037900" lon="4.65419500"><ele></ele><time>2014-4-25T2:33:49Z</time></trkpt>
<trkpt lat="45.71052900" lon="4.65416800"><ele></ele><time>2014-4-25T2:33:52Z</time></trkpt>
<trkpt lat="45.71059900" lon="4.65429200"><ele></ele><time>2014-4-25T2:33:55Z</time></trkpt>
<trkpt lat="45.71075200" lon="4.65453400"><ele></ele><time>2014-4-25T2:33:58Z</time></trkpt>
<trkpt lat="45.71098100" lon="4.65489600"><ele></ele><time>2014-4-25T2:34:1Z</time></trkpt>
<trkpt lat="45.71110000" lon="4.65508600"><ele></ele><time>2014-4-25T2:34:4Z</time></trkpt>
<trkpt lat="45.71173800" lon="4.65616100"><ele></ele><time>2014-4-25T2:34:7Z</time></trkpt>
<trkpt lat="45.71222200" lon="4.65707100"><ele></ele><time>2014-4-25T2:34:10Z</time></trkpt>
<trkpt lat="45.71246200" lon="4.65757000"><ele></ele><time>2014-4-25T2:34:13Z</time></trkpt>
<trkpt lat="45.71264600" lon="4.65773000"><ele></ele><time>2014-4-25T2:34:16Z</time></trkpt>
<trkpt lat="45.71289500" lon="4.65786200"><ele></ele><time>2014-4-25T2:34:19Z</time></trkpt>
<trkpt lat="45.71298700" lon="4.65795200"><ele></ele><time>2014-4-25T2:34:22Z</time></trkpt>
<trkpt lat="45.71317000" lon="4.65817900"><ele></ele><time>2014-4-25T2:34:25Z</time></trkpt>
<trkpt lat="45.71333600" lon="4.65840900"><ele></ele><time>2014-4-25T2:34:28Z</time></trkpt>
<trkpt lat="45.71354500" lon="4.65866500"><ele></ele><time>2014-4-25T2:34:31Z</time></trkpt>
<trkpt lat="45.71370500" lon="4.65882200"><ele></ele><time>2014-4-25T2:34:34Z</time></trkpt>
<trkpt lat="45.71398200" lon="4.65906900"><ele></ele><time>2014-4-25T2:34:37Z</time></trkpt>
<trkpt lat="45.71415300" lon="4.65921400"><ele></ele><time>2014-4-25T2:34:40Z</time></trkpt>
<trkpt lat="45.71442300" lon="4.65944100"><ele></ele><time>2014-4-25T2:34:43Z</time></trkpt>
<trkpt lat="45.71464000" lon="4.65962100"><ele></ele><time>2014-4-25T2:34:46Z</time></trkpt>
<trkpt lat="45.71490600" lon="4.65988600"><ele></ele><time>2014-4-25T2:34:49Z</time></trkpt>
<trkpt lat="45.71511100" lon="4.66011900"><ele></ele><time>2014-4-25T2:34:52Z</time></trkpt>
<trkpt lat="45.71556000" lon="4.66058400"><ele></ele><time>2014-4-25T2:34:55Z</time></trkpt>
<trkpt lat="45.71577600" lon="4.66097900"><ele></ele><time>2014-4-25T2:34:58Z</time></trkpt>
<trkpt lat="45.71610400" lon="4.66147400"><ele></ele><time>2014-4-25T2:35:1Z</time></trkpt>
<trkpt lat="45.71638900" lon="4.66184000"><ele></ele><time>2014-4-25T2:35:4Z</time></trkpt>
<trkpt lat="45.71647400" lon="4.66206800"><ele></ele><time>2014-4-25T2:35:7Z</time></trkpt>
<trkpt lat="45.71634800" lon="4.66270500"><ele></ele><time>2014-4-25T2:35:10Z</time></trkpt>
<trkpt lat="45.71606400" lon="4.66340000"><ele></ele><time>2014-4-25T2:35:13Z</time></trkpt>
<trkpt lat="45.71569800" lon="4.66401600"><ele></ele><time>2014-4-25T2:35:16Z</time></trkpt>
<trkpt lat="45.71489000" lon="4.66484400"><ele></ele><time>2014-4-25T2:35:19Z</time></trkpt>
<trkpt lat="45.71471700" lon="4.66495900"><ele></ele><time>2014-4-25T2:35:22Z</time></trkpt>
<trkpt lat="45.71396200" lon="4.66542700"><ele></ele><time>2014-4-25T2:35:25Z</time></trkpt>
<trkpt lat="45.71318000" lon="4.66575100"><ele></ele><time>2014-4-25T2:35:28Z</time></trkpt>
<trkpt lat="45.71241100" lon="4.66594300"><ele></ele><time>2014-4-25T2:35:31Z</time></trkpt>
<trkpt lat="45.71147500" lon="4.66657800"><ele></ele><time>2014-4-25T2:35:34Z</time></trkpt>
<trkpt lat="45.71060500" lon="4.66643900"><ele></ele><time>2014-4-25T2:35:37Z</time></trkpt>
<trkpt lat="45.71029900" lon="4.66657600"><ele></ele><time>2014-4-25T2:35:40Z</time></trkpt>
<trkpt lat="45.71003000" lon="4.66660000"><ele></ele><time>2014-4-25T2:35:43Z</time></trkpt>
<trkpt lat="45.70982800" lon="4.66664400"><ele></ele><time>2014-4-25T2:35:46Z</time></trkpt>
<trkpt lat="45.70942100" lon="4.66693200"><ele></ele><time>2014-4-25T2:35:49Z</time></trkpt>
<trkpt lat="45.70886800" lon="4.66732000"><ele></ele><time>2014-4-25T2:35:52Z</time></trkpt>
<trkpt lat="45.70805400" lon="4.66793200"><ele></ele><time>2014-4-25T2:35:55Z</time></trkpt>
<trkpt lat="45.70822400" lon="4.66805000"><ele></ele><time>2014-4-25T2:35:58Z</time></trkpt>
<trkpt lat="45.70842400" lon="4.66816600"><ele></ele><time>2014-4-25T2:36:1Z</time></trkpt>
<trkpt lat="45.70866200" lon="4.66828400"><ele></ele><time>2014-4-25T2:36:4Z</time></trkpt>
<trkpt lat="45.70881500" lon="4.66848200"><ele></ele><time>2014-4-25T2:36:7Z</time></trkpt>
<trkpt lat="45.70894700" lon="4.66902300"><ele></ele><time>2014-4-25T2:36:10Z</time></trkpt>
<trkpt lat="45.70908000" lon="4.66955200"><ele></ele><time>2014-4-25T2:36:13Z</time></trkpt>
<trkpt lat="45.70915700" lon="4.66981600"><ele></ele><time>2014-4-25T2:36:16Z</time></trkpt>
<trkpt lat="45.70921800" lon="4.67000800"><ele></ele><time>2014-4-25T2:36:19Z</time></trkpt>
<trkpt lat="45.70937500" lon="4.67047400"><ele></ele><time>2014-4-25T2:36:22Z</time></trkpt>
<trkpt lat="45.70950800" lon="4.67081700"><ele></ele><time>2014-4-25T2:36:25Z</time></trkpt>
<trkpt lat="45.70979700" lon="4.67142700"><ele></ele><time>2014-4-25T2:36:28Z</time></trkpt>
<trkpt lat="45.70968100" lon="4.67155100"><ele></ele><time>2014-4-25T2:36:31Z</time></trkpt>
<trkpt lat="45.70929000" lon="4.67170000"><ele></ele><time>2014-4-25T2:36:34Z</time></trkpt>
<trkpt lat="45.70901500" lon="4.67192600"><ele></ele><time>2014-4-25T2:36:37Z</time></trkpt>
<trkpt lat="45.70903000" lon="4.67207700"><ele></ele><time>2014-4-25T2:36:40Z</time></trkpt>
<trkpt lat="45.70905800" lon="4.67243600"><ele></ele><time>2014-4-25T2:36:43Z</time></trkpt>
<trkpt lat="45.70909100" lon="4.67262600"><ele></ele><time>2014-4-25T2:36:46Z</time></trkpt>
<trkpt lat="45.70924100" lon="4.67303300"><ele></ele><time>2014-4-25T2:36:49Z</time></trkpt>
<trkpt lat="45.70955500" lon="4.67368500"><ele></ele><time>2014-4-25T2:36:52Z</time></trkpt>
<trkpt lat="45.70960300" lon="4.67383500"><ele></ele><time>2014-4-25T2:36:55Z</time></trkpt>
<trkpt lat="45.70959000" lon="4.67459500"><ele></ele><time>2014-4-25T2:36:58Z</time></trkpt>
<trkpt lat="45.70954000" lon="4.67500800"><ele></ele><time>2014-4-25T2:37:1Z</time></trkpt>
<trkpt lat="45.70959000" lon="4.67545700"><ele></ele><time>2014-4-25T2:37:4Z</time></trkpt>
<trkpt lat="45.70965200" lon="4.67579800"><ele></ele><time>2014-4-25T2:37:7Z</time></trkpt>
<trkpt lat="45.70974700" lon="4.67638100"><ele></ele><time>2014-4-25T2:37:10Z</time></trkpt>
<trkpt lat="45.70987800" lon="4.67700300"><ele></ele><time>2014-4-25T2:37:13Z</time></trkpt>
<trkpt lat="45.70992600" lon="4.67724900"><ele></ele><time>2014-4-25T2:37:16Z</time></trkpt>
<trkpt lat="45.71003600" lon="4.67754400"><ele></ele><time>2014-4-25T2:37:19Z</time></trkpt>
<trkpt lat="45.71001600" lon="4.67805300"><ele></ele><time>2014-4-25T2:37:22Z</time></trkpt>
<trkpt lat="45.71006000" lon="4.67864200"><ele></ele><time>2014-4-25T2:37:25Z</time></trkpt>
<trkpt lat="45.70996900" lon="4.67881000"><ele></ele><time>2014-4-25T2:37:28Z</time></trkpt>
<trkpt lat="45.70981400" lon="4.67883000"><ele></ele><time>2014-4-25T2:37:31Z</time></trkpt>
<trkpt lat="45.70969600" lon="4.67885200"><ele></ele><time>2014-4-25T2:37:34Z</time></trkpt>
<trkpt lat="45.70951300" lon="4.67888300"><ele></ele><time>2014-4-25T2:37:37Z</time></trkpt>
<trkpt lat="45.70931800" lon="4.67884200"><ele></ele><time>2014-4-25T2:37:40Z</time></trkpt>
<trkpt lat="45.70896300" lon="4.67866600"><ele></ele><time>2014-4-25T2:37:43Z</time></trkpt>
<trkpt lat="45.70830800" lon="4.67864500"><ele></ele><time>2014-4-25T2:37:46Z</time></trkpt>
<trkpt lat="45.70755900" lon="4.67861600"><ele></ele><time>2014-4-25T2:37:49Z</time></trkpt>
<trkpt lat="45.70684500" lon="4.67841300"><ele></ele><time>2014-4-25T2:37:52Z</time></trkpt>
<trkpt lat="45.70649000" lon="4.67809600"><ele></ele><time>2014-4-25T2:37:55Z</time></trkpt>
<trkpt lat="45.70622200" lon="4.67779400"><ele></ele><time>2014-4-25T2:37:58Z</time></trkpt>
<trkpt lat="45.70602000" lon="4.67759000"><ele></ele><time>2014-4-25T2:38:1Z</time></trkpt>
<trkpt lat="45.70537800" lon="4.67719700"><ele></ele><time>2014-4-25T2:38:4Z</time></trkpt>
<trkpt lat="45.70524300" lon="4.67707200"><ele></ele><time>2014-4-25T2:38:7Z</time></trkpt>
<trkpt lat="45.70515000" lon="4.67698600"><ele></ele><time>2014-4-25T2:38:10Z</time></trkpt>
<trkpt lat="45.70491900" lon="4.67693200"><ele></ele><time>2014-4-25T2:38:13Z</time></trkpt>
<trkpt lat="45.70479400" lon="4.67701000"><ele></ele><time>2014-4-25T2:38:16Z</time></trkpt>
<trkpt lat="45.70477800" lon="4.67733600"><ele></ele><time>2014-4-25T2:38:19Z</time></trkpt>
<trkpt lat="45.70475500" lon="4.67864200"><ele></ele><time>2014-4-25T2:38:22Z</time></trkpt>
<trkpt lat="45.70455900" lon="4.67867400"><ele></ele><time>2014-4-25T2:38:25Z</time></trkpt>
<trkpt lat="45.70429900" lon="4.67867400"><ele></ele><time>2014-4-25T2:38:28Z</time></trkpt>
<trkpt lat="45.70413000" lon="4.67867400"><ele></ele><time>2014-4-25T2:38:31Z</time></trkpt>
<trkpt lat="45.70364000" lon="4.67860900"><ele></ele><time>2014-4-25T2:38:34Z</time></trkpt>
<trkpt lat="45.70315000" lon="4.67700700"><ele></ele><time>2014-4-25T2:38:37Z</time></trkpt>
<trkpt lat="45.70278200" lon="4.67588400"><ele></ele><time>2014-4-25T2:38:40Z</time></trkpt>
<trkpt lat="45.70276100" lon="4.67609300"><ele></ele><time>2014-4-25T2:38:43Z</time></trkpt>
<trkpt lat="45.70244000" lon="4.67689000"><ele></ele><time>2014-4-25T2:38:46Z</time></trkpt>
<trkpt lat="45.70199900" lon="4.67799900"><ele></ele><time>2014-4-25T2:38:49Z</time></trkpt>
<trkpt lat="45.70160100" lon="4.67940900"><ele></ele><time>2014-4-25T2:38:52Z</time></trkpt>
<trkpt lat="45.70135400" lon="4.67971800"><ele></ele><time>2014-4-25T2:38:55Z</time></trkpt>
<trkpt lat="45.70121000" lon="4.67995900"><ele></ele><time>2014-4-25T2:38:58Z</time></trkpt>
<trkpt lat="45.70098800" lon="4.68024700"><ele></ele><time>2014-4-25T2:39:1Z</time></trkpt>
<trkpt lat="45.70117400" lon="4.68074800"><ele></ele><time>2014-4-25T2:39:4Z</time></trkpt>
<trkpt lat="45.70153800" lon="4.68093400"><ele></ele><time>2014-4-25T2:39:7Z</time></trkpt>
<trkpt lat="45.70184800" lon="4.68083700"><ele></ele><time>2014-4-25T2:39:10Z</time></trkpt>
<trkpt lat="45.70223100" lon="4.68099100"><ele></ele><time>2014-4-25T2:39:13Z</time></trkpt>
<trkpt lat="45.70243100" lon="4.68129200"><ele></ele><time>2014-4-25T2:39:16Z</time></trkpt>
<trkpt lat="45.70278000" lon="4.68181500"><ele></ele><time>2014-4-25T2:39:19Z</time></trkpt>
<trkpt lat="45.70294100" lon="4.68200200"><ele></ele><time>2014-4-25T2:39:22Z</time></trkpt>
<trkpt lat="45.70306200" lon="4.68217000"><ele></ele><time>2014-4-25T2:39:25Z</time></trkpt>
<trkpt lat="45.70331800" lon="4.68240700"><ele></ele><time>2014-4-25T2:39:28Z</time></trkpt>
<trkpt lat="45.70258500" lon="4.68359900"><ele></ele><time>2014-4-25T2:39:31Z</time></trkpt>
<trkpt lat="45.70261600" lon="4.68377800"><ele></ele><time>2014-4-25T2:39:34Z</time></trkpt>
<trkpt lat="45.70265700" lon="4.68406900"><ele></ele><time>2014-4-25T2:39:37Z</time></trkpt>
<trkpt lat="45.70269500" lon="4.68436600"><ele></ele><time>2014-4-25T2:39:40Z</time></trkpt>
<trkpt lat="45.70251100" lon="4.68461500"><ele></ele><time>2014-4-25T2:39:43Z</time></trkpt>
<trkpt lat="45.70250400" lon="4.68496700"><ele></ele><time>2014-4-25T2:39:46Z</time></trkpt>
<trkpt lat="45.70252500" lon="4.68564700"><ele></ele><time>2014-4-25T2:39:49Z</time></trkpt>
<trkpt lat="45.70252500" lon="4.68585400"><ele></ele><time>2014-4-25T2:39:52Z</time></trkpt>
<trkpt lat="45.70243100" lon="4.68591800"><ele></ele><time>2014-4-25T2:39:55Z</time></trkpt>
<trkpt lat="45.70208900" lon="4.68588300"><ele></ele><time>2014-4-25T2:39:58Z</time></trkpt>
<trkpt lat="45.70201600" lon="4.68607100"><ele></ele><time>2014-4-25T2:40:1Z</time></trkpt>
<trkpt lat="45.70199600" lon="4.68630200"><ele></ele><time>2014-4-25T2:40:4Z</time></trkpt>
<trkpt lat="45.70192400" lon="4.68718200"><ele></ele><time>2014-4-25T2:40:7Z</time></trkpt>
<trkpt lat="45.70171000" lon="4.68757800"><ele></ele><time>2014-4-25T2:40:10Z</time></trkpt>
<trkpt lat="45.70177400" lon="4.68730600"><ele></ele><time>2014-4-25T2:40:13Z</time></trkpt>
<trkpt lat="45.70178200" lon="4.68793800"><ele></ele><time>2014-4-25T2:40:16Z</time></trkpt>
<trkpt lat="45.70182400" lon="4.68862800"><ele></ele><time>2014-4-25T2:40:19Z</time></trkpt>
<trkpt lat="45.70184600" lon="4.68914800"><ele></ele><time>2014-4-25T2:40:22Z</time></trkpt>
<trkpt lat="45.70202700" lon="4.69106900"><ele></ele><time>2014-4-25T2:40:25Z</time></trkpt>
<trkpt lat="45.70207300" lon="4.69154200"><ele></ele><time>2014-4-25T2:40:28Z</time></trkpt>
<trkpt lat="45.70188000" lon="4.69200300"><ele></ele><time>2014-4-25T2:40:31Z</time></trkpt>
<trkpt lat="45.70173200" lon="4.69204200"><ele></ele><time>2014-4-25T2:40:34Z</time></trkpt>
<trkpt lat="45.70151600" lon="4.69204200"><ele></ele><time>2014-4-25T2:40:37Z</time></trkpt>
<trkpt lat="45.70124800" lon="4.69194100"><ele></ele><time>2014-4-25T2:40:40Z</time></trkpt>
<trkpt lat="45.70112500" lon="4.69186900"><ele></ele><time>2014-4-25T2:40:43Z</time></trkpt>
<trkpt lat="45.70094200" lon="4.69180800"><ele></ele><time>2014-4-25T2:40:46Z</time></trkpt>
<trkpt lat="45.70059900" lon="4.69211500"><ele></ele><time>2014-4-25T2:40:49Z</time></trkpt>
<trkpt lat="45.70063000" lon="4.69247200"><ele></ele><time>2014-4-25T2:40:52Z</time></trkpt>
<trkpt lat="45.70074200" lon="4.69267000"><ele></ele><time>2014-4-25T2:40:55Z</time></trkpt>
<trkpt lat="45.70073400" lon="4.69321100"><ele></ele><time>2014-4-25T2:40:58Z</time></trkpt>
<trkpt lat="45.70051600" lon="4.69362500"><ele></ele><time>2014-4-25T2:41:1Z</time></trkpt>
<trkpt lat="45.70012500" lon="4.69402200"><ele></ele><time>2014-4-25T2:41:4Z</time></trkpt>
<trkpt lat="45.69986100" lon="4.69413200"><ele></ele><time>2014-4-25T2:41:7Z</time></trkpt>
<trkpt lat="45.69956500" lon="4.69427600"><ele></ele><time>2014-4-25T2:41:10Z</time></trkpt>
<trkpt lat="45.69943500" lon="4.69483100"><ele></ele><time>2014-4-25T2:41:13Z</time></trkpt>
<trkpt lat="45.69850100" lon="4.69701100"><ele></ele><time>2014-4-25T2:41:16Z</time></trkpt>
<trkpt lat="45.69945200" lon="4.69921900"><ele></ele><time>2014-4-25T2:41:19Z</time></trkpt>
<trkpt lat="45.69990800" lon="4.69957800"><ele></ele><time>2014-4-25T2:41:22Z</time></trkpt>
<trkpt lat="45.70008400" lon="4.70004200"><ele></ele><time>2014-4-25T2:41:25Z</time></trkpt>
<trkpt lat="45.70082100" lon="4.70132700"><ele></ele><time>2014-4-25T2:41:28Z</time></trkpt>
<trkpt lat="45.70089600" lon="4.70152600"><ele></ele><time>2014-4-25T2:41:31Z</time></trkpt>
<trkpt lat="45.70105400" lon="4.70183700"><ele></ele><time>2014-4-25T2:41:34Z</time></trkpt>
<trkpt lat="45.70120400" lon="4.70228200"><ele></ele><time>2014-4-25T2:41:37Z</time></trkpt>
<trkpt lat="45.70130100" lon="4.70258700"><ele></ele><time>2014-4-25T2:41:40Z</time></trkpt>
<trkpt lat="45.70133700" lon="4.70289900"><ele></ele><time>2014-4-25T2:41:43Z</time></trkpt>
<trkpt lat="45.70136100" lon="4.70339700"><ele></ele><time>2014-4-25T2:41:46Z</time></trkpt>
<trkpt lat="45.70140700" lon="4.70379700"><ele></ele><time>2014-4-25T2:41:49Z</time></trkpt>
<trkpt lat="45.70169400" lon="4.70343000"><ele></ele><time>2014-4-25T2:41:52Z</time></trkpt>
<trkpt lat="45.70188900" lon="4.70316700"><ele></ele><time>2014-4-25T2:41:55Z</time></trkpt>
<trkpt lat="45.70197100" lon="4.70304500"><ele></ele><time>2014-4-25T2:41:58Z</time></trkpt>
<trkpt lat="45.70194600" lon="4.70258100"><ele></ele><time>2014-4-25T2:42:1Z</time></trkpt>
<trkpt lat="45.70190800" lon="4.70229800"><ele></ele><time>2014-4-25T2:42:4Z</time></trkpt>
<trkpt lat="45.70181700" lon="4.70186100"><ele></ele><time>2014-4-25T2:42:7Z</time></trkpt>
<trkpt lat="45.70165200" lon="4.70145500"><ele></ele><time>2014-4-25T2:42:10Z</time></trkpt>
<trkpt lat="45.70147900" lon="4.70107500"><ele></ele><time>2014-4-25T2:42:13Z</time></trkpt>
<trkpt lat="45.70127700" lon="4.70062900"><ele></ele><time>2014-4-25T2:42:16Z</time></trkpt>
<trkpt lat="45.70143600" lon="4.70053600"><ele></ele><time>2014-4-25T2:42:19Z</time></trkpt>
<trkpt lat="45.70168100" lon="4.70044800"><ele></ele><time>2014-4-25T2:42:22Z</time></trkpt>
<trkpt lat="45.70201300" lon="4.70037000"><ele></ele><time>2014-4-25T2:42:25Z</time></trkpt>
<trkpt lat="45.70218800" lon="4.70033700"><ele></ele><time>2014-4-25T2:42:28Z</time></trkpt>
<trkpt lat="45.70255400" lon="4.70023000"><ele></ele><time>2014-4-25T2:42:31Z</time></trkpt>
<trkpt lat="45.70278200" lon="4.70000400"><ele></ele><time>2014-4-25T2:42:34Z</time></trkpt>
<trkpt lat="45.70331400" lon="4.69909000"><ele></ele><time>2014-4-25T2:42:37Z</time></trkpt>
<trkpt lat="45.70337800" lon="4.69884900"><ele></ele><time>2014-4-25T2:42:40Z</time></trkpt>
<trkpt lat="45.70346000" lon="4.69764400"><ele></ele><time>2014-4-25T2:42:43Z</time></trkpt>
<trkpt lat="45.70371200" lon="4.69770700"><ele></ele><time>2014-4-25T2:42:46Z</time></trkpt>
<trkpt lat="45.70396200" lon="4.69762400"><ele></ele><time>2014-4-25T2:42:49Z</time></trkpt>
<trkpt lat="45.70414200" lon="4.69755800"><ele></ele><time>2014-4-25T2:42:52Z</time></trkpt>
<trkpt lat="45.70426200" lon="4.69749200"><ele></ele><time>2014-4-25T2:42:55Z</time></trkpt>
<trkpt lat="45.70443300" lon="4.69769000"><ele></ele><time>2014-4-25T2:42:58Z</time></trkpt>
<trkpt lat="45.70469100" lon="4.69799000"><ele></ele><time>2014-4-25T2:43:1Z</time></trkpt>
<trkpt lat="45.70497400" lon="4.69830100"><ele></ele><time>2014-4-25T2:43:4Z</time></trkpt>
<trkpt lat="45.70522500" lon="4.69849900"><ele></ele><time>2014-4-25T2:43:7Z</time></trkpt>
<trkpt lat="45.70540700" lon="4.69857200"><ele></ele><time>2014-4-25T2:43:10Z</time></trkpt>
<trkpt lat="45.70569500" lon="4.69862200"><ele></ele><time>2014-4-25T2:43:13Z</time></trkpt>
<trkpt lat="45.70614900" lon="4.69899300"><ele></ele><time>2014-4-25T2:43:16Z</time></trkpt>
<trkpt lat="45.70625300" lon="4.69945800"><ele></ele><time>2014-4-25T2:43:19Z</time></trkpt>
<trkpt lat="45.70615500" lon="4.69995100"><ele></ele><time>2014-4-25T2:43:22Z</time></trkpt>
<trkpt lat="45.70581000" lon="4.70056500"><ele></ele><time>2014-4-25T2:43:25Z</time></trkpt>
<trkpt lat="45.70546800" lon="4.70144600"><ele></ele><time>2014-4-25T2:43:28Z</time></trkpt>
<trkpt lat="45.70529600" lon="4.70188000"><ele></ele><time>2014-4-25T2:43:31Z</time></trkpt>
<trkpt lat="45.70522700" lon="4.70221900"><ele></ele><time>2014-4-25T2:43:34Z</time></trkpt>
<trkpt lat="45.70514300" lon="4.70282000"><ele></ele><time>2014-4-25T2:43:37Z</time></trkpt>
<trkpt lat="45.70505700" lon="4.70344300"><ele></ele><time>2014-4-25T2:43:40Z</time></trkpt>
<trkpt lat="45.70514500" lon="4.70412200"><ele></ele><time>2014-4-25T2:43:43Z</time></trkpt>
<trkpt lat="45.70518500" lon="4.70493500"><ele></ele><time>2014-4-25T2:43:46Z</time></trkpt>
<trkpt lat="45.70522200" lon="4.70602900"><ele></ele><time>2014-4-25T2:43:49Z</time></trkpt>
<trkpt lat="45.70523100" lon="4.70624300"><ele></ele><time>2014-4-25T2:43:52Z</time></trkpt>
<trkpt lat="45.70526600" lon="4.70680700"><ele></ele><time>2014-4-25T2:43:55Z</time></trkpt>
<trkpt lat="45.70533600" lon="4.70711000"><ele></ele><time>2014-4-25T2:43:58Z</time></trkpt>
<trkpt lat="45.70522800" lon="4.70719900"><ele></ele><time>2014-4-25T2:44:1Z</time></trkpt>
<trkpt lat="45.70485900" lon="4.70722100"><ele></ele><time>2014-4-25T2:44:4Z</time></trkpt>
<trkpt lat="45.70473500" lon="4.70722800"><ele></ele><time>2014-4-25T2:44:7Z</time></trkpt>
<trkpt lat="45.70460900" lon="4.70724300"><ele></ele><time>2014-4-25T2:44:10Z</time></trkpt>
<trkpt lat="45.70404400" lon="4.70739700"><ele></ele><time>2014-4-25T2:44:13Z</time></trkpt>
<trkpt lat="45.70388700" lon="4.70758400"><ele></ele><time>2014-4-25T2:44:16Z</time></trkpt>
<trkpt lat="45.70364000" lon="4.70768400"><ele></ele><time>2014-4-25T2:44:19Z</time></trkpt>
<trkpt lat="45.70254600" lon="4.70833600"><ele></ele><time>2014-4-25T2:44:22Z</time></trkpt>
<trkpt lat="45.70254800" lon="4.70845700"><ele></ele><time>2014-4-25T2:44:25Z</time></trkpt>
<trkpt lat="45.70241500" lon="4.70855300"><ele></ele><time>2014-4-25T2:44:28Z</time></trkpt>
<trkpt lat="45.70217600" lon="4.70861800"><ele></ele><time>2014-4-25T2:44:31Z</time></trkpt>
<trkpt lat="45.70197500" lon="4.70864500"><ele></ele><time>2014-4-25T2:44:34Z</time></trkpt>
<trkpt lat="45.70168400" lon="4.70868800"><ele></ele><time>2014-4-25T2:44:37Z</time></trkpt>
<trkpt lat="45.70148000" lon="4.70874600"><ele></ele><time>2014-4-25T2:44:40Z</time></trkpt>
<trkpt lat="45.70133800" lon="4.70877100"><ele></ele><time>2014-4-25T2:44:43Z</time></trkpt>
<trkpt lat="45.70119200" lon="4.70877600"><ele></ele><time>2014-4-25T2:44:46Z</time></trkpt>
<trkpt lat="45.70100800" lon="4.70916600"><ele></ele><time>2014-4-25T2:44:49Z</time></trkpt>
<trkpt lat="45.70082800" lon="4.70924200"><ele></ele><time>2014-4-25T2:44:52Z</time></trkpt>
<trkpt lat="45.70027000" lon="4.70905700"><ele></ele><time>2014-4-25T2:44:55Z</time></trkpt>
<trkpt lat="45.69963400" lon="4.70893500"><ele></ele><time>2014-4-25T2:44:58Z</time></trkpt>
<trkpt lat="45.69951700" lon="4.70875800"><ele></ele><time>2014-4-25T2:45:1Z</time></trkpt>
<trkpt lat="45.69958700" lon="4.70853900"><ele></ele><time>2014-4-25T2:45:4Z</time></trkpt>
<trkpt lat="45.69955500" lon="4.70836600"><ele></ele><time>2014-4-25T2:45:7Z</time></trkpt>
<trkpt lat="45.69966100" lon="4.70796300"><ele></ele><time>2014-4-25T2:45:10Z</time></trkpt>
<trkpt lat="45.69972000" lon="4.70748000"><ele></ele><time>2014-4-25T2:45:13Z</time></trkpt>
<trkpt lat="45.69963000" lon="4.70746400"><ele></ele><time>2014-4-25T2:45:16Z</time></trkpt>
<trkpt lat="45.69945200" lon="4.70794500"><ele></ele><time>2014-4-25T2:45:19Z</time></trkpt>
<trkpt lat="45.69921200" lon="4.70820900"><ele></ele><time>2014-4-25T2:45:22Z</time></trkpt>
<trkpt lat="45.69884100" lon="4.70859000"><ele></ele><time>2014-4-25T2:45:25Z</time></trkpt>
<trkpt lat="45.69850100" lon="4.70866900"><ele></ele><time>2014-4-25T2:45:28Z</time></trkpt>
<trkpt lat="45.69872100" lon="4.70834200"><ele></ele><time>2014-4-25T2:45:31Z</time></trkpt>
<trkpt lat="45.69882000" lon="4.70793900"><ele></ele><time>2014-4-25T2:45:34Z</time></trkpt>
<trkpt lat="45.69882300" lon="4.70777600"><ele></ele><time>2014-4-25T2:45:37Z</time></trkpt>
<trkpt lat="45.69877200" lon="4.70766000"><ele></ele><time>2014-4-25T2:45:40Z</time></trkpt>
<trkpt lat="45.69876600" lon="4.70728600"><ele></ele><time>2014-4-25T2:45:43Z</time></trkpt>
<trkpt lat="45.69844900" lon="4.70716400"><ele></ele><time>2014-4-25T2:45:46Z</time></trkpt>
<trkpt lat="45.69816400" lon="4.70710900"><ele></ele><time>2014-4-25T2:45:49Z</time></trkpt>
<trkpt lat="45.69789100" lon="4.70706000"><ele></ele><time>2014-4-25T2:45:52Z</time></trkpt>
<trkpt lat="45.69744900" lon="4.70696700"><ele></ele><time>2014-4-25T2:45:55Z</time></trkpt>
<trkpt lat="45.69693700" lon="4.70674300"><ele></ele><time>2014-4-25T2:45:58Z</time></trkpt>
<trkpt lat="45.69623100" lon="4.70637200"><ele></ele><time>2014-4-25T2:46:1Z</time></trkpt>
<trkpt lat="45.69539200" lon="4.70562800"><ele></ele><time>2014-4-25T2:46:4Z</time></trkpt>
<trkpt lat="45.69446600" lon="4.70476500"><ele></ele><time>2014-4-25T2:46:7Z</time></trkpt>
<trkpt lat="45.69393400" lon="4.70420900"><ele></ele><time>2014-4-25T2:46:10Z</time></trkpt>
<trkpt lat="45.69359800" lon="4.70382200"><ele></ele><time>2014-4-25T2:46:13Z</time></trkpt>
<trkpt lat="45.69255700" lon="4.70498200"><ele></ele><time>2014-4-25T2:46:16Z</time></trkpt>
<trkpt lat="45.69192000" lon="4.70516900"><ele></ele><time>2014-4-25T2:46:19Z</time></trkpt>
<trkpt lat="45.69127300" lon="4.70509400"><ele></ele><time>2014-4-25T2:46:22Z</time></trkpt>
<trkpt lat="45.69069300" lon="4.70496000"><ele></ele><time>2014-4-25T2:46:25Z</time></trkpt>
<trkpt lat="45.69012600" lon="4.70499700"><ele></ele><time>2014-4-25T2:46:28Z</time></trkpt>
<trkpt lat="45.68956300" lon="4.70525600"><ele></ele><time>2014-4-25T2:46:31Z</time></trkpt>
<trkpt lat="45.68898500" lon="4.70580000"><ele></ele><time>2014-4-25T2:46:34Z</time></trkpt>
<trkpt lat="45.68858200" lon="4.70649700"><ele></ele><time>2014-4-25T2:46:37Z</time></trkpt>
<trkpt lat="45.68839300" lon="4.70709600"><ele></ele><time>2014-4-25T2:46:40Z</time></trkpt>
<trkpt lat="45.68818400" lon="4.70760600"><ele></ele><time>2014-4-25T2:46:43Z</time></trkpt>
<trkpt lat="45.68801100" lon="4.70814400"><ele></ele><time>2014-4-25T2:46:46Z</time></trkpt>
<trkpt lat="45.68778100" lon="4.70866300"><ele></ele><time>2014-4-25T2:46:49Z</time></trkpt>
<trkpt lat="45.68741000" lon="4.70920500"><ele></ele><time>2014-4-25T2:46:52Z</time></trkpt>
<trkpt lat="45.68711600" lon="4.70976200"><ele></ele><time>2014-4-25T2:46:55Z</time></trkpt>
<trkpt lat="45.68709600" lon="4.70999400"><ele></ele><time>2014-4-25T2:46:58Z</time></trkpt>
<trkpt lat="45.68726000" lon="4.71063300"><ele></ele><time>2014-4-25T2:47:1Z</time></trkpt>
<trkpt lat="45.68745900" lon="4.71140600"><ele></ele><time>2014-4-25T2:47:4Z</time></trkpt>
<trkpt lat="45.68786300" lon="4.71284300"><ele></ele><time>2014-4-25T2:47:7Z</time></trkpt>
<trkpt lat="45.68819400" lon="4.71325800"><ele></ele><time>2014-4-25T2:47:10Z</time></trkpt>
<trkpt lat="45.68827400" lon="4.71332200"><ele></ele><time>2014-4-25T2:47:13Z</time></trkpt>
<trkpt lat="45.68904700" lon="4.71394800"><ele></ele><time>2014-4-25T2:47:16Z</time></trkpt>
<trkpt lat="45.68920400" lon="4.71407200"><ele></ele><time>2014-4-25T2:47:19Z</time></trkpt>
<trkpt lat="45.68945000" lon="4.71425100"><ele></ele><time>2014-4-25T2:47:22Z</time></trkpt>
<trkpt lat="45.69034000" lon="4.71490200"><ele></ele><time>2014-4-25T2:47:25Z</time></trkpt>
<trkpt lat="45.69135300" lon="4.71543700"><ele></ele><time>2014-4-25T2:47:28Z</time></trkpt>
<trkpt lat="45.69164000" lon="4.71549400"><ele></ele><time>2014-4-25T2:47:31Z</time></trkpt>
<trkpt lat="45.69189900" lon="4.71561800"><ele></ele><time>2014-4-25T2:47:34Z</time></trkpt>
<trkpt lat="45.69213000" lon="4.71586000"><ele></ele><time>2014-4-25T2:47:37Z</time></trkpt>
<trkpt lat="45.69235300" lon="4.71639600"><ele></ele><time>2014-4-25T2:47:40Z</time></trkpt>
<trkpt lat="45.69314000" lon="4.71756200"><ele></ele><time>2014-4-25T2:47:43Z</time></trkpt>
<trkpt lat="45.69337100" lon="4.71790000"><ele></ele><time>2014-4-25T2:47:46Z</time></trkpt>
<trkpt lat="45.69369600" lon="4.71837400"><ele></ele><time>2014-4-25T2:47:49Z</time></trkpt>
<trkpt lat="45.69396600" lon="4.71874200"><ele></ele><time>2014-4-25T2:47:52Z</time></trkpt>
<trkpt lat="45.69453100" lon="4.71971300"><ele></ele><time>2014-4-25T2:47:55Z</time></trkpt>
<trkpt lat="45.69453400" lon="4.72007800"><ele></ele><time>2014-4-25T2:47:58Z</time></trkpt>
<trkpt lat="45.69446700" lon="4.72117300"><ele></ele><time>2014-4-25T2:48:1Z</time></trkpt>
<trkpt lat="45.69447000" lon="4.72161300"><ele></ele><time>2014-4-25T2:48:4Z</time></trkpt>
<trkpt lat="45.69452900" lon="4.72212200"><ele></ele><time>2014-4-25T2:48:7Z</time></trkpt>
<trkpt lat="45.69430600" lon="4.72334900"><ele></ele><time>2014-4-25T2:48:10Z</time></trkpt>
<trkpt lat="45.69456000" lon="4.72302100"><ele></ele><time>2014-4-25T2:48:13Z</time></trkpt>
<trkpt lat="45.69444300" lon="4.72325000"><ele></ele><time>2014-4-25T2:48:16Z</time></trkpt>
<trkpt lat="45.69433800" lon="4.72346700"><ele></ele><time>2014-4-25T2:48:19Z</time></trkpt>
<trkpt lat="45.69449400" lon="4.72377600"><ele></ele><time>2014-4-25T2:48:22Z</time></trkpt>
<trkpt lat="45.69459500" lon="4.72389500"><ele></ele><time>2014-4-25T2:48:25Z</time></trkpt>
<trkpt lat="45.69472700" lon="4.72406900"><ele></ele><time>2014-4-25T2:48:28Z</time></trkpt>
<trkpt lat="45.69472000" lon="4.72422200"><ele></ele><time>2014-4-25T2:48:31Z</time></trkpt>
<trkpt lat="45.69456000" lon="4.72419000"><ele></ele><time>2014-4-25T2:48:34Z</time></trkpt>
<trkpt lat="45.69433700" lon="4.72403500"><ele></ele><time>2014-4-25T2:48:37Z</time></trkpt>
<trkpt lat="45.69421400" lon="4.72394600"><ele></ele><time>2014-4-25T2:48:40Z</time></trkpt>
<trkpt lat="45.69411100" lon="4.72508500"><ele></ele><time>2014-4-25T2:48:43Z</time></trkpt>
<trkpt lat="45.69402400" lon="4.72593100"><ele></ele><time>2014-4-25T2:48:46Z</time></trkpt>
<trkpt lat="45.69412500" lon="4.72598500"><ele></ele><time>2014-4-25T2:48:49Z</time></trkpt>
<trkpt lat="45.69416600" lon="4.72617300"><ele></ele><time>2014-4-25T2:48:52Z</time></trkpt>
<trkpt lat="45.69375100" lon="4.72648400"><ele></ele><time>2014-4-25T2:48:55Z</time></trkpt>
<trkpt lat="45.69242900" lon="4.72772500"><ele></ele><time>2014-4-25T2:48:58Z</time></trkpt>
<trkpt lat="45.69169000" lon="4.72886500"><ele></ele><time>2014-4-25T2:49:1Z</time></trkpt>
<trkpt lat="45.69121800" lon="4.73048300"><ele></ele><time>2014-4-25T2:49:4Z</time></trkpt>
<trkpt lat="45.69146300" lon="4.73093100"><ele></ele><time>2014-4-25T2:49:7Z</time></trkpt>
<trkpt lat="45.69196400" lon="4.73148100"><ele></ele><time>2014-4-25T2:49:10Z</time></trkpt>
<trkpt lat="45.69226800" lon="4.73219400"><ele></ele><time>2014-4-25T2:49:13Z</time></trkpt>
<trkpt lat="45.69232900" lon="4.73256900"><ele></ele><time>2014-4-25T2:49:16Z</time></trkpt>
<trkpt lat="45.69210800" lon="4.73315800"><ele></ele><time>2014-4-25T2:49:19Z</time></trkpt>
<trkpt lat="45.69180900" lon="4.73445500"><ele></ele><time>2014-4-25T2:49:22Z</time></trkpt>
<trkpt lat="45.69153500" lon="4.73489100"><ele></ele><time>2014-4-25T2:49:25Z</time></trkpt>
<trkpt lat="45.69108200" lon="4.73562500"><ele></ele><time>2014-4-25T2:49:28Z</time></trkpt>
<trkpt lat="45.69103500" lon="4.73578100"><ele></ele><time>2014-4-25T2:49:31Z</time></trkpt>
<trkpt lat="45.69100800" lon="4.73650100"><ele></ele><time>2014-4-25T2:49:34Z</time></trkpt>
<trkpt lat="45.69083500" lon="4.73681900"><ele></ele><time>2014-4-25T2:49:37Z</time></trkpt>
<trkpt lat="45.69069600" lon="4.73716700"><ele></ele><time>2014-4-25T2:49:40Z</time></trkpt>
<trkpt lat="45.69037200" lon="4.73894800"><ele></ele><time>2014-4-25T2:49:43Z</time></trkpt>
<trkpt lat="45.69023000" lon="4.73956200"><ele></ele><time>2014-4-25T2:49:46Z</time></trkpt>
<trkpt lat="45.69030300" lon="4.73942100"><ele></ele><time>2014-4-25T2:49:49Z</time></trkpt>
<trkpt lat="45.69035900" lon="4.73902000"><ele></ele><time>2014-4-25T2:49:52Z</time></trkpt>
<trkpt lat="45.69003600" lon="4.73828300"><ele></ele><time>2014-4-25T2:49:55Z</time></trkpt>
<trkpt lat="45.68971400" lon="4.73777800"><ele></ele><time>2014-4-25T2:49:58Z</time></trkpt>
<trkpt lat="45.68963600" lon="4.73777900"><ele></ele><time>2014-4-25T2:50:1Z</time></trkpt>
<trkpt lat="45.68954600" lon="4.73819700"><ele></ele><time>2014-4-25T2:50:4Z</time></trkpt>
<trkpt lat="45.68938000" lon="4.73845800"><ele></ele><time>2014-4-25T2:50:7Z</time></trkpt>
<trkpt lat="45.68905900" lon="4.73873900"><ele></ele><time>2014-4-25T2:50:10Z</time></trkpt>
<trkpt lat="45.68837100" lon="4.73983500"><ele></ele><time>2014-4-25T2:50:13Z</time></trkpt>
<trkpt lat="45.68789400" lon="4.74064600"><ele></ele><time>2014-4-25T2:50:16Z</time></trkpt>
<trkpt lat="45.68758400" lon="4.74172100"><ele></ele><time>2014-4-25T2:50:19Z</time></trkpt>
<trkpt lat="45.68730600" lon="4.74258100"><ele></ele><time>2014-4-25T2:50:22Z</time></trkpt>
<trkpt lat="45.68723800" lon="4.74275000"><ele></ele><time>2014-4-25T2:50:25Z</time></trkpt>
<trkpt lat="45.68678700" lon="4.74294000"><ele></ele><time>2014-4-25T2:50:28Z</time></trkpt>
<trkpt lat="45.68607200" lon="4.74374800"><ele></ele><time>2014-4-25T2:50:31Z</time></trkpt>
<trkpt lat="45.68502900" lon="4.74495800"><ele></ele><time>2014-4-25T2:50:34Z</time></trkpt>
<trkpt lat="45.68417800" lon="4.74549300"><ele></ele><time>2014-4-25T2:50:37Z</time></trkpt>
<trkpt lat="45.68399300" lon="4.74571100"><ele></ele><time>2014-4-25T2:50:40Z</time></trkpt>
<trkpt lat="45.68321000" lon="4.74613800"><ele></ele><time>2014-4-25T2:50:43Z</time></trkpt>
<trkpt lat="45.68254800" lon="4.74663900"><ele></ele><time>2014-4-25T2:50:46Z</time></trkpt>
<trkpt lat="45.68221500" lon="4.74694200"><ele></ele><time>2014-4-25T2:50:49Z</time></trkpt>
<trkpt lat="45.68200200" lon="4.74703300"><ele></ele><time>2014-4-25T2:50:52Z</time></trkpt>
<trkpt lat="45.68166600" lon="4.74718400"><ele></ele><time>2014-4-25T2:50:55Z</time></trkpt>
<trkpt lat="45.68132800" lon="4.74755000"><ele></ele><time>2014-4-25T2:50:58Z</time></trkpt>
<trkpt lat="45.68069300" lon="4.74791800"><ele></ele><time>2014-4-25T2:51:1Z</time></trkpt>
<trkpt lat="45.68034700" lon="4.74781800"><ele></ele><time>2014-4-25T2:51:4Z</time></trkpt>
<trkpt lat="45.68021400" lon="4.74777800"><ele></ele><time>2014-4-25T2:51:7Z</time></trkpt>
<trkpt lat="45.67964000" lon="4.74798600"><ele></ele><time>2014-4-25T2:51:10Z</time></trkpt>
<trkpt lat="45.67922800" lon="4.74832000"><ele></ele><time>2014-4-25T2:51:13Z</time></trkpt>
<trkpt lat="45.67906900" lon="4.74866900"><ele></ele><time>2014-4-25T2:51:16Z</time></trkpt>
<trkpt lat="45.67897000" lon="4.74900600"><ele></ele><time>2014-4-25T2:51:19Z</time></trkpt>
<trkpt lat="45.67836800" lon="4.74974700"><ele></ele><time>2014-4-25T2:51:22Z</time></trkpt>
<trkpt lat="45.67743800" lon="4.75015200"><ele></ele><time>2014-4-25T2:51:25Z</time></trkpt>
<trkpt lat="45.67732600" lon="4.75071500"><ele></ele><time>2014-4-25T2:51:28Z</time></trkpt>
<trkpt lat="45.67783900" lon="4.75185400"><ele></ele><time>2014-4-25T2:51:31Z</time></trkpt>
<trkpt lat="47.73656200" lon="-3.48559800"><ele></ele><time>2014-4-25T2:51:34Z</time></trkpt>
<trkpt lat="47.73664100" lon="-3.48553500"><ele></ele><time>2014-4-25T2:51:37Z</time></trkpt>
<trkpt lat="47.73669600" lon="-3.48541800"><ele></ele><time>2014-4-25T2:51:40Z</time></trkpt>
<trkpt lat="47.73680500" lon="-3.48534700"><ele></ele><time>2014-4-25T2:51:43Z</time></trkpt>
<trkpt lat="47.73690200" lon="-3.48541800"><ele></ele><time>2014-4-25T2:51:46Z</time></trkpt>
<trkpt lat="47.73699900" lon="-3.48547200"><ele></ele><time>2014-4-25T2:51:49Z</time></trkpt>
<trkpt lat="47.73712600" lon="-3.48550800"><ele></ele><time>2014-4-25T2:51:52Z</time></trkpt>
<trkpt lat="47.73724700" lon="-3.48556200"><ele></ele><time>2014-4-25T2:51:55Z</time></trkpt>
<trkpt lat="47.73736800" lon="-3.48563400"><ele></ele><time>2014-4-25T2:51:58Z</time></trkpt>
<trkpt lat="47.73749000" lon="-3.48569700"><ele></ele><time>2014-4-25T2:52:1Z</time></trkpt>
<trkpt lat="47.73761100" lon="-3.48574200"><ele></ele><time>2014-4-25T2:52:4Z</time></trkpt>
<trkpt lat="47.73771400" lon="-3.48577800"><ele></ele><time>2014-4-25T2:52:7Z</time></trkpt>
<trkpt lat="47.73780500" lon="-3.48583200"><ele></ele><time>2014-4-25T2:52:10Z</time></trkpt>
<trkpt lat="47.73787100" lon="-3.48594800"><ele></ele><time>2014-4-25T2:52:13Z</time></trkpt>
<trkpt lat="47.73788900" lon="-3.48581400"><ele></ele><time>2014-4-25T2:52:16Z</time></trkpt>
<trkpt lat="47.73781100" lon="-3.48569700"><ele></ele><time>2014-4-25T2:52:19Z</time></trkpt>
<trkpt lat="47.73768900" lon="-3.48558000"><ele></ele><time>2014-4-25T2:52:22Z</time></trkpt>
<trkpt lat="47.73757400" lon="-3.48549000"><ele></ele><time>2014-4-25T2:52:25Z</time></trkpt>
<trkpt lat="47.73747100" lon="-3.48537300"><ele></ele><time>2014-4-25T2:52:28Z</time></trkpt>
<trkpt lat="47.73736800" lon="-3.48515800"><ele></ele><time>2014-4-25T2:52:31Z</time></trkpt>
<trkpt lat="47.73726500" lon="-3.48498700"><ele></ele><time>2014-4-25T2:52:34Z</time></trkpt>
<trkpt lat="47.73718000" lon="-3.48485200"><ele></ele><time>2014-4-25T2:52:37Z</time></trkpt>
<trkpt lat="47.73705900" lon="-3.48474500"><ele></ele><time>2014-4-25T2:52:40Z</time></trkpt>
<trkpt lat="47.73692000" lon="-3.48464600"><ele></ele><time>2014-4-25T2:52:43Z</time></trkpt>
<trkpt lat="47.73678700" lon="-3.48461000"><ele></ele><time>2014-4-25T2:52:46Z</time></trkpt>
<trkpt lat="47.73666500" lon="-3.48458300"><ele></ele><time>2014-4-25T2:52:49Z</time></trkpt>
<trkpt lat="47.73654400" lon="-3.48454700"><ele></ele><time>2014-4-25T2:52:52Z</time></trkpt>
<trkpt lat="47.73642900" lon="-3.48452900"><ele></ele><time>2014-4-25T2:52:55Z</time></trkpt>
<trkpt lat="47.73630800" lon="-3.48453800"><ele></ele><time>2014-4-25T2:52:58Z</time></trkpt>
<trkpt lat="47.73619900" lon="-3.48452000"><ele></ele><time>2014-4-25T2:53:1Z</time></trkpt>
<trkpt lat="47.73609600" lon="-3.48449300"><ele></ele><time>2014-4-25T2:53:4Z</time></trkpt>
<trkpt lat="47.73598100" lon="-3.48447500"><ele></ele><time>2014-4-25T2:53:7Z</time></trkpt>
<trkpt lat="47.73587800" lon="-3.48441200"><ele></ele><time>2014-4-25T2:53:10Z</time></trkpt>
<trkpt lat="47.73574400" lon="-3.48434900"><ele></ele><time>2014-4-25T2:53:13Z</time></trkpt>
<trkpt lat="47.73561700" lon="-3.48429500"><ele></ele><time>2014-4-25T2:53:16Z</time></trkpt>
<trkpt lat="47.73549600" lon="-3.48427800"><ele></ele><time>2014-4-25T2:53:19Z</time></trkpt>
<trkpt lat="47.73536200" lon="-3.48426000"><ele></ele><time>2014-4-25T2:53:22Z</time></trkpt>
<trkpt lat="47.73522300" lon="-3.48426000"><ele></ele><time>2014-4-25T2:53:25Z</time></trkpt>
<trkpt lat="47.73507800" lon="-3.48425100"><ele></ele><time>2014-4-25T2:53:28Z</time></trkpt>
<trkpt lat="47.73492600" lon="-3.48423300"><ele></ele><time>2014-4-25T2:53:31Z</time></trkpt>
<trkpt lat="47.73479900" lon="-3.48417000"><ele></ele><time>2014-4-25T2:53:34Z</time></trkpt>
<trkpt lat="47.73468400" lon="-3.48408900"><ele></ele><time>2014-4-25T2:53:37Z</time></trkpt>
<trkpt lat="47.73458100" lon="-3.48404400"><ele></ele><time>2014-4-25T2:53:40Z</time></trkpt>
<trkpt lat="47.73447800" lon="-3.48401700"><ele></ele><time>2014-4-25T2:53:43Z</time></trkpt>
<trkpt lat="47.73436900" lon="-3.48399900"><ele></ele><time>2014-4-25T2:53:46Z</time></trkpt>
<trkpt lat="47.73425300" lon="-3.48394500"><ele></ele><time>2014-4-25T2:53:49Z</time></trkpt>
<trkpt lat="47.73414400" lon="-3.48389100"><ele></ele><time>2014-4-25T2:53:52Z</time></trkpt>
<trkpt lat="47.73403500" lon="-3.48387300"><ele></ele><time>2014-4-25T2:53:55Z</time></trkpt>
<trkpt lat="47.73401700" lon="-3.48371200"><ele></ele><time>2014-4-25T2:53:58Z</time></trkpt>
<trkpt lat="47.73393800" lon="-3.48353200"><ele></ele><time>2014-4-25T2:54:1Z</time></trkpt>
<trkpt lat="47.73390800" lon="-3.48337000"><ele></ele><time>2014-4-25T2:54:4Z</time></trkpt>
<trkpt lat="47.73388400" lon="-3.48317300"><ele></ele><time>2014-4-25T2:54:7Z</time></trkpt>
<trkpt lat="47.73381100" lon="-3.48303800"><ele></ele><time>2014-4-25T2:54:10Z</time></trkpt>
<trkpt lat="47.73372000" lon="-3.48293000"><ele></ele><time>2014-4-25T2:54:13Z</time></trkpt>
<trkpt lat="47.73362900" lon="-3.48280400"><ele></ele><time>2014-4-25T2:54:16Z</time></trkpt>
<trkpt lat="47.73357500" lon="-3.48264300"><ele></ele><time>2014-4-25T2:54:19Z</time></trkpt>
<trkpt lat="47.73353200" lon="-3.48245400"><ele></ele><time>2014-4-25T2:54:22Z</time></trkpt>
<trkpt lat="47.73348400" lon="-3.48227400"><ele></ele><time>2014-4-25T2:54:25Z</time></trkpt>
<trkpt lat="47.73342300" lon="-3.48208600"><ele></ele><time>2014-4-25T2:54:28Z</time></trkpt>
<trkpt lat="47.73335000" lon="-3.48188800"><ele></ele><time>2014-4-25T2:54:31Z</time></trkpt>
<trkpt lat="47.73328400" lon="-3.48169900"><ele></ele><time>2014-4-25T2:54:34Z</time></trkpt>
<trkpt lat="47.73324700" lon="-3.48152000"><ele></ele><time>2014-4-25T2:54:37Z</time></trkpt>
<trkpt lat="47.73324100" lon="-3.48134000"><ele></ele><time>2014-4-25T2:54:40Z</time></trkpt>
<trkpt lat="47.73329000" lon="-3.48108000"><ele></ele><time>2014-4-25T2:54:43Z</time></trkpt>
<trkpt lat="47.73332000" lon="-3.48093600"><ele></ele><time>2014-4-25T2:54:46Z</time></trkpt>
<trkpt lat="47.73335700" lon="-3.48080100"><ele></ele><time>2014-4-25T2:54:49Z</time></trkpt>
<trkpt lat="47.73339300" lon="-3.48067500"><ele></ele><time>2014-4-25T2:54:52Z</time></trkpt>
<trkpt lat="47.73342900" lon="-3.48054100"><ele></ele><time>2014-4-25T2:54:55Z</time></trkpt>
<trkpt lat="47.73348400" lon="-3.48031600"><ele></ele><time>2014-4-25T2:54:58Z</time></trkpt>
<trkpt lat="47.73349000" lon="-3.48010900"><ele></ele><time>2014-4-25T2:55:1Z</time></trkpt>
<trkpt lat="47.73341700" lon="-3.47989400"><ele></ele><time>2014-4-25T2:55:4Z</time></trkpt>
<trkpt lat="47.73335000" lon="-3.47969600"><ele></ele><time>2014-4-25T2:55:7Z</time></trkpt>
<trkpt lat="47.73329600" lon="-3.47949000"><ele></ele><time>2014-4-25T2:55:10Z</time></trkpt>
<trkpt lat="47.73327200" lon="-3.47926500"><ele></ele><time>2014-4-25T2:55:13Z</time></trkpt>
<trkpt lat="47.73330200" lon="-3.47906700"><ele></ele><time>2014-4-25T2:55:16Z</time></trkpt>
<trkpt lat="47.73342300" lon="-3.47890600"><ele></ele><time>2014-4-25T2:55:19Z</time></trkpt>
<trkpt lat="47.73353200" lon="-3.47874400"><ele></ele><time>2014-4-25T2:55:22Z</time></trkpt>
<trkpt lat="47.73361100" lon="-3.47855500"><ele></ele><time>2014-4-25T2:55:25Z</time></trkpt>
<trkpt lat="47.73365300" lon="-3.47834000"><ele></ele><time>2014-4-25T2:55:28Z</time></trkpt>
<trkpt lat="47.73367800" lon="-3.47812400"><ele></ele><time>2014-4-25T2:55:31Z</time></trkpt>
<trkpt lat="47.73369600" lon="-3.47791700"><ele></ele><time>2014-4-25T2:55:34Z</time></trkpt>
<trkpt lat="47.73372000" lon="-3.47772000"><ele></ele><time>2014-4-25T2:55:37Z</time></trkpt>
<trkpt lat="47.73375000" lon="-3.47752200"><ele></ele><time>2014-4-25T2:55:40Z</time></trkpt>
<trkpt lat="47.73376900" lon="-3.47733400"><ele></ele><time>2014-4-25T2:55:43Z</time></trkpt>
<trkpt lat="47.73377500" lon="-3.47715400"><ele></ele><time>2014-4-25T2:55:46Z</time></trkpt>
<trkpt lat="47.73375000" lon="-3.47699200"><ele></ele><time>2014-4-25T2:55:49Z</time></trkpt>
<trkpt lat="47.73371400" lon="-3.47684800"><ele></ele><time>2014-4-25T2:55:52Z</time></trkpt>
<trkpt lat="47.73367200" lon="-3.47670500"><ele></ele><time>2014-4-25T2:55:55Z</time></trkpt>
<trkpt lat="47.73361700" lon="-3.47656100"><ele></ele><time>2014-4-25T2:55:58Z</time></trkpt>
<trkpt lat="47.73356900" lon="-3.47643500"><ele></ele><time>2014-4-25T2:56:1Z</time></trkpt>
<trkpt lat="47.73352600" lon="-3.47631800"><ele></ele><time>2014-4-25T2:56:4Z</time></trkpt>
<trkpt lat="47.73347800" lon="-3.47618400"><ele></ele><time>2014-4-25T2:56:7Z</time></trkpt>
<trkpt lat="47.73342300" lon="-3.47604000"><ele></ele><time>2014-4-25T2:56:10Z</time></trkpt>
<trkpt lat="47.73336900" lon="-3.47590500"><ele></ele><time>2014-4-25T2:56:13Z</time></trkpt>
<trkpt lat="47.73333200" lon="-3.47577000"><ele></ele><time>2014-4-25T2:56:16Z</time></trkpt>
<trkpt lat="47.73330200" lon="-3.47563600"><ele></ele><time>2014-4-25T2:56:19Z</time></trkpt>
<trkpt lat="47.73330200" lon="-3.47546500"><ele></ele><time>2014-4-25T2:56:22Z</time></trkpt>
<trkpt lat="47.73333800" lon="-3.47531200"><ele></ele><time>2014-4-25T2:56:25Z</time></trkpt>
<trkpt lat="47.73341700" lon="-3.47521400"><ele></ele><time>2014-4-25T2:56:28Z</time></trkpt>
<trkpt lat="47.73351400" lon="-3.47512400"><ele></ele><time>2014-4-25T2:56:31Z</time></trkpt>
<trkpt lat="47.73360500" lon="-3.47501600"><ele></ele><time>2014-4-25T2:56:34Z</time></trkpt>
<trkpt lat="47.73369600" lon="-3.47490800"><ele></ele><time>2014-4-25T2:56:37Z</time></trkpt>
<trkpt lat="47.73378100" lon="-3.47479100"><ele></ele><time>2014-4-25T2:56:40Z</time></trkpt>
<trkpt lat="47.73387200" lon="-3.47469300"><ele></ele><time>2014-4-25T2:56:43Z</time></trkpt>
<trkpt lat="47.73396900" lon="-3.47460300"><ele></ele><time>2014-4-25T2:56:46Z</time></trkpt>
<trkpt lat="47.73406600" lon="-3.47452200"><ele></ele><time>2014-4-25T2:56:49Z</time></trkpt>
<trkpt lat="47.73416900" lon="-3.47445000"><ele></ele><time>2014-4-25T2:56:52Z</time></trkpt>
<trkpt lat="47.73426600" lon="-3.47437800"><ele></ele><time>2014-4-25T2:56:55Z</time></trkpt>
<trkpt lat="47.73436900" lon="-3.47430600"><ele></ele><time>2014-4-25T2:56:58Z</time></trkpt>
<trkpt lat="47.73448400" lon="-3.47422500"><ele></ele><time>2014-4-25T2:57:1Z</time></trkpt>
<trkpt lat="47.73458700" lon="-3.47413600"><ele></ele><time>2014-4-25T2:57:4Z</time></trkpt>
<trkpt lat="47.73466600" lon="-3.47405500"><ele></ele><time>2014-4-25T2:57:7Z</time></trkpt>
<trkpt lat="47.73478100" lon="-3.47398300"><ele></ele><time>2014-4-25T2:57:10Z</time></trkpt>
<trkpt lat="47.73491400" lon="-3.47394700"><ele></ele><time>2014-4-25T2:57:13Z</time></trkpt>
<trkpt lat="47.73502900" lon="-3.47391100"><ele></ele><time>2014-4-25T2:57:16Z</time></trkpt>
<trkpt lat="47.73513200" lon="-3.47389300"><ele></ele><time>2014-4-25T2:57:19Z</time></trkpt>
<trkpt lat="47.73525900" lon="-3.47389300"><ele></ele><time>2014-4-25T2:57:22Z</time></trkpt>
<trkpt lat="47.73539300" lon="-3.47390200"><ele></ele><time>2014-4-25T2:57:25Z</time></trkpt>
<trkpt lat="47.73552600" lon="-3.47393800"><ele></ele><time>2014-4-25T2:57:28Z</time></trkpt>
<trkpt lat="47.73565300" lon="-3.47395600"><ele></ele><time>2014-4-25T2:57:31Z</time></trkpt>
<trkpt lat="47.73578700" lon="-3.47397400"><ele></ele><time>2014-4-25T2:57:34Z</time></trkpt>
<trkpt lat="47.73590800" lon="-3.47401900"><ele></ele><time>2014-4-25T2:57:37Z</time></trkpt>
<trkpt lat="47.73602900" lon="-3.47407300"><ele></ele><time>2014-4-25T2:57:40Z</time></trkpt>
<trkpt lat="47.73614400" lon="-3.47413600"><ele></ele><time>2014-4-25T2:57:43Z</time></trkpt>
<trkpt lat="47.73624100" lon="-3.47418000"><ele></ele><time>2014-4-25T2:57:46Z</time></trkpt>
<trkpt lat="47.73634400" lon="-3.47418900"><ele></ele><time>2014-4-25T2:57:49Z</time></trkpt>
<trkpt lat="47.73645300" lon="-3.47409100"><ele></ele><time>2014-4-25T2:57:52Z</time></trkpt>
<trkpt lat="47.73652000" lon="-3.47397400"><ele></ele><time>2014-4-25T2:57:55Z</time></trkpt>
<trkpt lat="47.73659300" lon="-3.47381200"><ele></ele><time>2014-4-25T2:57:58Z</time></trkpt>
<trkpt lat="47.73669600" lon="-3.47365900"><ele></ele><time>2014-4-25T2:58:1Z</time></trkpt>
<trkpt lat="47.73677400" lon="-3.47352500"><ele></ele><time>2014-4-25T2:58:4Z</time></trkpt>
<trkpt lat="47.73686500" lon="-3.47335400"><ele></ele><time>2014-4-25T2:58:7Z</time></trkpt>
<trkpt lat="47.73696200" lon="-3.47322800"><ele></ele><time>2014-4-25T2:58:10Z</time></trkpt>
<trkpt lat="47.73702900" lon="-3.47312900"><ele></ele><time>2014-4-25T2:58:13Z</time></trkpt>
<trkpt lat="47.73711400" lon="-3.47306700"><ele></ele><time>2014-4-25T2:58:16Z</time></trkpt>
<trkpt lat="47.73722900" lon="-3.47298600"><ele></ele><time>2014-4-25T2:58:19Z</time></trkpt>
<trkpt lat="47.73732000" lon="-3.47292300"><ele></ele><time>2014-4-25T2:58:22Z</time></trkpt>
<trkpt lat="47.73742300" lon="-3.47283300"><ele></ele><time>2014-4-25T2:58:25Z</time></trkpt>
<trkpt lat="47.73748300" lon="-3.47268900"><ele></ele><time>2014-4-25T2:58:28Z</time></trkpt>
<trkpt lat="47.73751400" lon="-3.47256300"><ele></ele><time>2014-4-25T2:58:31Z</time></trkpt>
<trkpt lat="47.73755600" lon="-3.47241100"><ele></ele><time>2014-4-25T2:58:34Z</time></trkpt>
<trkpt lat="47.73758000" lon="-3.47224900"><ele></ele><time>2014-4-25T2:58:37Z</time></trkpt>
<trkpt lat="47.73761700" lon="-3.47212300"><ele></ele><time>2014-4-25T2:58:40Z</time></trkpt>
<trkpt lat="47.73764100" lon="-3.47197100"><ele></ele><time>2014-4-25T2:58:43Z</time></trkpt>
<trkpt lat="47.73770200" lon="-3.47186300"><ele></ele><time>2014-4-25T2:58:46Z</time></trkpt>
<trkpt lat="47.73777400" lon="-3.47172800"><ele></ele><time>2014-4-25T2:58:49Z</time></trkpt>
<trkpt lat="47.73785300" lon="-3.47162000"><ele></ele><time>2014-4-25T2:58:52Z</time></trkpt>
<trkpt lat="47.73793200" lon="-3.47152100"><ele></ele><time>2014-4-25T2:58:55Z</time></trkpt>
<trkpt lat="47.73802300" lon="-3.47141400"><ele></ele><time>2014-4-25T2:58:58Z</time></trkpt>
<trkpt lat="47.73812600" lon="-3.47132400"><ele></ele><time>2014-4-25T2:59:1Z</time></trkpt>
<trkpt lat="47.73822300" lon="-3.47121600"><ele></ele><time>2014-4-25T2:59:4Z</time></trkpt>
<trkpt lat="47.73829500" lon="-3.47111700"><ele></ele><time>2014-4-25T2:59:7Z</time></trkpt>
<trkpt lat="47.73837400" lon="-3.47102700"><ele></ele><time>2014-4-25T2:59:10Z</time></trkpt>
<trkpt lat="47.73847100" lon="-3.47105400"><ele></ele><time>2014-4-25T2:59:13Z</time></trkpt>
<trkpt lat="47.73855600" lon="-3.47109900"><ele></ele><time>2014-4-25T2:59:16Z</time></trkpt>
<trkpt lat="47.73861700" lon="-3.47100000"><ele></ele><time>2014-4-25T2:59:19Z</time></trkpt>
<trkpt lat="47.73868300" lon="-3.47086600"><ele></ele><time>2014-4-25T2:59:22Z</time></trkpt>
<trkpt lat="47.73874400" lon="-3.47074900"><ele></ele><time>2014-4-25T2:59:25Z</time></trkpt>
<trkpt lat="47.73883500" lon="-3.47065900"><ele></ele><time>2014-4-25T2:59:28Z</time></trkpt>
<trkpt lat="47.73890700" lon="-3.47056000"><ele></ele><time>2014-4-25T2:59:31Z</time></trkpt>
<trkpt lat="47.73896200" lon="-3.47045200"><ele></ele><time>2014-4-25T2:59:34Z</time></trkpt>
<trkpt lat="47.73905300" lon="-3.47032700"><ele></ele><time>2014-4-25T2:59:37Z</time></trkpt>
<trkpt lat="47.73913800" lon="-3.47018300"><ele></ele><time>2014-4-25T2:59:40Z</time></trkpt>
<trkpt lat="47.73922300" lon="-3.47007500"><ele></ele><time>2014-4-25T2:59:43Z</time></trkpt>
<trkpt lat="47.73929500" lon="-3.46996700"><ele></ele><time>2014-4-25T2:59:46Z</time></trkpt>
<trkpt lat="47.73937400" lon="-3.46986900"><ele></ele><time>2014-4-25T2:59:49Z</time></trkpt>
<trkpt lat="47.73944100" lon="-3.46977900"><ele></ele><time>2014-4-25T2:59:52Z</time></trkpt>
<trkpt lat="47.73948300" lon="-3.46990400"><ele></ele><time>2014-4-25T2:59:55Z</time></trkpt>
<trkpt lat="47.73957400" lon="-3.46995800"><ele></ele><time>2014-4-25T2:59:58Z</time></trkpt>
<trkpt lat="47.73970100" lon="-3.46992200"><ele></ele><time>2014-4-25T3:0:1Z</time></trkpt>
<trkpt lat="47.73980400" lon="-3.46986000"><ele></ele><time>2014-4-25T3:0:4Z</time></trkpt>
<trkpt lat="47.73991900" lon="-3.46980600"><ele></ele><time>2014-4-25T3:0:7Z</time></trkpt>
<trkpt lat="47.74004100" lon="-3.46977900"><ele></ele><time>2014-4-25T3:0:10Z</time></trkpt>
<trkpt lat="47.74021739" lon="-3.46978118"><ele></ele><time>2014-4-25T3:0:13Z</time></trkpt>
<trkpt lat="47.74022384" lon="-3.46999079"><ele></ele><time>2014-4-25T3:0:16Z</time></trkpt>
<trkpt lat="47.74026101" lon="-3.47026226"><ele></ele><time>2014-4-25T3:0:19Z</time></trkpt>
<trkpt lat="47.74026870" lon="-3.47044694"><ele></ele><time>2014-4-25T3:0:22Z</time></trkpt>
<trkpt lat="47.74027722" lon="-3.47061499"><ele></ele><time>2014-4-25T3:0:25Z</time></trkpt>
<trkpt lat="47.74027930" lon="-3.47079906"><ele></ele><time>2014-4-25T3:0:28Z</time></trkpt>
<trkpt lat="47.74031626" lon="-3.47096188"><ele></ele><time>2014-4-25T3:0:31Z</time></trkpt>
<trkpt lat="47.74035488" lon="-3.47109146"><ele></ele><time>2014-4-25T3:0:34Z</time></trkpt>
<trkpt lat="47.74037710" lon="-3.47121088"><ele></ele><time>2014-4-25T3:0:37Z</time></trkpt>
<trkpt lat="47.74038686" lon="-3.47135400"><ele></ele><time>2014-4-25T3:0:40Z</time></trkpt>
<trkpt lat="47.74042029" lon="-3.47147466"><ele></ele><time>2014-4-25T3:0:43Z</time></trkpt>
<trkpt lat="47.74043732" lon="-3.47158516"><ele></ele><time>2014-4-25T3:0:46Z</time></trkpt>
<trkpt lat="47.74044791" lon="-3.47171166"><ele></ele><time>2014-4-25T3:0:49Z</time></trkpt>
<trkpt lat="47.74047490" lon="-3.47184832"><ele></ele><time>2014-4-25T3:0:52Z</time></trkpt>
<trkpt lat="47.74048508" lon="-3.47198314"><ele></ele><time>2014-4-25T3:0:55Z</time></trkpt>
<trkpt lat="47.74049443" lon="-3.47213457"><ele></ele><time>2014-4-25T3:0:58Z</time></trkpt>
<trkpt lat="47.74049609" lon="-3.47232695"><ele></ele><time>2014-4-25T3:1:1Z</time></trkpt>
<trkpt lat="47.74048945" lon="-3.47245992"><ele></ele><time>2014-4-25T3:1:4Z</time></trkpt>
<trkpt lat="47.74048281" lon="-3.47259288"><ele></ele><time>2014-4-25T3:1:7Z</time></trkpt>
<trkpt lat="47.74046578" lon="-3.47270800"><ele></ele><time>2014-4-25T3:1:10Z</time></trkpt>
<trkpt lat="47.74045271" lon="-3.47285698"><ele></ele><time>2014-4-25T3:1:13Z</time></trkpt>
<trkpt lat="47.74045686" lon="-3.47299948"><ele></ele><time>2014-4-25T3:1:16Z</time></trkpt>
<trkpt lat="47.74043091" lon="-3.47318047"><ele></ele><time>2014-4-25T3:1:19Z</time></trkpt>
<trkpt lat="47.74041056" lon="-3.47336207"><ele></ele><time>2014-4-25T3:1:22Z</time></trkpt>
<trkpt lat="47.74038067" lon="-3.47350920"><ele></ele><time>2014-4-25T3:1:25Z</time></trkpt>
<trkpt lat="47.74034911" lon="-3.47368957"><ele></ele><time>2014-4-25T3:1:28Z</time></trkpt>
<trkpt lat="47.74031278" lon="-3.47385270"><ele></ele><time>2014-4-25T3:1:31Z</time></trkpt>
<trkpt lat="47.74028246" lon="-3.47400814"><ele></ele><time>2014-4-25T3:1:34Z</time></trkpt>
<trkpt lat="47.74024011" lon="-3.47417896"><ele></ele><time>2014-4-25T3:1:37Z</time></trkpt>
<trkpt lat="47.74021063" lon="-3.47431778"><ele></ele><time>2014-4-25T3:1:40Z</time></trkpt>
<trkpt lat="47.74016869" lon="-3.47448030"><ele></ele><time>2014-4-25T3:1:43Z</time></trkpt>
<trkpt lat="47.74012716" lon="-3.47463450"><ele></ele><time>2014-4-25T3:1:46Z</time></trkpt>
<trkpt lat="47.74009207" lon="-3.47477270"><ele></ele><time>2014-4-25T3:1:49Z</time></trkpt>
<trkpt lat="47.74005179" lon="-3.47490197"><ele></ele><time>2014-4-25T3:1:52Z</time></trkpt>
<trkpt lat="47.73999387" lon="-3.47504602"><ele></ele><time>2014-4-25T3:1:55Z</time></trkpt>
<trkpt lat="47.73992597" lon="-3.47516391"><ele></ele><time>2014-4-25T3:1:58Z</time></trkpt>
<trkpt lat="47.73984853" lon="-3.47524731"><ele></ele><time>2014-4-25T3:2:1Z</time></trkpt>
<trkpt lat="47.73976860" lon="-3.47538059"><ele></ele><time>2014-4-25T3:2:4Z</time></trkpt>
<trkpt lat="47.73968555" lon="-3.47546338"><ele></ele><time>2014-4-25T3:2:7Z</time></trkpt>
<trkpt lat="47.73960561" lon="-3.47559665"><ele></ele><time>2014-4-25T3:2:10Z</time></trkpt>
<trkpt lat="47.73955972" lon="-3.47572531"><ele></ele><time>2014-4-25T3:2:13Z</time></trkpt>
<trkpt lat="47.73952027" lon="-3.47583796"><ele></ele><time>2014-4-25T3:2:16Z</time></trkpt>
<trkpt lat="47.73949764" lon="-3.47595246"><ele></ele><time>2014-4-25T3:2:19Z</time></trkpt>
<trkpt lat="47.73958193" lon="-3.47607035"><ele></ele><time>2014-4-25T3:2:22Z</time></trkpt>
<trkpt lat="47.73965460" lon="-3.47619531"><ele></ele><time>2014-4-25T3:2:25Z</time></trkpt>
<trkpt lat="47.73973848" lon="-3.47632151"><ele></ele><time>2014-4-25T3:2:28Z</time></trkpt>
<trkpt lat="47.73980595" lon="-3.47643755"><ele></ele><time>2014-4-25T3:2:31Z</time></trkpt>
<trkpt lat="47.73989544" lon="-3.47656437"><ele></ele><time>2014-4-25T3:2:34Z</time></trkpt>
<trkpt lat="47.73997931" lon="-3.47669057"><ele></ele><time>2014-4-25T3:2:37Z</time></trkpt>
<trkpt lat="47.74007398" lon="-3.47682631"><ele></ele><time>2014-4-25T3:2:40Z</time></trkpt>
<trkpt lat="47.74015309" lon="-3.47693527"><ele></ele><time>2014-4-25T3:2:43Z</time></trkpt>
<trkpt lat="47.74023779" lon="-3.47704485"><ele></ele><time>2014-4-25T3:2:46Z</time></trkpt>
<trkpt lat="47.74033682" lon="-3.47720614"><ele></ele><time>2014-4-25T3:2:49Z</time></trkpt>
<trkpt lat="47.74045433" lon="-3.47733604"><ele></ele><time>2014-4-25T3:2:52Z</time></trkpt>
<trkpt lat="47.74056146" lon="-3.47744808"><ele></ele><time>2014-4-25T3:2:55Z</time></trkpt>
<trkpt lat="47.74066216" lon="-3.47757613"><ele></ele><time>2014-4-25T3:2:58Z</time></trkpt>
<trkpt lat="47.74078050" lon="-3.47768941"><ele></ele><time>2014-4-25T3:3:1Z</time></trkpt>
<trkpt lat="47.74089448" lon="-3.47777714"><ele></ele><time>2014-4-25T3:3:4Z</time></trkpt>
<trkpt lat="47.74099725" lon="-3.47786364"><ele></ele><time>2014-4-25T3:3:7Z</time></trkpt>
<trkpt lat="47.74110604" lon="-3.47794244"><ele></ele><time>2014-4-25T3:3:10Z</time></trkpt>
<trkpt lat="47.74121358" lon="-3.47804618"><ele></ele><time>2014-4-25T3:3:13Z</time></trkpt>
<trkpt lat="47.74131552" lon="-3.47814930"><ele></ele><time>2014-4-25T3:3:16Z</time></trkpt>
<trkpt lat="47.74140148" lon="-3.47823395"><ele></ele><time>2014-4-25T3:3:19Z</time></trkpt>
<trkpt lat="47.74147622" lon="-3.47831737"><ele></ele><time>2014-4-25T3:3:22Z</time></trkpt>
<trkpt lat="47.74157774" lon="-3.47842881"><ele></ele><time>2014-4-25T3:3:25Z</time></trkpt>
<trkpt lat="47.74165373" lon="-3.47848729"><ele></ele><time>2014-4-25T3:3:28Z</time></trkpt>
<trkpt lat="47.74176044" lon="-3.47860765"><ele></ele><time>2014-4-25T3:3:31Z</time></trkpt>
<trkpt lat="47.74184120" lon="-3.47868338"><ele></ele><time>2014-4-25T3:3:34Z</time></trkpt>
<trkpt lat="47.74191677" lon="-3.47875018"><ele></ele><time>2014-4-25T3:3:37Z</time></trkpt>
<trkpt lat="47.74199151" lon="-3.47883360"><ele></ele><time>2014-4-25T3:3:40Z</time></trkpt>
<trkpt lat="47.74207663" lon="-3.47893488"><ele></ele><time>2014-4-25T3:3:43Z</time></trkpt>
<trkpt lat="47.74216861" lon="-3.47901184"><ele></ele><time>2014-4-25T3:3:46Z</time></trkpt>
<trkpt lat="47.74227096" lon="-3.47910665"><ele></ele><time>2014-4-25T3:3:49Z</time></trkpt>
<trkpt lat="47.74236729" lon="-3.47920916"><ele></ele><time>2014-4-25T3:3:52Z</time></trkpt>
<trkpt lat="47.74245324" lon="-3.47929382"><ele></ele><time>2014-4-25T3:3:55Z</time></trkpt>
<trkpt lat="47.74253961" lon="-3.47937016"><ele></ele><time>2014-4-25T3:3:58Z</time></trkpt>
<trkpt lat="47.74263200" lon="-3.47943881"><ele></ele><time>2014-4-25T3:4:1Z</time></trkpt>
<trkpt lat="47.74273041" lon="-3.47949977"><ele></ele><time>2014-4-25T3:4:4Z</time></trkpt>
<trkpt lat="47.74284044" lon="-3.47955365"><ele></ele><time>2014-4-25T3:4:7Z</time></trkpt>
<trkpt lat="47.74293885" lon="-3.47961460"><ele></ele><time>2014-4-25T3:4:10Z</time></trkpt>
<trkpt lat="47.74303291" lon="-3.47965001"><ele></ele><time>2014-4-25T3:4:13Z</time></trkpt>
<trkpt lat="47.74313100" lon="-3.47972300"><ele></ele><time>2014-4-25T3:4:16Z</time></trkpt>
<trkpt lat="47.74323400" lon="-3.47972300"><ele></ele><time>2014-4-25T3:4:19Z</time></trkpt>
<trkpt lat="47.74331900" lon="-3.47977700"><ele></ele><time>2014-4-25T3:4:22Z</time></trkpt>
<trkpt lat="47.74344000" lon="-3.47980400"><ele></ele><time>2014-4-25T3:4:25Z</time></trkpt>
<trkpt lat="47.74354900" lon="-3.47985800"><ele></ele><time>2014-4-25T3:4:28Z</time></trkpt>
<trkpt lat="47.74364000" lon="-3.47986700"><ele></ele><time>2014-4-25T3:4:31Z</time></trkpt>
<trkpt lat="47.74373100" lon="-3.47985800"><ele></ele><time>2014-4-25T3:4:34Z</time></trkpt>
<trkpt lat="47.74383400" lon="-3.47986700"><ele></ele><time>2014-4-25T3:4:37Z</time></trkpt>
<trkpt lat="47.74395500" lon="-3.47984000"><ele></ele><time>2014-4-25T3:4:40Z</time></trkpt>
<trkpt lat="47.74407600" lon="-3.47981300"><ele></ele><time>2014-4-25T3:4:43Z</time></trkpt>
<trkpt lat="47.74420300" lon="-3.47979500"><ele></ele><time>2014-4-25T3:4:46Z</time></trkpt>
<trkpt lat="47.74433100" lon="-3.47979500"><ele></ele><time>2014-4-25T3:4:49Z</time></trkpt>
<trkpt lat="47.74447000" lon="-3.47980400"><ele></ele><time>2014-4-25T3:4:52Z</time></trkpt>
<trkpt lat="47.74460900" lon="-3.47980400"><ele></ele><time>2014-4-25T3:4:55Z</time></trkpt>
<trkpt lat="47.74473100" lon="-3.47984000"><ele></ele><time>2014-4-25T3:4:58Z</time></trkpt>
<trkpt lat="47.74485800" lon="-3.47990300"><ele></ele><time>2014-4-25T3:5:1Z</time></trkpt>
<trkpt lat="47.74497900" lon="-3.48001100"><ele></ele><time>2014-4-25T3:5:4Z</time></trkpt>
<trkpt lat="47.74511200" lon="-3.48011800"><ele></ele><time>2014-4-25T3:5:7Z</time></trkpt>
<trkpt lat="47.74524600" lon="-3.48023500"><ele></ele><time>2014-4-25T3:5:10Z</time></trkpt>
<trkpt lat="47.74532400" lon="-3.48029800"><ele></ele><time>2014-4-25T3:5:13Z</time></trkpt>
<trkpt lat="47.74547000" lon="-3.48041500"><ele></ele><time>2014-4-25T3:5:16Z</time></trkpt>
<trkpt lat="47.74560900" lon="-3.48054100"><ele></ele><time>2014-4-25T3:5:19Z</time></trkpt>
<trkpt lat="47.74574800" lon="-3.48063900"><ele></ele><time>2014-4-25T3:5:22Z</time></trkpt>
<trkpt lat="47.74586400" lon="-3.48074700"><ele></ele><time>2014-4-25T3:5:25Z</time></trkpt>
<trkpt lat="47.74596000" lon="-3.48082800"><ele></ele><time>2014-4-25T3:5:28Z</time></trkpt>
<trkpt lat="47.74605100" lon="-3.48083700"><ele></ele><time>2014-4-25T3:5:31Z</time></trkpt>
<trkpt lat="47.74612400" lon="-3.48075600"><ele></ele><time>2014-4-25T3:5:34Z</time></trkpt>
<trkpt lat="47.74617900" lon="-3.48061200"><ele></ele><time>2014-4-25T3:5:37Z</time></trkpt>
<trkpt lat="47.74621500" lon="-3.48047800"><ele></ele><time>2014-4-25T3:5:40Z</time></trkpt>
<trkpt lat="47.74626900" lon="-3.48031600"><ele></ele><time>2014-4-25T3:5:43Z</time></trkpt>
<trkpt lat="47.74629400" lon="-3.48019000"><ele></ele><time>2014-4-25T3:5:46Z</time></trkpt>
<trkpt lat="47.74634200" lon="-3.48004600"><ele></ele><time>2014-4-25T3:5:49Z</time></trkpt>
<trkpt lat="47.74640900" lon="-3.47995700"><ele></ele><time>2014-4-25T3:5:52Z</time></trkpt>
<trkpt lat="47.74650000" lon="-3.47984000"><ele></ele><time>2014-4-25T3:5:55Z</time></trkpt>
<trkpt lat="47.74657800" lon="-3.47967800"><ele></ele><time>2014-4-25T3:5:58Z</time></trkpt>
<trkpt lat="47.74663900" lon="-3.47955200"><ele></ele><time>2014-4-25T3:6:1Z</time></trkpt>
<trkpt lat="47.74670600" lon="-3.47940900"><ele></ele><time>2014-4-25T3:6:4Z</time></trkpt>
<trkpt lat="47.74673600" lon="-3.47925600"><ele></ele><time>2014-4-25T3:6:7Z</time></trkpt>
<trkpt lat="47.74674800" lon="-3.47911200"><ele></ele><time>2014-4-25T3:6:10Z</time></trkpt>
<trkpt lat="47.74674200" lon="-3.47896800"><ele></ele><time>2014-4-25T3:6:13Z</time></trkpt>
<trkpt lat="47.74676000" lon="-3.47881600"><ele></ele><time>2014-4-25T3:6:16Z</time></trkpt>
<trkpt lat="47.74677800" lon="-3.47868100"><ele></ele><time>2014-4-25T3:6:19Z</time></trkpt>
<trkpt lat="47.74679100" lon="-3.47854600"><ele></ele><time>2014-4-25T3:6:22Z</time></trkpt>
<trkpt lat="47.74682100" lon="-3.47838500"><ele></ele><time>2014-4-25T3:6:25Z</time></trkpt>
<trkpt lat="47.74687500" lon="-3.47825900"><ele></ele><time>2014-4-25T3:6:28Z</time></trkpt>
<trkpt lat="47.74690600" lon="-3.47812400"><ele></ele><time>2014-4-25T3:6:31Z</time></trkpt>
<trkpt lat="47.74693600" lon="-3.47796200"><ele></ele><time>2014-4-25T3:6:34Z</time></trkpt>
<trkpt lat="47.74696000" lon="-3.47781900"><ele></ele><time>2014-4-25T3:6:37Z</time></trkpt>
<trkpt lat="47.74697800" lon="-3.47764800"><ele></ele><time>2014-4-25T3:6:40Z</time></trkpt>
<trkpt lat="47.74700900" lon="-3.47747700"><ele></ele><time>2014-4-25T3:6:43Z</time></trkpt>
<trkpt lat="47.74706900" lon="-3.47733400"><ele></ele><time>2014-4-25T3:6:46Z</time></trkpt>
<trkpt lat="47.74711800" lon="-3.47719000"><ele></ele><time>2014-4-25T3:6:49Z</time></trkpt>
<trkpt lat="47.74712400" lon="-3.47704600"><ele></ele><time>2014-4-25T3:6:52Z</time></trkpt>
<trkpt lat="47.74714200" lon="-3.47691100"><ele></ele><time>2014-4-25T3:6:55Z</time></trkpt>
<trkpt lat="47.74716000" lon="-3.47677700"><ele></ele><time>2014-4-25T3:6:58Z</time></trkpt>
<trkpt lat="47.74719000" lon="-3.47660600"><ele></ele><time>2014-4-25T3:7:1Z</time></trkpt>
<trkpt lat="47.74721500" lon="-3.47648000"><ele></ele><time>2014-4-25T3:7:4Z</time></trkpt>
<trkpt lat="47.74725700" lon="-3.47635400"><ele></ele><time>2014-4-25T3:7:7Z</time></trkpt>
<trkpt lat="47.74731200" lon="-3.47622000"><ele></ele><time>2014-4-25T3:7:10Z</time></trkpt>
<trkpt lat="47.74736600" lon="-3.47606700"><ele></ele><time>2014-4-25T3:7:13Z</time></trkpt>
<trkpt lat="47.74741500" lon="-3.47590500"><ele></ele><time>2014-4-25T3:7:16Z</time></trkpt>
<trkpt lat="47.74746900" lon="-3.47576100"><ele></ele><time>2014-4-25T3:7:19Z</time></trkpt>
<trkpt lat="47.74758400" lon="-3.47569000"><ele></ele><time>2014-4-25T3:7:22Z</time></trkpt>
<trkpt lat="47.74769900" lon="-3.47577900"><ele></ele><time>2014-4-25T3:7:25Z</time></trkpt>
<trkpt lat="47.74779600" lon="-3.47586000"><ele></ele><time>2014-4-25T3:7:28Z</time></trkpt>
<trkpt lat="47.74790500" lon="-3.47592300"><ele></ele><time>2014-4-25T3:7:31Z</time></trkpt>
<trkpt lat="47.74802000" lon="-3.47599500"><ele></ele><time>2014-4-25T3:7:34Z</time></trkpt>
<trkpt lat="47.74814800" lon="-3.47607600"><ele></ele><time>2014-4-25T3:7:37Z</time></trkpt>
<trkpt lat="47.74828100" lon="-3.47616600"><ele></ele><time>2014-4-25T3:7:40Z</time></trkpt>
<trkpt lat="47.74841400" lon="-3.47623800"><ele></ele><time>2014-4-25T3:7:43Z</time></trkpt>
<trkpt lat="47.74855400" lon="-3.47630900"><ele></ele><time>2014-4-25T3:7:46Z</time></trkpt>
<trkpt lat="47.74869300" lon="-3.47636300"><ele></ele><time>2014-4-25T3:7:49Z</time></trkpt>
<trkpt lat="47.74883800" lon="-3.47641700"><ele></ele><time>2014-4-25T3:7:52Z</time></trkpt>
<trkpt lat="47.74898400" lon="-3.47647100"><ele></ele><time>2014-4-25T3:7:55Z</time></trkpt>
<trkpt lat="47.74911700" lon="-3.47652500"><ele></ele><time>2014-4-25T3:7:58Z</time></trkpt>
<trkpt lat="47.74925000" lon="-3.47659700"><ele></ele><time>2014-4-25T3:8:1Z</time></trkpt>
<trkpt lat="47.74937800" lon="-3.47666900"><ele></ele><time>2014-4-25T3:8:4Z</time></trkpt>
<trkpt lat="47.74949900" lon="-3.47675900"><ele></ele><time>2014-4-25T3:8:7Z</time></trkpt>
<trkpt lat="47.74961400" lon="-3.47684800"><ele></ele><time>2014-4-25T3:8:10Z</time></trkpt>
<trkpt lat="47.74972300" lon="-3.47695600"><ele></ele><time>2014-4-25T3:8:13Z</time></trkpt>
<trkpt lat="47.74982600" lon="-3.47705500"><ele></ele><time>2014-4-25T3:8:16Z</time></trkpt>
<trkpt lat="47.74992300" lon="-3.47713600"><ele></ele><time>2014-4-25T3:8:19Z</time></trkpt>
<trkpt lat="47.75003200" lon="-3.47719900"><ele></ele><time>2014-4-25T3:8:22Z</time></trkpt>
<trkpt lat="47.75013500" lon="-3.47725300"><ele></ele><time>2014-4-25T3:8:25Z</time></trkpt>
<trkpt lat="47.75023200" lon="-3.47728900"><ele></ele><time>2014-4-25T3:8:28Z</time></trkpt>
<trkpt lat="47.75032900" lon="-3.47732500"><ele></ele><time>2014-4-25T3:8:31Z</time></trkpt>
<trkpt lat="47.75042600" lon="-3.47735200"><ele></ele><time>2014-4-25T3:8:34Z</time></trkpt>
<trkpt lat="47.75052300" lon="-3.47737800"><ele></ele><time>2014-4-25T3:8:37Z</time></trkpt>
<trkpt lat="47.75062000" lon="-3.47740500"><ele></ele><time>2014-4-25T3:8:40Z</time></trkpt>
<trkpt lat="47.75071000" lon="-3.47744100"><ele></ele><time>2014-4-25T3:8:43Z</time></trkpt>
<trkpt lat="47.75080100" lon="-3.47749500"><ele></ele><time>2014-4-25T3:8:46Z</time></trkpt>
<trkpt lat="47.75089200" lon="-3.47755800"><ele></ele><time>2014-4-25T3:8:49Z</time></trkpt>
<trkpt lat="47.75096500" lon="-3.47765700"><ele></ele><time>2014-4-25T3:8:52Z</time></trkpt>
<trkpt lat="47.75101300" lon="-3.47777400"><ele></ele><time>2014-4-25T3:8:55Z</time></trkpt>
<trkpt lat="47.75103800" lon="-3.47790800"><ele></ele><time>2014-4-25T3:8:58Z</time></trkpt>
<trkpt lat="47.75105000" lon="-3.47805200"><ele></ele><time>2014-4-25T3:9:1Z</time></trkpt>
<trkpt lat="47.75106200" lon="-3.47819600"><ele></ele><time>2014-4-25T3:9:4Z</time></trkpt>
<trkpt lat="47.75107400" lon="-3.47833100"><ele></ele><time>2014-4-25T3:9:7Z</time></trkpt>
<trkpt lat="47.75108600" lon="-3.47848300"><ele></ele><time>2014-4-25T3:9:10Z</time></trkpt>
<trkpt lat="47.75109200" lon="-3.47862700"><ele></ele><time>2014-4-25T3:9:13Z</time></trkpt>
<trkpt lat="47.75109800" lon="-3.47877100"><ele></ele><time>2014-4-25T3:9:16Z</time></trkpt>
<trkpt lat="47.75109800" lon="-3.47892400"><ele></ele><time>2014-4-25T3:9:19Z</time></trkpt>
<trkpt lat="47.75108600" lon="-3.47907600"><ele></ele><time>2014-4-25T3:9:22Z</time></trkpt>
<trkpt lat="47.75106200" lon="-3.47922900"><ele></ele><time>2014-4-25T3:9:25Z</time></trkpt>
<trkpt lat="47.75105000" lon="-3.47938200"><ele></ele><time>2014-4-25T3:9:28Z</time></trkpt>
<trkpt lat="47.75102500" lon="-3.47954300"><ele></ele><time>2014-4-25T3:9:31Z</time></trkpt>
<trkpt lat="47.75100100" lon="-3.47969600"><ele></ele><time>2014-4-25T3:9:34Z</time></trkpt>
<trkpt lat="47.75096500" lon="-3.47985800"><ele></ele><time>2014-4-25T3:9:37Z</time></trkpt>
<trkpt lat="47.75093500" lon="-3.48002800"><ele></ele><time>2014-4-25T3:9:40Z</time></trkpt>
<trkpt lat="47.75089200" lon="-3.48019900"><ele></ele><time>2014-4-25T3:9:43Z</time></trkpt>
<trkpt lat="47.75085600" lon="-3.48037900"><ele></ele><time>2014-4-25T3:9:46Z</time></trkpt>
<trkpt lat="47.75081900" lon="-3.48055900"><ele></ele><time>2014-4-25T3:9:49Z</time></trkpt>
<trkpt lat="47.75078300" lon="-3.48075600"><ele></ele><time>2014-4-25T3:9:52Z</time></trkpt>
<trkpt lat="47.75074100" lon="-3.48096300"><ele></ele><time>2014-4-25T3:9:55Z</time></trkpt>
<trkpt lat="47.75070400" lon="-3.48116900"><ele></ele><time>2014-4-25T3:9:58Z</time></trkpt>
<trkpt lat="47.75066200" lon="-3.48138500"><ele></ele><time>2014-4-25T3:10:1Z</time></trkpt>
<trkpt lat="47.75062000" lon="-3.48161000"><ele></ele><time>2014-4-25T3:10:4Z</time></trkpt>
<trkpt lat="47.75057700" lon="-3.48182500"><ele></ele><time>2014-4-25T3:10:7Z</time></trkpt>
<trkpt lat="47.75054100" lon="-3.48204100"><ele></ele><time>2014-4-25T3:10:10Z</time></trkpt>
<trkpt lat="47.75050400" lon="-3.48225600"><ele></ele><time>2014-4-25T3:10:13Z</time></trkpt>
<trkpt lat="47.75046200" lon="-3.48248100"><ele></ele><time>2014-4-25T3:10:16Z</time></trkpt>
<trkpt lat="47.75042000" lon="-3.48269600"><ele></ele><time>2014-4-25T3:10:19Z</time></trkpt>
<trkpt lat="47.75038900" lon="-3.48293000"><ele></ele><time>2014-4-25T3:10:22Z</time></trkpt>
<trkpt lat="47.75036500" lon="-3.48316400"><ele></ele><time>2014-4-25T3:10:25Z</time></trkpt>
<trkpt lat="47.75037100" lon="-3.48340600"><ele></ele><time>2014-4-25T3:10:28Z</time></trkpt>
<trkpt lat="47.75041400" lon="-3.48364000"><ele></ele><time>2014-4-25T3:10:31Z</time></trkpt>
<trkpt lat="47.75050400" lon="-3.48383700"><ele></ele><time>2014-4-25T3:10:34Z</time></trkpt>
<trkpt lat="47.75063200" lon="-3.48399900"><ele></ele><time>2014-4-25T3:10:37Z</time></trkpt>
<trkpt lat="47.75077700" lon="-3.48414300"><ele></ele><time>2014-4-25T3:10:40Z</time></trkpt>
<trkpt lat="47.75086200" lon="-3.48420600"><ele></ele><time>2014-4-25T3:10:43Z</time></trkpt>
<trkpt lat="47.75101300" lon="-3.48434900"><ele></ele><time>2014-4-25T3:10:46Z</time></trkpt>
<trkpt lat="47.75108600" lon="-3.48443000"><ele></ele><time>2014-4-25T3:10:49Z</time></trkpt>
<trkpt lat="47.75120100" lon="-3.48461000"><ele></ele><time>2014-4-25T3:10:52Z</time></trkpt>
<trkpt lat="47.75129200" lon="-3.48481700"><ele></ele><time>2014-4-25T3:10:55Z</time></trkpt>
<trkpt lat="47.75137100" lon="-3.48503200"><ele></ele><time>2014-4-25T3:10:58Z</time></trkpt>
<trkpt lat="47.75144300" lon="-3.48521200"><ele></ele><time>2014-4-25T3:11:1Z</time></trkpt>
<trkpt lat="47.75145600" lon="-3.48541800"><ele></ele><time>2014-4-25T3:11:4Z</time></trkpt>
<trkpt lat="47.75139500" lon="-3.48554400"><ele></ele><time>2014-4-25T3:11:7Z</time></trkpt>
<trkpt lat="47.75129800" lon="-3.48558000"><ele></ele><time>2014-4-25T3:11:10Z</time></trkpt>
<trkpt lat="47.75121900" lon="-3.48567000"><ele></ele><time>2014-4-25T3:11:13Z</time></trkpt>
<trkpt lat="47.75112200" lon="-3.48569700"><ele></ele><time>2014-4-25T3:11:16Z</time></trkpt>
<trkpt lat="47.75100100" lon="-3.48568800"><ele></ele><time>2014-4-25T3:11:19Z</time></trkpt>
<trkpt lat="47.75089200" lon="-3.48569700"><ele></ele><time>2014-4-25T3:11:22Z</time></trkpt>
<trkpt lat="47.75078900" lon="-3.48573300"><ele></ele><time>2014-4-25T3:11:25Z</time></trkpt>
<trkpt lat="47.75069200" lon="-3.48576900"><ele></ele><time>2014-4-25T3:11:28Z</time></trkpt>
<trkpt lat="47.75057700" lon="-3.48580500"><ele></ele><time>2014-4-25T3:11:31Z</time></trkpt>
<trkpt lat="47.75047400" lon="-3.48582300"><ele></ele><time>2014-4-25T3:11:34Z</time></trkpt>
<trkpt lat="47.75035300" lon="-3.48584100"><ele></ele><time>2014-4-25T3:11:37Z</time></trkpt>
<trkpt lat="47.75025600" lon="-3.48588600"><ele></ele><time>2014-4-25T3:11:40Z</time></trkpt>
<trkpt lat="47.75015900" lon="-3.48592100"><ele></ele><time>2014-4-25T3:11:43Z</time></trkpt>
<trkpt lat="47.75006200" lon="-3.48596600"><ele></ele><time>2014-4-25T3:11:46Z</time></trkpt>
<trkpt lat="47.74993500" lon="-3.48602000"><ele></ele><time>2014-4-25T3:11:49Z</time></trkpt>
<trkpt lat="47.74980200" lon="-3.48607400"><ele></ele><time>2014-4-25T3:11:52Z</time></trkpt>
<trkpt lat="47.74966200" lon="-3.48612800"><ele></ele><time>2014-4-25T3:11:55Z</time></trkpt>
<trkpt lat="47.74954100" lon="-3.48615500"><ele></ele><time>2014-4-25T3:11:58Z</time></trkpt>
<trkpt lat="47.74940800" lon="-3.48620900"><ele></ele><time>2014-4-25T3:12:1Z</time></trkpt>
<trkpt lat="47.74927500" lon="-3.48626300"><ele></ele><time>2014-4-25T3:12:4Z</time></trkpt>
<trkpt lat="47.74916600" lon="-3.48630800"><ele></ele><time>2014-4-25T3:12:7Z</time></trkpt>
<trkpt lat="47.74905000" lon="-3.48636200"><ele></ele><time>2014-4-25T3:12:10Z</time></trkpt>
<trkpt lat="47.74892300" lon="-3.48642400"><ele></ele><time>2014-4-25T3:12:13Z</time></trkpt>
<trkpt lat="47.74881400" lon="-3.48646000"><ele></ele><time>2014-4-25T3:12:16Z</time></trkpt>
<trkpt lat="47.74871700" lon="-3.48651400"><ele></ele><time>2014-4-25T3:12:19Z</time></trkpt>
<trkpt lat="47.74862000" lon="-3.48655000"><ele></ele><time>2014-4-25T3:12:22Z</time></trkpt>
<trkpt lat="47.74848100" lon="-3.48656800"><ele></ele><time>2014-4-25T3:12:25Z</time></trkpt>
<trkpt lat="47.74839000" lon="-3.48659500"><ele></ele><time>2014-4-25T3:12:28Z</time></trkpt>
<trkpt lat="47.74829300" lon="-3.48662200"><ele></ele><time>2014-4-25T3:12:31Z</time></trkpt>
<trkpt lat="47.74816600" lon="-3.48665800"><ele></ele><time>2014-4-25T3:12:34Z</time></trkpt>
<trkpt lat="47.74805100" lon="-3.48669400"><ele></ele><time>2014-4-25T3:12:37Z</time></trkpt>
<trkpt lat="47.74791700" lon="-3.48672100"><ele></ele><time>2014-4-25T3:12:40Z</time></trkpt>
<trkpt lat="47.74782700" lon="-3.48674800"><ele></ele><time>2014-4-25T3:12:43Z</time></trkpt>
<trkpt lat="47.74773600" lon="-3.48678400"><ele></ele><time>2014-4-25T3:12:46Z</time></trkpt>
<trkpt lat="47.74763900" lon="-3.48682900"><ele></ele><time>2014-4-25T3:12:49Z</time></trkpt>
<trkpt lat="47.74754200" lon="-3.48685600"><ele></ele><time>2014-4-25T3:12:52Z</time></trkpt>
<trkpt lat="47.74740900" lon="-3.48690100"><ele></ele><time>2014-4-25T3:12:55Z</time></trkpt>
<trkpt lat="47.74731200" lon="-3.48692800"><ele></ele><time>2014-4-25T3:12:58Z</time></trkpt>
<trkpt lat="47.74722100" lon="-3.48695500"><ele></ele><time>2014-4-25T3:13:1Z</time></trkpt>
<trkpt lat="47.74708700" lon="-3.48699900"><ele></ele><time>2014-4-25T3:13:4Z</time></trkpt>
<trkpt lat="47.74700300" lon="-3.48703500"><ele></ele><time>2014-4-25T3:13:7Z</time></trkpt>
<trkpt lat="47.74689400" lon="-3.48711600"><ele></ele><time>2014-4-25T3:13:10Z</time></trkpt>
<trkpt lat="47.74679700" lon="-3.48722400"><ele></ele><time>2014-4-25T3:13:13Z</time></trkpt>
<trkpt lat="47.74677200" lon="-3.48736800"><ele></ele><time>2014-4-25T3:13:16Z</time></trkpt>
<trkpt lat="47.74676000" lon="-3.48750200"><ele></ele><time>2014-4-25T3:13:19Z</time></trkpt>
<trkpt lat="47.74675400" lon="-3.48763700"><ele></ele><time>2014-4-25T3:13:22Z</time></trkpt>
<trkpt lat="47.74674800" lon="-3.48777200"><ele></ele><time>2014-4-25T3:13:25Z</time></trkpt>
<trkpt lat="47.74673600" lon="-3.48790700"><ele></ele><time>2014-4-25T3:13:28Z</time></trkpt>
<trkpt lat="47.74668100" lon="-3.48804100"><ele></ele><time>2014-4-25T3:13:31Z</time></trkpt>
<trkpt lat="47.74658500" lon="-3.48798800"><ele></ele><time>2014-4-25T3:13:34Z</time></trkpt>
<trkpt lat="47.74647500" lon="-3.48797900"><ele></ele><time>2014-4-25T3:13:37Z</time></trkpt>
<trkpt lat="47.74638500" lon="-3.48797900"><ele></ele><time>2014-4-25T3:13:40Z</time></trkpt>
<trkpt lat="47.74631200" lon="-3.48806800"><ele></ele><time>2014-4-25T3:13:43Z</time></trkpt>
<trkpt lat="47.74631200" lon="-3.48822100"><ele></ele><time>2014-4-25T3:13:46Z</time></trkpt>
<trkpt lat="47.74632400" lon="-3.48838300"><ele></ele><time>2014-4-25T3:13:49Z</time></trkpt>
<trkpt lat="47.74631200" lon="-3.48852700"><ele></ele><time>2014-4-25T3:13:52Z</time></trkpt>
<trkpt lat="47.74626900" lon="-3.48867000"><ele></ele><time>2014-4-25T3:13:55Z</time></trkpt>
<trkpt lat="47.74619100" lon="-3.48882300"><ele></ele><time>2014-4-25T3:13:58Z</time></trkpt>
<trkpt lat="47.74612400" lon="-3.48891300"><ele></ele><time>2014-4-25T3:14:1Z</time></trkpt>
<trkpt lat="47.74604500" lon="-3.48899400"><ele></ele><time>2014-4-25T3:14:4Z</time></trkpt>
<trkpt lat="47.74594800" lon="-3.48906600"><ele></ele><time>2014-4-25T3:14:7Z</time></trkpt>
<trkpt lat="47.74587000" lon="-3.48914600"><ele></ele><time>2014-4-25T3:14:10Z</time></trkpt>
<trkpt lat="47.74582700" lon="-3.48933500"><ele></ele><time>2014-4-25T3:14:13Z</time></trkpt>
<trkpt lat="47.74580300" lon="-3.48948800"><ele></ele><time>2014-4-25T3:14:16Z</time></trkpt>
<trkpt lat="47.74576700" lon="-3.48964900"><ele></ele><time>2014-4-25T3:14:19Z</time></trkpt>
<trkpt lat="47.74571200" lon="-3.48981100"><ele></ele><time>2014-4-25T3:14:22Z</time></trkpt>
<trkpt lat="47.74565100" lon="-3.48999100"><ele></ele><time>2014-4-25T3:14:25Z</time></trkpt>
<trkpt lat="47.74559100" lon="-3.49020600"><ele></ele><time>2014-4-25T3:14:28Z</time></trkpt>
<trkpt lat="47.74555500" lon="-3.49044000"><ele></ele><time>2014-4-25T3:14:31Z</time></trkpt>
<trkpt lat="47.74553600" lon="-3.49068300"><ele></ele><time>2014-4-25T3:14:34Z</time></trkpt>
<trkpt lat="47.74551200" lon="-3.49092500"><ele></ele><time>2014-4-25T3:14:37Z</time></trkpt>
<trkpt lat="47.74548800" lon="-3.49106000"><ele></ele><time>2014-4-25T3:14:40Z</time></trkpt>
<trkpt lat="47.74543900" lon="-3.49130200"><ele></ele><time>2014-4-25T3:14:43Z</time></trkpt>
<trkpt lat="47.74539700" lon="-3.49155400"><ele></ele><time>2014-4-25T3:14:46Z</time></trkpt>
<trkpt lat="47.74536100" lon="-3.49181400"><ele></ele><time>2014-4-25T3:14:49Z</time></trkpt>
<trkpt lat="47.74533600" lon="-3.49194000"><ele></ele><time>2014-4-25T3:14:52Z</time></trkpt>
<trkpt lat="47.74530600" lon="-3.49206600"><ele></ele><time>2014-4-25T3:14:55Z</time></trkpt>
<trkpt lat="47.74525200" lon="-3.49229000"><ele></ele><time>2014-4-25T3:14:58Z</time></trkpt>
<trkpt lat="47.74519700" lon="-3.49249700"><ele></ele><time>2014-4-25T3:15:1Z</time></trkpt>
<trkpt lat="47.74515500" lon="-3.49270400"><ele></ele><time>2014-4-25T3:15:4Z</time></trkpt>
<trkpt lat="47.74510600" lon="-3.49291900"><ele></ele><time>2014-4-25T3:15:7Z</time></trkpt>
<trkpt lat="47.74506400" lon="-3.49311700"><ele></ele><time>2014-4-25T3:15:10Z</time></trkpt>
<trkpt lat="47.74502700" lon="-3.49331500"><ele></ele><time>2014-4-25T3:15:13Z</time></trkpt>
<trkpt lat="47.74497900" lon="-3.49352100"><ele></ele><time>2014-4-25T3:15:16Z</time></trkpt>
<trkpt lat="47.74490600" lon="-3.49370100"><ele></ele><time>2014-4-25T3:15:19Z</time></trkpt>
<trkpt lat="47.74479700" lon="-3.49383600"><ele></ele><time>2014-4-25T3:15:22Z</time></trkpt>
<trkpt lat="47.74467000" lon="-3.49395200"><ele></ele><time>2014-4-25T3:15:25Z</time></trkpt>
<trkpt lat="47.74453100" lon="-3.49406000"><ele></ele><time>2014-4-25T3:15:28Z</time></trkpt>
<trkpt lat="47.74439100" lon="-3.49415900"><ele></ele><time>2014-4-25T3:15:31Z</time></trkpt>
<trkpt lat="47.74425200" lon="-3.49425800"><ele></ele><time>2014-4-25T3:15:34Z</time></trkpt>
<trkpt lat="47.74412500" lon="-3.49438400"><ele></ele><time>2014-4-25T3:15:37Z</time></trkpt>
<trkpt lat="47.74400300" lon="-3.49454500"><ele></ele><time>2014-4-25T3:15:40Z</time></trkpt>
<trkpt lat="47.74391300" lon="-3.49471600"><ele></ele><time>2014-4-25T3:15:43Z</time></trkpt>
<trkpt lat="47.74384000" lon="-3.49491400"><ele></ele><time>2014-4-25T3:15:46Z</time></trkpt>
<trkpt lat="47.74379100" lon="-3.49511100"><ele></ele><time>2014-4-25T3:15:49Z</time></trkpt>
<trkpt lat="47.74374300" lon="-3.49531800"><ele></ele><time>2014-4-25T3:15:52Z</time></trkpt>
<trkpt lat="47.74368800" lon="-3.49552400"><ele></ele><time>2014-4-25T3:15:55Z</time></trkpt>
<trkpt lat="47.74363400" lon="-3.49573100"><ele></ele><time>2014-4-25T3:15:58Z</time></trkpt>
<trkpt lat="47.74357900" lon="-3.49592900"><ele></ele><time>2014-4-25T3:16:1Z</time></trkpt>
<trkpt lat="47.74351900" lon="-3.49612600"><ele></ele><time>2014-4-25T3:16:4Z</time></trkpt>
<trkpt lat="47.74345800" lon="-3.49631500"><ele></ele><time>2014-4-25T3:16:7Z</time></trkpt>
<trkpt lat="47.74339800" lon="-3.49649500"><ele></ele><time>2014-4-25T3:16:10Z</time></trkpt>
<trkpt lat="47.74333700" lon="-3.49667400"><ele></ele><time>2014-4-25T3:16:13Z</time></trkpt>
<trkpt lat="47.74327000" lon="-3.49685400"><ele></ele><time>2014-4-25T3:16:16Z</time></trkpt>
<trkpt lat="47.74319800" lon="-3.49702500"><ele></ele><time>2014-4-25T3:16:19Z</time></trkpt>
<trkpt lat="47.74311900" lon="-3.49719500"><ele></ele><time>2014-4-25T3:16:22Z</time></trkpt>
<trkpt lat="47.74304000" lon="-3.49735700"><ele></ele><time>2014-4-25T3:16:25Z</time></trkpt>
<trkpt lat="47.74296100" lon="-3.49752800"><ele></ele><time>2014-4-25T3:16:28Z</time></trkpt>
<trkpt lat="47.74289500" lon="-3.49768000"><ele></ele><time>2014-4-25T3:16:31Z</time></trkpt>
<trkpt lat="47.74282200" lon="-3.49783300"><ele></ele><time>2014-4-25T3:16:34Z</time></trkpt>
<trkpt lat="47.74274300" lon="-3.49798600"><ele></ele><time>2014-4-25T3:16:37Z</time></trkpt>
<trkpt lat="47.74267000" lon="-3.49814800"><ele></ele><time>2014-4-25T3:16:40Z</time></trkpt>
<trkpt lat="47.74259800" lon="-3.49830000"><ele></ele><time>2014-4-25T3:16:43Z</time></trkpt>
<trkpt lat="47.74253100" lon="-3.49845300"><ele></ele><time>2014-4-25T3:16:46Z</time></trkpt>
<trkpt lat="47.74245800" lon="-3.49860600"><ele></ele><time>2014-4-25T3:16:49Z</time></trkpt>
<trkpt lat="47.74240400" lon="-3.49876700"><ele></ele><time>2014-4-25T3:16:52Z</time></trkpt>
<trkpt lat="47.74234900" lon="-3.49892000"><ele></ele><time>2014-4-25T3:16:55Z</time></trkpt>
<trkpt lat="47.74228900" lon="-3.49907300"><ele></ele><time>2014-4-25T3:16:58Z</time></trkpt>
<trkpt lat="47.74224000" lon="-3.49923400"><ele></ele><time>2014-4-25T3:17:1Z</time></trkpt>
<trkpt lat="47.74218600" lon="-3.49938700"><ele></ele><time>2014-4-25T3:17:4Z</time></trkpt>
<trkpt lat="47.74213100" lon="-3.49954900"><ele></ele><time>2014-4-25T3:17:7Z</time></trkpt>
<trkpt lat="47.74208300" lon="-3.49970200"><ele></ele><time>2014-4-25T3:17:10Z</time></trkpt>
<trkpt lat="47.74202200" lon="-3.49986300"><ele></ele><time>2014-4-25T3:17:13Z</time></trkpt>
<trkpt lat="47.74197400" lon="-3.50003400"><ele></ele><time>2014-4-25T3:17:16Z</time></trkpt>
<trkpt lat="47.74191300" lon="-3.50019600"><ele></ele><time>2014-4-25T3:17:19Z</time></trkpt>
<trkpt lat="47.74185800" lon="-3.50034800"><ele></ele><time>2014-4-25T3:17:22Z</time></trkpt>
<trkpt lat="47.74180400" lon="-3.50050100"><ele></ele><time>2014-4-25T3:17:25Z</time></trkpt>
<trkpt lat="47.74174900" lon="-3.50065400"><ele></ele><time>2014-4-25T3:17:28Z</time></trkpt>
<trkpt lat="47.74169500" lon="-3.50081600"><ele></ele><time>2014-4-25T3:17:31Z</time></trkpt>
<trkpt lat="47.74164600" lon="-3.50096800"><ele></ele><time>2014-4-25T3:17:34Z</time></trkpt>
<trkpt lat="47.74158600" lon="-3.50112100"><ele></ele><time>2014-4-25T3:17:37Z</time></trkpt>
<trkpt lat="47.74152500" lon="-3.50127400"><ele></ele><time>2014-4-25T3:17:40Z</time></trkpt>
<trkpt lat="47.74145200" lon="-3.50139900"><ele></ele><time>2014-4-25T3:17:43Z</time></trkpt>
<trkpt lat="47.74135600" lon="-3.50149800"><ele></ele><time>2014-4-25T3:17:46Z</time></trkpt>
<trkpt lat="47.74125300" lon="-3.50154300"><ele></ele><time>2014-4-25T3:17:49Z</time></trkpt>
<trkpt lat="47.74115000" lon="-3.50156100"><ele></ele><time>2014-4-25T3:17:52Z</time></trkpt>
<trkpt lat="47.74102800" lon="-3.50151600"><ele></ele><time>2014-4-25T3:17:55Z</time></trkpt>
<trkpt lat="47.74090100" lon="-3.50147100"><ele></ele><time>2014-4-25T3:17:58Z</time></trkpt>
<trkpt lat="47.74081600" lon="-3.50142600"><ele></ele><time>2014-4-25T3:18:1Z</time></trkpt>
<trkpt lat="47.74070700" lon="-3.50132800"><ele></ele><time>2014-4-25T3:18:4Z</time></trkpt>
<trkpt lat="47.74061600" lon="-3.50123800"><ele></ele><time>2014-4-25T3:18:7Z</time></trkpt>
<trkpt lat="47.74051300" lon="-3.50116600"><ele></ele><time>2014-4-25T3:18:10Z</time></trkpt>
<trkpt lat="47.74043500" lon="-3.50109400"><ele></ele><time>2014-4-25T3:18:13Z</time></trkpt>
<trkpt lat="47.74036200" lon="-3.50101300"><ele></ele><time>2014-4-25T3:18:16Z</time></trkpt>
<trkpt lat="47.74028300" lon="-3.50091400"><ele></ele><time>2014-4-25T3:18:19Z</time></trkpt>
<trkpt lat="47.74019800" lon="-3.50082400"><ele></ele><time>2014-4-25T3:18:22Z</time></trkpt>
<trkpt lat="47.74012500" lon="-3.50072600"><ele></ele><time>2014-4-25T3:18:25Z</time></trkpt>
<trkpt lat="47.74001000" lon="-3.50060900"><ele></ele><time>2014-4-25T3:18:28Z</time></trkpt>
<trkpt lat="47.73993800" lon="-3.50052800"><ele></ele><time>2014-4-25T3:18:31Z</time></trkpt>
<trkpt lat="47.73986500" lon="-3.50042900"><ele></ele><time>2014-4-25T3:18:34Z</time></trkpt>
<trkpt lat="47.73978600" lon="-3.50032100"><ele></ele><time>2014-4-25T3:18:37Z</time></trkpt>
<trkpt lat="47.73968300" lon="-3.50024100"><ele></ele><time>2014-4-25T3:18:40Z</time></trkpt>
<trkpt lat="47.73959200" lon="-3.50014200"><ele></ele><time>2014-4-25T3:18:43Z</time></trkpt>
<trkpt lat="47.73948300" lon="-3.50003400"><ele></ele><time>2014-4-25T3:18:46Z</time></trkpt>
<trkpt lat="47.73938000" lon="-3.49998900"><ele></ele><time>2014-4-25T3:18:49Z</time></trkpt>
<trkpt lat="47.73924700" lon="-3.49997100"><ele></ele><time>2014-4-25T3:18:52Z</time></trkpt>
<trkpt lat="47.73912600" lon="-3.49991700"><ele></ele><time>2014-4-25T3:18:55Z</time></trkpt>
<trkpt lat="47.73905300" lon="-3.49980900"><ele></ele><time>2014-4-25T3:18:58Z</time></trkpt>
<trkpt lat="47.73899200" lon="-3.49970200"><ele></ele><time>2014-4-25T3:19:1Z</time></trkpt>
<trkpt lat="47.73890700" lon="-3.49963000"><ele></ele><time>2014-4-25T3:19:4Z</time></trkpt>
<trkpt lat="47.73895000" lon="-3.49950400"><ele></ele><time>2014-4-25T3:19:7Z</time></trkpt>
<trkpt lat="47.73899200" lon="-3.49937800"><ele></ele><time>2014-4-25T3:19:10Z</time></trkpt>
<trkpt lat="47.73907100" lon="-3.49923400"><ele></ele><time>2014-4-25T3:19:13Z</time></trkpt>
<trkpt lat="47.73913800" lon="-3.49912700"><ele></ele><time>2014-4-25T3:19:16Z</time></trkpt>
<trkpt lat="47.73919800" lon="-3.49901900"><ele></ele><time>2014-4-25T3:19:19Z</time></trkpt>
<trkpt lat="47.73928900" lon="-3.49890200"><ele></ele><time>2014-4-25T3:19:22Z</time></trkpt>
<trkpt lat="47.73938000" lon="-3.49882100"><ele></ele><time>2014-4-25T3:19:25Z</time></trkpt>
<trkpt lat="47.73950700" lon="-3.49874900"><ele></ele><time>2014-4-25T3:19:28Z</time></trkpt>
<trkpt lat="47.73961600" lon="-3.49865100"><ele></ele><time>2014-4-25T3:19:31Z</time></trkpt>
<trkpt lat="47.73967100" lon="-3.49848000"><ele></ele><time>2014-4-25T3:19:34Z</time></trkpt>
<trkpt lat="47.73973800" lon="-3.49828200"><ele></ele><time>2014-4-25T3:19:37Z</time></trkpt>
<trkpt lat="47.73979800" lon="-3.49812100"><ele></ele><time>2014-4-25T3:19:40Z</time></trkpt>
<trkpt lat="47.73979800" lon="-3.49797700"><ele></ele><time>2014-4-25T3:19:43Z</time></trkpt>
<trkpt lat="47.73975600" lon="-3.49786000"><ele></ele><time>2014-4-25T3:19:46Z</time></trkpt>
<trkpt lat="47.73971900" lon="-3.49768900"><ele></ele><time>2014-4-25T3:19:49Z</time></trkpt>
<trkpt lat="47.73970700" lon="-3.49751000"><ele></ele><time>2014-4-25T3:19:52Z</time></trkpt>
<trkpt lat="47.73970100" lon="-3.49732100"><ele></ele><time>2014-4-25T3:19:55Z</time></trkpt>
<trkpt lat="47.73970700" lon="-3.49717700"><ele></ele><time>2014-4-25T3:19:58Z</time></trkpt>
<trkpt lat="47.73970700" lon="-3.49698900"><ele></ele><time>2014-4-25T3:20:1Z</time></trkpt>
<trkpt lat="47.73970700" lon="-3.49683600"><ele></ele><time>2014-4-25T3:20:4Z</time></trkpt>
<trkpt lat="47.73969500" lon="-3.49667400"><ele></ele><time>2014-4-25T3:20:7Z</time></trkpt>
<trkpt lat="47.73969500" lon="-3.49648600"><ele></ele><time>2014-4-25T3:20:10Z</time></trkpt>
<trkpt lat="47.73968900" lon="-3.49629700"><ele></ele><time>2014-4-25T3:20:13Z</time></trkpt>
<trkpt lat="47.73968300" lon="-3.49613500"><ele></ele><time>2014-4-25T3:20:16Z</time></trkpt>
<trkpt lat="47.73967100" lon="-3.49595600"><ele></ele><time>2014-4-25T3:20:19Z</time></trkpt>
<trkpt lat="47.73968300" lon="-3.49581200"><ele></ele><time>2014-4-25T3:20:22Z</time></trkpt>
<trkpt lat="47.73968300" lon="-3.49567700"><ele></ele><time>2014-4-25T3:20:25Z</time></trkpt>
<trkpt lat="47.73967100" lon="-3.49554200"><ele></ele><time>2014-4-25T3:20:28Z</time></trkpt>
<trkpt lat="47.73965900" lon="-3.49540800"><ele></ele><time>2014-4-25T3:20:31Z</time></trkpt>
<trkpt lat="47.73964100" lon="-3.49527300"><ele></ele><time>2014-4-25T3:20:34Z</time></trkpt>
<trkpt lat="47.73962900" lon="-3.49512900"><ele></ele><time>2014-4-25T3:20:37Z</time></trkpt>
<trkpt lat="47.73963500" lon="-3.49498500"><ele></ele><time>2014-4-25T3:20:40Z</time></trkpt>
<trkpt lat="47.73964700" lon="-3.49484200"><ele></ele><time>2014-4-25T3:20:43Z</time></trkpt>
<trkpt lat="47.73966500" lon="-3.49469800"><ele></ele><time>2014-4-25T3:20:46Z</time></trkpt>
<trkpt lat="47.73969500" lon="-3.49453600"><ele></ele><time>2014-4-25T3:20:49Z</time></trkpt>
<trkpt lat="47.73973200" lon="-3.49433900"><ele></ele><time>2014-4-25T3:20:52Z</time></trkpt>
<trkpt lat="47.73976800" lon="-3.49419500"><ele></ele><time>2014-4-25T3:20:55Z</time></trkpt>
<trkpt lat="47.73981000" lon="-3.49406000"><ele></ele><time>2014-4-25T3:20:58Z</time></trkpt>
<trkpt lat="47.73987100" lon="-3.49389800"><ele></ele><time>2014-4-25T3:21:1Z</time></trkpt>
<trkpt lat="47.73992600" lon="-3.49373700"><ele></ele><time>2014-4-25T3:21:4Z</time></trkpt>
<trkpt lat="47.73999200" lon="-3.49360200"><ele></ele><time>2014-4-25T3:21:7Z</time></trkpt>
<trkpt lat="47.74006500" lon="-3.49347600"><ele></ele><time>2014-4-25T3:21:10Z</time></trkpt>
<trkpt lat="47.74014400" lon="-3.49333300"><ele></ele><time>2014-4-25T3:21:13Z</time></trkpt>
<trkpt lat="47.74021000" lon="-3.49318000"><ele></ele><time>2014-4-25T3:21:16Z</time></trkpt>
<trkpt lat="47.74025900" lon="-3.49305400"><ele></ele><time>2014-4-25T3:21:19Z</time></trkpt>
<trkpt lat="47.74031300" lon="-3.49294600"><ele></ele><time>2014-4-25T3:21:22Z</time></trkpt>
<trkpt lat="47.74041000" lon="-3.49280300"><ele></ele><time>2014-4-25T3:21:25Z</time></trkpt>
<trkpt lat="47.74047700" lon="-3.49266800"><ele></ele><time>2014-4-25T3:21:28Z</time></trkpt>
<trkpt lat="47.74051300" lon="-3.49251500"><ele></ele><time>2014-4-25T3:21:31Z</time></trkpt>
<trkpt lat="47.74055000" lon="-3.49233500"><ele></ele><time>2014-4-25T3:21:34Z</time></trkpt>
<trkpt lat="47.74058000" lon="-3.49215600"><ele></ele><time>2014-4-25T3:21:37Z</time></trkpt>
<trkpt lat="47.74060400" lon="-3.49202100"><ele></ele><time>2014-4-25T3:21:40Z</time></trkpt>
<trkpt lat="47.74064100" lon="-3.49188600"><ele></ele><time>2014-4-25T3:21:43Z</time></trkpt>
<trkpt lat="47.74067700" lon="-3.49172500"><ele></ele><time>2014-4-25T3:21:46Z</time></trkpt>
<trkpt lat="47.74070100" lon="-3.49154500"><ele></ele><time>2014-4-25T3:21:49Z</time></trkpt>
<trkpt lat="47.74070700" lon="-3.49137400"><ele></ele><time>2014-4-25T3:21:52Z</time></trkpt>
<trkpt lat="47.74069500" lon="-3.49120400"><ele></ele><time>2014-4-25T3:21:55Z</time></trkpt>
<trkpt lat="47.74067100" lon="-3.49107800"><ele></ele><time>2014-4-25T3:21:58Z</time></trkpt>
<trkpt lat="47.74062800" lon="-3.49093400"><ele></ele><time>2014-4-25T3:22:1Z</time></trkpt>
<trkpt lat="47.74057400" lon="-3.49080800"><ele></ele><time>2014-4-25T3:22:4Z</time></trkpt>
<trkpt lat="47.74047700" lon="-3.49068300"><ele></ele><time>2014-4-25T3:22:7Z</time></trkpt>
<trkpt lat="47.74038600" lon="-3.49065600"><ele></ele><time>2014-4-25T3:22:10Z</time></trkpt>
<trkpt lat="47.74029500" lon="-3.49063800"><ele></ele><time>2014-4-25T3:22:13Z</time></trkpt>
<trkpt lat="47.74020400" lon="-3.49062000"><ele></ele><time>2014-4-25T3:22:16Z</time></trkpt>
<trkpt lat="47.74010100" lon="-3.49059300"><ele></ele><time>2014-4-25T3:22:19Z</time></trkpt>
<trkpt lat="47.73999800" lon="-3.49061100"><ele></ele><time>2014-4-25T3:22:22Z</time></trkpt>
<trkpt lat="47.73991900" lon="-3.49068300"><ele></ele><time>2014-4-25T3:22:25Z</time></trkpt>
<trkpt lat="47.73984100" lon="-3.49082600"><ele></ele><time>2014-4-25T3:22:28Z</time></trkpt>
<trkpt lat="47.73981000" lon="-3.49096100"><ele></ele><time>2014-4-25T3:22:31Z</time></trkpt>
<trkpt lat="47.73972600" lon="-3.49108700"><ele></ele><time>2014-4-25T3:22:34Z</time></trkpt>
<trkpt lat="47.73964700" lon="-3.49115900"><ele></ele><time>2014-4-25T3:22:37Z</time></trkpt>
<trkpt lat="47.73956800" lon="-3.49130200"><ele></ele><time>2014-4-25T3:22:40Z</time></trkpt>
<trkpt lat="47.73950700" lon="-3.49144600"><ele></ele><time>2014-4-25T3:22:43Z</time></trkpt>
<trkpt lat="47.73944100" lon="-3.49159000"><ele></ele><time>2014-4-25T3:22:46Z</time></trkpt>
<trkpt lat="47.73934400" lon="-3.49159900"><ele></ele><time>2014-4-25T3:22:49Z</time></trkpt>
<trkpt lat="47.73925300" lon="-3.49154500"><ele></ele><time>2014-4-25T3:22:52Z</time></trkpt>
<trkpt lat="47.73913800" lon="-3.49148200"><ele></ele><time>2014-4-25T3:22:55Z</time></trkpt>
<trkpt lat="47.73903500" lon="-3.49141900"><ele></ele><time>2014-4-25T3:22:58Z</time></trkpt>
<trkpt lat="47.73895000" lon="-3.49134700"><ele></ele><time>2014-4-25T3:23:1Z</time></trkpt>
<trkpt lat="47.73887700" lon="-3.49119500"><ele></ele><time>2014-4-25T3:23:4Z</time></trkpt>
<trkpt lat="47.73882300" lon="-3.49102400"><ele></ele><time>2014-4-25T3:23:7Z</time></trkpt>
<trkpt lat="47.73878000" lon="-3.49086200"><ele></ele><time>2014-4-25T3:23:10Z</time></trkpt>
<trkpt lat="47.73873800" lon="-3.49069100"><ele></ele><time>2014-4-25T3:23:13Z</time></trkpt>
<trkpt lat="47.73869500" lon="-3.49054800"><ele></ele><time>2014-4-25T3:23:16Z</time></trkpt>
<trkpt lat="47.73867100" lon="-3.49039500"><ele></ele><time>2014-4-25T3:23:19Z</time></trkpt>
<trkpt lat="47.73866500" lon="-3.49026000"><ele></ele><time>2014-4-25T3:23:22Z</time></trkpt>
<trkpt lat="47.73866500" lon="-3.49012600"><ele></ele><time>2014-4-25T3:23:25Z</time></trkpt>
<trkpt lat="47.73867700" lon="-3.48996400"><ele></ele><time>2014-4-25T3:23:28Z</time></trkpt>
<trkpt lat="47.73863500" lon="-3.48983800"><ele></ele><time>2014-4-25T3:23:31Z</time></trkpt>
<trkpt lat="47.73862300" lon="-3.48970300"><ele></ele><time>2014-4-25T3:23:34Z</time></trkpt>
<trkpt lat="47.73855000" lon="-3.48962300"><ele></ele><time>2014-4-25T3:23:37Z</time></trkpt>
<trkpt lat="47.73845900" lon="-3.48955100"><ele></ele><time>2014-4-25T3:23:40Z</time></trkpt>
<trkpt lat="47.73838000" lon="-3.48948800"><ele></ele><time>2014-4-25T3:23:43Z</time></trkpt>
<trkpt lat="47.73828300" lon="-3.48940700"><ele></ele><time>2014-4-25T3:23:46Z</time></trkpt>
<trkpt lat="47.73818600" lon="-3.48931700"><ele></ele><time>2014-4-25T3:23:49Z</time></trkpt>
<trkpt lat="47.73808900" lon="-3.48922700"><ele></ele><time>2014-4-25T3:23:52Z</time></trkpt>
<trkpt lat="47.73799200" lon="-3.48914600"><ele></ele><time>2014-4-25T3:23:55Z</time></trkpt>
<trkpt lat="47.73788900" lon="-3.48905700"><ele></ele><time>2014-4-25T3:23:58Z</time></trkpt>
<trkpt lat="47.73779200" lon="-3.48896700"><ele></ele><time>2014-4-25T3:24:1Z</time></trkpt>
<trkpt lat="47.73770200" lon="-3.48887700"><ele></ele><time>2014-4-25T3:24:4Z</time></trkpt>
<trkpt lat="47.73761100" lon="-3.48878700"><ele></ele><time>2014-4-25T3:24:7Z</time></trkpt>
<trkpt lat="47.73751400" lon="-3.48869700"><ele></ele><time>2014-4-25T3:24:10Z</time></trkpt>
<trkpt lat="47.73741700" lon="-3.48861600"><ele></ele><time>2014-4-25T3:24:13Z</time></trkpt>
<trkpt lat="47.73732000" lon="-3.48853600"><ele></ele><time>2014-4-25T3:24:16Z</time></trkpt>
<trkpt lat="47.73722300" lon="-3.48844600"><ele></ele><time>2014-4-25T3:24:19Z</time></trkpt>
<trkpt lat="47.73712600" lon="-3.48836500"><ele></ele><time>2014-4-25T3:24:22Z</time></trkpt>
<trkpt lat="47.73702900" lon="-3.48827500"><ele></ele><time>2014-4-25T3:24:25Z</time></trkpt>
<trkpt lat="47.73693200" lon="-3.48819400"><ele></ele><time>2014-4-25T3:24:28Z</time></trkpt>
<trkpt lat="47.73682900" lon="-3.48812200"><ele></ele><time>2014-4-25T3:24:31Z</time></trkpt>
<trkpt lat="47.73673800" lon="-3.48806800"><ele></ele><time>2014-4-25T3:24:34Z</time></trkpt>
<trkpt lat="47.73664700" lon="-3.48801500"><ele></ele><time>2014-4-25T3:24:37Z</time></trkpt>
<trkpt lat="47.73655600" lon="-3.48797000"><ele></ele><time>2014-4-25T3:24:40Z</time></trkpt>
<trkpt lat="47.73646500" lon="-3.48794300"><ele></ele><time>2014-4-25T3:24:43Z</time></trkpt>
<trkpt lat="47.73636200" lon="-3.48791600"><ele></ele><time>2014-4-25T3:24:46Z</time></trkpt>
<trkpt lat="47.73626500" lon="-3.48788900"><ele></ele><time>2014-4-25T3:24:49Z</time></trkpt>
<trkpt lat="47.73616200" lon="-3.48786200"><ele></ele><time>2014-4-25T3:24:52Z</time></trkpt>
<trkpt lat="47.73606500" lon="-3.48785300"><ele></ele><time>2014-4-25T3:24:55Z</time></trkpt>
<trkpt lat="47.73596200" lon="-3.48785300"><ele></ele><time>2014-4-25T3:24:58Z</time></trkpt>
<trkpt lat="47.73585300" lon="-3.48786200"><ele></ele><time>2014-4-25T3:25:1Z</time></trkpt>
<trkpt lat="47.73575600" lon="-3.48787100"><ele></ele><time>2014-4-25T3:25:4Z</time></trkpt>
<trkpt lat="47.73566500" lon="-3.48788900"><ele></ele><time>2014-4-25T3:25:7Z</time></trkpt>
<trkpt lat="47.73556200" lon="-3.48785300"><ele></ele><time>2014-4-25T3:25:10Z</time></trkpt>
<trkpt lat="47.73559900" lon="-3.48766400"><ele></ele><time>2014-4-25T3:25:13Z</time></trkpt>
<trkpt lat="47.73561100" lon="-3.48752900"><ele></ele><time>2014-4-25T3:25:16Z</time></trkpt>
<trkpt lat="47.73559300" lon="-3.48737700"><ele></ele><time>2014-4-25T3:25:19Z</time></trkpt>
<trkpt lat="47.73554400" lon="-3.48716100"><ele></ele><time>2014-4-25T3:25:22Z</time></trkpt>
<trkpt lat="47.73549600" lon="-3.48697200"><ele></ele><time>2014-4-25T3:25:25Z</time></trkpt>
<trkpt lat="47.73544700" lon="-3.48678400"><ele></ele><time>2014-4-25T3:25:28Z</time></trkpt>
<trkpt lat="47.73540500" lon="-3.48663100"><ele></ele><time>2014-4-25T3:25:31Z</time></trkpt>
<trkpt lat="47.73540500" lon="-3.48649600"><ele></ele><time>2014-4-25T3:25:34Z</time></trkpt>
<trkpt lat="47.73549600" lon="-3.48646900"><ele></ele><time>2014-4-25T3:25:37Z</time></trkpt>
<trkpt lat="47.73558700" lon="-3.48641600"><ele></ele><time>2014-4-25T3:25:40Z</time></trkpt>
<trkpt lat="47.73566500" lon="-3.48633500"><ele></ele><time>2014-4-25T3:25:43Z</time></trkpt>
<trkpt lat="47.73578100" lon="-3.48626300"><ele></ele><time>2014-4-25T3:25:46Z</time></trkpt>
<trkpt lat="47.73589000" lon="-3.48619100"><ele></ele><time>2014-4-25T3:25:49Z</time></trkpt>
<trkpt lat="47.73599900" lon="-3.48612800"><ele></ele><time>2014-4-25T3:25:52Z</time></trkpt>
<trkpt lat="47.73609600" lon="-3.48605600"><ele></ele><time>2014-4-25T3:25:55Z</time></trkpt>
<trkpt lat="47.73619900" lon="-3.48598400"><ele></ele><time>2014-4-25T3:25:58Z</time></trkpt>
<trkpt lat="47.73629600" lon="-3.48590300"><ele></ele><time>2014-4-25T3:26:1Z</time></trkpt>
<trkpt lat="47.73642300" lon="-3.48583200"><ele></ele><time>2014-4-25T3:26:4Z</time></trkpt>
<trkpt lat="47.73657400" lon="-3.48563400"><ele></ele><time>2014-4-25T3:26:7Z</time></trkpt>
<trkpt lat="47.75936900" lon="-2.85874300"><ele></ele><time>2014-4-25T3:26:10Z</time></trkpt>
<trkpt lat="47.75936900" lon="-2.85874300"><ele></ele><time>2014-4-25T3:26:13Z</time></trkpt>
<trkpt lat="47.75936900" lon="-2.85874400"><ele></ele><time>2014-4-25T3:26:16Z</time></trkpt>
<trkpt lat="47.75936700" lon="-2.85874200"><ele></ele><time>2014-4-25T3:26:19Z</time></trkpt>
<trkpt lat="47.75937700" lon="-2.85871500"><ele></ele><time>2014-4-25T3:26:22Z</time></trkpt>
<trkpt lat="47.75940500" lon="-2.85868900"><ele></ele><time>2014-4-25T3:26:25Z</time></trkpt>
<trkpt lat="47.75954900" lon="-2.85866600"><ele></ele><time>2014-4-25T3:26:28Z</time></trkpt>
<trkpt lat="47.75966500" lon="-2.85865700"><ele></ele><time>2014-4-25T3:26:31Z</time></trkpt>
<trkpt lat="47.75987200" lon="-2.85864400"><ele></ele><time>2014-4-25T3:26:34Z</time></trkpt>
<trkpt lat="47.76001900" lon="-2.85862200"><ele></ele><time>2014-4-25T3:26:37Z</time></trkpt>
<trkpt lat="47.76019700" lon="-2.85858700"><ele></ele><time>2014-4-25T3:26:40Z</time></trkpt>
<trkpt lat="47.76030200" lon="-2.85847200"><ele></ele><time>2014-4-25T3:26:43Z</time></trkpt>
<trkpt lat="47.76032500" lon="-2.85829700"><ele></ele><time>2014-4-25T3:26:46Z</time></trkpt>
<trkpt lat="47.76032400" lon="-2.85804900"><ele></ele><time>2014-4-25T3:26:49Z</time></trkpt>
<trkpt lat="47.76029700" lon="-2.85766100"><ele></ele><time>2014-4-25T3:26:52Z</time></trkpt>
<trkpt lat="47.76026400" lon="-2.85726200"><ele></ele><time>2014-4-25T3:26:55Z</time></trkpt>
<trkpt lat="47.76023100" lon="-2.85685800"><ele></ele><time>2014-4-25T3:26:58Z</time></trkpt>
<trkpt lat="47.76021900" lon="-2.85674600"><ele></ele><time>2014-4-25T3:27:1Z</time></trkpt>
<trkpt lat="47.76021200" lon="-2.85669300"><ele></ele><time>2014-4-25T3:27:4Z</time></trkpt>
<trkpt lat="47.76018100" lon="-2.85632100"><ele></ele><time>2014-4-25T3:27:7Z</time></trkpt>
<trkpt lat="47.76012500" lon="-2.85587500"><ele></ele><time>2014-4-25T3:27:10Z</time></trkpt>
<trkpt lat="47.76009800" lon="-2.85553200"><ele></ele><time>2014-4-25T3:27:13Z</time></trkpt>
<trkpt lat="47.76008100" lon="-2.85523800"><ele></ele><time>2014-4-25T3:27:16Z</time></trkpt>
<trkpt lat="47.76004300" lon="-2.85479400"><ele></ele><time>2014-4-25T3:27:19Z</time></trkpt>
<trkpt lat="47.75999900" lon="-2.85417100"><ele></ele><time>2014-4-25T3:27:22Z</time></trkpt>
<trkpt lat="47.75999500" lon="-2.85410400"><ele></ele><time>2014-4-25T3:27:25Z</time></trkpt>
<trkpt lat="47.75996200" lon="-2.85367800"><ele></ele><time>2014-4-25T3:27:28Z</time></trkpt>
<trkpt lat="47.75994100" lon="-2.85332200"><ele></ele><time>2014-4-25T3:27:31Z</time></trkpt>
<trkpt lat="47.75993000" lon="-2.85301600"><ele></ele><time>2014-4-25T3:27:34Z</time></trkpt>
<trkpt lat="47.75996800" lon="-2.85288800"><ele></ele><time>2014-4-25T3:27:37Z</time></trkpt>
<trkpt lat="47.75998600" lon="-2.85284900"><ele></ele><time>2014-4-25T3:27:40Z</time></trkpt>
<trkpt lat="47.76011000" lon="-2.85284100"><ele></ele><time>2014-4-25T3:27:43Z</time></trkpt>
<trkpt lat="47.76031100" lon="-2.85283800"><ele></ele><time>2014-4-25T3:27:46Z</time></trkpt>
<trkpt lat="47.76056300" lon="-2.85282700"><ele></ele><time>2014-4-25T3:27:49Z</time></trkpt>
<trkpt lat="47.76062000" lon="-2.85282900"><ele></ele><time>2014-4-25T3:27:52Z</time></trkpt>
<trkpt lat="47.76095700" lon="-2.85296700"><ele></ele><time>2014-4-25T3:27:55Z</time></trkpt>
<trkpt lat="47.76113800" lon="-2.85303200"><ele></ele><time>2014-4-25T3:27:58Z</time></trkpt>
<trkpt lat="47.76138300" lon="-2.85301400"><ele></ele><time>2014-4-25T3:28:1Z</time></trkpt>
<trkpt lat="47.76178800" lon="-2.85280600"><ele></ele><time>2014-4-25T3:28:4Z</time></trkpt>
<trkpt lat="47.76225400" lon="-2.85252600"><ele></ele><time>2014-4-25T3:28:7Z</time></trkpt>
<trkpt lat="47.76232600" lon="-2.85248800"><ele></ele><time>2014-4-25T3:28:10Z</time></trkpt>
<trkpt lat="47.76254000" lon="-2.85237000"><ele></ele><time>2014-4-25T3:28:13Z</time></trkpt>
<trkpt lat="47.76270000" lon="-2.85222200"><ele></ele><time>2014-4-25T3:28:16Z</time></trkpt>
<trkpt lat="47.76270900" lon="-2.85201100"><ele></ele><time>2014-4-25T3:28:19Z</time></trkpt>
<trkpt lat="47.76253200" lon="-2.85146100"><ele></ele><time>2014-4-25T3:28:22Z</time></trkpt>
<trkpt lat="47.76242200" lon="-2.85111500"><ele></ele><time>2014-4-25T3:28:25Z</time></trkpt>
<trkpt lat="47.76236800" lon="-2.85094600"><ele></ele><time>2014-4-25T3:28:28Z</time></trkpt>
<trkpt lat="47.76231400" lon="-2.85077400"><ele></ele><time>2014-4-25T3:28:31Z</time></trkpt>
<trkpt lat="47.76228200" lon="-2.85065500"><ele></ele><time>2014-4-25T3:28:34Z</time></trkpt>
<trkpt lat="47.76221800" lon="-2.85042500"><ele></ele><time>2014-4-25T3:28:37Z</time></trkpt>
<trkpt lat="47.76205400" lon="-2.85007100"><ele></ele><time>2014-4-25T3:28:40Z</time></trkpt>
<trkpt lat="47.76198600" lon="-2.84986100"><ele></ele><time>2014-4-25T3:28:43Z</time></trkpt>
<trkpt lat="47.76186900" lon="-2.84958900"><ele></ele><time>2014-4-25T3:28:46Z</time></trkpt>
<trkpt lat="47.76174300" lon="-2.84933900"><ele></ele><time>2014-4-25T3:28:49Z</time></trkpt>
<trkpt lat="47.76156800" lon="-2.84898900"><ele></ele><time>2014-4-25T3:28:52Z</time></trkpt>
<trkpt lat="47.76150000" lon="-2.84886000"><ele></ele><time>2014-4-25T3:28:55Z</time></trkpt>
<trkpt lat="47.76130300" lon="-2.84850700"><ele></ele><time>2014-4-25T3:28:58Z</time></trkpt>
<trkpt lat="47.76111900" lon="-2.84825800"><ele></ele><time>2014-4-25T3:29:1Z</time></trkpt>
<trkpt lat="47.76085700" lon="-2.84796700"><ele></ele><time>2014-4-25T3:29:4Z</time></trkpt>
<trkpt lat="47.76064300" lon="-2.84775100"><ele></ele><time>2014-4-25T3:29:7Z</time></trkpt>
<trkpt lat="47.76052400" lon="-2.84750100"><ele></ele><time>2014-4-25T3:29:10Z</time></trkpt>
<trkpt lat="47.76050500" lon="-2.84726800"><ele></ele><time>2014-4-25T3:29:13Z</time></trkpt>
<trkpt lat="47.76047100" lon="-2.84693400"><ele></ele><time>2014-4-25T3:29:16Z</time></trkpt>
<trkpt lat="47.76042200" lon="-2.84655900"><ele></ele><time>2014-4-25T3:29:19Z</time></trkpt>
<trkpt lat="47.76039200" lon="-2.84622500"><ele></ele><time>2014-4-25T3:29:22Z</time></trkpt>
<trkpt lat="47.76035400" lon="-2.84588500"><ele></ele><time>2014-4-25T3:29:25Z</time></trkpt>
<trkpt lat="47.76034700" lon="-2.84582800"><ele></ele><time>2014-4-25T3:29:28Z</time></trkpt>
<trkpt lat="47.76040900" lon="-2.84560000"><ele></ele><time>2014-4-25T3:29:31Z</time></trkpt>
<trkpt lat="47.76050000" lon="-2.84556100"><ele></ele><time>2014-4-25T3:29:34Z</time></trkpt>
<trkpt lat="47.76054800" lon="-2.84555700"><ele></ele><time>2014-4-25T3:29:37Z</time></trkpt>
<trkpt lat="47.76070100" lon="-2.84554500"><ele></ele><time>2014-4-25T3:29:40Z</time></trkpt>
<trkpt lat="47.76080700" lon="-2.84551800"><ele></ele><time>2014-4-25T3:29:43Z</time></trkpt>
<trkpt lat="47.76106100" lon="-2.84547800"><ele></ele><time>2014-4-25T3:29:46Z</time></trkpt>
<trkpt lat="47.76138300" lon="-2.84540000"><ele></ele><time>2014-4-25T3:29:49Z</time></trkpt>
<trkpt lat="47.76167600" lon="-2.84537700"><ele></ele><time>2014-4-25T3:29:52Z</time></trkpt>
<trkpt lat="47.76177300" lon="-2.84534800"><ele></ele><time>2014-4-25T3:29:55Z</time></trkpt>
<trkpt lat="47.76181400" lon="-2.84532700"><ele></ele><time>2014-4-25T3:29:58Z</time></trkpt>
<trkpt lat="47.76190300" lon="-2.84532400"><ele></ele><time>2014-4-25T3:30:1Z</time></trkpt>
<trkpt lat="47.76205000" lon="-2.84531400"><ele></ele><time>2014-4-25T3:30:4Z</time></trkpt>
<trkpt lat="47.76207100" lon="-2.84531000"><ele></ele><time>2014-4-25T3:30:7Z</time></trkpt>
<trkpt lat="47.76205400" lon="-2.84530000"><ele></ele><time>2014-4-25T3:30:10Z</time></trkpt>
<trkpt lat="47.76204000" lon="-2.84522400"><ele></ele><time>2014-4-25T3:30:13Z</time></trkpt>
<trkpt lat="47.76203400" lon="-2.84521000"><ele></ele><time>2014-4-25T3:30:16Z</time></trkpt>
<trkpt lat="47.76202800" lon="-2.84519700"><ele></ele><time>2014-4-25T3:30:19Z</time></trkpt>
<trkpt lat="47.76198000" lon="-2.84505100"><ele></ele><time>2014-4-25T3:30:22Z</time></trkpt>
<trkpt lat="47.76198000" lon="-2.84489100"><ele></ele><time>2014-4-25T3:30:25Z</time></trkpt>
<trkpt lat="47.76197000" lon="-2.84474600"><ele></ele><time>2014-4-25T3:30:28Z</time></trkpt>
<trkpt lat="47.76190300" lon="-2.84448800"><ele></ele><time>2014-4-25T3:30:31Z</time></trkpt>
<trkpt lat="47.76183700" lon="-2.84419100"><ele></ele><time>2014-4-25T3:30:34Z</time></trkpt>
<trkpt lat="47.76179700" lon="-2.84391800"><ele></ele><time>2014-4-25T3:30:37Z</time></trkpt>
<trkpt lat="47.76177800" lon="-2.84377400"><ele></ele><time>2014-4-25T3:30:40Z</time></trkpt>
<trkpt lat="47.76176000" lon="-2.84367800"><ele></ele><time>2014-4-25T3:30:43Z</time></trkpt>
<trkpt lat="47.76175600" lon="-2.84360400"><ele></ele><time>2014-4-25T3:30:46Z</time></trkpt>
<trkpt lat="47.76172200" lon="-2.84345300"><ele></ele><time>2014-4-25T3:30:49Z</time></trkpt>
<trkpt lat="47.76172200" lon="-2.84341700"><ele></ele><time>2014-4-25T3:30:52Z</time></trkpt>
<trkpt lat="47.76173500" lon="-2.84322200"><ele></ele><time>2014-4-25T3:30:55Z</time></trkpt>
<trkpt lat="47.76167900" lon="-2.84305900"><ele></ele><time>2014-4-25T3:30:58Z</time></trkpt>
<trkpt lat="47.76161900" lon="-2.84299800"><ele></ele><time>2014-4-25T3:31:1Z</time></trkpt>
<trkpt lat="47.76151400" lon="-2.84283700"><ele></ele><time>2014-4-25T3:31:4Z</time></trkpt>
<trkpt lat="47.76148800" lon="-2.84266300"><ele></ele><time>2014-4-25T3:31:7Z</time></trkpt>
<trkpt lat="47.76147300" lon="-2.84263900"><ele></ele><time>2014-4-25T3:31:10Z</time></trkpt>
<trkpt lat="47.76141400" lon="-2.84248700"><ele></ele><time>2014-4-25T3:31:13Z</time></trkpt>
<trkpt lat="47.76141200" lon="-2.84239700"><ele></ele><time>2014-4-25T3:31:16Z</time></trkpt>
<trkpt lat="47.76137200" lon="-2.84222000"><ele></ele><time>2014-4-25T3:31:19Z</time></trkpt>
<trkpt lat="47.76135700" lon="-2.84219700"><ele></ele><time>2014-4-25T3:31:22Z</time></trkpt>
<trkpt lat="47.76133000" lon="-2.84215500"><ele></ele><time>2014-4-25T3:31:25Z</time></trkpt>
<trkpt lat="47.76133200" lon="-2.84199500"><ele></ele><time>2014-4-25T3:31:28Z</time></trkpt>
<trkpt lat="47.76133500" lon="-2.84175600"><ele></ele><time>2014-4-25T3:31:31Z</time></trkpt>
<trkpt lat="47.76136100" lon="-2.84153600"><ele></ele><time>2014-4-25T3:31:34Z</time></trkpt>
<trkpt lat="47.76135200" lon="-2.84121700"><ele></ele><time>2014-4-25T3:31:37Z</time></trkpt>
<trkpt lat="47.76135300" lon="-2.84111100"><ele></ele><time>2014-4-25T3:31:40Z</time></trkpt>
<trkpt lat="47.76126400" lon="-2.84099200"><ele></ele><time>2014-4-25T3:31:43Z</time></trkpt>
<trkpt lat="47.76122300" lon="-2.84103000"><ele></ele><time>2014-4-25T3:31:46Z</time></trkpt>
<trkpt lat="47.76111100" lon="-2.84117300"><ele></ele><time>2014-4-25T3:31:49Z</time></trkpt>
<trkpt lat="47.76102700" lon="-2.84134600"><ele></ele><time>2014-4-25T3:31:52Z</time></trkpt>
<trkpt lat="47.76096900" lon="-2.84134100"><ele></ele><time>2014-4-25T3:31:55Z</time></trkpt>
<trkpt lat="47.76096600" lon="-2.84130300"><ele></ele><time>2014-4-25T3:31:58Z</time></trkpt>
<trkpt lat="47.76098200" lon="-2.84094000"><ele></ele><time>2014-4-25T3:32:1Z</time></trkpt>
<trkpt lat="47.76094800" lon="-2.84070700"><ele></ele><time>2014-4-25T3:32:4Z</time></trkpt>
<trkpt lat="47.76089700" lon="-2.84033400"><ele></ele><time>2014-4-25T3:32:7Z</time></trkpt>
<trkpt lat="47.76084300" lon="-2.84001100"><ele></ele><time>2014-4-25T3:32:10Z</time></trkpt>
<trkpt lat="47.76081300" lon="-2.83975500"><ele></ele><time>2014-4-25T3:32:13Z</time></trkpt>
<trkpt lat="47.76081300" lon="-2.83942900"><ele></ele><time>2014-4-25T3:32:16Z</time></trkpt>
<trkpt lat="47.76079800" lon="-2.83926000"><ele></ele><time>2014-4-25T3:32:19Z</time></trkpt>
<trkpt lat="47.76073400" lon="-2.83888500"><ele></ele><time>2014-4-25T3:32:22Z</time></trkpt>
<trkpt lat="47.76070400" lon="-2.83866200"><ele></ele><time>2014-4-25T3:32:25Z</time></trkpt>
<trkpt lat="47.76070900" lon="-2.83828300"><ele></ele><time>2014-4-25T3:32:28Z</time></trkpt>
<trkpt lat="47.76070200" lon="-2.83799300"><ele></ele><time>2014-4-25T3:32:31Z</time></trkpt>
<trkpt lat="47.76070300" lon="-2.83778600"><ele></ele><time>2014-4-25T3:32:34Z</time></trkpt>
<trkpt lat="47.76059300" lon="-2.83769600"><ele></ele><time>2014-4-25T3:32:37Z</time></trkpt>
<trkpt lat="47.76054200" lon="-2.83769700"><ele></ele><time>2014-4-25T3:32:40Z</time></trkpt>
<trkpt lat="47.76049800" lon="-2.83769500"><ele></ele><time>2014-4-25T3:32:43Z</time></trkpt>
<trkpt lat="47.76042700" lon="-2.83767700"><ele></ele><time>2014-4-25T3:32:46Z</time></trkpt>
<trkpt lat="47.76035900" lon="-2.83766700"><ele></ele><time>2014-4-25T3:32:49Z</time></trkpt>
<trkpt lat="47.76028000" lon="-2.83765300"><ele></ele><time>2014-4-25T3:32:52Z</time></trkpt>
<trkpt lat="47.76025600" lon="-2.83764900"><ele></ele><time>2014-4-25T3:32:55Z</time></trkpt>
<trkpt lat="47.76017800" lon="-2.83763700"><ele></ele><time>2014-4-25T3:32:58Z</time></trkpt>
<trkpt lat="47.76009200" lon="-2.83762200"><ele></ele><time>2014-4-25T3:33:1Z</time></trkpt>
<trkpt lat="47.76002000" lon="-2.83759800"><ele></ele><time>2014-4-25T3:33:4Z</time></trkpt>
<trkpt lat="47.75993100" lon="-2.83762600"><ele></ele><time>2014-4-25T3:33:7Z</time></trkpt>
<trkpt lat="47.75992200" lon="-2.83762300"><ele></ele><time>2014-4-25T3:33:10Z</time></trkpt>
<trkpt lat="47.75978900" lon="-2.83762500"><ele></ele><time>2014-4-25T3:33:13Z</time></trkpt>
<trkpt lat="47.75974700" lon="-2.83762000"><ele></ele><time>2014-4-25T3:33:16Z</time></trkpt>
<trkpt lat="47.75966600" lon="-2.83760500"><ele></ele><time>2014-4-25T3:33:19Z</time></trkpt>
<trkpt lat="47.75962600" lon="-2.83759900"><ele></ele><time>2014-4-25T3:33:22Z</time></trkpt>
<trkpt lat="47.75948700" lon="-2.83753800"><ele></ele><time>2014-4-25T3:33:25Z</time></trkpt>
<trkpt lat="47.75938400" lon="-2.83753000"><ele></ele><time>2014-4-25T3:33:28Z</time></trkpt>
<trkpt lat="47.75926600" lon="-2.83759800"><ele></ele><time>2014-4-25T3:33:31Z</time></trkpt>
<trkpt lat="47.75918400" lon="-2.83766800"><ele></ele><time>2014-4-25T3:33:34Z</time></trkpt>
<trkpt lat="47.75909500" lon="-2.83774200"><ele></ele><time>2014-4-25T3:33:37Z</time></trkpt>
<trkpt lat="47.75900000" lon="-2.83791100"><ele></ele><time>2014-4-25T3:33:40Z</time></trkpt>
<trkpt lat="47.75882200" lon="-2.83816500"><ele></ele><time>2014-4-25T3:33:43Z</time></trkpt>
<trkpt lat="47.75870900" lon="-2.83826800"><ele></ele><time>2014-4-25T3:33:46Z</time></trkpt>
<trkpt lat="47.75859100" lon="-2.83833500"><ele></ele><time>2014-4-25T3:33:49Z</time></trkpt>
<trkpt lat="47.75856000" lon="-2.83835300"><ele></ele><time>2014-4-25T3:33:52Z</time></trkpt>
<trkpt lat="47.75842700" lon="-2.83825900"><ele></ele><time>2014-4-25T3:33:55Z</time></trkpt>
<trkpt lat="47.75841400" lon="-2.83814400"><ele></ele><time>2014-4-25T3:33:58Z</time></trkpt>
<trkpt lat="47.75844600" lon="-2.83775400"><ele></ele><time>2014-4-25T3:34:1Z</time></trkpt>
<trkpt lat="47.75848900" lon="-2.83739700"><ele></ele><time>2014-4-25T3:34:4Z</time></trkpt>
<trkpt lat="47.75849800" lon="-2.83725700"><ele></ele><time>2014-4-25T3:34:7Z</time></trkpt>
<trkpt lat="47.75842300" lon="-2.83710200"><ele></ele><time>2014-4-25T3:34:10Z</time></trkpt>
<trkpt lat="47.75835500" lon="-2.83700100"><ele></ele><time>2014-4-25T3:34:13Z</time></trkpt>
<trkpt lat="47.75833100" lon="-2.83694600"><ele></ele><time>2014-4-25T3:34:16Z</time></trkpt>
<trkpt lat="47.75828500" lon="-2.83666800"><ele></ele><time>2014-4-25T3:34:19Z</time></trkpt>
<trkpt lat="47.75826700" lon="-2.83642500"><ele></ele><time>2014-4-25T3:34:22Z</time></trkpt>
<trkpt lat="47.75825500" lon="-2.83616900"><ele></ele><time>2014-4-25T3:34:25Z</time></trkpt>
<trkpt lat="47.75822400" lon="-2.83601100"><ele></ele><time>2014-4-25T3:34:28Z</time></trkpt>
<trkpt lat="47.75821200" lon="-2.83597000"><ele></ele><time>2014-4-25T3:34:31Z</time></trkpt>
<trkpt lat="47.75814600" lon="-2.83588900"><ele></ele><time>2014-4-25T3:34:34Z</time></trkpt>
<trkpt lat="47.75798800" lon="-2.83582700"><ele></ele><time>2014-4-25T3:34:37Z</time></trkpt>
<trkpt lat="47.75787200" lon="-2.83584200"><ele></ele><time>2014-4-25T3:34:40Z</time></trkpt>
<trkpt lat="47.75783700" lon="-2.83595300"><ele></ele><time>2014-4-25T3:34:43Z</time></trkpt>
<trkpt lat="47.75773200" lon="-2.83595800"><ele></ele><time>2014-4-25T3:34:46Z</time></trkpt>
<trkpt lat="47.75754000" lon="-2.83595800"><ele></ele><time>2014-4-25T3:34:49Z</time></trkpt>
<trkpt lat="47.75740100" lon="-2.83597800"><ele></ele><time>2014-4-25T3:34:52Z</time></trkpt>
<trkpt lat="47.75730200" lon="-2.83609700"><ele></ele><time>2014-4-25T3:34:55Z</time></trkpt>
<trkpt lat="47.75727900" lon="-2.83611100"><ele></ele><time>2014-4-25T3:34:58Z</time></trkpt>
<trkpt lat="47.75705100" lon="-2.83628400"><ele></ele><time>2014-4-25T3:35:1Z</time></trkpt>
<trkpt lat="47.75683500" lon="-2.83638800"><ele></ele><time>2014-4-25T3:35:4Z</time></trkpt>
<trkpt lat="47.75660100" lon="-2.83647400"><ele></ele><time>2014-4-25T3:35:7Z</time></trkpt>
<trkpt lat="47.75640100" lon="-2.83655100"><ele></ele><time>2014-4-25T3:35:10Z</time></trkpt>
<trkpt lat="47.75624200" lon="-2.83661800"><ele></ele><time>2014-4-25T3:35:13Z</time></trkpt>
<trkpt lat="47.75596400" lon="-2.83672000"><ele></ele><time>2014-4-25T3:35:16Z</time></trkpt>
<trkpt lat="47.75567400" lon="-2.83685100"><ele></ele><time>2014-4-25T3:35:19Z</time></trkpt>
<trkpt lat="47.75531400" lon="-2.83704900"><ele></ele><time>2014-4-25T3:35:22Z</time></trkpt>
<trkpt lat="47.75494200" lon="-2.83723600"><ele></ele><time>2014-4-25T3:35:25Z</time></trkpt>
<trkpt lat="47.75489700" lon="-2.83726100"><ele></ele><time>2014-4-25T3:35:28Z</time></trkpt>
<trkpt lat="47.75471400" lon="-2.83719700"><ele></ele><time>2014-4-25T3:35:31Z</time></trkpt>
<trkpt lat="47.75467600" lon="-2.83707900"><ele></ele><time>2014-4-25T3:35:34Z</time></trkpt>
<trkpt lat="47.75463600" lon="-2.83689000"><ele></ele><time>2014-4-25T3:35:37Z</time></trkpt>
<trkpt lat="47.75462000" lon="-2.83682700"><ele></ele><time>2014-4-25T3:35:40Z</time></trkpt>
<trkpt lat="47.75449900" lon="-2.83643400"><ele></ele><time>2014-4-25T3:35:43Z</time></trkpt>
<trkpt lat="47.75435500" lon="-2.83604000"><ele></ele><time>2014-4-25T3:35:46Z</time></trkpt>
<trkpt lat="47.75422100" lon="-2.83569800"><ele></ele><time>2014-4-25T3:35:49Z</time></trkpt>
<trkpt lat="47.75409900" lon="-2.83541300"><ele></ele><time>2014-4-25T3:35:52Z</time></trkpt>
<trkpt lat="47.75392000" lon="-2.83500900"><ele></ele><time>2014-4-25T3:35:55Z</time></trkpt>
<trkpt lat="47.75376800" lon="-2.83474200"><ele></ele><time>2014-4-25T3:35:58Z</time></trkpt>
<trkpt lat="47.75364600" lon="-2.83456400"><ele></ele><time>2014-4-25T3:36:1Z</time></trkpt>
<trkpt lat="47.75360100" lon="-2.83442800"><ele></ele><time>2014-4-25T3:36:4Z</time></trkpt>
<trkpt lat="47.75370500" lon="-2.83431400"><ele></ele><time>2014-4-25T3:36:7Z</time></trkpt>
<trkpt lat="47.75378800" lon="-2.83415300"><ele></ele><time>2014-4-25T3:36:10Z</time></trkpt>
<trkpt lat="47.75382600" lon="-2.83414900"><ele></ele><time>2014-4-25T3:36:13Z</time></trkpt>
<trkpt lat="47.75414300" lon="-2.83415400"><ele></ele><time>2014-4-25T3:36:16Z</time></trkpt>
<trkpt lat="47.75448800" lon="-2.83425000"><ele></ele><time>2014-4-25T3:36:19Z</time></trkpt>
<trkpt lat="47.75459600" lon="-2.83428100"><ele></ele><time>2014-4-25T3:36:22Z</time></trkpt>
<trkpt lat="47.75469800" lon="-2.83411900"><ele></ele><time>2014-4-25T3:36:25Z</time></trkpt>
<trkpt lat="47.75478300" lon="-2.83386200"><ele></ele><time>2014-4-25T3:36:28Z</time></trkpt>
<trkpt lat="47.75472100" lon="-2.83364000"><ele></ele><time>2014-4-25T3:36:31Z</time></trkpt>
<trkpt lat="47.75469900" lon="-2.83358100"><ele></ele><time>2014-4-25T3:36:34Z</time></trkpt>
<trkpt lat="47.75445400" lon="-2.83311400"><ele></ele><time>2014-4-25T3:36:37Z</time></trkpt>
<trkpt lat="47.75418800" lon="-2.83258400"><ele></ele><time>2014-4-25T3:36:40Z</time></trkpt>
<trkpt lat="47.75405900" lon="-2.83231800"><ele></ele><time>2014-4-25T3:36:43Z</time></trkpt>
<trkpt lat="47.75400800" lon="-2.83220100"><ele></ele><time>2014-4-25T3:36:46Z</time></trkpt>
<trkpt lat="47.75393400" lon="-2.83176800"><ele></ele><time>2014-4-25T3:36:49Z</time></trkpt>
<trkpt lat="47.75387500" lon="-2.83157400"><ele></ele><time>2014-4-25T3:36:52Z</time></trkpt>
<trkpt lat="47.75383400" lon="-2.83144600"><ele></ele><time>2014-4-25T3:36:55Z</time></trkpt>
<trkpt lat="47.75387300" lon="-2.83118000"><ele></ele><time>2014-4-25T3:36:58Z</time></trkpt>
<trkpt lat="47.75401000" lon="-2.83097600"><ele></ele><time>2014-4-25T3:37:1Z</time></trkpt>
<trkpt lat="47.75409400" lon="-2.83089400"><ele></ele><time>2014-4-25T3:37:4Z</time></trkpt>
<trkpt lat="47.75431400" lon="-2.83074900"><ele></ele><time>2014-4-25T3:37:7Z</time></trkpt>
<trkpt lat="47.75453500" lon="-2.83060200"><ele></ele><time>2014-4-25T3:37:10Z</time></trkpt>
<trkpt lat="47.75476200" lon="-2.83041300"><ele></ele><time>2014-4-25T3:37:13Z</time></trkpt>
<trkpt lat="47.75498000" lon="-2.83021400"><ele></ele><time>2014-4-25T3:37:16Z</time></trkpt>
<trkpt lat="47.75513000" lon="-2.83006700"><ele></ele><time>2014-4-25T3:37:19Z</time></trkpt>
<trkpt lat="47.75536300" lon="-2.82990500"><ele></ele><time>2014-4-25T3:37:22Z</time></trkpt>
<trkpt lat="47.75567300" lon="-2.82970500"><ele></ele><time>2014-4-25T3:37:25Z</time></trkpt>
<trkpt lat="47.75583000" lon="-2.82954200"><ele></ele><time>2014-4-25T3:37:28Z</time></trkpt>
<trkpt lat="47.75582400" lon="-2.82934400"><ele></ele><time>2014-4-25T3:37:31Z</time></trkpt>
<trkpt lat="47.75579400" lon="-2.82896000"><ele></ele><time>2014-4-25T3:37:34Z</time></trkpt>
<trkpt lat="47.75575100" lon="-2.82848000"><ele></ele><time>2014-4-25T3:37:37Z</time></trkpt>
<trkpt lat="47.75569600" lon="-2.82790600"><ele></ele><time>2014-4-25T3:37:40Z</time></trkpt>
<trkpt lat="47.75564500" lon="-2.82736900"><ele></ele><time>2014-4-25T3:37:43Z</time></trkpt>
<trkpt lat="47.75562400" lon="-2.82723600"><ele></ele><time>2014-4-25T3:37:46Z</time></trkpt>
<trkpt lat="47.75554900" lon="-2.82677900"><ele></ele><time>2014-4-25T3:37:49Z</time></trkpt>
<trkpt lat="47.75544100" lon="-2.82628800"><ele></ele><time>2014-4-25T3:37:52Z</time></trkpt>
<trkpt lat="47.75529400" lon="-2.82561000"><ele></ele><time>2014-4-25T3:37:55Z</time></trkpt>
<trkpt lat="47.75515700" lon="-2.82519000"><ele></ele><time>2014-4-25T3:37:58Z</time></trkpt>
<trkpt lat="47.75512800" lon="-2.82513600"><ele></ele><time>2014-4-25T3:38:1Z</time></trkpt>
<trkpt lat="47.75504700" lon="-2.82491300"><ele></ele><time>2014-4-25T3:38:4Z</time></trkpt>
<trkpt lat="47.75505400" lon="-2.82472200"><ele></ele><time>2014-4-25T3:38:7Z</time></trkpt>
<trkpt lat="47.75508900" lon="-2.82428700"><ele></ele><time>2014-4-25T3:38:10Z</time></trkpt>
<trkpt lat="47.75505100" lon="-2.82368300"><ele></ele><time>2014-4-25T3:38:13Z</time></trkpt>
<trkpt lat="47.75503600" lon="-2.82355000"><ele></ele><time>2014-4-25T3:38:16Z</time></trkpt>
<trkpt lat="47.75504800" lon="-2.82323200"><ele></ele><time>2014-4-25T3:38:19Z</time></trkpt>
<trkpt lat="47.75517400" lon="-2.82314500"><ele></ele><time>2014-4-25T3:38:22Z</time></trkpt>
<trkpt lat="47.75534500" lon="-2.82315600"><ele></ele><time>2014-4-25T3:38:25Z</time></trkpt>
<trkpt lat="47.75550100" lon="-2.82313900"><ele></ele><time>2014-4-25T3:38:28Z</time></trkpt>
<trkpt lat="47.75579800" lon="-2.82311100"><ele></ele><time>2014-4-25T3:38:31Z</time></trkpt>
<trkpt lat="47.75590800" lon="-2.82302600"><ele></ele><time>2014-4-25T3:38:34Z</time></trkpt>
<trkpt lat="47.75593600" lon="-2.82287100"><ele></ele><time>2014-4-25T3:38:37Z</time></trkpt>
<trkpt lat="47.75595700" lon="-2.82257900"><ele></ele><time>2014-4-25T3:38:40Z</time></trkpt>
<trkpt lat="47.75593900" lon="-2.82211600"><ele></ele><time>2014-4-25T3:38:43Z</time></trkpt>
<trkpt lat="47.75594500" lon="-2.82198400"><ele></ele><time>2014-4-25T3:38:46Z</time></trkpt>
<trkpt lat="47.75606800" lon="-2.82144500"><ele></ele><time>2014-4-25T3:38:49Z</time></trkpt>
<trkpt lat="47.75614100" lon="-2.82121700"><ele></ele><time>2014-4-25T3:38:52Z</time></trkpt>
<trkpt lat="47.75634900" lon="-2.82111200"><ele></ele><time>2014-4-25T3:38:55Z</time></trkpt>
<trkpt lat="47.75643000" lon="-2.82107300"><ele></ele><time>2014-4-25T3:38:58Z</time></trkpt>
<trkpt lat="47.75656100" lon="-2.82100200"><ele></ele><time>2014-4-25T3:39:1Z</time></trkpt>
<trkpt lat="47.75655100" lon="-2.82100400"><ele></ele><time>2014-4-25T3:39:4Z</time></trkpt>
<trkpt lat="47.75652900" lon="-2.82101900"><ele></ele><time>2014-4-25T3:39:7Z</time></trkpt>
<trkpt lat="47.75649300" lon="-2.82098000"><ele></ele><time>2014-4-25T3:39:10Z</time></trkpt>
<trkpt lat="47.75647900" lon="-2.82094700"><ele></ele><time>2014-4-25T3:39:13Z</time></trkpt>
<trkpt lat="47.75647500" lon="-2.82094700"><ele></ele><time>2014-4-25T3:39:16Z</time></trkpt>
<trkpt lat="47.75647500" lon="-2.82093600"><ele></ele><time>2014-4-25T3:39:19Z</time></trkpt>
<trkpt lat="47.75645600" lon="-2.82082000"><ele></ele><time>2014-4-25T3:39:22Z</time></trkpt>
<trkpt lat="47.75642900" lon="-2.82063300"><ele></ele><time>2014-4-25T3:39:25Z</time></trkpt>
<trkpt lat="47.75641700" lon="-2.82044400"><ele></ele><time>2014-4-25T3:39:28Z</time></trkpt>
<trkpt lat="47.75635800" lon="-2.82020000"><ele></ele><time>2014-4-25T3:39:31Z</time></trkpt>
<trkpt lat="47.75629600" lon="-2.82007200"><ele></ele><time>2014-4-25T3:39:34Z</time></trkpt>
<trkpt lat="47.75627100" lon="-2.82003700"><ele></ele><time>2014-4-25T3:39:37Z</time></trkpt>
<trkpt lat="47.75618300" lon="-2.82001800"><ele></ele><time>2014-4-25T3:39:40Z</time></trkpt>
<trkpt lat="47.75615200" lon="-2.82002000"><ele></ele><time>2014-4-25T3:39:43Z</time></trkpt>
<trkpt lat="47.75606100" lon="-2.81998300"><ele></ele><time>2014-4-25T3:39:46Z</time></trkpt>
<trkpt lat="47.75604700" lon="-2.82001200"><ele></ele><time>2014-4-25T3:39:49Z</time></trkpt>
<trkpt lat="47.75599900" lon="-2.82007600"><ele></ele><time>2014-4-25T3:39:52Z</time></trkpt>
<trkpt lat="47.75593700" lon="-2.82007100"><ele></ele><time>2014-4-25T3:39:55Z</time></trkpt>
<trkpt lat="47.75584500" lon="-2.82009700"><ele></ele><time>2014-4-25T3:39:58Z</time></trkpt>
<trkpt lat="47.75577400" lon="-2.82012100"><ele></ele><time>2014-4-25T3:40:1Z</time></trkpt>
<trkpt lat="47.75569400" lon="-2.82014900"><ele></ele><time>2014-4-25T3:40:4Z</time></trkpt>
<trkpt lat="47.75563400" lon="-2.82015800"><ele></ele><time>2014-4-25T3:40:7Z</time></trkpt>
<trkpt lat="47.75553000" lon="-2.82019200"><ele></ele><time>2014-4-25T3:40:10Z</time></trkpt>
<trkpt lat="47.75548600" lon="-2.82017900"><ele></ele><time>2014-4-25T3:40:13Z</time></trkpt>
<trkpt lat="47.75544800" lon="-2.82006900"><ele></ele><time>2014-4-25T3:40:16Z</time></trkpt>
<trkpt lat="47.75536700" lon="-2.82002800"><ele></ele><time>2014-4-25T3:40:19Z</time></trkpt>
<trkpt lat="47.75528100" lon="-2.81988300"><ele></ele><time>2014-4-25T3:40:22Z</time></trkpt>
<trkpt lat="47.75518200" lon="-2.81981800"><ele></ele><time>2014-4-25T3:40:25Z</time></trkpt>
<trkpt lat="47.75511700" lon="-2.81983000"><ele></ele><time>2014-4-25T3:40:28Z</time></trkpt>
<trkpt lat="47.75505200" lon="-2.81984600"><ele></ele><time>2014-4-25T3:40:31Z</time></trkpt>
<trkpt lat="47.75503400" lon="-2.81984700"><ele></ele><time>2014-4-25T3:40:34Z</time></trkpt>
<trkpt lat="47.75495900" lon="-2.81985000"><ele></ele><time>2014-4-25T3:40:37Z</time></trkpt>
<trkpt lat="47.75489400" lon="-2.81986100"><ele></ele><time>2014-4-25T3:40:40Z</time></trkpt>
<trkpt lat="47.75481200" lon="-2.81988200"><ele></ele><time>2014-4-25T3:40:43Z</time></trkpt>
<trkpt lat="47.75470000" lon="-2.82002100"><ele></ele><time>2014-4-25T3:40:46Z</time></trkpt>
<trkpt lat="47.75461800" lon="-2.82008600"><ele></ele><time>2014-4-25T3:40:49Z</time></trkpt>
<trkpt lat="47.75447000" lon="-2.82018300"><ele></ele><time>2014-4-25T3:40:52Z</time></trkpt>
<trkpt lat="47.75443700" lon="-2.82020000"><ele></ele><time>2014-4-25T3:40:55Z</time></trkpt>
<trkpt lat="47.75430000" lon="-2.82033400"><ele></ele><time>2014-4-25T3:40:58Z</time></trkpt>
<trkpt lat="47.75426700" lon="-2.82035700"><ele></ele><time>2014-4-25T3:41:1Z</time></trkpt>
<trkpt lat="47.75417800" lon="-2.82041900"><ele></ele><time>2014-4-25T3:41:4Z</time></trkpt>
<trkpt lat="47.75406800" lon="-2.82035900"><ele></ele><time>2014-4-25T3:41:7Z</time></trkpt>
<trkpt lat="47.75397600" lon="-2.82021100"><ele></ele><time>2014-4-25T3:41:10Z</time></trkpt>
<trkpt lat="47.75393900" lon="-2.82015200"><ele></ele><time>2014-4-25T3:41:13Z</time></trkpt>
<trkpt lat="47.75372700" lon="-2.81967100"><ele></ele><time>2014-4-25T3:41:16Z</time></trkpt>
<trkpt lat="47.75359400" lon="-2.81934400"><ele></ele><time>2014-4-25T3:41:19Z</time></trkpt>
<trkpt lat="47.75331800" lon="-2.81872600"><ele></ele><time>2014-4-25T3:41:22Z</time></trkpt>
<trkpt lat="47.75303100" lon="-2.81834000"><ele></ele><time>2014-4-25T3:41:25Z</time></trkpt>
<trkpt lat="47.75293500" lon="-2.81818900"><ele></ele><time>2014-4-25T3:41:28Z</time></trkpt>
<trkpt lat="47.75275200" lon="-2.81777500"><ele></ele><time>2014-4-25T3:41:31Z</time></trkpt>
<trkpt lat="47.75268200" lon="-2.81765700"><ele></ele><time>2014-4-25T3:41:34Z</time></trkpt>
<trkpt lat="47.75272800" lon="-2.81752700"><ele></ele><time>2014-4-25T3:41:37Z</time></trkpt>
<trkpt lat="47.75285100" lon="-2.81739300"><ele></ele><time>2014-4-25T3:41:40Z</time></trkpt>
<trkpt lat="47.75283800" lon="-2.81723000"><ele></ele><time>2014-4-25T3:41:43Z</time></trkpt>
<trkpt lat="47.75283400" lon="-2.81689500"><ele></ele><time>2014-4-25T3:41:46Z</time></trkpt>
<trkpt lat="47.75274700" lon="-2.81673700"><ele></ele><time>2014-4-25T3:41:49Z</time></trkpt>
<trkpt lat="47.75259200" lon="-2.81650400"><ele></ele><time>2014-4-25T3:41:52Z</time></trkpt>
<trkpt lat="47.75254300" lon="-2.81645000"><ele></ele><time>2014-4-25T3:41:55Z</time></trkpt>
<trkpt lat="47.75232500" lon="-2.81619900"><ele></ele><time>2014-4-25T3:41:58Z</time></trkpt>
<trkpt lat="47.75198900" lon="-2.81568200"><ele></ele><time>2014-4-25T3:42:1Z</time></trkpt>
<trkpt lat="47.75193900" lon="-2.81560400"><ele></ele><time>2014-4-25T3:42:4Z</time></trkpt>
<trkpt lat="47.75162500" lon="-2.81527400"><ele></ele><time>2014-4-25T3:42:7Z</time></trkpt>
<trkpt lat="47.75140400" lon="-2.81511400"><ele></ele><time>2014-4-25T3:42:10Z</time></trkpt>
<trkpt lat="47.75105300" lon="-2.81472100"><ele></ele><time>2014-4-25T3:42:13Z</time></trkpt>
<trkpt lat="47.75081800" lon="-2.81451500"><ele></ele><time>2014-4-25T3:42:16Z</time></trkpt>
<trkpt lat="47.75068400" lon="-2.81444500"><ele></ele><time>2014-4-25T3:42:19Z</time></trkpt>
<trkpt lat="47.75051300" lon="-2.81431000"><ele></ele><time>2014-4-25T3:42:22Z</time></trkpt>
<trkpt lat="47.75040600" lon="-2.81413500"><ele></ele><time>2014-4-25T3:42:25Z</time></trkpt>
<trkpt lat="47.75031600" lon="-2.81363100"><ele></ele><time>2014-4-25T3:42:28Z</time></trkpt>
<trkpt lat="47.75036100" lon="-2.81347100"><ele></ele><time>2014-4-25T3:42:31Z</time></trkpt>
<trkpt lat="47.75049100" lon="-2.81315900"><ele></ele><time>2014-4-25T3:42:34Z</time></trkpt>
<trkpt lat="47.75069900" lon="-2.81281700"><ele></ele><time>2014-4-25T3:42:37Z</time></trkpt>
<trkpt lat="47.75076300" lon="-2.81272900"><ele></ele><time>2014-4-25T3:42:40Z</time></trkpt>
<trkpt lat="47.75088500" lon="-2.81258200"><ele></ele><time>2014-4-25T3:42:43Z</time></trkpt>
<trkpt lat="47.75110700" lon="-2.81236900"><ele></ele><time>2014-4-25T3:42:46Z</time></trkpt>
<trkpt lat="47.75129800" lon="-2.81211300"><ele></ele><time>2014-4-25T3:42:49Z</time></trkpt>
<trkpt lat="47.75146100" lon="-2.81180000"><ele></ele><time>2014-4-25T3:42:52Z</time></trkpt>
<trkpt lat="47.75150200" lon="-2.81172500"><ele></ele><time>2014-4-25T3:42:55Z</time></trkpt>
<trkpt lat="47.75174100" lon="-2.81134800"><ele></ele><time>2014-4-25T3:42:58Z</time></trkpt>
<trkpt lat="47.75179200" lon="-2.81127000"><ele></ele><time>2014-4-25T3:43:1Z</time></trkpt>
<trkpt lat="47.75198800" lon="-2.81096200"><ele></ele><time>2014-4-25T3:43:4Z</time></trkpt>
<trkpt lat="47.75214800" lon="-2.81072900"><ele></ele><time>2014-4-25T3:43:7Z</time></trkpt>
<trkpt lat="47.75218600" lon="-2.81066800"><ele></ele><time>2014-4-25T3:43:10Z</time></trkpt>
<trkpt lat="47.75225100" lon="-2.81054400"><ele></ele><time>2014-4-25T3:43:13Z</time></trkpt>
<trkpt lat="47.75240500" lon="-2.81034000"><ele></ele><time>2014-4-25T3:43:16Z</time></trkpt>
<trkpt lat="47.75252100" lon="-2.81033000"><ele></ele><time>2014-4-25T3:43:19Z</time></trkpt>
<trkpt lat="47.75254500" lon="-2.81035600"><ele></ele><time>2014-4-25T3:43:22Z</time></trkpt>
<trkpt lat="47.75255000" lon="-2.81044400"><ele></ele><time>2014-4-25T3:43:25Z</time></trkpt>
<trkpt lat="47.75254700" lon="-2.81047700"><ele></ele><time>2014-4-25T3:43:28Z</time></trkpt>
<trkpt lat="47.75258000" lon="-2.81055600"><ele></ele><time>2014-4-25T3:43:31Z</time></trkpt>
<trkpt lat="47.75261200" lon="-2.81069200"><ele></ele><time>2014-4-25T3:43:34Z</time></trkpt>
<trkpt lat="47.75264100" lon="-2.81080900"><ele></ele><time>2014-4-25T3:43:37Z</time></trkpt>
<trkpt lat="47.75270900" lon="-2.81100900"><ele></ele><time>2014-4-25T3:43:40Z</time></trkpt>
<trkpt lat="47.75279800" lon="-2.81123700"><ele></ele><time>2014-4-25T3:43:43Z</time></trkpt>
<trkpt lat="47.75284300" lon="-2.81146800"><ele></ele><time>2014-4-25T3:43:46Z</time></trkpt>
<trkpt lat="47.75284900" lon="-2.81174300"><ele></ele><time>2014-4-25T3:43:49Z</time></trkpt>
<trkpt lat="47.75284300" lon="-2.81197800"><ele></ele><time>2014-4-25T3:43:52Z</time></trkpt>
<trkpt lat="47.75286200" lon="-2.81225500"><ele></ele><time>2014-4-25T3:43:55Z</time></trkpt>
<trkpt lat="47.75288100" lon="-2.81246300"><ele></ele><time>2014-4-25T3:43:58Z</time></trkpt>
<trkpt lat="47.75289500" lon="-2.81266000"><ele></ele><time>2014-4-25T3:44:1Z</time></trkpt>
<trkpt lat="47.75291500" lon="-2.81287000"><ele></ele><time>2014-4-25T3:44:4Z</time></trkpt>
<trkpt lat="47.75293600" lon="-2.81303800"><ele></ele><time>2014-4-25T3:44:7Z</time></trkpt>
<trkpt lat="47.75295900" lon="-2.81317600"><ele></ele><time>2014-4-25T3:44:10Z</time></trkpt>
<trkpt lat="47.75305100" lon="-2.81318900"><ele></ele><time>2014-4-25T3:44:13Z</time></trkpt>
<trkpt lat="47.75306800" lon="-2.81318200"><ele></ele><time>2014-4-25T3:44:16Z</time></trkpt>
<trkpt lat="47.75323100" lon="-2.81310700"><ele></ele><time>2014-4-25T3:44:19Z</time></trkpt>
<trkpt lat="47.75342900" lon="-2.81306400"><ele></ele><time>2014-4-25T3:44:22Z</time></trkpt>
<trkpt lat="47.75358300" lon="-2.81300800"><ele></ele><time>2014-4-25T3:44:25Z</time></trkpt>
<trkpt lat="47.75372200" lon="-2.81294400"><ele></ele><time>2014-4-25T3:44:28Z</time></trkpt>
<trkpt lat="47.75377500" lon="-2.81276400"><ele></ele><time>2014-4-25T3:44:31Z</time></trkpt>
<trkpt lat="47.75386000" lon="-2.81243500"><ele></ele><time>2014-4-25T3:44:34Z</time></trkpt>
<trkpt lat="47.75387100" lon="-2.81238200"><ele></ele><time>2014-4-25T3:44:37Z</time></trkpt>
<trkpt lat="47.75389600" lon="-2.81219700"><ele></ele><time>2014-4-25T3:44:40Z</time></trkpt>
<trkpt lat="47.75402200" lon="-2.81191700"><ele></ele><time>2014-4-25T3:44:43Z</time></trkpt>
<trkpt lat="47.75409600" lon="-2.81186900"><ele></ele><time>2014-4-25T3:44:46Z</time></trkpt>
<trkpt lat="47.75435100" lon="-2.81182400"><ele></ele><time>2014-4-25T3:44:49Z</time></trkpt>
<trkpt lat="47.75464400" lon="-2.81179700"><ele></ele><time>2014-4-25T3:44:52Z</time></trkpt>
<trkpt lat="47.75469300" lon="-2.81179200"><ele></ele><time>2014-4-25T3:44:55Z</time></trkpt>
<trkpt lat="47.75493600" lon="-2.81188200"><ele></ele><time>2014-4-25T3:44:58Z</time></trkpt>
<trkpt lat="47.75520800" lon="-2.81200100"><ele></ele><time>2014-4-25T3:45:1Z</time></trkpt>
<trkpt lat="47.75541600" lon="-2.81220500"><ele></ele><time>2014-4-25T3:45:4Z</time></trkpt>
<trkpt lat="47.75549400" lon="-2.81235300"><ele></ele><time>2014-4-25T3:45:7Z</time></trkpt>
<trkpt lat="47.75556100" lon="-2.81251100"><ele></ele><time>2014-4-25T3:45:10Z</time></trkpt>
<trkpt lat="47.75570900" lon="-2.81294100"><ele></ele><time>2014-4-25T3:45:13Z</time></trkpt>
<trkpt lat="47.75578300" lon="-2.81316900"><ele></ele><time>2014-4-25T3:45:16Z</time></trkpt>
<trkpt lat="47.75583000" lon="-2.81326800"><ele></ele><time>2014-4-25T3:45:19Z</time></trkpt>
<trkpt lat="47.75592900" lon="-2.81340000"><ele></ele><time>2014-4-25T3:45:22Z</time></trkpt>
<trkpt lat="47.75609200" lon="-2.81344600"><ele></ele><time>2014-4-25T3:45:25Z</time></trkpt>
<trkpt lat="47.75619000" lon="-2.81341800"><ele></ele><time>2014-4-25T3:45:28Z</time></trkpt>
<trkpt lat="47.75635700" lon="-2.81342300"><ele></ele><time>2014-4-25T3:45:31Z</time></trkpt>
<trkpt lat="47.75638300" lon="-2.81342200"><ele></ele><time>2014-4-25T3:45:34Z</time></trkpt>
<trkpt lat="47.75641800" lon="-2.81342500"><ele></ele><time>2014-4-25T3:45:37Z</time></trkpt>
<trkpt lat="47.75647200" lon="-2.81343200"><ele></ele><time>2014-4-25T3:45:40Z</time></trkpt>
<trkpt lat="47.75654200" lon="-2.81338900"><ele></ele><time>2014-4-25T3:45:43Z</time></trkpt>
<trkpt lat="47.75660500" lon="-2.81336600"><ele></ele><time>2014-4-25T3:45:46Z</time></trkpt>
<trkpt lat="47.75664500" lon="-2.81333000"><ele></ele><time>2014-4-25T3:45:49Z</time></trkpt>
<trkpt lat="47.75665400" lon="-2.81331900"><ele></ele><time>2014-4-25T3:45:52Z</time></trkpt>
<trkpt lat="47.75665800" lon="-2.81331300"><ele></ele><time>2014-4-25T3:45:55Z</time></trkpt>
<trkpt lat="47.75666100" lon="-2.81331200"><ele></ele><time>2014-4-25T3:45:58Z</time></trkpt>
<trkpt lat="47.75666400" lon="-2.81330300"><ele></ele><time>2014-4-25T3:46:1Z</time></trkpt>
<trkpt lat="47.75666400" lon="-2.81327200"><ele></ele><time>2014-4-25T3:46:4Z</time></trkpt>
<trkpt lat="47.75666700" lon="-2.81326800"><ele></ele><time>2014-4-25T3:46:7Z</time></trkpt>
<trkpt lat="47.75667200" lon="-2.81326900"><ele></ele><time>2014-4-25T3:46:10Z</time></trkpt>
<trkpt lat="47.75670900" lon="-2.81328100"><ele></ele><time>2014-4-25T3:46:13Z</time></trkpt>
<trkpt lat="47.75671000" lon="-2.81328000"><ele></ele><time>2014-4-25T3:46:16Z</time></trkpt>
<trkpt lat="47.75671100" lon="-2.81328000"><ele></ele><time>2014-4-25T3:46:19Z</time></trkpt>
<trkpt lat="47.75668100" lon="-2.81328100"><ele></ele><time>2014-4-25T3:46:22Z</time></trkpt>
<trkpt lat="47.75668200" lon="-2.81327900"><ele></ele><time>2014-4-25T3:46:25Z</time></trkpt>
<trkpt lat="47.75668200" lon="-2.81327800"><ele></ele><time>2014-4-25T3:46:28Z</time></trkpt>
<trkpt lat="47.75668100" lon="-2.81329500"><ele></ele><time>2014-4-25T3:46:31Z</time></trkpt>
<trkpt lat="47.75668400" lon="-2.81330000"><ele></ele><time>2014-4-25T3:46:34Z</time></trkpt>
<trkpt lat="47.75668600" lon="-2.81329900"><ele></ele><time>2014-4-25T3:46:37Z</time></trkpt>
<trkpt lat="47.75680000" lon="-2.81330400"><ele></ele><time>2014-4-25T3:46:40Z</time></trkpt>
<trkpt lat="47.75702700" lon="-2.81328600"><ele></ele><time>2014-4-25T3:46:43Z</time></trkpt>
<trkpt lat="47.75707300" lon="-2.81329100"><ele></ele><time>2014-4-25T3:46:46Z</time></trkpt>
<trkpt lat="47.75730000" lon="-2.81331300"><ele></ele><time>2014-4-25T3:46:49Z</time></trkpt>
<trkpt lat="47.75738200" lon="-2.81330800"><ele></ele><time>2014-4-25T3:46:52Z</time></trkpt>
<trkpt lat="47.75770600" lon="-2.81326300"><ele></ele><time>2014-4-25T3:46:55Z</time></trkpt>
<trkpt lat="47.75790600" lon="-2.81324700"><ele></ele><time>2014-4-25T3:46:58Z</time></trkpt>
<trkpt lat="47.75826800" lon="-2.81323900"><ele></ele><time>2014-4-25T3:47:1Z</time></trkpt>
<trkpt lat="47.75843000" lon="-2.81322300"><ele></ele><time>2014-4-25T3:47:4Z</time></trkpt>
<trkpt lat="47.75869000" lon="-2.81321400"><ele></ele><time>2014-4-25T3:47:7Z</time></trkpt>
<trkpt lat="47.75890000" lon="-2.81321800"><ele></ele><time>2014-4-25T3:47:10Z</time></trkpt>
<trkpt lat="47.75929300" lon="-2.81330300"><ele></ele><time>2014-4-25T3:47:13Z</time></trkpt>
<trkpt lat="47.75952500" lon="-2.81337900"><ele></ele><time>2014-4-25T3:47:16Z</time></trkpt>
<trkpt lat="47.75977800" lon="-2.81347500"><ele></ele><time>2014-4-25T3:47:19Z</time></trkpt>
<trkpt lat="47.75981800" lon="-2.81348400"><ele></ele><time>2014-4-25T3:47:22Z</time></trkpt>
<trkpt lat="47.76002300" lon="-2.81341200"><ele></ele><time>2014-4-25T3:47:25Z</time></trkpt>
<trkpt lat="47.76007900" lon="-2.81331800"><ele></ele><time>2014-4-25T3:47:28Z</time></trkpt>
<trkpt lat="47.76018600" lon="-2.81293000"><ele></ele><time>2014-4-25T3:47:31Z</time></trkpt>
<trkpt lat="47.76021700" lon="-2.81232100"><ele></ele><time>2014-4-25T3:47:34Z</time></trkpt>
<trkpt lat="47.76022100" lon="-2.81217400"><ele></ele><time>2014-4-25T3:47:37Z</time></trkpt>
<trkpt lat="47.76025200" lon="-2.81156200"><ele></ele><time>2014-4-25T3:47:40Z</time></trkpt>
<trkpt lat="47.76027900" lon="-2.81133600"><ele></ele><time>2014-4-25T3:47:43Z</time></trkpt>
<trkpt lat="47.76044200" lon="-2.81086000"><ele></ele><time>2014-4-25T3:47:46Z</time></trkpt>
<trkpt lat="47.76070900" lon="-2.81057100"><ele></ele><time>2014-4-25T3:47:49Z</time></trkpt>
<trkpt lat="47.76076600" lon="-2.81054400"><ele></ele><time>2014-4-25T3:47:52Z</time></trkpt>
<trkpt lat="47.76119400" lon="-2.81045500"><ele></ele><time>2014-4-25T3:47:55Z</time></trkpt>
<trkpt lat="47.76164600" lon="-2.81040200"><ele></ele><time>2014-4-25T3:47:58Z</time></trkpt>
<trkpt lat="47.76178200" lon="-2.81038300"><ele></ele><time>2014-4-25T3:48:1Z</time></trkpt>
<trkpt lat="47.76199600" lon="-2.81035700"><ele></ele><time>2014-4-25T3:48:4Z</time></trkpt>
<trkpt lat="47.76214100" lon="-2.81037900"><ele></ele><time>2014-4-25T3:48:7Z</time></trkpt>
<trkpt lat="47.76229800" lon="-2.81045700"><ele></ele><time>2014-4-25T3:48:10Z</time></trkpt>
<trkpt lat="47.76238600" lon="-2.81037100"><ele></ele><time>2014-4-25T3:48:13Z</time></trkpt>
<trkpt lat="47.76241800" lon="-2.81024200"><ele></ele><time>2014-4-25T3:48:16Z</time></trkpt>
<trkpt lat="47.76258400" lon="-2.80989200"><ele></ele><time>2014-4-25T3:48:19Z</time></trkpt>
<trkpt lat="47.76265800" lon="-2.80972100"><ele></ele><time>2014-4-25T3:48:22Z</time></trkpt>
<trkpt lat="47.76268400" lon="-2.80963900"><ele></ele><time>2014-4-25T3:48:25Z</time></trkpt>
<trkpt lat="47.76272900" lon="-2.80942500"><ele></ele><time>2014-4-25T3:48:28Z</time></trkpt>
<trkpt lat="47.76273600" lon="-2.80932000"><ele></ele><time>2014-4-25T3:48:31Z</time></trkpt>
<trkpt lat="47.76281700" lon="-2.80889400"><ele></ele><time>2014-4-25T3:48:34Z</time></trkpt>
<trkpt lat="47.76280200" lon="-2.80848100"><ele></ele><time>2014-4-25T3:48:37Z</time></trkpt>
<trkpt lat="47.76269600" lon="-2.80815000"><ele></ele><time>2014-4-25T3:48:40Z</time></trkpt>
<trkpt lat="47.76250000" lon="-2.80782200"><ele></ele><time>2014-4-25T3:48:43Z</time></trkpt>
<trkpt lat="47.76231500" lon="-2.80751000"><ele></ele><time>2014-4-25T3:48:46Z</time></trkpt>
<trkpt lat="47.76221500" lon="-2.80725000"><ele></ele><time>2014-4-25T3:48:49Z</time></trkpt>
<trkpt lat="47.76215500" lon="-2.80712100"><ele></ele><time>2014-4-25T3:48:52Z</time></trkpt>
<trkpt lat="47.76209600" lon="-2.80688800"><ele></ele><time>2014-4-25T3:48:55Z</time></trkpt>
<trkpt lat="47.76220900" lon="-2.80678300"><ele></ele><time>2014-4-25T3:48:58Z</time></trkpt>
<trkpt lat="47.76239200" lon="-2.80662400"><ele></ele><time>2014-4-25T3:49:1Z</time></trkpt>
<trkpt lat="47.76247300" lon="-2.80648100"><ele></ele><time>2014-4-25T3:49:4Z</time></trkpt>
<trkpt lat="47.76252600" lon="-2.80631500"><ele></ele><time>2014-4-25T3:49:7Z</time></trkpt>
<trkpt lat="47.76256400" lon="-2.80605400"><ele></ele><time>2014-4-25T3:49:10Z</time></trkpt>
<trkpt lat="47.76258600" lon="-2.80572400"><ele></ele><time>2014-4-25T3:49:13Z</time></trkpt>
<trkpt lat="47.76258800" lon="-2.80545900"><ele></ele><time>2014-4-25T3:49:16Z</time></trkpt>
<trkpt lat="47.76258400" lon="-2.80515200"><ele></ele><time>2014-4-25T3:49:19Z</time></trkpt>
<trkpt lat="47.76257800" lon="-2.80491800"><ele></ele><time>2014-4-25T3:49:22Z</time></trkpt>
<trkpt lat="47.76248800" lon="-2.80463400"><ele></ele><time>2014-4-25T3:49:25Z</time></trkpt>
<trkpt lat="47.76236200" lon="-2.80435900"><ele></ele><time>2014-4-25T3:49:28Z</time></trkpt>
<trkpt lat="47.76229900" lon="-2.80414400"><ele></ele><time>2014-4-25T3:49:31Z</time></trkpt>
<trkpt lat="47.76228200" lon="-2.80387000"><ele></ele><time>2014-4-25T3:49:34Z</time></trkpt>
<trkpt lat="47.76229400" lon="-2.80352400"><ele></ele><time>2014-4-25T3:49:37Z</time></trkpt>
<trkpt lat="47.76230500" lon="-2.80337300"><ele></ele><time>2014-4-25T3:49:40Z</time></trkpt>
<trkpt lat="47.76234200" lon="-2.80310100"><ele></ele><time>2014-4-25T3:49:43Z</time></trkpt>
<trkpt lat="47.76233100" lon="-2.80303300"><ele></ele><time>2014-4-25T3:49:46Z</time></trkpt>
<trkpt lat="47.76223400" lon="-2.80298200"><ele></ele><time>2014-4-25T3:49:49Z</time></trkpt>
<trkpt lat="47.76200800" lon="-2.80296900"><ele></ele><time>2014-4-25T3:49:52Z</time></trkpt>
<trkpt lat="47.76186100" lon="-2.80295300"><ele></ele><time>2014-4-25T3:49:55Z</time></trkpt>
<trkpt lat="47.76169600" lon="-2.80290500"><ele></ele><time>2014-4-25T3:49:58Z</time></trkpt>
<trkpt lat="47.76151000" lon="-2.80285800"><ele></ele><time>2014-4-25T3:50:1Z</time></trkpt>
<trkpt lat="47.76134600" lon="-2.80282600"><ele></ele><time>2014-4-25T3:50:4Z</time></trkpt>
<trkpt lat="47.76115200" lon="-2.80280500"><ele></ele><time>2014-4-25T3:50:7Z</time></trkpt>
<trkpt lat="47.76101000" lon="-2.80279200"><ele></ele><time>2014-4-25T3:50:10Z</time></trkpt>
<trkpt lat="47.76089000" lon="-2.80277000"><ele></ele><time>2014-4-25T3:50:13Z</time></trkpt>
<trkpt lat="47.76068300" lon="-2.80273300"><ele></ele><time>2014-4-25T3:50:16Z</time></trkpt>
<trkpt lat="47.76054000" lon="-2.80268700"><ele></ele><time>2014-4-25T3:50:19Z</time></trkpt>
<trkpt lat="47.76041100" lon="-2.80266100"><ele></ele><time>2014-4-25T3:50:22Z</time></trkpt>
<trkpt lat="47.76028000" lon="-2.80264600"><ele></ele><time>2014-4-25T3:50:25Z</time></trkpt>
<trkpt lat="47.76016900" lon="-2.80264300"><ele></ele><time>2014-4-25T3:50:28Z</time></trkpt>
<trkpt lat="47.76002900" lon="-2.80264100"><ele></ele><time>2014-4-25T3:50:31Z</time></trkpt>
<trkpt lat="47.75990700" lon="-2.80263800"><ele></ele><time>2014-4-25T3:50:34Z</time></trkpt>
<trkpt lat="47.75976300" lon="-2.80265100"><ele></ele><time>2014-4-25T3:50:37Z</time></trkpt>
<trkpt lat="47.75965500" lon="-2.80266200"><ele></ele><time>2014-4-25T3:50:40Z</time></trkpt>
<trkpt lat="47.75948600" lon="-2.80268700"><ele></ele><time>2014-4-25T3:50:43Z</time></trkpt>
<trkpt lat="47.75926200" lon="-2.80269600"><ele></ele><time>2014-4-25T3:50:46Z</time></trkpt>
<trkpt lat="47.75892600" lon="-2.80266500"><ele></ele><time>2014-4-25T3:50:49Z</time></trkpt>
<trkpt lat="47.75859700" lon="-2.80266500"><ele></ele><time>2014-4-25T3:50:52Z</time></trkpt>
<trkpt lat="47.75841500" lon="-2.80266200"><ele></ele><time>2014-4-25T3:50:55Z</time></trkpt>
<trkpt lat="47.75808700" lon="-2.80261200"><ele></ele><time>2014-4-25T3:50:58Z</time></trkpt>
<trkpt lat="47.75773700" lon="-2.80261100"><ele></ele><time>2014-4-25T3:51:1Z</time></trkpt>
<trkpt lat="47.75745600" lon="-2.80263500"><ele></ele><time>2014-4-25T3:51:4Z</time></trkpt>
<trkpt lat="47.75705500" lon="-2.80270500"><ele></ele><time>2014-4-25T3:51:7Z</time></trkpt>
<trkpt lat="47.75658100" lon="-2.80272700"><ele></ele><time>2014-4-25T3:51:10Z</time></trkpt>
<trkpt lat="47.75626800" lon="-2.80274900"><ele></ele><time>2014-4-25T3:51:13Z</time></trkpt>
<trkpt lat="47.75607500" lon="-2.80285400"><ele></ele><time>2014-4-25T3:51:16Z</time></trkpt>
<trkpt lat="47.75602500" lon="-2.80286500"><ele></ele><time>2014-4-25T3:51:19Z</time></trkpt>
<trkpt lat="47.75592000" lon="-2.80287100"><ele></ele><time>2014-4-25T3:51:22Z</time></trkpt>
<trkpt lat="47.75557600" lon="-2.80291700"><ele></ele><time>2014-4-25T3:51:25Z</time></trkpt>
<trkpt lat="47.75512600" lon="-2.80298700"><ele></ele><time>2014-4-25T3:51:28Z</time></trkpt>
<trkpt lat="47.75473100" lon="-2.80303000"><ele></ele><time>2014-4-25T3:51:31Z</time></trkpt>
<trkpt lat="47.75440700" lon="-2.80306600"><ele></ele><time>2014-4-25T3:51:34Z</time></trkpt>
<trkpt lat="47.75416300" lon="-2.80311100"><ele></ele><time>2014-4-25T3:51:37Z</time></trkpt>
<trkpt lat="47.75401300" lon="-2.80315600"><ele></ele><time>2014-4-25T3:51:40Z</time></trkpt>
<trkpt lat="47.75391400" lon="-2.80316500"><ele></ele><time>2014-4-25T3:51:43Z</time></trkpt>
<trkpt lat="47.75381800" lon="-2.80315300"><ele></ele><time>2014-4-25T3:51:46Z</time></trkpt>
<trkpt lat="47.75366500" lon="-2.80309400"><ele></ele><time>2014-4-25T3:51:49Z</time></trkpt>
<trkpt lat="47.75364500" lon="-2.80308000"><ele></ele><time>2014-4-25T3:51:52Z</time></trkpt>
<trkpt lat="47.75353100" lon="-2.80301800"><ele></ele><time>2014-4-25T3:51:55Z</time></trkpt>
<trkpt lat="47.75342000" lon="-2.80294400"><ele></ele><time>2014-4-25T3:51:58Z</time></trkpt>
<trkpt lat="47.75330300" lon="-2.80286400"><ele></ele><time>2014-4-25T3:52:1Z</time></trkpt>
<trkpt lat="47.75318100" lon="-2.80276700"><ele></ele><time>2014-4-25T3:52:4Z</time></trkpt>
<trkpt lat="47.75305400" lon="-2.80267300"><ele></ele><time>2014-4-25T3:52:7Z</time></trkpt>
<trkpt lat="47.75290900" lon="-2.80255600"><ele></ele><time>2014-4-25T3:52:10Z</time></trkpt>
<trkpt lat="47.75275400" lon="-2.80241300"><ele></ele><time>2014-4-25T3:52:13Z</time></trkpt>
<trkpt lat="47.75262000" lon="-2.80229100"><ele></ele><time>2014-4-25T3:52:16Z</time></trkpt>
<trkpt lat="47.75259500" lon="-2.80234100"><ele></ele><time>2014-4-25T3:52:19Z</time></trkpt>
<trkpt lat="47.75262200" lon="-2.80256000"><ele></ele><time>2014-4-25T3:52:22Z</time></trkpt>
<trkpt lat="47.75262400" lon="-2.80261800"><ele></ele><time>2014-4-25T3:52:25Z</time></trkpt>
<trkpt lat="47.75267100" lon="-2.80293900"><ele></ele><time>2014-4-25T3:52:28Z</time></trkpt>
<trkpt lat="47.75283000" lon="-2.80332200"><ele></ele><time>2014-4-25T3:52:31Z</time></trkpt>
<trkpt lat="47.75285300" lon="-2.80348600"><ele></ele><time>2014-4-25T3:52:34Z</time></trkpt>
<trkpt lat="47.75288400" lon="-2.80366500"><ele></ele><time>2014-4-25T3:52:37Z</time></trkpt>
<trkpt lat="47.75296300" lon="-2.80405600"><ele></ele><time>2014-4-25T3:52:40Z</time></trkpt>
<trkpt lat="47.75297400" lon="-2.80414000"><ele></ele><time>2014-4-25T3:52:43Z</time></trkpt>
<trkpt lat="47.75307900" lon="-2.80468000"><ele></ele><time>2014-4-25T3:52:46Z</time></trkpt>
<trkpt lat="47.75311500" lon="-2.80484600"><ele></ele><time>2014-4-25T3:52:49Z</time></trkpt>
<trkpt lat="47.75315500" lon="-2.80500000"><ele></ele><time>2014-4-25T3:52:52Z</time></trkpt>
<trkpt lat="47.75322000" lon="-2.80515800"><ele></ele><time>2014-4-25T3:52:55Z</time></trkpt>
<trkpt lat="47.75328800" lon="-2.80538300"><ele></ele><time>2014-4-25T3:52:58Z</time></trkpt>
<trkpt lat="47.75333600" lon="-2.80563400"><ele></ele><time>2014-4-25T3:53:1Z</time></trkpt>
<trkpt lat="47.75351400" lon="-2.80588900"><ele></ele><time>2014-4-25T3:53:4Z</time></trkpt>
<trkpt lat="47.75363500" lon="-2.80615500"><ele></ele><time>2014-4-25T3:53:7Z</time></trkpt>
<trkpt lat="47.75364100" lon="-2.80624100"><ele></ele><time>2014-4-25T3:53:10Z</time></trkpt>
<trkpt lat="47.75365700" lon="-2.80649900"><ele></ele><time>2014-4-25T3:53:13Z</time></trkpt>
<trkpt lat="47.75370300" lon="-2.80676100"><ele></ele><time>2014-4-25T3:53:16Z</time></trkpt>
<trkpt lat="47.75379000" lon="-2.80711900"><ele></ele><time>2014-4-25T3:53:19Z</time></trkpt>
<trkpt lat="47.75383500" lon="-2.80731300"><ele></ele><time>2014-4-25T3:53:22Z</time></trkpt>
<trkpt lat="47.75384500" lon="-2.80735800"><ele></ele><time>2014-4-25T3:53:25Z</time></trkpt>
<trkpt lat="47.75376600" lon="-2.80743600"><ele></ele><time>2014-4-25T3:53:28Z</time></trkpt>
<trkpt lat="47.75358400" lon="-2.80745200"><ele></ele><time>2014-4-25T3:53:31Z</time></trkpt>
<trkpt lat="47.75339100" lon="-2.80748500"><ele></ele><time>2014-4-25T3:53:34Z</time></trkpt>
<trkpt lat="47.75327900" lon="-2.80752200"><ele></ele><time>2014-4-25T3:53:37Z</time></trkpt>
<trkpt lat="47.75319800" lon="-2.80755600"><ele></ele><time>2014-4-25T3:53:40Z</time></trkpt>
<trkpt lat="47.75308300" lon="-2.80760200"><ele></ele><time>2014-4-25T3:53:43Z</time></trkpt>
<trkpt lat="47.75304300" lon="-2.80762300"><ele></ele><time>2014-4-25T3:53:46Z</time></trkpt>
<trkpt lat="47.75283600" lon="-2.80773100"><ele></ele><time>2014-4-25T3:53:49Z</time></trkpt>
<trkpt lat="47.75261300" lon="-2.80781900"><ele></ele><time>2014-4-25T3:53:52Z</time></trkpt>
<trkpt lat="47.75236800" lon="-2.80787500"><ele></ele><time>2014-4-25T3:53:55Z</time></trkpt>
<trkpt lat="47.75208900" lon="-2.80788900"><ele></ele><time>2014-4-25T3:53:58Z</time></trkpt>
<trkpt lat="47.75185000" lon="-2.80789000"><ele></ele><time>2014-4-25T3:54:1Z</time></trkpt>
<trkpt lat="47.75164100" lon="-2.80787100"><ele></ele><time>2014-4-25T3:54:4Z</time></trkpt>
<trkpt lat="47.75148500" lon="-2.80779200"><ele></ele><time>2014-4-25T3:54:7Z</time></trkpt>
<trkpt lat="47.75129300" lon="-2.80758300"><ele></ele><time>2014-4-25T3:54:10Z</time></trkpt>
<trkpt lat="47.75115300" lon="-2.80742600"><ele></ele><time>2014-4-25T3:54:13Z</time></trkpt>
<trkpt lat="47.75103100" lon="-2.80725500"><ele></ele><time>2014-4-25T3:54:16Z</time></trkpt>
<trkpt lat="47.75090200" lon="-2.80705000"><ele></ele><time>2014-4-25T3:54:19Z</time></trkpt>
<trkpt lat="47.75076800" lon="-2.80679300"><ele></ele><time>2014-4-25T3:54:22Z</time></trkpt>
<trkpt lat="47.75065700" lon="-2.80655100"><ele></ele><time>2014-4-25T3:54:25Z</time></trkpt>
<trkpt lat="47.75052300" lon="-2.80619500"><ele></ele><time>2014-4-25T3:54:28Z</time></trkpt>
<trkpt lat="47.75039200" lon="-2.80581400"><ele></ele><time>2014-4-25T3:54:31Z</time></trkpt>
<trkpt lat="47.75031000" lon="-2.80562300"><ele></ele><time>2014-4-25T3:54:34Z</time></trkpt>
<trkpt lat="47.75015300" lon="-2.80521000"><ele></ele><time>2014-4-25T3:54:37Z</time></trkpt>
<trkpt lat="47.75000800" lon="-2.80500600"><ele></ele><time>2014-4-25T3:54:40Z</time></trkpt>
<trkpt lat="47.74973000" lon="-2.80486800"><ele></ele><time>2014-4-25T3:54:43Z</time></trkpt>
<trkpt lat="47.74934900" lon="-2.80478700"><ele></ele><time>2014-4-25T3:54:46Z</time></trkpt>
<trkpt lat="47.74906900" lon="-2.80476300"><ele></ele><time>2014-4-25T3:54:49Z</time></trkpt>
<trkpt lat="47.74876700" lon="-2.80465300"><ele></ele><time>2014-4-25T3:54:52Z</time></trkpt>
<trkpt lat="47.74831300" lon="-2.80448200"><ele></ele><time>2014-4-25T3:54:55Z</time></trkpt>
<trkpt lat="47.74819700" lon="-2.80459200"><ele></ele><time>2014-4-25T3:54:58Z</time></trkpt>
<trkpt lat="47.74818500" lon="-2.80464100"><ele></ele><time>2014-4-25T3:55:1Z</time></trkpt>
<trkpt lat="47.74814100" lon="-2.80480600"><ele></ele><time>2014-4-25T3:55:4Z</time></trkpt>
<trkpt lat="47.74812600" lon="-2.80484400"><ele></ele><time>2014-4-25T3:55:7Z</time></trkpt>
<trkpt lat="47.74804000" lon="-2.80482300"><ele></ele><time>2014-4-25T3:55:10Z</time></trkpt>
<trkpt lat="47.74795600" lon="-2.80472000"><ele></ele><time>2014-4-25T3:55:13Z</time></trkpt>
<trkpt lat="47.74791600" lon="-2.80462900"><ele></ele><time>2014-4-25T3:55:16Z</time></trkpt>
<trkpt lat="47.74791300" lon="-2.80459100"><ele></ele><time>2014-4-25T3:55:19Z</time></trkpt>
<trkpt lat="47.74791600" lon="-2.80458800"><ele></ele><time>2014-4-25T3:55:22Z</time></trkpt>
<trkpt lat="47.74792400" lon="-2.80459400"><ele></ele><time>2014-4-25T3:55:25Z</time></trkpt>
<trkpt lat="47.74796000" lon="-2.80453300"><ele></ele><time>2014-4-25T3:55:28Z</time></trkpt>
<trkpt lat="47.74796200" lon="-2.80453500"><ele></ele><time>2014-4-25T3:55:31Z</time></trkpt>
<trkpt lat="47.74796100" lon="-2.80453500"><ele></ele><time>2014-4-25T3:55:34Z</time></trkpt>
<trkpt lat="47.74795900" lon="-2.80454300"><ele></ele><time>2014-4-25T3:55:37Z</time></trkpt>
<trkpt lat="47.74795900" lon="-2.80454400"><ele></ele><time>2014-4-25T3:55:40Z</time></trkpt>
<trkpt lat="47.74795900" lon="-2.80454400"><ele></ele><time>2014-4-25T3:55:43Z</time></trkpt>
<trkpt lat="47.74795100" lon="-2.80454300"><ele></ele><time>2014-4-25T3:55:46Z</time></trkpt>
<trkpt lat="47.74783400" lon="-2.80454200"><ele></ele><time>2014-4-25T3:55:49Z</time></trkpt>
<trkpt lat="47.74767400" lon="-2.80457300"><ele></ele><time>2014-4-25T3:55:52Z</time></trkpt>
<trkpt lat="47.74751300" lon="-2.80451000"><ele></ele><time>2014-4-25T3:55:55Z</time></trkpt>
<trkpt lat="47.74729200" lon="-2.80449900"><ele></ele><time>2014-4-25T3:55:58Z</time></trkpt>
<trkpt lat="47.74725100" lon="-2.80448800"><ele></ele><time>2014-4-25T3:56:1Z</time></trkpt>
<trkpt lat="47.74712300" lon="-2.80433400"><ele></ele><time>2014-4-25T3:56:4Z</time></trkpt>
<trkpt lat="47.74702400" lon="-2.80418600"><ele></ele><time>2014-4-25T3:56:7Z</time></trkpt>
<trkpt lat="47.74686800" lon="-2.80385600"><ele></ele><time>2014-4-25T3:56:10Z</time></trkpt>
<trkpt lat="47.74684300" lon="-2.80360200"><ele></ele><time>2014-4-25T3:56:13Z</time></trkpt>
<trkpt lat="47.74689700" lon="-2.80309100"><ele></ele><time>2014-4-25T3:56:16Z</time></trkpt>
<trkpt lat="47.74694600" lon="-2.80287900"><ele></ele><time>2014-4-25T3:56:19Z</time></trkpt>
<trkpt lat="47.74698000" lon="-2.80270800"><ele></ele><time>2014-4-25T3:56:22Z</time></trkpt>
<trkpt lat="47.74703500" lon="-2.80245600"><ele></ele><time>2014-4-25T3:56:25Z</time></trkpt>
<trkpt lat="47.74707700" lon="-2.80222600"><ele></ele><time>2014-4-25T3:56:28Z</time></trkpt>
<trkpt lat="47.74711000" lon="-2.80203300"><ele></ele><time>2014-4-25T3:56:31Z</time></trkpt>
<trkpt lat="47.74712600" lon="-2.80191400"><ele></ele><time>2014-4-25T3:56:34Z</time></trkpt>
<trkpt lat="47.74717800" lon="-2.80162800"><ele></ele><time>2014-4-25T3:56:37Z</time></trkpt>
<trkpt lat="47.74719500" lon="-2.80136300"><ele></ele><time>2014-4-25T3:56:40Z</time></trkpt>
<trkpt lat="47.74719700" lon="-2.80103400"><ele></ele><time>2014-4-25T3:56:43Z</time></trkpt>
<trkpt lat="47.74715400" lon="-2.80066300"><ele></ele><time>2014-4-25T3:56:46Z</time></trkpt>
<trkpt lat="47.74710500" lon="-2.80028000"><ele></ele><time>2014-4-25T3:56:49Z</time></trkpt>
<trkpt lat="47.74705600" lon="-2.79988600"><ele></ele><time>2014-4-25T3:56:52Z</time></trkpt>
<trkpt lat="47.74698200" lon="-2.79947100"><ele></ele><time>2014-4-25T3:56:55Z</time></trkpt>
<trkpt lat="47.74693800" lon="-2.79911900"><ele></ele><time>2014-4-25T3:56:58Z</time></trkpt>
<trkpt lat="47.74689500" lon="-2.79882900"><ele></ele><time>2014-4-25T3:57:1Z</time></trkpt>
<trkpt lat="47.74685400" lon="-2.79850200"><ele></ele><time>2014-4-25T3:57:4Z</time></trkpt>
<trkpt lat="47.74683200" lon="-2.79820300"><ele></ele><time>2014-4-25T3:57:7Z</time></trkpt>
<trkpt lat="47.74681400" lon="-2.79790000"><ele></ele><time>2014-4-25T3:57:10Z</time></trkpt>
<trkpt lat="47.74681400" lon="-2.79763000"><ele></ele><time>2014-4-25T3:57:13Z</time></trkpt>
<trkpt lat="47.74679300" lon="-2.79720300"><ele></ele><time>2014-4-25T3:57:16Z</time></trkpt>
<trkpt lat="47.74679200" lon="-2.79713700"><ele></ele><time>2014-4-25T3:57:19Z</time></trkpt>
<trkpt lat="47.74678900" lon="-2.79672500"><ele></ele><time>2014-4-25T3:57:22Z</time></trkpt>
<trkpt lat="47.74679500" lon="-2.79649100"><ele></ele><time>2014-4-25T3:57:25Z</time></trkpt>
<trkpt lat="47.74679400" lon="-2.79624600"><ele></ele><time>2014-4-25T3:57:28Z</time></trkpt>
<trkpt lat="47.74682000" lon="-2.79568400"><ele></ele><time>2014-4-25T3:57:31Z</time></trkpt>
<trkpt lat="47.74682200" lon="-2.79547100"><ele></ele><time>2014-4-25T3:57:34Z</time></trkpt>
<trkpt lat="47.74685900" lon="-2.79515200"><ele></ele><time>2014-4-25T3:57:37Z</time></trkpt>
<trkpt lat="47.74695500" lon="-2.79468300"><ele></ele><time>2014-4-25T3:57:40Z</time></trkpt>
<trkpt lat="47.74697200" lon="-2.79461600"><ele></ele><time>2014-4-25T3:57:43Z</time></trkpt>
<trkpt lat="47.74703500" lon="-2.79440900"><ele></ele><time>2014-4-25T3:57:46Z</time></trkpt>
<trkpt lat="47.74706300" lon="-2.79426300"><ele></ele><time>2014-4-25T3:57:49Z</time></trkpt>
<trkpt lat="47.74707600" lon="-2.79412600"><ele></ele><time>2014-4-25T3:57:52Z</time></trkpt>
<trkpt lat="47.74701000" lon="-2.79365100"><ele></ele><time>2014-4-25T3:57:55Z</time></trkpt>
<trkpt lat="47.74694700" lon="-2.79331400"><ele></ele><time>2014-4-25T3:57:58Z</time></trkpt>
<trkpt lat="47.74693300" lon="-2.79324400"><ele></ele><time>2014-4-25T3:58:1Z</time></trkpt>
<trkpt lat="47.74687200" lon="-2.79272400"><ele></ele><time>2014-4-25T3:58:4Z</time></trkpt>
<trkpt lat="47.74680200" lon="-2.79235400"><ele></ele><time>2014-4-25T3:58:7Z</time></trkpt>
<trkpt lat="47.74668700" lon="-2.79183900"><ele></ele><time>2014-4-25T3:58:10Z</time></trkpt>
<trkpt lat="47.74659900" lon="-2.79137000"><ele></ele><time>2014-4-25T3:58:13Z</time></trkpt>
<trkpt lat="47.74653000" lon="-2.79063600"><ele></ele><time>2014-4-25T3:58:16Z</time></trkpt>
<trkpt lat="47.74652600" lon="-2.79026600"><ele></ele><time>2014-4-25T3:58:19Z</time></trkpt>
<trkpt lat="47.74651200" lon="-2.79008600"><ele></ele><time>2014-4-25T3:58:22Z</time></trkpt>
<trkpt lat="47.74648900" lon="-2.78953400"><ele></ele><time>2014-4-25T3:58:25Z</time></trkpt>
<trkpt lat="47.74648800" lon="-2.78943700"><ele></ele><time>2014-4-25T3:58:28Z</time></trkpt>
<trkpt lat="47.74645800" lon="-2.78894200"><ele></ele><time>2014-4-25T3:58:31Z</time></trkpt>
<trkpt lat="47.74637500" lon="-2.78823400"><ele></ele><time>2014-4-25T3:58:34Z</time></trkpt>
<trkpt lat="47.74632400" lon="-2.78755100"><ele></ele><time>2014-4-25T3:58:37Z</time></trkpt>
<trkpt lat="47.74631000" lon="-2.78701000"><ele></ele><time>2014-4-25T3:58:40Z</time></trkpt>
<trkpt lat="47.74630800" lon="-2.78642900"><ele></ele><time>2014-4-25T3:58:43Z</time></trkpt>
<trkpt lat="47.74631400" lon="-2.78607000"><ele></ele><time>2014-4-25T3:58:46Z</time></trkpt>
<trkpt lat="47.74631800" lon="-2.78565100"><ele></ele><time>2014-4-25T3:58:49Z</time></trkpt>
<trkpt lat="47.74633400" lon="-2.78499800"><ele></ele><time>2014-4-25T3:58:52Z</time></trkpt>
<trkpt lat="47.74634400" lon="-2.78477800"><ele></ele><time>2014-4-25T3:58:55Z</time></trkpt>
<trkpt lat="47.74637800" lon="-2.78419100"><ele></ele><time>2014-4-25T3:58:58Z</time></trkpt>
<trkpt lat="47.74638800" lon="-2.78359500"><ele></ele><time>2014-4-25T3:59:1Z</time></trkpt>
<trkpt lat="47.74638900" lon="-2.78302000"><ele></ele><time>2014-4-25T3:59:4Z</time></trkpt>
<trkpt lat="47.74636200" lon="-2.78263400"><ele></ele><time>2014-4-25T3:59:7Z</time></trkpt>
<trkpt lat="47.74630300" lon="-2.78202700"><ele></ele><time>2014-4-25T3:59:10Z</time></trkpt>
<trkpt lat="47.74629400" lon="-2.78195400"><ele></ele><time>2014-4-25T3:59:13Z</time></trkpt>
<trkpt lat="47.74623300" lon="-2.78162000"><ele></ele><time>2014-4-25T3:59:16Z</time></trkpt>
<trkpt lat="47.74618700" lon="-2.78145300"><ele></ele><time>2014-4-25T3:59:19Z</time></trkpt>
<trkpt lat="47.74602600" lon="-2.78107100"><ele></ele><time>2014-4-25T3:59:22Z</time></trkpt>
<trkpt lat="47.74586100" lon="-2.78077900"><ele></ele><time>2014-4-25T3:59:25Z</time></trkpt>
<trkpt lat="47.74572800" lon="-2.78049100"><ele></ele><time>2014-4-25T3:59:28Z</time></trkpt>
<trkpt lat="47.74559700" lon="-2.78015100"><ele></ele><time>2014-4-25T3:59:31Z</time></trkpt>
<trkpt lat="47.74550200" lon="-2.77987000"><ele></ele><time>2014-4-25T3:59:34Z</time></trkpt>
<trkpt lat="47.74537500" lon="-2.77948600"><ele></ele><time>2014-4-25T3:59:37Z</time></trkpt>
<trkpt lat="47.74530600" lon="-2.77918000"><ele></ele><time>2014-4-25T3:59:40Z</time></trkpt>
<trkpt lat="47.74525400" lon="-2.77885000"><ele></ele><time>2014-4-25T3:59:43Z</time></trkpt>
<trkpt lat="47.74523000" lon="-2.77871000"><ele></ele><time>2014-4-25T3:59:46Z</time></trkpt>
<trkpt lat="47.74516300" lon="-2.77833600"><ele></ele><time>2014-4-25T3:59:49Z</time></trkpt>
<trkpt lat="47.74503900" lon="-2.77780400"><ele></ele><time>2014-4-25T3:59:52Z</time></trkpt>
<trkpt lat="47.74499900" lon="-2.77727100"><ele></ele><time>2014-4-25T3:59:55Z</time></trkpt>
<trkpt lat="47.74496400" lon="-2.77681500"><ele></ele><time>2014-4-25T3:59:58Z</time></trkpt>
<trkpt lat="47.74492800" lon="-2.77617300"><ele></ele><time>2014-4-25T4:0:1Z</time></trkpt>
<trkpt lat="47.74498200" lon="-2.77584600"><ele></ele><time>2014-4-25T4:0:4Z</time></trkpt>
<trkpt lat="47.74499000" lon="-2.77581300"><ele></ele><time>2014-4-25T4:0:7Z</time></trkpt>
<trkpt lat="47.74499700" lon="-2.77578900"><ele></ele><time>2014-4-25T4:0:10Z</time></trkpt>
<trkpt lat="47.74498200" lon="-2.77565100"><ele></ele><time>2014-4-25T4:0:13Z</time></trkpt>
<trkpt lat="47.74501000" lon="-2.77557300"><ele></ele><time>2014-4-25T4:0:16Z</time></trkpt>
<trkpt lat="47.74502000" lon="-2.77557100"><ele></ele><time>2014-4-25T4:0:19Z</time></trkpt>
<trkpt lat="47.74502000" lon="-2.77557700"><ele></ele><time>2014-4-25T4:0:22Z</time></trkpt>
<trkpt lat="47.74504100" lon="-2.77563000"><ele></ele><time>2014-4-25T4:0:25Z</time></trkpt>
<trkpt lat="47.74504100" lon="-2.77562400"><ele></ele><time>2014-4-25T4:0:28Z</time></trkpt>
<trkpt lat="47.74503900" lon="-2.77562000"><ele></ele><time>2014-4-25T4:0:31Z</time></trkpt>
<trkpt lat="47.74503300" lon="-2.77561700"><ele></ele><time>2014-4-25T4:0:34Z</time></trkpt>
<trkpt lat="47.74501100" lon="-2.77561800"><ele></ele><time>2014-4-25T4:0:37Z</time></trkpt>
<trkpt lat="47.74499200" lon="-2.77556700"><ele></ele><time>2014-4-25T4:0:40Z</time></trkpt>
<trkpt lat="47.74498300" lon="-2.77555500"><ele></ele><time>2014-4-25T4:0:43Z</time></trkpt>
<trkpt lat="47.74498200" lon="-2.77553800"><ele></ele><time>2014-4-25T4:0:46Z</time></trkpt>
<trkpt lat="47.74498600" lon="-2.77553800"><ele></ele><time>2014-4-25T4:0:49Z</time></trkpt>
<trkpt lat="47.74496300" lon="-2.77557600"><ele></ele><time>2014-4-25T4:0:52Z</time></trkpt>
<trkpt lat="47.74495900" lon="-2.77557800"><ele></ele><time>2014-4-25T4:0:55Z</time></trkpt>
<trkpt lat="47.74496800" lon="-2.77551800"><ele></ele><time>2014-4-25T4:0:58Z</time></trkpt>
<trkpt lat="47.74496100" lon="-2.77550300"><ele></ele><time>2014-4-25T4:1:1Z</time></trkpt>
<trkpt lat="47.74495900" lon="-2.77549400"><ele></ele><time>2014-4-25T4:1:4Z</time></trkpt>
<trkpt lat="47.74495900" lon="-2.77549100"><ele></ele><time>2014-4-25T4:1:7Z</time></trkpt>
<trkpt lat="47.74495800" lon="-2.77548700"><ele></ele><time>2014-4-25T4:1:10Z</time></trkpt>
<trkpt lat="47.74498300" lon="-2.77550100"><ele></ele><time>2014-4-25T4:1:13Z</time></trkpt>
<trkpt lat="47.74499400" lon="-2.77550500"><ele></ele><time>2014-4-25T4:1:16Z</time></trkpt>
<trkpt lat="47.74497800" lon="-2.77549700"><ele></ele><time>2014-4-25T4:1:19Z</time></trkpt>
<trkpt lat="47.74493800" lon="-2.77539000"><ele></ele><time>2014-4-25T4:1:22Z</time></trkpt>
<trkpt lat="47.74490100" lon="-2.77527300"><ele></ele><time>2014-4-25T4:1:25Z</time></trkpt>
<trkpt lat="47.74486500" lon="-2.77518400"><ele></ele><time>2014-4-25T4:1:28Z</time></trkpt>
<trkpt lat="47.74487200" lon="-2.77503600"><ele></ele><time>2014-4-25T4:1:31Z</time></trkpt>
<trkpt lat="47.74485000" lon="-2.77487700"><ele></ele><time>2014-4-25T4:1:34Z</time></trkpt>
<trkpt lat="47.74483600" lon="-2.77474500"><ele></ele><time>2014-4-25T4:1:37Z</time></trkpt>
<trkpt lat="47.74481400" lon="-2.77471000"><ele></ele><time>2014-4-25T4:1:40Z</time></trkpt>
<trkpt lat="47.74478300" lon="-2.77452600"><ele></ele><time>2014-4-25T4:1:43Z</time></trkpt>
<trkpt lat="47.74481100" lon="-2.77428100"><ele></ele><time>2014-4-25T4:1:46Z</time></trkpt>
<trkpt lat="47.74488400" lon="-2.77404900"><ele></ele><time>2014-4-25T4:1:49Z</time></trkpt>
<trkpt lat="47.74495800" lon="-2.77379800"><ele></ele><time>2014-4-25T4:1:52Z</time></trkpt>
<trkpt lat="47.74497800" lon="-2.77350100"><ele></ele><time>2014-4-25T4:1:55Z</time></trkpt>
<trkpt lat="47.74497800" lon="-2.77320200"><ele></ele><time>2014-4-25T4:1:58Z</time></trkpt>
<trkpt lat="47.74493600" lon="-2.77290100"><ele></ele><time>2014-4-25T4:2:1Z</time></trkpt>
<trkpt lat="47.74490100" lon="-2.77261400"><ele></ele><time>2014-4-25T4:2:4Z</time></trkpt>
<trkpt lat="47.74489100" lon="-2.77240100"><ele></ele><time>2014-4-25T4:2:7Z</time></trkpt>
<trkpt lat="47.74484000" lon="-2.77220500"><ele></ele><time>2014-4-25T4:2:10Z</time></trkpt>
<trkpt lat="47.74479100" lon="-2.77189000"><ele></ele><time>2014-4-25T4:2:13Z</time></trkpt>
<trkpt lat="47.74475000" lon="-2.77164700"><ele></ele><time>2014-4-25T4:2:16Z</time></trkpt>
<trkpt lat="47.74473100" lon="-2.77149000"><ele></ele><time>2014-4-25T4:2:19Z</time></trkpt>
<trkpt lat="47.74469300" lon="-2.77121000"><ele></ele><time>2014-4-25T4:2:22Z</time></trkpt>
<trkpt lat="47.74466400" lon="-2.77087100"><ele></ele><time>2014-4-25T4:2:25Z</time></trkpt>
<trkpt lat="47.74457900" lon="-2.77036900"><ele></ele><time>2014-4-25T4:2:28Z</time></trkpt>
<trkpt lat="47.74450700" lon="-2.77004800"><ele></ele><time>2014-4-25T4:2:31Z</time></trkpt>
<trkpt lat="47.74441300" lon="-2.76994500"><ele></ele><time>2014-4-25T4:2:34Z</time></trkpt>
<trkpt lat="47.74429400" lon="-2.76980600"><ele></ele><time>2014-4-25T4:2:37Z</time></trkpt>
<trkpt lat="47.74422300" lon="-2.76969600"><ele></ele><time>2014-4-25T4:2:40Z</time></trkpt>
<trkpt lat="47.74419900" lon="-2.76964100"><ele></ele><time>2014-4-25T4:2:43Z</time></trkpt>
<trkpt lat="47.74410400" lon="-2.76932800"><ele></ele><time>2014-4-25T4:2:46Z</time></trkpt>
<trkpt lat="47.74410100" lon="-2.76926000"><ele></ele><time>2014-4-25T4:2:49Z</time></trkpt>
<trkpt lat="47.74412300" lon="-2.76881900"><ele></ele><time>2014-4-25T4:2:52Z</time></trkpt>
<trkpt lat="47.74414100" lon="-2.76858800"><ele></ele><time>2014-4-25T4:2:55Z</time></trkpt>
<trkpt lat="47.74416900" lon="-2.76843200"><ele></ele><time>2014-4-25T4:2:58Z</time></trkpt>
<trkpt lat="47.74408700" lon="-2.76816900"><ele></ele><time>2014-4-25T4:3:1Z</time></trkpt>
<trkpt lat="47.74402900" lon="-2.76811400"><ele></ele><time>2014-4-25T4:3:4Z</time></trkpt>
<trkpt lat="47.74355600" lon="-2.76772500"><ele></ele><time>2014-4-25T4:3:7Z</time></trkpt>
<trkpt lat="47.74317900" lon="-2.76741000"><ele></ele><time>2014-4-25T4:3:10Z</time></trkpt>
<trkpt lat="47.74290800" lon="-2.76718800"><ele></ele><time>2014-4-25T4:3:13Z</time></trkpt>
<trkpt lat="47.74259100" lon="-2.76692400"><ele></ele><time>2014-4-25T4:3:16Z</time></trkpt>
<trkpt lat="47.74234300" lon="-2.76672600"><ele></ele><time>2014-4-25T4:3:19Z</time></trkpt>
<trkpt lat="47.74206000" lon="-2.76653000"><ele></ele><time>2014-4-25T4:3:22Z</time></trkpt>
<trkpt lat="47.74182700" lon="-2.76637400"><ele></ele><time>2014-4-25T4:3:25Z</time></trkpt>
<trkpt lat="47.74179300" lon="-2.76635500"><ele></ele><time>2014-4-25T4:3:28Z</time></trkpt>
<trkpt lat="47.74166000" lon="-2.76647400"><ele></ele><time>2014-4-25T4:3:31Z</time></trkpt>
<trkpt lat="47.74164800" lon="-2.76671500"><ele></ele><time>2014-4-25T4:3:34Z</time></trkpt>
<trkpt lat="47.74166200" lon="-2.76697100"><ele></ele><time>2014-4-25T4:3:37Z</time></trkpt>
<trkpt lat="47.74173200" lon="-2.76750000"><ele></ele><time>2014-4-25T4:3:40Z</time></trkpt>
<trkpt lat="47.74166500" lon="-2.76774500"><ele></ele><time>2014-4-25T4:3:43Z</time></trkpt>
<trkpt lat="47.74158100" lon="-2.76769400"><ele></ele><time>2014-4-25T4:3:46Z</time></trkpt>
<trkpt lat="47.74157200" lon="-2.76765300"><ele></ele><time>2014-4-25T4:3:49Z</time></trkpt>
<trkpt lat="47.74153200" lon="-2.76726200"><ele></ele><time>2014-4-25T4:3:52Z</time></trkpt>
<trkpt lat="47.74146000" lon="-2.76695100"><ele></ele><time>2014-4-25T4:3:55Z</time></trkpt>
<trkpt lat="47.74140600" lon="-2.76667400"><ele></ele><time>2014-4-25T4:3:58Z</time></trkpt>
<trkpt lat="47.74130100" lon="-2.76643400"><ele></ele><time>2014-4-25T4:4:1Z</time></trkpt>
<trkpt lat="47.74121600" lon="-2.76622900"><ele></ele><time>2014-4-25T4:4:4Z</time></trkpt>
<trkpt lat="47.74116700" lon="-2.76613300"><ele></ele><time>2014-4-25T4:4:7Z</time></trkpt>
<trkpt lat="47.74102500" lon="-2.76592100"><ele></ele><time>2014-4-25T4:4:10Z</time></trkpt>
<trkpt lat="47.74076600" lon="-2.76572200"><ele></ele><time>2014-4-25T4:4:13Z</time></trkpt>
<trkpt lat="47.74054500" lon="-2.76558200"><ele></ele><time>2014-4-25T4:4:16Z</time></trkpt>
<trkpt lat="47.74020200" lon="-2.76542800"><ele></ele><time>2014-4-25T4:4:19Z</time></trkpt>
<trkpt lat="47.73979800" lon="-2.76524100"><ele></ele><time>2014-4-25T4:4:22Z</time></trkpt>
<trkpt lat="47.73936500" lon="-2.76506700"><ele></ele><time>2014-4-25T4:4:25Z</time></trkpt>
<trkpt lat="47.73903200" lon="-2.76493200"><ele></ele><time>2014-4-25T4:4:28Z</time></trkpt>
<trkpt lat="47.73854400" lon="-2.76475900"><ele></ele><time>2014-4-25T4:4:31Z</time></trkpt>
<trkpt lat="47.73827700" lon="-2.76469400"><ele></ele><time>2014-4-25T4:4:34Z</time></trkpt>
<trkpt lat="47.73798300" lon="-2.76461500"><ele></ele><time>2014-4-25T4:4:37Z</time></trkpt>
<trkpt lat="47.73773500" lon="-2.76457300"><ele></ele><time>2014-4-25T4:4:40Z</time></trkpt>
<trkpt lat="47.73756500" lon="-2.76454100"><ele></ele><time>2014-4-25T4:4:43Z</time></trkpt>
<trkpt lat="47.73711400" lon="-2.76444500"><ele></ele><time>2014-4-25T4:4:46Z</time></trkpt>
<trkpt lat="47.73672300" lon="-2.76438700"><ele></ele><time>2014-4-25T4:4:49Z</time></trkpt>
<trkpt lat="47.73666300" lon="-2.76437400"><ele></ele><time>2014-4-25T4:4:52Z</time></trkpt>
<trkpt lat="47.73654700" lon="-2.76432600"><ele></ele><time>2014-4-25T4:4:55Z</time></trkpt>
<trkpt lat="47.73637500" lon="-2.76440200"><ele></ele><time>2014-4-25T4:4:58Z</time></trkpt>
<trkpt lat="47.73637900" lon="-2.76460500"><ele></ele><time>2014-4-25T4:5:1Z</time></trkpt>
<trkpt lat="47.73638100" lon="-2.76514200"><ele></ele><time>2014-4-25T4:5:4Z</time></trkpt>
<trkpt lat="47.73638200" lon="-2.76539000"><ele></ele><time>2014-4-25T4:5:7Z</time></trkpt>
<trkpt lat="47.73637900" lon="-2.76556400"><ele></ele><time>2014-4-25T4:5:10Z</time></trkpt>
<trkpt lat="47.73634500" lon="-2.76606400"><ele></ele><time>2014-4-25T4:5:13Z</time></trkpt>
<trkpt lat="47.73632500" lon="-2.76644600"><ele></ele><time>2014-4-25T4:5:16Z</time></trkpt>
<trkpt lat="47.73630700" lon="-2.76701300"><ele></ele><time>2014-4-25T4:5:19Z</time></trkpt>
<trkpt lat="47.73631000" lon="-2.76738700"><ele></ele><time>2014-4-25T4:5:22Z</time></trkpt>
<trkpt lat="47.73633700" lon="-2.76770000"><ele></ele><time>2014-4-25T4:5:25Z</time></trkpt>
<trkpt lat="47.73638000" lon="-2.76791400"><ele></ele><time>2014-4-25T4:5:28Z</time></trkpt>
<trkpt lat="47.73638700" lon="-2.76820200"><ele></ele><time>2014-4-25T4:5:31Z</time></trkpt>
<trkpt lat="47.73630300" lon="-2.76852400"><ele></ele><time>2014-4-25T4:5:34Z</time></trkpt>
<trkpt lat="47.73629400" lon="-2.76855200"><ele></ele><time>2014-4-25T4:5:37Z</time></trkpt>
<trkpt lat="47.73624900" lon="-2.76868600"><ele></ele><time>2014-4-25T4:5:40Z</time></trkpt>
<trkpt lat="47.73618200" lon="-2.76871600"><ele></ele><time>2014-4-25T4:5:43Z</time></trkpt>
<trkpt lat="47.73614100" lon="-2.76869200"><ele></ele><time>2014-4-25T4:5:46Z</time></trkpt>
<trkpt lat="47.73595000" lon="-2.76854900"><ele></ele><time>2014-4-25T4:5:49Z</time></trkpt>
<trkpt lat="47.73564400" lon="-2.76830700"><ele></ele><time>2014-4-25T4:5:52Z</time></trkpt>
<trkpt lat="47.73522900" lon="-2.76792700"><ele></ele><time>2014-4-25T4:5:55Z</time></trkpt>
<trkpt lat="47.73482700" lon="-2.76754100"><ele></ele><time>2014-4-25T4:5:58Z</time></trkpt>
<trkpt lat="47.73439100" lon="-2.76720900"><ele></ele><time>2014-4-25T4:6:1Z</time></trkpt>
<trkpt lat="47.73388900" lon="-2.76686300"><ele></ele><time>2014-4-25T4:6:4Z</time></trkpt>
<trkpt lat="47.73340700" lon="-2.76655500"><ele></ele><time>2014-4-25T4:6:7Z</time></trkpt>
<trkpt lat="47.73279800" lon="-2.76617600"><ele></ele><time>2014-4-25T4:6:10Z</time></trkpt>
<trkpt lat="47.73256400" lon="-2.76605000"><ele></ele><time>2014-4-25T4:6:13Z</time></trkpt>
<trkpt lat="47.73241700" lon="-2.76594800"><ele></ele><time>2014-4-25T4:6:16Z</time></trkpt>
<trkpt lat="47.73219100" lon="-2.76583600"><ele></ele><time>2014-4-25T4:6:19Z</time></trkpt>
<trkpt lat="47.73195400" lon="-2.76598100"><ele></ele><time>2014-4-25T4:6:22Z</time></trkpt>
<trkpt lat="47.73181600" lon="-2.76622200"><ele></ele><time>2014-4-25T4:6:25Z</time></trkpt>
<trkpt lat="47.73172500" lon="-2.76636200"><ele></ele><time>2014-4-25T4:6:28Z</time></trkpt>
<trkpt lat="47.73153200" lon="-2.76666800"><ele></ele><time>2014-4-25T4:6:31Z</time></trkpt>
<trkpt lat="47.73121600" lon="-2.76723400"><ele></ele><time>2014-4-25T4:6:34Z</time></trkpt>
<trkpt lat="47.73095200" lon="-2.76771500"><ele></ele><time>2014-4-25T4:6:37Z</time></trkpt>
<trkpt lat="47.73091100" lon="-2.76779700"><ele></ele><time>2014-4-25T4:6:40Z</time></trkpt>
<trkpt lat="47.73074800" lon="-2.76802300"><ele></ele><time>2014-4-25T4:6:43Z</time></trkpt>
<trkpt lat="47.73046700" lon="-2.76830500"><ele></ele><time>2014-4-25T4:6:46Z</time></trkpt>
<trkpt lat="47.73030200" lon="-2.76838700"><ele></ele><time>2014-4-25T4:6:49Z</time></trkpt>
<trkpt lat="47.73015500" lon="-2.76860500"><ele></ele><time>2014-4-25T4:6:52Z</time></trkpt>
<trkpt lat="47.73015300" lon="-2.76890500"><ele></ele><time>2014-4-25T4:6:55Z</time></trkpt>
<trkpt lat="47.73017500" lon="-2.76907000"><ele></ele><time>2014-4-25T4:6:58Z</time></trkpt>
<trkpt lat="47.73021100" lon="-2.76921200"><ele></ele><time>2014-4-25T4:7:1Z</time></trkpt>
<trkpt lat="47.73021300" lon="-2.76961000"><ele></ele><time>2014-4-25T4:7:4Z</time></trkpt>
<trkpt lat="47.73020600" lon="-2.76987200"><ele></ele><time>2014-4-25T4:7:7Z</time></trkpt>
<trkpt lat="47.73026000" lon="-2.77024500"><ele></ele><time>2014-4-25T4:7:10Z</time></trkpt>
<trkpt lat="47.73047000" lon="-2.77071800"><ele></ele><time>2014-4-25T4:7:13Z</time></trkpt>
<trkpt lat="47.73049400" lon="-2.77083400"><ele></ele><time>2014-4-25T4:7:16Z</time></trkpt>
<trkpt lat="47.73052700" lon="-2.77117600"><ele></ele><time>2014-4-25T4:7:19Z</time></trkpt>
<trkpt lat="47.73050500" lon="-2.77145300"><ele></ele><time>2014-4-25T4:7:22Z</time></trkpt>
<trkpt lat="47.73040200" lon="-2.77162300"><ele></ele><time>2014-4-25T4:7:25Z</time></trkpt>
<trkpt lat="47.73028100" lon="-2.77163900"><ele></ele><time>2014-4-25T4:7:28Z</time></trkpt>
<trkpt lat="47.73003400" lon="-2.77191900"><ele></ele><time>2014-4-25T4:7:31Z</time></trkpt>
<trkpt lat="47.72976200" lon="-2.77220400"><ele></ele><time>2014-4-25T4:7:34Z</time></trkpt>
<trkpt lat="47.72954900" lon="-2.77244600"><ele></ele><time>2014-4-25T4:7:37Z</time></trkpt>
<trkpt lat="47.72930900" lon="-2.77273000"><ele></ele><time>2014-4-25T4:7:40Z</time></trkpt>
<trkpt lat="47.72913300" lon="-2.77297300"><ele></ele><time>2014-4-25T4:7:43Z</time></trkpt>
<trkpt lat="47.72888800" lon="-2.77310700"><ele></ele><time>2014-4-25T4:7:46Z</time></trkpt>
<trkpt lat="47.72880800" lon="-2.77312200"><ele></ele><time>2014-4-25T4:7:49Z</time></trkpt>
<trkpt lat="47.72863600" lon="-2.77297600"><ele></ele><time>2014-4-25T4:7:52Z</time></trkpt>
<trkpt lat="47.72849500" lon="-2.77293900"><ele></ele><time>2014-4-25T4:7:55Z</time></trkpt>
<trkpt lat="47.72838800" lon="-2.77298700"><ele></ele><time>2014-4-25T4:7:58Z</time></trkpt>
<trkpt lat="47.72835900" lon="-2.77301600"><ele></ele><time>2014-4-25T4:8:1Z</time></trkpt>
<trkpt lat="47.72834400" lon="-2.77302300"><ele></ele><time>2014-4-25T4:8:4Z</time></trkpt>
<trkpt lat="47.72835200" lon="-2.77301100"><ele></ele><time>2014-4-25T4:8:7Z</time></trkpt>
<trkpt lat="47.72830900" lon="-2.77290200"><ele></ele><time>2014-4-25T4:8:10Z</time></trkpt>
<trkpt lat="47.72830000" lon="-2.77289300"><ele></ele><time>2014-4-25T4:8:13Z</time></trkpt>
<trkpt lat="47.72831600" lon="-2.77291400"><ele></ele><time>2014-4-25T4:8:16Z</time></trkpt>
<trkpt lat="47.72832800" lon="-2.77292300"><ele></ele><time>2014-4-25T4:8:19Z</time></trkpt>
<trkpt lat="47.72834700" lon="-2.77294000"><ele></ele><time>2014-4-25T4:8:22Z</time></trkpt>
<trkpt lat="47.72835300" lon="-2.77295200"><ele></ele><time>2014-4-25T4:8:25Z</time></trkpt>
<trkpt lat="47.72836400" lon="-2.77298200"><ele></ele><time>2014-4-25T4:8:28Z</time></trkpt>
<trkpt lat="47.72836700" lon="-2.77298900"><ele></ele><time>2014-4-25T4:8:31Z</time></trkpt>
<trkpt lat="47.72837200" lon="-2.77299500"><ele></ele><time>2014-4-25T4:8:34Z</time></trkpt>
<trkpt lat="47.72837600" lon="-2.77300000"><ele></ele><time>2014-4-25T4:8:37Z</time></trkpt>
<trkpt lat="47.72837800" lon="-2.77300200"><ele></ele><time>2014-4-25T4:8:40Z</time></trkpt>
<trkpt lat="47.72838000" lon="-2.77300400"><ele></ele><time>2014-4-25T4:8:43Z</time></trkpt>
<trkpt lat="47.72837700" lon="-2.77299900"><ele></ele><time>2014-4-25T4:8:46Z</time></trkpt>
<trkpt lat="47.72838000" lon="-2.77299900"><ele></ele><time>2014-4-25T4:8:49Z</time></trkpt>
<trkpt lat="47.72837800" lon="-2.77299700"><ele></ele><time>2014-4-25T4:8:52Z</time></trkpt>
<trkpt lat="47.72837100" lon="-2.77299000"><ele></ele><time>2014-4-25T4:8:55Z</time></trkpt>
<trkpt lat="47.72837000" lon="-2.77299100"><ele></ele><time>2014-4-25T4:8:58Z</time></trkpt>
<trkpt lat="47.72837300" lon="-2.77299600"><ele></ele><time>2014-4-25T4:9:1Z</time></trkpt>
<trkpt lat="47.72837600" lon="-2.77300200"><ele></ele><time>2014-4-25T4:9:4Z</time></trkpt>
<trkpt lat="47.72837600" lon="-2.77300400"><ele></ele><time>2014-4-25T4:9:7Z</time></trkpt>
<trkpt lat="47.72838300" lon="-2.77301400"><ele></ele><time>2014-4-25T4:9:10Z</time></trkpt>
<trkpt lat="47.72838400" lon="-2.77301600"><ele></ele><time>2014-4-25T4:9:13Z</time></trkpt>
<trkpt lat="47.72838400" lon="-2.77301600"><ele></ele><time>2014-4-25T4:9:16Z</time></trkpt>
<trkpt lat="47.72838300" lon="-2.77301700"><ele></ele><time>2014-4-25T4:9:19Z</time></trkpt>
<trkpt lat="47.72838300" lon="-2.77301800"><ele></ele><time>2014-4-25T4:9:22Z</time></trkpt>
<trkpt lat="47.72838400" lon="-2.77302000"><ele></ele><time>2014-4-25T4:9:25Z</time></trkpt>
<trkpt lat="47.72838600" lon="-2.77302300"><ele></ele><time>2014-4-25T4:9:28Z</time></trkpt>
<trkpt lat="47.72838500" lon="-2.77302200"><ele></ele><time>2014-4-25T4:9:31Z</time></trkpt>
<trkpt lat="47.72837900" lon="-2.77301500"><ele></ele><time>2014-4-25T4:9:34Z</time></trkpt>
<trkpt lat="47.72837900" lon="-2.77301600"><ele></ele><time>2014-4-25T4:9:37Z</time></trkpt>
<trkpt lat="47.72834600" lon="-2.77301700"><ele></ele><time>2014-4-25T4:9:40Z</time></trkpt>
<trkpt lat="47.72834500" lon="-2.77301700"><ele></ele><time>2014-4-25T4:9:43Z</time></trkpt>
<trkpt lat="47.72833200" lon="-2.77301000"><ele></ele><time>2014-4-25T4:9:46Z</time></trkpt>
<trkpt lat="47.72832900" lon="-2.77301000"><ele></ele><time>2014-4-25T4:9:49Z</time></trkpt>
<trkpt lat="47.72831400" lon="-2.77300100"><ele></ele><time>2014-4-25T4:9:52Z</time></trkpt>
<trkpt lat="47.72831100" lon="-2.77299600"><ele></ele><time>2014-4-25T4:9:55Z</time></trkpt>
<trkpt lat="47.72830700" lon="-2.77299400"><ele></ele><time>2014-4-25T4:9:58Z</time></trkpt>
<trkpt lat="47.72830600" lon="-2.77298600"><ele></ele><time>2014-4-25T4:10:1Z</time></trkpt>
<trkpt lat="47.72830600" lon="-2.77298600"><ele></ele><time>2014-4-25T4:10:4Z</time></trkpt>
<trkpt lat="47.72830700" lon="-2.77298700"><ele></ele><time>2014-4-25T4:10:7Z</time></trkpt>
<trkpt lat="47.72831100" lon="-2.77299600"><ele></ele><time>2014-4-25T4:10:10Z</time></trkpt>
<trkpt lat="47.72831300" lon="-2.77299800"><ele></ele><time>2014-4-25T4:10:13Z</time></trkpt>
<trkpt lat="47.72831300" lon="-2.77300100"><ele></ele><time>2014-4-25T4:10:16Z</time></trkpt>
<trkpt lat="47.72829700" lon="-2.77299400"><ele></ele><time>2014-4-25T4:10:19Z</time></trkpt>
<trkpt lat="47.72828100" lon="-2.77299500"><ele></ele><time>2014-4-25T4:10:22Z</time></trkpt>
<trkpt lat="47.72818800" lon="-2.77293400"><ele></ele><time>2014-4-25T4:10:25Z</time></trkpt>
<trkpt lat="47.72809700" lon="-2.77270500"><ele></ele><time>2014-4-25T4:10:28Z</time></trkpt>
<trkpt lat="47.72810100" lon="-2.77261500"><ele></ele><time>2014-4-25T4:10:31Z</time></trkpt>
<trkpt lat="47.72809100" lon="-2.77262900"><ele></ele><time>2014-4-25T4:10:34Z</time></trkpt>
<trkpt lat="47.72799800" lon="-2.77286000"><ele></ele><time>2014-4-25T4:10:37Z</time></trkpt>
<trkpt lat="47.72797700" lon="-2.77291500"><ele></ele><time>2014-4-25T4:10:40Z</time></trkpt>
<trkpt lat="47.72781300" lon="-2.77314800"><ele></ele><time>2014-4-25T4:10:43Z</time></trkpt>
<trkpt lat="47.72770800" lon="-2.77328700"><ele></ele><time>2014-4-25T4:10:46Z</time></trkpt>
<trkpt lat="47.72764800" lon="-2.77335300"><ele></ele><time>2014-4-25T4:10:49Z</time></trkpt>
<trkpt lat="47.72754400" lon="-2.77345800"><ele></ele><time>2014-4-25T4:10:52Z</time></trkpt>
<trkpt lat="47.72750200" lon="-2.77348600"><ele></ele><time>2014-4-25T4:10:55Z</time></trkpt>
<trkpt lat="47.72731300" lon="-2.77360500"><ele></ele><time>2014-4-25T4:10:58Z</time></trkpt>
<trkpt lat="47.72710500" lon="-2.77364300"><ele></ele><time>2014-4-25T4:11:1Z</time></trkpt>
<trkpt lat="47.72709800" lon="-2.77373700"><ele></ele><time>2014-4-25T4:11:4Z</time></trkpt>
<trkpt lat="47.72710100" lon="-2.77375700"><ele></ele><time>2014-4-25T4:11:7Z</time></trkpt>
<trkpt lat="47.72710300" lon="-2.77387600"><ele></ele><time>2014-4-25T4:11:10Z</time></trkpt>
<trkpt lat="47.72709600" lon="-2.77402100"><ele></ele><time>2014-4-25T4:11:13Z</time></trkpt>
<trkpt lat="47.72710600" lon="-2.77419500"><ele></ele><time>2014-4-25T4:11:16Z</time></trkpt>
<trkpt lat="47.72713700" lon="-2.77441800"><ele></ele><time>2014-4-25T4:11:19Z</time></trkpt>
<trkpt lat="47.72719900" lon="-2.77466500"><ele></ele><time>2014-4-25T4:11:22Z</time></trkpt>
<trkpt lat="47.72728300" lon="-2.77484800"><ele></ele><time>2014-4-25T4:11:25Z</time></trkpt>
<trkpt lat="47.72732900" lon="-2.77507500"><ele></ele><time>2014-4-25T4:11:28Z</time></trkpt>
<trkpt lat="47.72737200" lon="-2.77528100"><ele></ele><time>2014-4-25T4:11:31Z</time></trkpt>
<trkpt lat="47.72742400" lon="-2.77540400"><ele></ele><time>2014-4-25T4:11:34Z</time></trkpt>
<trkpt lat="47.72744300" lon="-2.77568000"><ele></ele><time>2014-4-25T4:11:37Z</time></trkpt>
<trkpt lat="47.72749300" lon="-2.77575100"><ele></ele><time>2014-4-25T4:11:40Z</time></trkpt>
<trkpt lat="47.72770400" lon="-2.77592900"><ele></ele><time>2014-4-25T4:11:43Z</time></trkpt>
<trkpt lat="47.72777200" lon="-2.77595300"><ele></ele><time>2014-4-25T4:11:46Z</time></trkpt>
<trkpt lat="47.72791300" lon="-2.77593800"><ele></ele><time>2014-4-25T4:11:49Z</time></trkpt>
<trkpt lat="47.72798000" lon="-2.77587900"><ele></ele><time>2014-4-25T4:11:52Z</time></trkpt>
<trkpt lat="47.72806500" lon="-2.77579400"><ele></ele><time>2014-4-25T4:11:55Z</time></trkpt>
<trkpt lat="47.72810000" lon="-2.77575900"><ele></ele><time>2014-4-25T4:11:58Z</time></trkpt>
<trkpt lat="47.72820600" lon="-2.77567000"><ele></ele><time>2014-4-25T4:12:1Z</time></trkpt>
<trkpt lat="47.72822700" lon="-2.77564100"><ele></ele><time>2014-4-25T4:12:4Z</time></trkpt>
<trkpt lat="47.72828300" lon="-2.77552400"><ele></ele><time>2014-4-25T4:12:7Z</time></trkpt>
<trkpt lat="47.72831200" lon="-2.77547400"><ele></ele><time>2014-4-25T4:12:10Z</time></trkpt>
<trkpt lat="47.72835900" lon="-2.77537200"><ele></ele><time>2014-4-25T4:12:13Z</time></trkpt>
<trkpt lat="47.72836700" lon="-2.77536300"><ele></ele><time>2014-4-25T4:12:16Z</time></trkpt>
<trkpt lat="47.72847900" lon="-2.77526500"><ele></ele><time>2014-4-25T4:12:19Z</time></trkpt>
<trkpt lat="47.72857600" lon="-2.77515800"><ele></ele><time>2014-4-25T4:12:22Z</time></trkpt>
<trkpt lat="47.72863600" lon="-2.77508100"><ele></ele><time>2014-4-25T4:12:25Z</time></trkpt>
<trkpt lat="47.72868000" lon="-2.77503800"><ele></ele><time>2014-4-25T4:12:28Z</time></trkpt>
<trkpt lat="47.72874500" lon="-2.77500200"><ele></ele><time>2014-4-25T4:12:31Z</time></trkpt>
<trkpt lat="47.72877700" lon="-2.77498400"><ele></ele><time>2014-4-25T4:12:34Z</time></trkpt>
<trkpt lat="47.72880300" lon="-2.77498000"><ele></ele><time>2014-4-25T4:12:37Z</time></trkpt>
<trkpt lat="47.72882700" lon="-2.77497200"><ele></ele><time>2014-4-25T4:12:40Z</time></trkpt>
<trkpt lat="47.72887400" lon="-2.77491300"><ele></ele><time>2014-4-25T4:12:43Z</time></trkpt>
<trkpt lat="47.72888900" lon="-2.77486900"><ele></ele><time>2014-4-25T4:12:46Z</time></trkpt>
<trkpt lat="47.72891500" lon="-2.77486500"><ele></ele><time>2014-4-25T4:12:49Z</time></trkpt>
<trkpt lat="47.72893100" lon="-2.77486200"><ele></ele><time>2014-4-25T4:12:52Z</time></trkpt>
<trkpt lat="47.72895000" lon="-2.77484300"><ele></ele><time>2014-4-25T4:12:55Z</time></trkpt>
<trkpt lat="47.72902900" lon="-2.77480200"><ele></ele><time>2014-4-25T4:12:58Z</time></trkpt>
<trkpt lat="47.72912000" lon="-2.77473300"><ele></ele><time>2014-4-25T4:13:1Z</time></trkpt>
<trkpt lat="47.72918300" lon="-2.77466100"><ele></ele><time>2014-4-25T4:13:4Z</time></trkpt>
<trkpt lat="47.72928200" lon="-2.77467700"><ele></ele><time>2014-4-25T4:13:7Z</time></trkpt>
<trkpt lat="47.72937200" lon="-2.77462000"><ele></ele><time>2014-4-25T4:13:10Z</time></trkpt>
<trkpt lat="47.72945900" lon="-2.77463600"><ele></ele><time>2014-4-25T4:13:13Z</time></trkpt>
<trkpt lat="47.72948800" lon="-2.77463000"><ele></ele><time>2014-4-25T4:13:16Z</time></trkpt>
<trkpt lat="47.72954900" lon="-2.77459900"><ele></ele><time>2014-4-25T4:13:19Z</time></trkpt>
<trkpt lat="47.72959800" lon="-2.77470300"><ele></ele><time>2014-4-25T4:13:22Z</time></trkpt>
<trkpt lat="47.72964700" lon="-2.77479300"><ele></ele><time>2014-4-25T4:13:25Z</time></trkpt>
<trkpt lat="47.72971400" lon="-2.77480800"><ele></ele><time>2014-4-25T4:13:28Z</time></trkpt>
<trkpt lat="47.72990200" lon="-2.77474200"><ele></ele><time>2014-4-25T4:13:31Z</time></trkpt>
<trkpt lat="47.73007700" lon="-2.77476800"><ele></ele><time>2014-4-25T4:13:34Z</time></trkpt>
<trkpt lat="47.73018900" lon="-2.77478100"><ele></ele><time>2014-4-25T4:13:37Z</time></trkpt>
<trkpt lat="47.73030400" lon="-2.77473000"><ele></ele><time>2014-4-25T4:13:40Z</time></trkpt>
<trkpt lat="47.73031400" lon="-2.77473000"><ele></ele><time>2014-4-25T4:13:43Z</time></trkpt>
<trkpt lat="47.73032400" lon="-2.77474300"><ele></ele><time>2014-4-25T4:13:46Z</time></trkpt>
<trkpt lat="47.73040700" lon="-2.77480200"><ele></ele><time>2014-4-25T4:13:49Z</time></trkpt>
<trkpt lat="47.73048800" lon="-2.77480700"><ele></ele><time>2014-4-25T4:13:52Z</time></trkpt>
<trkpt lat="47.73060600" lon="-2.77478200"><ele></ele><time>2014-4-25T4:13:55Z</time></trkpt>
<trkpt lat="47.73066300" lon="-2.77479700"><ele></ele><time>2014-4-25T4:13:58Z</time></trkpt>
<trkpt lat="47.73067800" lon="-2.77481000"><ele></ele><time>2014-4-25T4:14:1Z</time></trkpt>
<trkpt lat="47.73069200" lon="-2.77480800"><ele></ele><time>2014-4-25T4:14:4Z</time></trkpt>
<trkpt lat="47.73071400" lon="-2.77481100"><ele></ele><time>2014-4-25T4:14:7Z</time></trkpt>
<trkpt lat="47.73075300" lon="-2.77485000"><ele></ele><time>2014-4-25T4:14:10Z</time></trkpt>
<trkpt lat="47.73076300" lon="-2.77486400"><ele></ele><time>2014-4-25T4:14:13Z</time></trkpt>
<trkpt lat="47.73077200" lon="-2.77487900"><ele></ele><time>2014-4-25T4:14:16Z</time></trkpt>
<trkpt lat="47.73080600" lon="-2.77490600"><ele></ele><time>2014-4-25T4:14:19Z</time></trkpt>
<trkpt lat="47.73087000" lon="-2.77488600"><ele></ele><time>2014-4-25T4:14:22Z</time></trkpt>
<trkpt lat="47.73093700" lon="-2.77487600"><ele></ele><time>2014-4-25T4:14:25Z</time></trkpt>
<trkpt lat="47.73100800" lon="-2.77487800"><ele></ele><time>2014-4-25T4:14:28Z</time></trkpt>
<trkpt lat="47.73102000" lon="-2.77488100"><ele></ele><time>2014-4-25T4:14:31Z</time></trkpt>
<trkpt lat="47.73104100" lon="-2.77488900"><ele></ele><time>2014-4-25T4:14:34Z</time></trkpt>
<trkpt lat="47.73105800" lon="-2.77488600"><ele></ele><time>2014-4-25T4:14:37Z</time></trkpt>
<trkpt lat="47.73108800" lon="-2.77487700"><ele></ele><time>2014-4-25T4:14:40Z</time></trkpt>
<trkpt lat="47.73116200" lon="-2.77484800"><ele></ele><time>2014-4-25T4:14:43Z</time></trkpt>
<trkpt lat="47.73116800" lon="-2.77484600"><ele></ele><time>2014-4-25T4:14:46Z</time></trkpt>
<trkpt lat="47.73120700" lon="-2.77482600"><ele></ele><time>2014-4-25T4:14:49Z</time></trkpt>
<trkpt lat="47.73130000" lon="-2.77487300"><ele></ele><time>2014-4-25T4:14:52Z</time></trkpt>
<trkpt lat="47.73138100" lon="-2.77492800"><ele></ele><time>2014-4-25T4:14:55Z</time></trkpt>
<trkpt lat="47.73144800" lon="-2.77497000"><ele></ele><time>2014-4-25T4:14:58Z</time></trkpt>
<trkpt lat="47.73149900" lon="-2.77500200"><ele></ele><time>2014-4-25T4:15:1Z</time></trkpt>
<trkpt lat="47.73148600" lon="-2.77510900"><ele></ele><time>2014-4-25T4:15:4Z</time></trkpt>
<trkpt lat="47.73145400" lon="-2.77517100"><ele></ele><time>2014-4-25T4:15:7Z</time></trkpt>
<trkpt lat="47.73143400" lon="-2.77529200"><ele></ele><time>2014-4-25T4:15:10Z</time></trkpt>
<trkpt lat="47.73143000" lon="-2.77536500"><ele></ele><time>2014-4-25T4:15:13Z</time></trkpt>
<trkpt lat="47.73141800" lon="-2.77555500"><ele></ele><time>2014-4-25T4:15:16Z</time></trkpt>
<trkpt lat="47.73141600" lon="-2.77572100"><ele></ele><time>2014-4-25T4:15:19Z</time></trkpt>
<trkpt lat="47.73139600" lon="-2.77588500"><ele></ele><time>2014-4-25T4:15:22Z</time></trkpt>
<trkpt lat="47.73136600" lon="-2.77612400"><ele></ele><time>2014-4-25T4:15:25Z</time></trkpt>
<trkpt lat="47.73133800" lon="-2.77638900"><ele></ele><time>2014-4-25T4:15:28Z</time></trkpt>
<trkpt lat="47.73135800" lon="-2.77657700"><ele></ele><time>2014-4-25T4:15:31Z</time></trkpt>
<trkpt lat="47.73137400" lon="-2.77664200"><ele></ele><time>2014-4-25T4:15:34Z</time></trkpt>
<trkpt lat="47.73144100" lon="-2.77689100"><ele></ele><time>2014-4-25T4:15:37Z</time></trkpt>
<trkpt lat="47.73154200" lon="-2.77707700"><ele></ele><time>2014-4-25T4:15:40Z</time></trkpt>
<trkpt lat="47.73162600" lon="-2.77731800"><ele></ele><time>2014-4-25T4:15:43Z</time></trkpt>
<trkpt lat="47.73164500" lon="-2.77753500"><ele></ele><time>2014-4-25T4:15:46Z</time></trkpt>
<trkpt lat="47.73166000" lon="-2.77782700"><ele></ele><time>2014-4-25T4:15:49Z</time></trkpt>
<trkpt lat="47.73166200" lon="-2.77788900"><ele></ele><time>2014-4-25T4:15:52Z</time></trkpt>
<trkpt lat="47.73150400" lon="-2.77805700"><ele></ele><time>2014-4-25T4:15:55Z</time></trkpt>
<trkpt lat="47.73133300" lon="-2.77815600"><ele></ele><time>2014-4-25T4:15:58Z</time></trkpt>
<trkpt lat="47.73115700" lon="-2.77825700"><ele></ele><time>2014-4-25T4:16:1Z</time></trkpt>
<trkpt lat="47.73105200" lon="-2.77837600"><ele></ele><time>2014-4-25T4:16:4Z</time></trkpt>
<trkpt lat="47.73091300" lon="-2.77849700"><ele></ele><time>2014-4-25T4:16:7Z</time></trkpt>
<trkpt lat="47.73081200" lon="-2.77863300"><ele></ele><time>2014-4-25T4:16:10Z</time></trkpt>
<trkpt lat="47.73083300" lon="-2.77886600"><ele></ele><time>2014-4-25T4:16:13Z</time></trkpt>
<trkpt lat="47.73094700" lon="-2.77924700"><ele></ele><time>2014-4-25T4:16:16Z</time></trkpt>
<trkpt lat="47.73100000" lon="-2.77944200"><ele></ele><time>2014-4-25T4:16:19Z</time></trkpt>
<trkpt lat="47.73107700" lon="-2.77957000"><ele></ele><time>2014-4-25T4:16:22Z</time></trkpt>
<trkpt lat="47.73110400" lon="-2.77969400"><ele></ele><time>2014-4-25T4:16:25Z</time></trkpt>
<trkpt lat="47.73107200" lon="-2.77978700"><ele></ele><time>2014-4-25T4:16:28Z</time></trkpt>
<trkpt lat="47.73093200" lon="-2.78013300"><ele></ele><time>2014-4-25T4:16:31Z</time></trkpt>
<trkpt lat="47.73087700" lon="-2.78028000"><ele></ele><time>2014-4-25T4:16:34Z</time></trkpt>
<trkpt lat="47.73080400" lon="-2.78047400"><ele></ele><time>2014-4-25T4:16:37Z</time></trkpt>
<trkpt lat="47.73078400" lon="-2.78053500"><ele></ele><time>2014-4-25T4:16:40Z</time></trkpt>
<trkpt lat="47.73084300" lon="-2.78057700"><ele></ele><time>2014-4-25T4:16:43Z</time></trkpt>
<trkpt lat="47.73086100" lon="-2.78055400"><ele></ele><time>2014-4-25T4:16:46Z</time></trkpt>
<trkpt lat="47.73098200" lon="-2.78037500"><ele></ele><time>2014-4-25T4:16:49Z</time></trkpt>
<trkpt lat="47.73107200" lon="-2.78025500"><ele></ele><time>2014-4-25T4:16:52Z</time></trkpt>
<trkpt lat="47.73116400" lon="-2.78014300"><ele></ele><time>2014-4-25T4:16:55Z</time></trkpt>
<trkpt lat="47.73129000" lon="-2.77999800"><ele></ele><time>2014-4-25T4:16:58Z</time></trkpt>
<trkpt lat="47.73142900" lon="-2.77985700"><ele></ele><time>2014-4-25T4:17:1Z</time></trkpt>
<trkpt lat="47.73144900" lon="-2.77983300"><ele></ele><time>2014-4-25T4:17:4Z</time></trkpt>
<trkpt lat="47.73161000" lon="-2.77967400"><ele></ele><time>2014-4-25T4:17:7Z</time></trkpt>
<trkpt lat="47.73175700" lon="-2.77941600"><ele></ele><time>2014-4-25T4:17:10Z</time></trkpt>
<trkpt lat="47.73189500" lon="-2.77919100"><ele></ele><time>2014-4-25T4:17:13Z</time></trkpt>
<trkpt lat="47.73204800" lon="-2.77898600"><ele></ele><time>2014-4-25T4:17:16Z</time></trkpt>
<trkpt lat="47.73219500" lon="-2.77894200"><ele></ele><time>2014-4-25T4:17:19Z</time></trkpt>
<trkpt lat="47.73236100" lon="-2.77899100"><ele></ele><time>2014-4-25T4:17:22Z</time></trkpt>
<trkpt lat="47.73247800" lon="-2.77899100"><ele></ele><time>2014-4-25T4:17:25Z</time></trkpt>
<trkpt lat="47.73269700" lon="-2.77892300"><ele></ele><time>2014-4-25T4:17:28Z</time></trkpt>
<trkpt lat="47.73292600" lon="-2.77883100"><ele></ele><time>2014-4-25T4:17:31Z</time></trkpt>
<trkpt lat="47.73307000" lon="-2.77875400"><ele></ele><time>2014-4-25T4:17:34Z</time></trkpt>
<trkpt lat="47.73318500" lon="-2.77867800"><ele></ele><time>2014-4-25T4:17:37Z</time></trkpt>
<trkpt lat="47.73336700" lon="-2.77857800"><ele></ele><time>2014-4-25T4:17:40Z</time></trkpt>
<trkpt lat="47.73352600" lon="-2.77849700"><ele></ele><time>2014-4-25T4:17:43Z</time></trkpt>
<trkpt lat="47.73358900" lon="-2.77847000"><ele></ele><time>2014-4-25T4:17:46Z</time></trkpt>
<trkpt lat="47.73368400" lon="-2.77856400"><ele></ele><time>2014-4-25T4:17:49Z</time></trkpt>
<trkpt lat="47.73369800" lon="-2.77860400"><ele></ele><time>2014-4-25T4:17:52Z</time></trkpt>
<trkpt lat="47.73379300" lon="-2.77886400"><ele></ele><time>2014-4-25T4:17:55Z</time></trkpt>
<trkpt lat="47.73389800" lon="-2.77908500"><ele></ele><time>2014-4-25T4:17:58Z</time></trkpt>
<trkpt lat="47.73406900" lon="-2.77943600"><ele></ele><time>2014-4-25T4:18:1Z</time></trkpt>
<trkpt lat="47.73413400" lon="-2.77968100"><ele></ele><time>2014-4-25T4:18:4Z</time></trkpt>
<trkpt lat="47.73413600" lon="-2.77971100"><ele></ele><time>2014-4-25T4:18:7Z</time></trkpt>
<trkpt lat="47.73420000" lon="-2.77986500"><ele></ele><time>2014-4-25T4:18:10Z</time></trkpt>
<trkpt lat="47.73434300" lon="-2.78009500"><ele></ele><time>2014-4-25T4:18:13Z</time></trkpt>
<trkpt lat="47.73451000" lon="-2.78030400"><ele></ele><time>2014-4-25T4:18:16Z</time></trkpt>
<trkpt lat="47.73464200" lon="-2.78052000"><ele></ele><time>2014-4-25T4:18:19Z</time></trkpt>
<trkpt lat="47.73476700" lon="-2.78067800"><ele></ele><time>2014-4-25T4:18:22Z</time></trkpt>
<trkpt lat="47.73498000" lon="-2.78088700"><ele></ele><time>2014-4-25T4:18:25Z</time></trkpt>
<trkpt lat="47.73520300" lon="-2.78103500"><ele></ele><time>2014-4-25T4:18:28Z</time></trkpt>
<trkpt lat="47.73536300" lon="-2.78115000"><ele></ele><time>2014-4-25T4:18:31Z</time></trkpt>
<trkpt lat="47.73544300" lon="-2.78124400"><ele></ele><time>2014-4-25T4:18:34Z</time></trkpt>
<trkpt lat="47.73543300" lon="-2.78151300"><ele></ele><time>2014-4-25T4:18:37Z</time></trkpt>
<trkpt lat="47.73549500" lon="-2.78185400"><ele></ele><time>2014-4-25T4:18:40Z</time></trkpt>
<trkpt lat="47.73557300" lon="-2.78220600"><ele></ele><time>2014-4-25T4:18:43Z</time></trkpt>
<trkpt lat="47.73562000" lon="-2.78245600"><ele></ele><time>2014-4-25T4:18:46Z</time></trkpt>
<trkpt lat="47.73564700" lon="-2.78266500"><ele></ele><time>2014-4-25T4:18:49Z</time></trkpt>
<trkpt lat="47.73569700" lon="-2.78289100"><ele></ele><time>2014-4-25T4:18:52Z</time></trkpt>
<trkpt lat="47.73576100" lon="-2.78318800"><ele></ele><time>2014-4-25T4:18:55Z</time></trkpt>
<trkpt lat="47.73582900" lon="-2.78342600"><ele></ele><time>2014-4-25T4:18:58Z</time></trkpt>
<trkpt lat="47.73583100" lon="-2.78362400"><ele></ele><time>2014-4-25T4:19:1Z</time></trkpt>
<trkpt lat="47.73570700" lon="-2.78388500"><ele></ele><time>2014-4-25T4:19:4Z</time></trkpt>
<trkpt lat="47.73559100" lon="-2.78413800"><ele></ele><time>2014-4-25T4:19:7Z</time></trkpt>
<trkpt lat="47.73561400" lon="-2.78444000"><ele></ele><time>2014-4-25T4:19:10Z</time></trkpt>
<trkpt lat="47.73562700" lon="-2.78449600"><ele></ele><time>2014-4-25T4:19:13Z</time></trkpt>
<trkpt lat="47.73569900" lon="-2.78481500"><ele></ele><time>2014-4-25T4:19:16Z</time></trkpt>
<trkpt lat="47.73572700" lon="-2.78506500"><ele></ele><time>2014-4-25T4:19:19Z</time></trkpt>
<trkpt lat="47.73576500" lon="-2.78531600"><ele></ele><time>2014-4-25T4:19:22Z</time></trkpt>
<trkpt lat="47.73578800" lon="-2.78557600"><ele></ele><time>2014-4-25T4:19:25Z</time></trkpt>
<trkpt lat="47.73585200" lon="-2.78585700"><ele></ele><time>2014-4-25T4:19:28Z</time></trkpt>
<trkpt lat="47.73591600" lon="-2.78625700"><ele></ele><time>2014-4-25T4:19:31Z</time></trkpt>
<trkpt lat="47.73589300" lon="-2.78645900"><ele></ele><time>2014-4-25T4:19:34Z</time></trkpt>
<trkpt lat="47.73589700" lon="-2.78673400"><ele></ele><time>2014-4-25T4:19:37Z</time></trkpt>
<trkpt lat="47.73593300" lon="-2.78705300"><ele></ele><time>2014-4-25T4:19:40Z</time></trkpt>
<trkpt lat="47.73593600" lon="-2.78731100"><ele></ele><time>2014-4-25T4:19:43Z</time></trkpt>
<trkpt lat="47.73593200" lon="-2.78757800"><ele></ele><time>2014-4-25T4:19:46Z</time></trkpt>
<trkpt lat="47.73591700" lon="-2.78797000"><ele></ele><time>2014-4-25T4:19:49Z</time></trkpt>
<trkpt lat="47.73588400" lon="-2.78815300"><ele></ele><time>2014-4-25T4:19:52Z</time></trkpt>
<trkpt lat="47.73590100" lon="-2.78824200"><ele></ele><time>2014-4-25T4:19:55Z</time></trkpt>
<trkpt lat="47.73591800" lon="-2.78825700"><ele></ele><time>2014-4-25T4:19:58Z</time></trkpt>
<trkpt lat="47.73600000" lon="-2.78833900"><ele></ele><time>2014-4-25T4:20:1Z</time></trkpt>
<trkpt lat="47.73602100" lon="-2.78837900"><ele></ele><time>2014-4-25T4:20:4Z</time></trkpt>
<trkpt lat="47.73602800" lon="-2.78844500"><ele></ele><time>2014-4-25T4:20:7Z</time></trkpt>
<trkpt lat="47.73602900" lon="-2.78845500"><ele></ele><time>2014-4-25T4:20:10Z</time></trkpt>
<trkpt lat="47.73599900" lon="-2.78861500"><ele></ele><time>2014-4-25T4:20:13Z</time></trkpt>
<trkpt lat="47.73596300" lon="-2.78880100"><ele></ele><time>2014-4-25T4:20:16Z</time></trkpt>
<trkpt lat="47.73590400" lon="-2.78908700"><ele></ele><time>2014-4-25T4:20:19Z</time></trkpt>
<trkpt lat="47.73585700" lon="-2.78935100"><ele></ele><time>2014-4-25T4:20:22Z</time></trkpt>
<trkpt lat="47.73582800" lon="-2.78969800"><ele></ele><time>2014-4-25T4:20:25Z</time></trkpt>
<trkpt lat="47.73585200" lon="-2.79000000"><ele></ele><time>2014-4-25T4:20:28Z</time></trkpt>
<trkpt lat="47.73590600" lon="-2.79029600"><ele></ele><time>2014-4-25T4:20:31Z</time></trkpt>
<trkpt lat="47.73595900" lon="-2.79052000"><ele></ele><time>2014-4-25T4:20:34Z</time></trkpt>
<trkpt lat="47.73603800" lon="-2.79081900"><ele></ele><time>2014-4-25T4:20:37Z</time></trkpt>
<trkpt lat="47.73612300" lon="-2.79108100"><ele></ele><time>2014-4-25T4:20:40Z</time></trkpt>
<trkpt lat="47.73626200" lon="-2.79147800"><ele></ele><time>2014-4-25T4:20:43Z</time></trkpt>
<trkpt lat="47.73640200" lon="-2.79186500"><ele></ele><time>2014-4-25T4:20:46Z</time></trkpt>
<trkpt lat="47.73649200" lon="-2.79214200"><ele></ele><time>2014-4-25T4:20:49Z</time></trkpt>
<trkpt lat="47.73663100" lon="-2.79261300"><ele></ele><time>2014-4-25T4:20:52Z</time></trkpt>
<trkpt lat="47.73664900" lon="-2.79268100"><ele></ele><time>2014-4-25T4:20:55Z</time></trkpt>
<trkpt lat="47.73671100" lon="-2.79303300"><ele></ele><time>2014-4-25T4:20:58Z</time></trkpt>
<trkpt lat="47.73671800" lon="-2.79310600"><ele></ele><time>2014-4-25T4:21:1Z</time></trkpt>
<trkpt lat="47.73673900" lon="-2.79333200"><ele></ele><time>2014-4-25T4:21:4Z</time></trkpt>
<trkpt lat="47.73667900" lon="-2.79366300"><ele></ele><time>2014-4-25T4:21:7Z</time></trkpt>
<trkpt lat="47.73664400" lon="-2.79374100"><ele></ele><time>2014-4-25T4:21:10Z</time></trkpt>
<trkpt lat="47.73644500" lon="-2.79412500"><ele></ele><time>2014-4-25T4:21:13Z</time></trkpt>
<trkpt lat="47.73633700" lon="-2.79438600"><ele></ele><time>2014-4-25T4:21:16Z</time></trkpt>
<trkpt lat="47.73627200" lon="-2.79471200"><ele></ele><time>2014-4-25T4:21:19Z</time></trkpt>
<trkpt lat="47.73622900" lon="-2.79507000"><ele></ele><time>2014-4-25T4:21:22Z</time></trkpt>
<trkpt lat="47.73615700" lon="-2.79572900"><ele></ele><time>2014-4-25T4:21:25Z</time></trkpt>
<trkpt lat="47.73606600" lon="-2.79628300"><ele></ele><time>2014-4-25T4:21:28Z</time></trkpt>
<trkpt lat="47.73596000" lon="-2.79725400"><ele></ele><time>2014-4-25T4:21:31Z</time></trkpt>
<trkpt lat="47.73586900" lon="-2.79811000"><ele></ele><time>2014-4-25T4:21:34Z</time></trkpt>
<trkpt lat="47.73580100" lon="-2.79857900"><ele></ele><time>2014-4-25T4:21:37Z</time></trkpt>
<trkpt lat="47.73576000" lon="-2.79882200"><ele></ele><time>2014-4-25T4:21:40Z</time></trkpt>
<trkpt lat="47.73569400" lon="-2.79908400"><ele></ele><time>2014-4-25T4:21:43Z</time></trkpt>
<trkpt lat="47.73536100" lon="-2.79959200"><ele></ele><time>2014-4-25T4:21:46Z</time></trkpt>
<trkpt lat="47.73510900" lon="-2.79986600"><ele></ele><time>2014-4-25T4:21:49Z</time></trkpt>
<trkpt lat="47.73497000" lon="-2.79985600"><ele></ele><time>2014-4-25T4:21:52Z</time></trkpt>
<trkpt lat="47.73484100" lon="-2.79977600"><ele></ele><time>2014-4-25T4:21:55Z</time></trkpt>
<trkpt lat="47.73467900" lon="-2.79980300"><ele></ele><time>2014-4-25T4:21:58Z</time></trkpt>
<trkpt lat="47.73456800" lon="-2.79993900"><ele></ele><time>2014-4-25T4:22:1Z</time></trkpt>
<trkpt lat="47.73448700" lon="-2.80002600"><ele></ele><time>2014-4-25T4:22:4Z</time></trkpt>
<trkpt lat="47.73439300" lon="-2.80012000"><ele></ele><time>2014-4-25T4:22:7Z</time></trkpt>
<trkpt lat="47.73430200" lon="-2.80023500"><ele></ele><time>2014-4-25T4:22:10Z</time></trkpt>
<trkpt lat="47.73426900" lon="-2.80031900"><ele></ele><time>2014-4-25T4:22:13Z</time></trkpt>
<trkpt lat="47.73428700" lon="-2.80070700"><ele></ele><time>2014-4-25T4:22:16Z</time></trkpt>
<trkpt lat="47.73437200" lon="-2.80126200"><ele></ele><time>2014-4-25T4:22:19Z</time></trkpt>
<trkpt lat="47.73443800" lon="-2.80167700"><ele></ele><time>2014-4-25T4:22:22Z</time></trkpt>
<trkpt lat="47.73445700" lon="-2.80180200"><ele></ele><time>2014-4-25T4:22:25Z</time></trkpt>
<trkpt lat="47.73441200" lon="-2.80204700"><ele></ele><time>2014-4-25T4:22:28Z</time></trkpt>
<trkpt lat="47.73433000" lon="-2.80212900"><ele></ele><time>2014-4-25T4:22:31Z</time></trkpt>
<trkpt lat="47.73417000" lon="-2.80222500"><ele></ele><time>2014-4-25T4:22:34Z</time></trkpt>
<trkpt lat="47.73414300" lon="-2.80244700"><ele></ele><time>2014-4-25T4:22:37Z</time></trkpt>
<trkpt lat="47.73423200" lon="-2.80294600"><ele></ele><time>2014-4-25T4:22:40Z</time></trkpt>
<trkpt lat="47.73439700" lon="-2.80337900"><ele></ele><time>2014-4-25T4:22:43Z</time></trkpt>
<trkpt lat="47.73449100" lon="-2.80365500"><ele></ele><time>2014-4-25T4:22:46Z</time></trkpt>
<trkpt lat="47.73451600" lon="-2.80391200"><ele></ele><time>2014-4-25T4:22:49Z</time></trkpt>
<trkpt lat="47.73450300" lon="-2.80422700"><ele></ele><time>2014-4-25T4:22:52Z</time></trkpt>
<trkpt lat="47.73459200" lon="-2.80437300"><ele></ele><time>2014-4-25T4:22:55Z</time></trkpt>
<trkpt lat="47.73473900" lon="-2.80444300"><ele></ele><time>2014-4-25T4:22:58Z</time></trkpt>
<trkpt lat="47.73492100" lon="-2.80432800"><ele></ele><time>2014-4-25T4:23:1Z</time></trkpt>
<trkpt lat="47.73508900" lon="-2.80440900"><ele></ele><time>2014-4-25T4:23:4Z</time></trkpt>
<trkpt lat="47.73511200" lon="-2.80457700"><ele></ele><time>2014-4-25T4:23:7Z</time></trkpt>
<trkpt lat="47.73515800" lon="-2.80494500"><ele></ele><time>2014-4-25T4:23:10Z</time></trkpt>
<trkpt lat="47.73529600" lon="-2.80518600"><ele></ele><time>2014-4-25T4:23:13Z</time></trkpt>
<trkpt lat="47.73547500" lon="-2.80539800"><ele></ele><time>2014-4-25T4:23:16Z</time></trkpt>
<trkpt lat="47.73550400" lon="-2.80545900"><ele></ele><time>2014-4-25T4:23:19Z</time></trkpt>
<trkpt lat="47.73558200" lon="-2.80577400"><ele></ele><time>2014-4-25T4:23:22Z</time></trkpt>
<trkpt lat="47.73566500" lon="-2.80603800"><ele></ele><time>2014-4-25T4:23:25Z</time></trkpt>
<trkpt lat="47.73573800" lon="-2.80646000"><ele></ele><time>2014-4-25T4:23:28Z</time></trkpt>
<trkpt lat="47.73573500" lon="-2.80655100"><ele></ele><time>2014-4-25T4:23:31Z</time></trkpt>
<trkpt lat="47.73573700" lon="-2.80669600"><ele></ele><time>2014-4-25T4:23:34Z</time></trkpt>
<trkpt lat="47.73580600" lon="-2.80669200"><ele></ele><time>2014-4-25T4:23:37Z</time></trkpt>
<trkpt lat="47.73586900" lon="-2.80667600"><ele></ele><time>2014-4-25T4:23:40Z</time></trkpt>
<trkpt lat="47.73593300" lon="-2.80661700"><ele></ele><time>2014-4-25T4:23:43Z</time></trkpt>
<trkpt lat="47.73594600" lon="-2.80661400"><ele></ele><time>2014-4-25T4:23:46Z</time></trkpt>
<trkpt lat="47.73596500" lon="-2.80660400"><ele></ele><time>2014-4-25T4:23:49Z</time></trkpt>
<trkpt lat="47.73597000" lon="-2.80659400"><ele></ele><time>2014-4-25T4:23:52Z</time></trkpt>
<trkpt lat="47.73600800" lon="-2.80654600"><ele></ele><time>2014-4-25T4:23:55Z</time></trkpt>
<trkpt lat="47.73603500" lon="-2.80647600"><ele></ele><time>2014-4-25T4:23:58Z</time></trkpt>
<trkpt lat="47.73605800" lon="-2.80633300"><ele></ele><time>2014-4-25T4:24:1Z</time></trkpt>
<trkpt lat="47.73610300" lon="-2.80629500"><ele></ele><time>2014-4-25T4:24:4Z</time></trkpt>
<trkpt lat="47.73617300" lon="-2.80628800"><ele></ele><time>2014-4-25T4:24:7Z</time></trkpt>
<trkpt lat="47.73626000" lon="-2.80625800"><ele></ele><time>2014-4-25T4:24:10Z</time></trkpt>
<trkpt lat="47.73630800" lon="-2.80622200"><ele></ele><time>2014-4-25T4:24:13Z</time></trkpt>
<trkpt lat="47.73633300" lon="-2.80622600"><ele></ele><time>2014-4-25T4:24:16Z</time></trkpt>
<trkpt lat="47.73634500" lon="-2.80623500"><ele></ele><time>2014-4-25T4:24:19Z</time></trkpt>
<trkpt lat="47.73637700" lon="-2.80628000"><ele></ele><time>2014-4-25T4:24:22Z</time></trkpt>
<trkpt lat="47.73645700" lon="-2.80632500"><ele></ele><time>2014-4-25T4:24:25Z</time></trkpt>
<trkpt lat="47.73662900" lon="-2.80638800"><ele></ele><time>2014-4-25T4:24:28Z</time></trkpt>
<trkpt lat="47.73682800" lon="-2.80655500"><ele></ele><time>2014-4-25T4:24:31Z</time></trkpt>
<trkpt lat="47.73703200" lon="-2.80687800"><ele></ele><time>2014-4-25T4:24:34Z</time></trkpt>
<trkpt lat="47.73717300" lon="-2.80711500"><ele></ele><time>2014-4-25T4:24:37Z</time></trkpt>
<trkpt lat="47.73729400" lon="-2.80729600"><ele></ele><time>2014-4-25T4:24:40Z</time></trkpt>
<trkpt lat="47.73748000" lon="-2.80786600"><ele></ele><time>2014-4-25T4:24:43Z</time></trkpt>
<trkpt lat="47.73738300" lon="-2.80809000"><ele></ele><time>2014-4-25T4:24:46Z</time></trkpt>
<trkpt lat="47.73732500" lon="-2.80819300"><ele></ele><time>2014-4-25T4:24:49Z</time></trkpt>
<trkpt lat="47.73723900" lon="-2.80836500"><ele></ele><time>2014-4-25T4:24:52Z</time></trkpt>
<trkpt lat="47.73709600" lon="-2.80865200"><ele></ele><time>2014-4-25T4:24:55Z</time></trkpt>
<trkpt lat="47.73690700" lon="-2.80892500"><ele></ele><time>2014-4-25T4:24:58Z</time></trkpt>
<trkpt lat="47.73682600" lon="-2.80893300"><ele></ele><time>2014-4-25T4:25:1Z</time></trkpt>
<trkpt lat="47.73652400" lon="-2.80889000"><ele></ele><time>2014-4-25T4:25:4Z</time></trkpt>
<trkpt lat="47.73613100" lon="-2.80881800"><ele></ele><time>2014-4-25T4:25:7Z</time></trkpt>
<trkpt lat="47.73608600" lon="-2.80882000"><ele></ele><time>2014-4-25T4:25:10Z</time></trkpt>
<trkpt lat="47.73582800" lon="-2.80893100"><ele></ele><time>2014-4-25T4:25:13Z</time></trkpt>
<trkpt lat="47.73574900" lon="-2.80900900"><ele></ele><time>2014-4-25T4:25:16Z</time></trkpt>
<trkpt lat="47.73568000" lon="-2.80909200"><ele></ele><time>2014-4-25T4:25:19Z</time></trkpt>
<trkpt lat="47.73562100" lon="-2.80904800"><ele></ele><time>2014-4-25T4:25:22Z</time></trkpt>
<trkpt lat="47.73558200" lon="-2.80900200"><ele></ele><time>2014-4-25T4:25:25Z</time></trkpt>
<trkpt lat="47.73559100" lon="-2.80888200"><ele></ele><time>2014-4-25T4:25:28Z</time></trkpt>
<trkpt lat="47.73561600" lon="-2.80883400"><ele></ele><time>2014-4-25T4:25:31Z</time></trkpt>
<trkpt lat="47.73562500" lon="-2.80870300"><ele></ele><time>2014-4-25T4:25:34Z</time></trkpt>
<trkpt lat="47.73562300" lon="-2.80868800"><ele></ele><time>2014-4-25T4:25:37Z</time></trkpt>
<trkpt lat="47.73563200" lon="-2.80869100"><ele></ele><time>2014-4-25T4:25:40Z</time></trkpt>
<trkpt lat="47.73562600" lon="-2.80868600"><ele></ele><time>2014-4-25T4:25:43Z</time></trkpt>
<trkpt lat="47.73560100" lon="-2.80861300"><ele></ele><time>2014-4-25T4:25:46Z</time></trkpt>
<trkpt lat="47.73560400" lon="-2.80841900"><ele></ele><time>2014-4-25T4:25:49Z</time></trkpt>
<trkpt lat="47.73563900" lon="-2.80834300"><ele></ele><time>2014-4-25T4:25:52Z</time></trkpt>
<trkpt lat="47.73565100" lon="-2.80822600"><ele></ele><time>2014-4-25T4:25:55Z</time></trkpt>
<trkpt lat="47.73565700" lon="-2.80816800"><ele></ele><time>2014-4-25T4:25:58Z</time></trkpt>
<trkpt lat="47.73564800" lon="-2.80806500"><ele></ele><time>2014-4-25T4:26:1Z</time></trkpt>
<trkpt lat="47.73561600" lon="-2.80797000"><ele></ele><time>2014-4-25T4:26:4Z</time></trkpt>
<trkpt lat="47.73559600" lon="-2.80786800"><ele></ele><time>2014-4-25T4:26:7Z</time></trkpt>
<trkpt lat="47.73556200" lon="-2.80774600"><ele></ele><time>2014-4-25T4:26:10Z</time></trkpt>
<trkpt lat="47.73554500" lon="-2.80771100"><ele></ele><time>2014-4-25T4:26:13Z</time></trkpt>
<trkpt lat="47.73536200" lon="-2.80769000"><ele></ele><time>2014-4-25T4:26:16Z</time></trkpt>
<trkpt lat="47.73533100" lon="-2.80769300"><ele></ele><time>2014-4-25T4:26:19Z</time></trkpt>
<trkpt lat="47.73511100" lon="-2.80760400"><ele></ele><time>2014-4-25T4:26:22Z</time></trkpt>
<trkpt lat="47.73494500" lon="-2.80755100"><ele></ele><time>2014-4-25T4:26:25Z</time></trkpt>
<trkpt lat="47.73478500" lon="-2.80743600"><ele></ele><time>2014-4-25T4:26:28Z</time></trkpt>
<trkpt lat="47.73473500" lon="-2.80733700"><ele></ele><time>2014-4-25T4:26:31Z</time></trkpt>
<trkpt lat="47.73472500" lon="-2.80726300"><ele></ele><time>2014-4-25T4:26:34Z</time></trkpt>
<trkpt lat="47.73468000" lon="-2.80715800"><ele></ele><time>2014-4-25T4:26:37Z</time></trkpt>
<trkpt lat="47.73465100" lon="-2.80712900"><ele></ele><time>2014-4-25T4:26:40Z</time></trkpt>
<trkpt lat="47.73463300" lon="-2.80711900"><ele></ele><time>2014-4-25T4:26:43Z</time></trkpt>
<trkpt lat="47.73452800" lon="-2.80711500"><ele></ele><time>2014-4-25T4:26:46Z</time></trkpt>
<trkpt lat="47.73441800" lon="-2.80716500"><ele></ele><time>2014-4-25T4:26:49Z</time></trkpt>
<trkpt lat="47.73433000" lon="-2.80719400"><ele></ele><time>2014-4-25T4:26:52Z</time></trkpt>
<trkpt lat="47.73420500" lon="-2.80724800"><ele></ele><time>2014-4-25T4:26:55Z</time></trkpt>
<trkpt lat="47.73418900" lon="-2.80725800"><ele></ele><time>2014-4-25T4:26:58Z</time></trkpt>
<trkpt lat="47.73400600" lon="-2.80733300"><ele></ele><time>2014-4-25T4:27:1Z</time></trkpt>
<trkpt lat="47.73396800" lon="-2.80734300"><ele></ele><time>2014-4-25T4:27:4Z</time></trkpt>
<trkpt lat="47.73381700" lon="-2.80730200"><ele></ele><time>2014-4-25T4:27:7Z</time></trkpt>
<trkpt lat="47.73367600" lon="-2.80737200"><ele></ele><time>2014-4-25T4:27:10Z</time></trkpt>
<trkpt lat="47.73352300" lon="-2.80737300"><ele></ele><time>2014-4-25T4:27:13Z</time></trkpt>
<trkpt lat="47.73333800" lon="-2.80733600"><ele></ele><time>2014-4-25T4:27:16Z</time></trkpt>
<trkpt lat="47.73310500" lon="-2.80736100"><ele></ele><time>2014-4-25T4:27:19Z</time></trkpt>
<trkpt lat="47.73292100" lon="-2.80739200"><ele></ele><time>2014-4-25T4:27:22Z</time></trkpt>
<trkpt lat="47.73284600" lon="-2.80741900"><ele></ele><time>2014-4-25T4:27:25Z</time></trkpt>
<trkpt lat="47.73264800" lon="-2.80747100"><ele></ele><time>2014-4-25T4:27:28Z</time></trkpt>
<trkpt lat="47.73251600" lon="-2.80752200"><ele></ele><time>2014-4-25T4:27:31Z</time></trkpt>
<trkpt lat="47.73233600" lon="-2.80757500"><ele></ele><time>2014-4-25T4:27:34Z</time></trkpt>
<trkpt lat="47.73216300" lon="-2.80765100"><ele></ele><time>2014-4-25T4:27:37Z</time></trkpt>
<trkpt lat="47.73204400" lon="-2.80770700"><ele></ele><time>2014-4-25T4:27:40Z</time></trkpt>
<trkpt lat="47.73193300" lon="-2.80779500"><ele></ele><time>2014-4-25T4:27:43Z</time></trkpt>
<trkpt lat="47.73186400" lon="-2.80788900"><ele></ele><time>2014-4-25T4:27:46Z</time></trkpt>
<trkpt lat="47.73170800" lon="-2.80801800"><ele></ele><time>2014-4-25T4:27:49Z</time></trkpt>
<trkpt lat="47.73154600" lon="-2.80819400"><ele></ele><time>2014-4-25T4:27:52Z</time></trkpt>
<trkpt lat="47.73147300" lon="-2.80830400"><ele></ele><time>2014-4-25T4:27:55Z</time></trkpt>
<trkpt lat="47.73140600" lon="-2.80834900"><ele></ele><time>2014-4-25T4:27:58Z</time></trkpt>
<trkpt lat="47.73138300" lon="-2.80835900"><ele></ele><time>2014-4-25T4:28:1Z</time></trkpt>
<trkpt lat="47.73132300" lon="-2.80837000"><ele></ele><time>2014-4-25T4:28:4Z</time></trkpt>
<trkpt lat="47.73130400" lon="-2.80840000"><ele></ele><time>2014-4-25T4:28:7Z</time></trkpt>
<trkpt lat="47.73122600" lon="-2.80847600"><ele></ele><time>2014-4-25T4:28:10Z</time></trkpt>
<trkpt lat="47.73113100" lon="-2.80852500"><ele></ele><time>2014-4-25T4:28:13Z</time></trkpt>
<trkpt lat="47.73100600" lon="-2.80857500"><ele></ele><time>2014-4-25T4:28:16Z</time></trkpt>
<trkpt lat="47.73085100" lon="-2.80859400"><ele></ele><time>2014-4-25T4:28:19Z</time></trkpt>
<trkpt lat="47.73074100" lon="-2.80865300"><ele></ele><time>2014-4-25T4:28:22Z</time></trkpt>
<trkpt lat="47.73059800" lon="-2.80870400"><ele></ele><time>2014-4-25T4:28:25Z</time></trkpt>
<trkpt lat="47.73049600" lon="-2.80874100"><ele></ele><time>2014-4-25T4:28:28Z</time></trkpt>
<trkpt lat="47.73035200" lon="-2.80878100"><ele></ele><time>2014-4-25T4:28:31Z</time></trkpt>
<trkpt lat="47.73020100" lon="-2.80876200"><ele></ele><time>2014-4-25T4:28:34Z</time></trkpt>
<trkpt lat="47.73005300" lon="-2.80864700"><ele></ele><time>2014-4-25T4:28:37Z</time></trkpt>
<trkpt lat="47.72999800" lon="-2.80868100"><ele></ele><time>2014-4-25T4:28:40Z</time></trkpt>
<trkpt lat="47.72999400" lon="-2.80875000"><ele></ele><time>2014-4-25T4:28:43Z</time></trkpt>
<trkpt lat="47.72993600" lon="-2.80888700"><ele></ele><time>2014-4-25T4:28:46Z</time></trkpt>
<trkpt lat="47.72983700" lon="-2.80897100"><ele></ele><time>2014-4-25T4:28:49Z</time></trkpt>
<trkpt lat="47.72970600" lon="-2.80904700"><ele></ele><time>2014-4-25T4:28:52Z</time></trkpt>
<trkpt lat="47.72954300" lon="-2.80910300"><ele></ele><time>2014-4-25T4:28:55Z</time></trkpt>
<trkpt lat="47.72934200" lon="-2.80916300"><ele></ele><time>2014-4-25T4:28:58Z</time></trkpt>
<trkpt lat="47.72911500" lon="-2.80918600"><ele></ele><time>2014-4-25T4:29:1Z</time></trkpt>
<trkpt lat="47.72889300" lon="-2.80923100"><ele></ele><time>2014-4-25T4:29:4Z</time></trkpt>
<trkpt lat="47.72864400" lon="-2.80931900"><ele></ele><time>2014-4-25T4:29:7Z</time></trkpt>
<trkpt lat="47.72843000" lon="-2.80939800"><ele></ele><time>2014-4-25T4:29:10Z</time></trkpt>
<trkpt lat="47.72808300" lon="-2.80944100"><ele></ele><time>2014-4-25T4:29:13Z</time></trkpt>
<trkpt lat="47.72799800" lon="-2.80945900"><ele></ele><time>2014-4-25T4:29:16Z</time></trkpt>
<trkpt lat="47.72789900" lon="-2.80947300"><ele></ele><time>2014-4-25T4:29:19Z</time></trkpt>
<trkpt lat="47.72771200" lon="-2.80947500"><ele></ele><time>2014-4-25T4:29:22Z</time></trkpt>
<trkpt lat="47.72746100" lon="-2.80941200"><ele></ele><time>2014-4-25T4:29:25Z</time></trkpt>
<trkpt lat="47.72737500" lon="-2.80924200"><ele></ele><time>2014-4-25T4:29:28Z</time></trkpt>
<trkpt lat="47.72728900" lon="-2.80903500"><ele></ele><time>2014-4-25T4:29:31Z</time></trkpt>
<trkpt lat="47.72719800" lon="-2.80888800"><ele></ele><time>2014-4-25T4:29:34Z</time></trkpt>
<trkpt lat="47.72704100" lon="-2.80888600"><ele></ele><time>2014-4-25T4:29:37Z</time></trkpt>
<trkpt lat="47.72675500" lon="-2.80893200"><ele></ele><time>2014-4-25T4:29:40Z</time></trkpt>
<trkpt lat="47.72660300" lon="-2.80896800"><ele></ele><time>2014-4-25T4:29:43Z</time></trkpt>
<trkpt lat="47.72628700" lon="-2.80902700"><ele></ele><time>2014-4-25T4:29:46Z</time></trkpt>
<trkpt lat="47.72607500" lon="-2.80902200"><ele></ele><time>2014-4-25T4:29:49Z</time></trkpt>
<trkpt lat="47.72590400" lon="-2.80900100"><ele></ele><time>2014-4-25T4:29:52Z</time></trkpt>
<trkpt lat="47.72564000" lon="-2.80899200"><ele></ele><time>2014-4-25T4:29:55Z</time></trkpt>
<trkpt lat="47.72543200" lon="-2.80898300"><ele></ele><time>2014-4-25T4:29:58Z</time></trkpt>
<trkpt lat="47.72525800" lon="-2.80897200"><ele></ele><time>2014-4-25T4:30:1Z</time></trkpt>
<trkpt lat="47.72514600" lon="-2.80896500"><ele></ele><time>2014-4-25T4:30:4Z</time></trkpt>
<trkpt lat="47.72510100" lon="-2.80896800"><ele></ele><time>2014-4-25T4:30:7Z</time></trkpt>
<trkpt lat="47.72509100" lon="-2.80896300"><ele></ele><time>2014-4-25T4:30:10Z</time></trkpt>
<trkpt lat="47.72507500" lon="-2.80895900"><ele></ele><time>2014-4-25T4:30:13Z</time></trkpt>
<trkpt lat="47.72497800" lon="-2.80902000"><ele></ele><time>2014-4-25T4:30:16Z</time></trkpt>
<trkpt lat="47.72494900" lon="-2.80906800"><ele></ele><time>2014-4-25T4:30:19Z</time></trkpt>
<trkpt lat="47.72494200" lon="-2.80906000"><ele></ele><time>2014-4-25T4:30:22Z</time></trkpt>
<trkpt lat="47.72493900" lon="-2.80906600"><ele></ele><time>2014-4-25T4:30:25Z</time></trkpt>
<trkpt lat="47.72492600" lon="-2.80909800"><ele></ele><time>2014-4-25T4:30:28Z</time></trkpt>
<trkpt lat="47.72489100" lon="-2.80918600"><ele></ele><time>2014-4-25T4:30:31Z</time></trkpt>
<trkpt lat="47.72488700" lon="-2.80929300"><ele></ele><time>2014-4-25T4:30:34Z</time></trkpt>
<trkpt lat="47.72489200" lon="-2.80940300"><ele></ele><time>2014-4-25T4:30:37Z</time></trkpt>
<trkpt lat="47.72490400" lon="-2.80943400"><ele></ele><time>2014-4-25T4:30:40Z</time></trkpt>
<trkpt lat="47.72490600" lon="-2.80944100"><ele></ele><time>2014-4-25T4:30:43Z</time></trkpt>
<trkpt lat="47.72490900" lon="-2.80946100"><ele></ele><time>2014-4-25T4:30:46Z</time></trkpt>
<trkpt lat="47.72490800" lon="-2.80946400"><ele></ele><time>2014-4-25T4:30:49Z</time></trkpt>
<trkpt lat="47.72492000" lon="-2.80952000"><ele></ele><time>2014-4-25T4:30:52Z</time></trkpt>
<trkpt lat="47.72495300" lon="-2.80956600"><ele></ele><time>2014-4-25T4:30:55Z</time></trkpt>
<trkpt lat="47.72495000" lon="-2.80958500"><ele></ele><time>2014-4-25T4:30:58Z</time></trkpt>
<trkpt lat="47.72491900" lon="-2.80958300"><ele></ele><time>2014-4-25T4:31:1Z</time></trkpt>
<trkpt lat="47.72492700" lon="-2.80959100"><ele></ele><time>2014-4-25T4:31:4Z</time></trkpt>
<trkpt lat="47.72493100" lon="-2.80959300"><ele></ele><time>2014-4-25T4:31:7Z</time></trkpt>
<trkpt lat="47.72493000" lon="-2.80964700"><ele></ele><time>2014-4-25T4:31:10Z</time></trkpt>
<trkpt lat="47.72492800" lon="-2.80964600"><ele></ele><time>2014-4-25T4:31:13Z</time></trkpt>
<trkpt lat="47.72493200" lon="-2.80965300"><ele></ele><time>2014-4-25T4:31:16Z</time></trkpt>
<trkpt lat="47.72493700" lon="-2.80966800"><ele></ele><time>2014-4-25T4:31:19Z</time></trkpt>
<trkpt lat="47.72493900" lon="-2.80968100"><ele></ele><time>2014-4-25T4:31:22Z</time></trkpt>
<trkpt lat="47.72497000" lon="-2.80978500"><ele></ele><time>2014-4-25T4:31:25Z</time></trkpt>
<trkpt lat="47.72497700" lon="-2.80980600"><ele></ele><time>2014-4-25T4:31:28Z</time></trkpt>
<trkpt lat="47.72499200" lon="-2.80986600"><ele></ele><time>2014-4-25T4:31:31Z</time></trkpt>
<trkpt lat="47.72499200" lon="-2.80991200"><ele></ele><time>2014-4-25T4:31:34Z</time></trkpt>
<trkpt lat="47.72500600" lon="-2.80999500"><ele></ele><time>2014-4-25T4:31:37Z</time></trkpt>
<trkpt lat="47.72502000" lon="-2.81013200"><ele></ele><time>2014-4-25T4:31:40Z</time></trkpt>
<trkpt lat="47.72504600" lon="-2.81028500"><ele></ele><time>2014-4-25T4:31:43Z</time></trkpt>
<trkpt lat="47.72506300" lon="-2.81043300"><ele></ele><time>2014-4-25T4:31:46Z</time></trkpt>
<trkpt lat="47.72508900" lon="-2.81057900"><ele></ele><time>2014-4-25T4:31:49Z</time></trkpt>
<trkpt lat="47.72509800" lon="-2.81068400"><ele></ele><time>2014-4-25T4:31:52Z</time></trkpt>
<trkpt lat="47.72510300" lon="-2.81080200"><ele></ele><time>2014-4-25T4:31:55Z</time></trkpt>
<trkpt lat="47.72509600" lon="-2.81096500"><ele></ele><time>2014-4-25T4:31:58Z</time></trkpt>
<trkpt lat="47.72501800" lon="-2.81114900"><ele></ele><time>2014-4-25T4:32:1Z</time></trkpt>
<trkpt lat="47.72493400" lon="-2.81126800"><ele></ele><time>2014-4-25T4:32:4Z</time></trkpt>
<trkpt lat="47.72487100" lon="-2.81133600"><ele></ele><time>2014-4-25T4:32:7Z</time></trkpt>
<trkpt lat="47.72472800" lon="-2.81146300"><ele></ele><time>2014-4-25T4:32:10Z</time></trkpt>
<trkpt lat="47.72454700" lon="-2.81156300"><ele></ele><time>2014-4-25T4:32:13Z</time></trkpt>
<trkpt lat="47.72438800" lon="-2.81162700"><ele></ele><time>2014-4-25T4:32:16Z</time></trkpt>
<trkpt lat="47.72426600" lon="-2.81169200"><ele></ele><time>2014-4-25T4:32:19Z</time></trkpt>
<trkpt lat="47.72413800" lon="-2.81176200"><ele></ele><time>2014-4-25T4:32:22Z</time></trkpt>
<trkpt lat="47.72397800" lon="-2.81185300"><ele></ele><time>2014-4-25T4:32:25Z</time></trkpt>
<trkpt lat="47.72385200" lon="-2.81193900"><ele></ele><time>2014-4-25T4:32:28Z</time></trkpt>
<trkpt lat="47.72374300" lon="-2.81199500"><ele></ele><time>2014-4-25T4:32:31Z</time></trkpt>
<trkpt lat="47.72358400" lon="-2.81209400"><ele></ele><time>2014-4-25T4:32:34Z</time></trkpt>
<trkpt lat="47.72339300" lon="-2.81222900"><ele></ele><time>2014-4-25T4:32:37Z</time></trkpt>
<trkpt lat="47.72337100" lon="-2.81225200"><ele></ele><time>2014-4-25T4:32:40Z</time></trkpt>
<trkpt lat="47.72322400" lon="-2.81234700"><ele></ele><time>2014-4-25T4:32:43Z</time></trkpt>
<trkpt lat="47.72310900" lon="-2.81242600"><ele></ele><time>2014-4-25T4:32:46Z</time></trkpt>
<trkpt lat="47.72302000" lon="-2.81249100"><ele></ele><time>2014-4-25T4:32:49Z</time></trkpt>
<trkpt lat="47.72296600" lon="-2.81262600"><ele></ele><time>2014-4-25T4:32:52Z</time></trkpt>
<trkpt lat="47.72290800" lon="-2.81275000"><ele></ele><time>2014-4-25T4:32:55Z</time></trkpt>
<trkpt lat="47.72290100" lon="-2.81278600"><ele></ele><time>2014-4-25T4:32:58Z</time></trkpt>
<trkpt lat="47.72298100" lon="-2.81306100"><ele></ele><time>2014-4-25T4:33:1Z</time></trkpt>
<trkpt lat="47.72305400" lon="-2.81320500"><ele></ele><time>2014-4-25T4:33:4Z</time></trkpt>
<trkpt lat="47.72315900" lon="-2.81345100"><ele></ele><time>2014-4-25T4:33:7Z</time></trkpt>
<trkpt lat="47.72328200" lon="-2.81373300"><ele></ele><time>2014-4-25T4:33:10Z</time></trkpt>
<trkpt lat="47.72339600" lon="-2.81404400"><ele></ele><time>2014-4-25T4:33:13Z</time></trkpt>
<trkpt lat="47.72349600" lon="-2.81432600"><ele></ele><time>2014-4-25T4:33:16Z</time></trkpt>
<trkpt lat="47.72365200" lon="-2.81471000"><ele></ele><time>2014-4-25T4:33:19Z</time></trkpt>
<trkpt lat="47.72375000" lon="-2.81494300"><ele></ele><time>2014-4-25T4:33:22Z</time></trkpt>
<trkpt lat="47.72387500" lon="-2.81525100"><ele></ele><time>2014-4-25T4:33:25Z</time></trkpt>
<trkpt lat="47.72394500" lon="-2.81544900"><ele></ele><time>2014-4-25T4:33:28Z</time></trkpt>
<trkpt lat="47.72396500" lon="-2.81550700"><ele></ele><time>2014-4-25T4:33:31Z</time></trkpt>
<trkpt lat="47.72415800" lon="-2.81593000"><ele></ele><time>2014-4-25T4:33:34Z</time></trkpt>
<trkpt lat="47.72431600" lon="-2.81639800"><ele></ele><time>2014-4-25T4:33:37Z</time></trkpt>
<trkpt lat="47.72445300" lon="-2.81677400"><ele></ele><time>2014-4-25T4:33:40Z</time></trkpt>
<trkpt lat="47.72455700" lon="-2.81705700"><ele></ele><time>2014-4-25T4:33:43Z</time></trkpt>
<trkpt lat="47.72473800" lon="-2.81746400"><ele></ele><time>2014-4-25T4:33:46Z</time></trkpt>
<trkpt lat="47.72496100" lon="-2.81790600"><ele></ele><time>2014-4-25T4:33:49Z</time></trkpt>
<trkpt lat="47.72500100" lon="-2.81800400"><ele></ele><time>2014-4-25T4:33:52Z</time></trkpt>
<trkpt lat="47.72512400" lon="-2.81849400"><ele></ele><time>2014-4-25T4:33:55Z</time></trkpt>
<trkpt lat="47.72525200" lon="-2.81892300"><ele></ele><time>2014-4-25T4:33:58Z</time></trkpt>
<trkpt lat="47.72537200" lon="-2.81934200"><ele></ele><time>2014-4-25T4:34:1Z</time></trkpt>
<trkpt lat="47.72546100" lon="-2.81969700"><ele></ele><time>2014-4-25T4:34:4Z</time></trkpt>
<trkpt lat="47.72554400" lon="-2.81998800"><ele></ele><time>2014-4-25T4:34:7Z</time></trkpt>
<trkpt lat="47.72562900" lon="-2.82029000"><ele></ele><time>2014-4-25T4:34:10Z</time></trkpt>
<trkpt lat="47.72571400" lon="-2.82065600"><ele></ele><time>2014-4-25T4:34:13Z</time></trkpt>
<trkpt lat="47.72587100" lon="-2.82108000"><ele></ele><time>2014-4-25T4:34:16Z</time></trkpt>
<trkpt lat="47.72605900" lon="-2.82147300"><ele></ele><time>2014-4-25T4:34:19Z</time></trkpt>
<trkpt lat="47.72610500" lon="-2.82157700"><ele></ele><time>2014-4-25T4:34:22Z</time></trkpt>
<trkpt lat="47.72626500" lon="-2.82156800"><ele></ele><time>2014-4-25T4:34:25Z</time></trkpt>
<trkpt lat="47.72651700" lon="-2.82131900"><ele></ele><time>2014-4-25T4:34:28Z</time></trkpt>
<trkpt lat="47.72660000" lon="-2.82124600"><ele></ele><time>2014-4-25T4:34:31Z</time></trkpt>
<trkpt lat="47.72668800" lon="-2.82117700"><ele></ele><time>2014-4-25T4:34:34Z</time></trkpt>
<trkpt lat="47.72682100" lon="-2.82105600"><ele></ele><time>2014-4-25T4:34:37Z</time></trkpt>
<trkpt lat="47.72701200" lon="-2.82088300"><ele></ele><time>2014-4-25T4:34:40Z</time></trkpt>
<trkpt lat="47.72735200" lon="-2.82054700"><ele></ele><time>2014-4-25T4:34:43Z</time></trkpt>
<trkpt lat="47.72768700" lon="-2.82020300"><ele></ele><time>2014-4-25T4:34:46Z</time></trkpt>
<trkpt lat="47.72796900" lon="-2.81989200"><ele></ele><time>2014-4-25T4:34:49Z</time></trkpt>
<trkpt lat="47.72821300" lon="-2.81960500"><ele></ele><time>2014-4-25T4:34:52Z</time></trkpt>
<trkpt lat="47.72830000" lon="-2.81950800"><ele></ele><time>2014-4-25T4:34:55Z</time></trkpt>
<trkpt lat="47.72858100" lon="-2.81931300"><ele></ele><time>2014-4-25T4:34:58Z</time></trkpt>
<trkpt lat="47.72881200" lon="-2.81917100"><ele></ele><time>2014-4-25T4:35:1Z</time></trkpt>
<trkpt lat="47.72904800" lon="-2.81902400"><ele></ele><time>2014-4-25T4:35:4Z</time></trkpt>
<trkpt lat="47.72927400" lon="-2.81889900"><ele></ele><time>2014-4-25T4:35:7Z</time></trkpt>
<trkpt lat="47.72945300" lon="-2.81889200"><ele></ele><time>2014-4-25T4:35:10Z</time></trkpt>
<trkpt lat="47.72959400" lon="-2.81900400"><ele></ele><time>2014-4-25T4:35:13Z</time></trkpt>
<trkpt lat="47.72975000" lon="-2.81917000"><ele></ele><time>2014-4-25T4:35:16Z</time></trkpt>
<trkpt lat="47.72987300" lon="-2.81922900"><ele></ele><time>2014-4-25T4:35:19Z</time></trkpt>
<trkpt lat="47.73006500" lon="-2.81929600"><ele></ele><time>2014-4-25T4:35:22Z</time></trkpt>
<trkpt lat="47.73036800" lon="-2.81943100"><ele></ele><time>2014-4-25T4:35:25Z</time></trkpt>
<trkpt lat="47.73041800" lon="-2.81947000"><ele></ele><time>2014-4-25T4:35:28Z</time></trkpt>
<trkpt lat="47.73057300" lon="-2.81964600"><ele></ele><time>2014-4-25T4:35:31Z</time></trkpt>
<trkpt lat="47.73077800" lon="-2.81976900"><ele></ele><time>2014-4-25T4:35:34Z</time></trkpt>
<trkpt lat="47.73083000" lon="-2.81976800"><ele></ele><time>2014-4-25T4:35:37Z</time></trkpt>
<trkpt lat="47.73097600" lon="-2.81977300"><ele></ele><time>2014-4-25T4:35:40Z</time></trkpt>
<trkpt lat="47.73107600" lon="-2.81978900"><ele></ele><time>2014-4-25T4:35:43Z</time></trkpt>
<trkpt lat="47.73138900" lon="-2.81982500"><ele></ele><time>2014-4-25T4:35:46Z</time></trkpt>
<trkpt lat="47.73158900" lon="-2.81994200"><ele></ele><time>2014-4-25T4:35:49Z</time></trkpt>
<trkpt lat="47.73163400" lon="-2.81999100"><ele></ele><time>2014-4-25T4:35:52Z</time></trkpt>
<trkpt lat="47.73193500" lon="-2.82030300"><ele></ele><time>2014-4-25T4:35:55Z</time></trkpt>
<trkpt lat="47.73218000" lon="-2.82051700"><ele></ele><time>2014-4-25T4:35:58Z</time></trkpt>
<trkpt lat="47.73234500" lon="-2.82060900"><ele></ele><time>2014-4-25T4:36:1Z</time></trkpt>
<trkpt lat="47.73255800" lon="-2.82058200"><ele></ele><time>2014-4-25T4:36:4Z</time></trkpt>
<trkpt lat="47.73259400" lon="-2.82055200"><ele></ele><time>2014-4-25T4:36:7Z</time></trkpt>
<trkpt lat="47.73270500" lon="-2.82047300"><ele></ele><time>2014-4-25T4:36:10Z</time></trkpt>
<trkpt lat="47.73297900" lon="-2.82039600"><ele></ele><time>2014-4-25T4:36:13Z</time></trkpt>
<trkpt lat="47.73321200" lon="-2.82056900"><ele></ele><time>2014-4-25T4:36:16Z</time></trkpt>
<trkpt lat="47.73347700" lon="-2.82098900"><ele></ele><time>2014-4-25T4:36:19Z</time></trkpt>
<trkpt lat="47.73367100" lon="-2.82110000"><ele></ele><time>2014-4-25T4:36:22Z</time></trkpt>
<trkpt lat="47.73375400" lon="-2.82109400"><ele></ele><time>2014-4-25T4:36:25Z</time></trkpt>
<trkpt lat="47.73416900" lon="-2.82100200"><ele></ele><time>2014-4-25T4:36:28Z</time></trkpt>
<trkpt lat="47.73460800" lon="-2.82083300"><ele></ele><time>2014-4-25T4:36:31Z</time></trkpt>
<trkpt lat="47.73495800" lon="-2.82065800"><ele></ele><time>2014-4-25T4:36:34Z</time></trkpt>
<trkpt lat="47.73520500" lon="-2.82053800"><ele></ele><time>2014-4-25T4:36:37Z</time></trkpt>
<trkpt lat="47.73553400" lon="-2.82035600"><ele></ele><time>2014-4-25T4:36:40Z</time></trkpt>
<trkpt lat="47.73571800" lon="-2.82028600"><ele></ele><time>2014-4-25T4:36:43Z</time></trkpt>
<trkpt lat="47.73581900" lon="-2.82037800"><ele></ele><time>2014-4-25T4:36:46Z</time></trkpt>
<trkpt lat="47.73594900" lon="-2.82065900"><ele></ele><time>2014-4-25T4:36:49Z</time></trkpt>
<trkpt lat="47.73603300" lon="-2.82091100"><ele></ele><time>2014-4-25T4:36:52Z</time></trkpt>
<trkpt lat="47.73605200" lon="-2.82100200"><ele></ele><time>2014-4-25T4:36:55Z</time></trkpt>
<trkpt lat="47.73617600" lon="-2.82124600"><ele></ele><time>2014-4-25T4:36:58Z</time></trkpt>
<trkpt lat="47.73621900" lon="-2.82137100"><ele></ele><time>2014-4-25T4:37:1Z</time></trkpt>
<trkpt lat="47.73628500" lon="-2.82170900"><ele></ele><time>2014-4-25T4:37:4Z</time></trkpt>
<trkpt lat="47.73629200" lon="-2.82193600"><ele></ele><time>2014-4-25T4:37:7Z</time></trkpt>
<trkpt lat="47.73635100" lon="-2.82213800"><ele></ele><time>2014-4-25T4:37:10Z</time></trkpt>
<trkpt lat="47.73644700" lon="-2.82231200"><ele></ele><time>2014-4-25T4:37:13Z</time></trkpt>
<trkpt lat="47.73655300" lon="-2.82241200"><ele></ele><time>2014-4-25T4:37:16Z</time></trkpt>
<trkpt lat="47.73663300" lon="-2.82255200"><ele></ele><time>2014-4-25T4:37:19Z</time></trkpt>
<trkpt lat="47.73664400" lon="-2.82257200"><ele></ele><time>2014-4-25T4:37:22Z</time></trkpt>
<trkpt lat="47.73674900" lon="-2.82262700"><ele></ele><time>2014-4-25T4:37:25Z</time></trkpt>
<trkpt lat="47.73684500" lon="-2.82266400"><ele></ele><time>2014-4-25T4:37:28Z</time></trkpt>
<trkpt lat="47.73686500" lon="-2.82267600"><ele></ele><time>2014-4-25T4:37:31Z</time></trkpt>
<trkpt lat="47.73703000" lon="-2.82273000"><ele></ele><time>2014-4-25T4:37:34Z</time></trkpt>
<trkpt lat="47.73717700" lon="-2.82269100"><ele></ele><time>2014-4-25T4:37:37Z</time></trkpt>
<trkpt lat="47.73734700" lon="-2.82259400"><ele></ele><time>2014-4-25T4:37:40Z</time></trkpt>
<trkpt lat="47.73743800" lon="-2.82249600"><ele></ele><time>2014-4-25T4:37:43Z</time></trkpt>
<trkpt lat="47.73749900" lon="-2.82238300"><ele></ele><time>2014-4-25T4:37:46Z</time></trkpt>
<trkpt lat="47.73757500" lon="-2.82220500"><ele></ele><time>2014-4-25T4:37:49Z</time></trkpt>
<trkpt lat="47.73766100" lon="-2.82209600"><ele></ele><time>2014-4-25T4:37:52Z</time></trkpt>
<trkpt lat="47.73776900" lon="-2.82201800"><ele></ele><time>2014-4-25T4:37:55Z</time></trkpt>
<trkpt lat="47.73778100" lon="-2.82200700"><ele></ele><time>2014-4-25T4:37:58Z</time></trkpt>
<trkpt lat="47.73793200" lon="-2.82199800"><ele></ele><time>2014-4-25T4:38:1Z</time></trkpt>
<trkpt lat="47.73807000" lon="-2.82198000"><ele></ele><time>2014-4-25T4:38:4Z</time></trkpt>
<trkpt lat="47.73823500" lon="-2.82190800"><ele></ele><time>2014-4-25T4:38:7Z</time></trkpt>
<trkpt lat="47.73842700" lon="-2.82187700"><ele></ele><time>2014-4-25T4:38:10Z</time></trkpt>
<trkpt lat="47.73867000" lon="-2.82184200"><ele></ele><time>2014-4-25T4:38:13Z</time></trkpt>
<trkpt lat="47.73897200" lon="-2.82177600"><ele></ele><time>2014-4-25T4:38:16Z</time></trkpt>
<trkpt lat="47.73913000" lon="-2.82171300"><ele></ele><time>2014-4-25T4:38:19Z</time></trkpt>
<trkpt lat="47.73926000" lon="-2.82164700"><ele></ele><time>2014-4-25T4:38:22Z</time></trkpt>
<trkpt lat="47.73940400" lon="-2.82172400"><ele></ele><time>2014-4-25T4:38:25Z</time></trkpt>
<trkpt lat="47.73959500" lon="-2.82188300"><ele></ele><time>2014-4-25T4:38:28Z</time></trkpt>
<trkpt lat="47.73978400" lon="-2.82202700"><ele></ele><time>2014-4-25T4:38:31Z</time></trkpt>
<trkpt lat="47.74009700" lon="-2.82218500"><ele></ele><time>2014-4-25T4:38:34Z</time></trkpt>
<trkpt lat="47.74037800" lon="-2.82232600"><ele></ele><time>2014-4-25T4:38:37Z</time></trkpt>
<trkpt lat="47.74058300" lon="-2.82241800"><ele></ele><time>2014-4-25T4:38:40Z</time></trkpt>
<trkpt lat="47.74079500" lon="-2.82255600"><ele></ele><time>2014-4-25T4:38:43Z</time></trkpt>
<trkpt lat="47.74109500" lon="-2.82271800"><ele></ele><time>2014-4-25T4:38:46Z</time></trkpt>
<trkpt lat="47.74140100" lon="-2.82287200"><ele></ele><time>2014-4-25T4:38:49Z</time></trkpt>
<trkpt lat="47.74171900" lon="-2.82300500"><ele></ele><time>2014-4-25T4:38:52Z</time></trkpt>
<trkpt lat="47.74195800" lon="-2.82319500"><ele></ele><time>2014-4-25T4:38:55Z</time></trkpt>
<trkpt lat="47.74210800" lon="-2.82341500"><ele></ele><time>2014-4-25T4:38:58Z</time></trkpt>
<trkpt lat="47.74229000" lon="-2.82358600"><ele></ele><time>2014-4-25T4:39:1Z</time></trkpt>
<trkpt lat="47.74251000" lon="-2.82373100"><ele></ele><time>2014-4-25T4:39:4Z</time></trkpt>
<trkpt lat="47.74271900" lon="-2.82384500"><ele></ele><time>2014-4-25T4:39:7Z</time></trkpt>
<trkpt lat="47.74302700" lon="-2.82398900"><ele></ele><time>2014-4-25T4:39:10Z</time></trkpt>
<trkpt lat="47.74320900" lon="-2.82409600"><ele></ele><time>2014-4-25T4:39:13Z</time></trkpt>
<trkpt lat="47.74345400" lon="-2.82433200"><ele></ele><time>2014-4-25T4:39:16Z</time></trkpt>
<trkpt lat="47.74366900" lon="-2.82451100"><ele></ele><time>2014-4-25T4:39:19Z</time></trkpt>
<trkpt lat="47.74380400" lon="-2.82467800"><ele></ele><time>2014-4-25T4:39:22Z</time></trkpt>
<trkpt lat="47.74390300" lon="-2.82475600"><ele></ele><time>2014-4-25T4:39:25Z</time></trkpt>
<trkpt lat="47.74407000" lon="-2.82467300"><ele></ele><time>2014-4-25T4:39:28Z</time></trkpt>
<trkpt lat="47.74425000" lon="-2.82455400"><ele></ele><time>2014-4-25T4:39:31Z</time></trkpt>
<trkpt lat="47.74453900" lon="-2.82443800"><ele></ele><time>2014-4-25T4:39:34Z</time></trkpt>
<trkpt lat="47.74469700" lon="-2.82446100"><ele></ele><time>2014-4-25T4:39:37Z</time></trkpt>
<trkpt lat="47.74492200" lon="-2.82460400"><ele></ele><time>2014-4-25T4:39:40Z</time></trkpt>
<trkpt lat="47.74501400" lon="-2.82465600"><ele></ele><time>2014-4-25T4:39:43Z</time></trkpt>
<trkpt lat="47.74504400" lon="-2.82467500"><ele></ele><time>2014-4-25T4:39:46Z</time></trkpt>
<trkpt lat="47.74507600" lon="-2.82469600"><ele></ele><time>2014-4-25T4:39:49Z</time></trkpt>
<trkpt lat="47.74512900" lon="-2.82480600"><ele></ele><time>2014-4-25T4:39:52Z</time></trkpt>
<trkpt lat="47.74509300" lon="-2.82490600"><ele></ele><time>2014-4-25T4:39:55Z</time></trkpt>
<trkpt lat="47.74504900" lon="-2.82508600"><ele></ele><time>2014-4-25T4:39:58Z</time></trkpt>
<trkpt lat="47.74508700" lon="-2.82551700"><ele></ele><time>2014-4-25T4:40:1Z</time></trkpt>
<trkpt lat="47.74520000" lon="-2.82580300"><ele></ele><time>2014-4-25T4:40:4Z</time></trkpt>
<trkpt lat="47.74541500" lon="-2.82606400"><ele></ele><time>2014-4-25T4:40:7Z</time></trkpt>
<trkpt lat="47.74567300" lon="-2.82634300"><ele></ele><time>2014-4-25T4:40:10Z</time></trkpt>
<trkpt lat="47.74585000" lon="-2.82645400"><ele></ele><time>2014-4-25T4:40:13Z</time></trkpt>
<trkpt lat="47.74610700" lon="-2.82658000"><ele></ele><time>2014-4-25T4:40:16Z</time></trkpt>
<trkpt lat="47.74613700" lon="-2.82660600"><ele></ele><time>2014-4-25T4:40:19Z</time></trkpt>
<trkpt lat="47.74619300" lon="-2.82654400"><ele></ele><time>2014-4-25T4:40:22Z</time></trkpt>
<trkpt lat="47.74623500" lon="-2.82637300"><ele></ele><time>2014-4-25T4:40:25Z</time></trkpt>
<trkpt lat="47.74633300" lon="-2.82621200"><ele></ele><time>2014-4-25T4:40:28Z</time></trkpt>
<trkpt lat="47.74638200" lon="-2.82598200"><ele></ele><time>2014-4-25T4:40:31Z</time></trkpt>
<trkpt lat="47.74644300" lon="-2.82571700"><ele></ele><time>2014-4-25T4:40:34Z</time></trkpt>
<trkpt lat="47.74653600" lon="-2.82539900"><ele></ele><time>2014-4-25T4:40:37Z</time></trkpt>
<trkpt lat="47.74660700" lon="-2.82508400"><ele></ele><time>2014-4-25T4:40:40Z</time></trkpt>
<trkpt lat="47.74662600" lon="-2.82502300"><ele></ele><time>2014-4-25T4:40:43Z</time></trkpt>
<trkpt lat="47.74671900" lon="-2.82486100"><ele></ele><time>2014-4-25T4:40:46Z</time></trkpt>
<trkpt lat="47.74678800" lon="-2.82488400"><ele></ele><time>2014-4-25T4:40:49Z</time></trkpt>
<trkpt lat="47.74691400" lon="-2.82508700"><ele></ele><time>2014-4-25T4:40:52Z</time></trkpt>
<trkpt lat="47.74700600" lon="-2.82520600"><ele></ele><time>2014-4-25T4:40:55Z</time></trkpt>
<trkpt lat="47.74699300" lon="-2.82538200"><ele></ele><time>2014-4-25T4:40:58Z</time></trkpt>
<trkpt lat="47.74696400" lon="-2.82545800"><ele></ele><time>2014-4-25T4:41:1Z</time></trkpt>
<trkpt lat="47.74698500" lon="-2.82568100"><ele></ele><time>2014-4-25T4:41:4Z</time></trkpt>
<trkpt lat="47.74710200" lon="-2.82582400"><ele></ele><time>2014-4-25T4:41:7Z</time></trkpt>
<trkpt lat="47.74717400" lon="-2.82597500"><ele></ele><time>2014-4-25T4:41:10Z</time></trkpt>
<trkpt lat="47.74719900" lon="-2.82617300"><ele></ele><time>2014-4-25T4:41:13Z</time></trkpt>
<trkpt lat="47.74722700" lon="-2.82638800"><ele></ele><time>2014-4-25T4:41:16Z</time></trkpt>
<trkpt lat="47.74728700" lon="-2.82664100"><ele></ele><time>2014-4-25T4:41:19Z</time></trkpt>
<trkpt lat="47.74737500" lon="-2.82682800"><ele></ele><time>2014-4-25T4:41:22Z</time></trkpt>
<trkpt lat="47.74746700" lon="-2.82699900"><ele></ele><time>2014-4-25T4:41:25Z</time></trkpt>
<trkpt lat="47.74742800" lon="-2.82705500"><ele></ele><time>2014-4-25T4:41:28Z</time></trkpt>
<trkpt lat="47.74740700" lon="-2.82706200"><ele></ele><time>2014-4-25T4:41:31Z</time></trkpt>
<trkpt lat="47.74728500" lon="-2.82711700"><ele></ele><time>2014-4-25T4:41:34Z</time></trkpt>
<trkpt lat="47.74719200" lon="-2.82720600"><ele></ele><time>2014-4-25T4:41:37Z</time></trkpt>
<trkpt lat="47.74700100" lon="-2.82740500"><ele></ele><time>2014-4-25T4:41:40Z</time></trkpt>
<trkpt lat="47.74684700" lon="-2.82750500"><ele></ele><time>2014-4-25T4:41:43Z</time></trkpt>
<trkpt lat="47.74677500" lon="-2.82761800"><ele></ele><time>2014-4-25T4:41:46Z</time></trkpt>
<trkpt lat="47.74670600" lon="-2.82774900"><ele></ele><time>2014-4-25T4:41:49Z</time></trkpt>
<trkpt lat="47.74667300" lon="-2.82813100"><ele></ele><time>2014-4-25T4:41:52Z</time></trkpt>
<trkpt lat="47.74668800" lon="-2.82846500"><ele></ele><time>2014-4-25T4:41:55Z</time></trkpt>
<trkpt lat="47.74660300" lon="-2.82875300"><ele></ele><time>2014-4-25T4:41:58Z</time></trkpt>
<trkpt lat="47.74656600" lon="-2.82899300"><ele></ele><time>2014-4-25T4:42:1Z</time></trkpt>
<trkpt lat="47.74651500" lon="-2.82921300"><ele></ele><time>2014-4-25T4:42:4Z</time></trkpt>
<trkpt lat="47.74642100" lon="-2.82943000"><ele></ele><time>2014-4-25T4:42:7Z</time></trkpt>
<trkpt lat="47.74635500" lon="-2.82950600"><ele></ele><time>2014-4-25T4:42:10Z</time></trkpt>
<trkpt lat="47.74624000" lon="-2.82979700"><ele></ele><time>2014-4-25T4:42:13Z</time></trkpt>
<trkpt lat="47.74618400" lon="-2.83011500"><ele></ele><time>2014-4-25T4:42:16Z</time></trkpt>
<trkpt lat="47.74598400" lon="-2.83033100"><ele></ele><time>2014-4-25T4:42:19Z</time></trkpt>
<trkpt lat="47.74591400" lon="-2.83037300"><ele></ele><time>2014-4-25T4:42:22Z</time></trkpt>
<trkpt lat="47.74584300" lon="-2.83056300"><ele></ele><time>2014-4-25T4:42:25Z</time></trkpt>
<trkpt lat="47.74596400" lon="-2.83072400"><ele></ele><time>2014-4-25T4:42:28Z</time></trkpt>
<trkpt lat="47.74602400" lon="-2.83093000"><ele></ele><time>2014-4-25T4:42:31Z</time></trkpt>
<trkpt lat="47.74599200" lon="-2.83110500"><ele></ele><time>2014-4-25T4:42:34Z</time></trkpt>
<trkpt lat="47.74597500" lon="-2.83122900"><ele></ele><time>2014-4-25T4:42:37Z</time></trkpt>
<trkpt lat="47.74604100" lon="-2.83150500"><ele></ele><time>2014-4-25T4:42:40Z</time></trkpt>
<trkpt lat="47.74608500" lon="-2.83172300"><ele></ele><time>2014-4-25T4:42:43Z</time></trkpt>
<trkpt lat="47.74612600" lon="-2.83193400"><ele></ele><time>2014-4-25T4:42:46Z</time></trkpt>
<trkpt lat="47.74621500" lon="-2.83215200"><ele></ele><time>2014-4-25T4:42:49Z</time></trkpt>
<trkpt lat="47.74623000" lon="-2.83228800"><ele></ele><time>2014-4-25T4:42:52Z</time></trkpt>
<trkpt lat="47.74620100" lon="-2.83254500"><ele></ele><time>2014-4-25T4:42:55Z</time></trkpt>
<trkpt lat="47.74613100" lon="-2.83276200"><ele></ele><time>2014-4-25T4:42:58Z</time></trkpt>
<trkpt lat="47.74600100" lon="-2.83288900"><ele></ele><time>2014-4-25T4:43:1Z</time></trkpt>
<trkpt lat="47.74580500" lon="-2.83317800"><ele></ele><time>2014-4-25T4:43:4Z</time></trkpt>
<trkpt lat="47.74580200" lon="-2.83321700"><ele></ele><time>2014-4-25T4:43:7Z</time></trkpt>
<trkpt lat="47.74583900" lon="-2.83324300"><ele></ele><time>2014-4-25T4:43:10Z</time></trkpt>
<trkpt lat="47.74589800" lon="-2.83330400"><ele></ele><time>2014-4-25T4:43:13Z</time></trkpt>
<trkpt lat="47.74592500" lon="-2.83332800"><ele></ele><time>2014-4-25T4:43:16Z</time></trkpt>
<trkpt lat="47.74595300" lon="-2.83336600"><ele></ele><time>2014-4-25T4:43:19Z</time></trkpt>
<trkpt lat="47.74601400" lon="-2.83341600"><ele></ele><time>2014-4-25T4:43:22Z</time></trkpt>
<trkpt lat="47.74607800" lon="-2.83346800"><ele></ele><time>2014-4-25T4:43:25Z</time></trkpt>
<trkpt lat="47.74616900" lon="-2.83354300"><ele></ele><time>2014-4-25T4:43:28Z</time></trkpt>
<trkpt lat="47.74621100" lon="-2.83359500"><ele></ele><time>2014-4-25T4:43:31Z</time></trkpt>
<trkpt lat="47.74622200" lon="-2.83362100"><ele></ele><time>2014-4-25T4:43:34Z</time></trkpt>
<trkpt lat="47.74621600" lon="-2.83370300"><ele></ele><time>2014-4-25T4:43:37Z</time></trkpt>
<trkpt lat="47.74611800" lon="-2.83379500"><ele></ele><time>2014-4-25T4:43:40Z</time></trkpt>
<trkpt lat="47.74609900" lon="-2.83382500"><ele></ele><time>2014-4-25T4:43:43Z</time></trkpt>
<trkpt lat="47.74603200" lon="-2.83405400"><ele></ele><time>2014-4-25T4:43:46Z</time></trkpt>
<trkpt lat="47.74596600" lon="-2.83432300"><ele></ele><time>2014-4-25T4:43:49Z</time></trkpt>
<trkpt lat="47.74598900" lon="-2.83453200"><ele></ele><time>2014-4-25T4:43:52Z</time></trkpt>
<trkpt lat="47.74602600" lon="-2.83461600"><ele></ele><time>2014-4-25T4:43:55Z</time></trkpt>
<trkpt lat="47.74607900" lon="-2.83459500"><ele></ele><time>2014-4-25T4:43:58Z</time></trkpt>
<trkpt lat="47.74620800" lon="-2.83452600"><ele></ele><time>2014-4-25T4:44:1Z</time></trkpt>
<trkpt lat="47.74628300" lon="-2.83439000"><ele></ele><time>2014-4-25T4:44:4Z</time></trkpt>
<trkpt lat="47.74638700" lon="-2.83441400"><ele></ele><time>2014-4-25T4:44:7Z</time></trkpt>
<trkpt lat="47.74642800" lon="-2.83451700"><ele></ele><time>2014-4-25T4:44:10Z</time></trkpt>
<trkpt lat="47.74646600" lon="-2.83487200"><ele></ele><time>2014-4-25T4:44:13Z</time></trkpt>
<trkpt lat="47.74644800" lon="-2.83516300"><ele></ele><time>2014-4-25T4:44:16Z</time></trkpt>
<trkpt lat="47.74643600" lon="-2.83543600"><ele></ele><time>2014-4-25T4:44:19Z</time></trkpt>
<trkpt lat="47.74653800" lon="-2.83568400"><ele></ele><time>2014-4-25T4:44:22Z</time></trkpt>
<trkpt lat="47.74668100" lon="-2.83591800"><ele></ele><time>2014-4-25T4:44:25Z</time></trkpt>
<trkpt lat="47.74683300" lon="-2.83620400"><ele></ele><time>2014-4-25T4:44:28Z</time></trkpt>
<trkpt lat="47.74691900" lon="-2.83635600"><ele></ele><time>2014-4-25T4:44:31Z</time></trkpt>
<trkpt lat="47.74690300" lon="-2.83646800"><ele></ele><time>2014-4-25T4:44:34Z</time></trkpt>
<trkpt lat="47.74679500" lon="-2.83656500"><ele></ele><time>2014-4-25T4:44:37Z</time></trkpt>
<trkpt lat="47.74667600" lon="-2.83662300"><ele></ele><time>2014-4-25T4:44:40Z</time></trkpt>
<trkpt lat="47.74613200" lon="-2.83681300"><ele></ele><time>2014-4-25T4:44:43Z</time></trkpt>
<trkpt lat="47.74575700" lon="-2.83691300"><ele></ele><time>2014-4-25T4:44:46Z</time></trkpt>
<trkpt lat="47.74563500" lon="-2.83693300"><ele></ele><time>2014-4-25T4:44:49Z</time></trkpt>
<trkpt lat="47.74557400" lon="-2.83694200"><ele></ele><time>2014-4-25T4:44:52Z</time></trkpt>
<trkpt lat="47.74521700" lon="-2.83698000"><ele></ele><time>2014-4-25T4:44:55Z</time></trkpt>
<trkpt lat="47.74496400" lon="-2.83701200"><ele></ele><time>2014-4-25T4:44:58Z</time></trkpt>
<trkpt lat="47.74486000" lon="-2.83720900"><ele></ele><time>2014-4-25T4:45:1Z</time></trkpt>
<trkpt lat="47.74474500" lon="-2.83753100"><ele></ele><time>2014-4-25T4:45:4Z</time></trkpt>
<trkpt lat="47.74468200" lon="-2.83784200"><ele></ele><time>2014-4-25T4:45:7Z</time></trkpt>
<trkpt lat="47.74464800" lon="-2.83787700"><ele></ele><time>2014-4-25T4:45:10Z</time></trkpt>
<trkpt lat="47.74460300" lon="-2.83788100"><ele></ele><time>2014-4-25T4:45:13Z</time></trkpt>
<trkpt lat="47.74444500" lon="-2.83786400"><ele></ele><time>2014-4-25T4:45:16Z</time></trkpt>
<trkpt lat="47.74407200" lon="-2.83774700"><ele></ele><time>2014-4-25T4:45:19Z</time></trkpt>
<trkpt lat="47.74356700" lon="-2.83754000"><ele></ele><time>2014-4-25T4:45:22Z</time></trkpt>
<trkpt lat="47.74341000" lon="-2.83745500"><ele></ele><time>2014-4-25T4:45:25Z</time></trkpt>
<trkpt lat="47.74307900" lon="-2.83717900"><ele></ele><time>2014-4-25T4:45:28Z</time></trkpt>
<trkpt lat="47.74268400" lon="-2.83681900"><ele></ele><time>2014-4-25T4:45:31Z</time></trkpt>
<trkpt lat="47.74256400" lon="-2.83671900"><ele></ele><time>2014-4-25T4:45:34Z</time></trkpt>
<trkpt lat="47.74256300" lon="-2.83675600"><ele></ele><time>2014-4-25T4:45:37Z</time></trkpt>
<trkpt lat="47.74249200" lon="-2.83695700"><ele></ele><time>2014-4-25T4:45:40Z</time></trkpt>
<trkpt lat="47.74240700" lon="-2.83711400"><ele></ele><time>2014-4-25T4:45:43Z</time></trkpt>
<trkpt lat="47.74236000" lon="-2.83717800"><ele></ele><time>2014-4-25T4:45:46Z</time></trkpt>
<trkpt lat="47.74230500" lon="-2.83717600"><ele></ele><time>2014-4-25T4:45:49Z</time></trkpt>
<trkpt lat="47.74230100" lon="-2.83717400"><ele></ele><time>2014-4-25T4:45:52Z</time></trkpt>
<trkpt lat="47.74229600" lon="-2.83717700"><ele></ele><time>2014-4-25T4:45:55Z</time></trkpt>
<trkpt lat="47.74228900" lon="-2.83718100"><ele></ele><time>2014-4-25T4:45:58Z</time></trkpt>
<trkpt lat="47.74228900" lon="-2.83716900"><ele></ele><time>2014-4-25T4:46:1Z</time></trkpt>
<trkpt lat="47.74229000" lon="-2.83716600"><ele></ele><time>2014-4-25T4:46:4Z</time></trkpt>
<trkpt lat="47.74231400" lon="-2.83719100"><ele></ele><time>2014-4-25T4:46:7Z</time></trkpt>
<trkpt lat="47.74231600" lon="-2.83719000"><ele></ele><time>2014-4-25T4:46:10Z</time></trkpt>
<trkpt lat="47.74229800" lon="-2.83716400"><ele></ele><time>2014-4-25T4:46:13Z</time></trkpt>
<trkpt lat="47.74230000" lon="-2.83716300"><ele></ele><time>2014-4-25T4:46:16Z</time></trkpt>
<trkpt lat="47.74230200" lon="-2.83716300"><ele></ele><time>2014-4-25T4:46:19Z</time></trkpt>
<trkpt lat="47.74232600" lon="-2.83716700"><ele></ele><time>2014-4-25T4:46:22Z</time></trkpt>
<trkpt lat="47.74232000" lon="-2.83719700"><ele></ele><time>2014-4-25T4:46:25Z</time></trkpt>
<trkpt lat="47.74232300" lon="-2.83720900"><ele></ele><time>2014-4-25T4:46:28Z</time></trkpt>
<trkpt lat="47.74235800" lon="-2.83725000"><ele></ele><time>2014-4-25T4:46:31Z</time></trkpt>
<trkpt lat="47.74239500" lon="-2.83729800"><ele></ele><time>2014-4-25T4:46:34Z</time></trkpt>
<trkpt lat="47.74237300" lon="-2.83733000"><ele></ele><time>2014-4-25T4:46:37Z</time></trkpt>
<trkpt lat="47.74236100" lon="-2.83734200"><ele></ele><time>2014-4-25T4:46:40Z</time></trkpt>
<trkpt lat="47.74234800" lon="-2.83738200"><ele></ele><time>2014-4-25T4:46:43Z</time></trkpt>
<trkpt lat="47.74234600" lon="-2.83738700"><ele></ele><time>2014-4-25T4:46:46Z</time></trkpt>
<trkpt lat="47.74234200" lon="-2.83739400"><ele></ele><time>2014-4-25T4:46:49Z</time></trkpt>
<trkpt lat="47.74234200" lon="-2.83735800"><ele></ele><time>2014-4-25T4:46:52Z</time></trkpt>
<trkpt lat="47.74234900" lon="-2.83731200"><ele></ele><time>2014-4-25T4:46:55Z</time></trkpt>
<trkpt lat="47.74235000" lon="-2.83731300"><ele></ele><time>2014-4-25T4:46:58Z</time></trkpt>
<trkpt lat="47.74234600" lon="-2.83733900"><ele></ele><time>2014-4-25T4:47:1Z</time></trkpt>
<trkpt lat="47.74235500" lon="-2.83732600"><ele></ele><time>2014-4-25T4:47:4Z</time></trkpt>
<trkpt lat="47.74235800" lon="-2.83732200"><ele></ele><time>2014-4-25T4:47:7Z</time></trkpt>
<trkpt lat="47.74236100" lon="-2.83731500"><ele></ele><time>2014-4-25T4:47:10Z</time></trkpt>
<trkpt lat="47.74235900" lon="-2.83731900"><ele></ele><time>2014-4-25T4:47:13Z</time></trkpt>
<trkpt lat="47.74236800" lon="-2.83730300"><ele></ele><time>2014-4-25T4:47:16Z</time></trkpt>
<trkpt lat="47.74237000" lon="-2.83730300"><ele></ele><time>2014-4-25T4:47:19Z</time></trkpt>
<trkpt lat="47.74237300" lon="-2.83733600"><ele></ele><time>2014-4-25T4:47:22Z</time></trkpt>
<trkpt lat="47.74234500" lon="-2.83752800"><ele></ele><time>2014-4-25T4:47:25Z</time></trkpt>
<trkpt lat="47.74230700" lon="-2.83761400"><ele></ele><time>2014-4-25T4:47:28Z</time></trkpt>
<trkpt lat="47.74216700" lon="-2.83790000"><ele></ele><time>2014-4-25T4:47:31Z</time></trkpt>
<trkpt lat="47.74203100" lon="-2.83817600"><ele></ele><time>2014-4-25T4:47:34Z</time></trkpt>
<trkpt lat="47.74202500" lon="-2.83839700"><ele></ele><time>2014-4-25T4:47:37Z</time></trkpt>
<trkpt lat="47.74195300" lon="-2.83864400"><ele></ele><time>2014-4-25T4:47:40Z</time></trkpt>
<trkpt lat="47.74186400" lon="-2.83872000"><ele></ele><time>2014-4-25T4:47:43Z</time></trkpt>
<trkpt lat="47.74176000" lon="-2.83877400"><ele></ele><time>2014-4-25T4:47:46Z</time></trkpt>
<trkpt lat="47.74146400" lon="-2.83884700"><ele></ele><time>2014-4-25T4:47:49Z</time></trkpt>
<trkpt lat="47.74100800" lon="-2.83893300"><ele></ele><time>2014-4-25T4:47:52Z</time></trkpt>
<trkpt lat="47.74055800" lon="-2.83910200"><ele></ele><time>2014-4-25T4:47:55Z</time></trkpt>
<trkpt lat="47.74028800" lon="-2.83922600"><ele></ele><time>2014-4-25T4:47:58Z</time></trkpt>
<trkpt lat="47.74013500" lon="-2.83926700"><ele></ele><time>2014-4-25T4:48:1Z</time></trkpt>
<trkpt lat="47.73999000" lon="-2.83925300"><ele></ele><time>2014-4-25T4:48:4Z</time></trkpt>
<trkpt lat="47.73986600" lon="-2.83920600"><ele></ele><time>2014-4-25T4:48:7Z</time></trkpt>
<trkpt lat="47.73982600" lon="-2.83918200"><ele></ele><time>2014-4-25T4:48:10Z</time></trkpt>
<trkpt lat="47.73978500" lon="-2.83915800"><ele></ele><time>2014-4-25T4:48:13Z</time></trkpt>
<trkpt lat="47.73946500" lon="-2.83896900"><ele></ele><time>2014-4-25T4:48:16Z</time></trkpt>
<trkpt lat="47.73907400" lon="-2.83891100"><ele></ele><time>2014-4-25T4:48:19Z</time></trkpt>
<trkpt lat="47.73863300" lon="-2.83890200"><ele></ele><time>2014-4-25T4:48:22Z</time></trkpt>
<trkpt lat="47.73833500" lon="-2.83892000"><ele></ele><time>2014-4-25T4:48:25Z</time></trkpt>
<trkpt lat="47.73795700" lon="-2.83910400"><ele></ele><time>2014-4-25T4:48:28Z</time></trkpt>
<trkpt lat="47.73774100" lon="-2.83931100"><ele></ele><time>2014-4-25T4:48:31Z</time></trkpt>
<trkpt lat="47.73742500" lon="-2.83967300"><ele></ele><time>2014-4-25T4:48:34Z</time></trkpt>
<trkpt lat="47.73724600" lon="-2.84014500"><ele></ele><time>2014-4-25T4:48:37Z</time></trkpt>
<trkpt lat="47.73730800" lon="-2.84030300"><ele></ele><time>2014-4-25T4:48:40Z</time></trkpt>
<trkpt lat="47.73735900" lon="-2.84035400"><ele></ele><time>2014-4-25T4:48:43Z</time></trkpt>
<trkpt lat="47.73750200" lon="-2.84063100"><ele></ele><time>2014-4-25T4:48:46Z</time></trkpt>
<trkpt lat="47.73751700" lon="-2.84067700"><ele></ele><time>2014-4-25T4:48:49Z</time></trkpt>
<trkpt lat="47.73758600" lon="-2.84089000"><ele></ele><time>2014-4-25T4:48:52Z</time></trkpt>
<trkpt lat="47.73760800" lon="-2.84094900"><ele></ele><time>2014-4-25T4:48:55Z</time></trkpt>
<trkpt lat="47.73770200" lon="-2.84125700"><ele></ele><time>2014-4-25T4:48:58Z</time></trkpt>
<trkpt lat="47.73785300" lon="-2.84131400"><ele></ele><time>2014-4-25T4:49:1Z</time></trkpt>
<trkpt lat="47.73825000" lon="-2.84152100"><ele></ele><time>2014-4-25T4:49:4Z</time></trkpt>
<trkpt lat="47.73868100" lon="-2.84172500"><ele></ele><time>2014-4-25T4:49:7Z</time></trkpt>
<trkpt lat="47.73911200" lon="-2.84185800"><ele></ele><time>2014-4-25T4:49:10Z</time></trkpt>
<trkpt lat="47.73921500" lon="-2.84183300"><ele></ele><time>2014-4-25T4:49:13Z</time></trkpt>
<trkpt lat="47.73921300" lon="-2.84198300"><ele></ele><time>2014-4-25T4:49:16Z</time></trkpt>
<trkpt lat="47.73920900" lon="-2.84203900"><ele></ele><time>2014-4-25T4:49:19Z</time></trkpt>
<trkpt lat="47.73920100" lon="-2.84220300"><ele></ele><time>2014-4-25T4:49:22Z</time></trkpt>
<trkpt lat="47.73920600" lon="-2.84234900"><ele></ele><time>2014-4-25T4:49:25Z</time></trkpt>
<trkpt lat="47.73921100" lon="-2.84249800"><ele></ele><time>2014-4-25T4:49:28Z</time></trkpt>
<trkpt lat="47.73917500" lon="-2.84302300"><ele></ele><time>2014-4-25T4:49:31Z</time></trkpt>
<trkpt lat="47.73909500" lon="-2.84353000"><ele></ele><time>2014-4-25T4:49:34Z</time></trkpt>
<trkpt lat="47.73900000" lon="-2.84397700"><ele></ele><time>2014-4-25T4:49:37Z</time></trkpt>
<trkpt lat="47.73898300" lon="-2.84405100"><ele></ele><time>2014-4-25T4:49:40Z</time></trkpt>
<trkpt lat="47.73901200" lon="-2.84423400"><ele></ele><time>2014-4-25T4:49:43Z</time></trkpt>
<trkpt lat="47.73904100" lon="-2.84424500"><ele></ele><time>2014-4-25T4:49:46Z</time></trkpt>
<trkpt lat="47.73930900" lon="-2.84425600"><ele></ele><time>2014-4-25T4:49:49Z</time></trkpt>
<trkpt lat="47.73942600" lon="-2.84423000"><ele></ele><time>2014-4-25T4:49:52Z</time></trkpt>
<trkpt lat="47.73954900" lon="-2.84423400"><ele></ele><time>2014-4-25T4:49:55Z</time></trkpt>
<trkpt lat="47.73978400" lon="-2.84419900"><ele></ele><time>2014-4-25T4:49:58Z</time></trkpt>
<trkpt lat="47.74004000" lon="-2.84413200"><ele></ele><time>2014-4-25T4:50:1Z</time></trkpt>
<trkpt lat="47.74031600" lon="-2.84406700"><ele></ele><time>2014-4-25T4:50:4Z</time></trkpt>
<trkpt lat="47.74056300" lon="-2.84400800"><ele></ele><time>2014-4-25T4:50:7Z</time></trkpt>
<trkpt lat="47.74084200" lon="-2.84393900"><ele></ele><time>2014-4-25T4:50:10Z</time></trkpt>
<trkpt lat="47.74121400" lon="-2.84384200"><ele></ele><time>2014-4-25T4:50:13Z</time></trkpt>
<trkpt lat="47.74138800" lon="-2.84380100"><ele></ele><time>2014-4-25T4:50:16Z</time></trkpt>
<trkpt lat="47.74170800" lon="-2.84373000"><ele></ele><time>2014-4-25T4:50:19Z</time></trkpt>
<trkpt lat="47.74194800" lon="-2.84367300"><ele></ele><time>2014-4-25T4:50:22Z</time></trkpt>
<trkpt lat="47.74212400" lon="-2.84363500"><ele></ele><time>2014-4-25T4:50:25Z</time></trkpt>
<trkpt lat="47.74232700" lon="-2.84349200"><ele></ele><time>2014-4-25T4:50:28Z</time></trkpt>
<trkpt lat="47.74245300" lon="-2.84333500"><ele></ele><time>2014-4-25T4:50:31Z</time></trkpt>
<trkpt lat="47.74276700" lon="-2.84319700"><ele></ele><time>2014-4-25T4:50:34Z</time></trkpt>
<trkpt lat="47.74301500" lon="-2.84310300"><ele></ele><time>2014-4-25T4:50:37Z</time></trkpt>
<trkpt lat="47.74308900" lon="-2.84306600"><ele></ele><time>2014-4-25T4:50:40Z</time></trkpt>
<trkpt lat="47.74320700" lon="-2.84315200"><ele></ele><time>2014-4-25T4:50:43Z</time></trkpt>
<trkpt lat="47.74342500" lon="-2.84357700"><ele></ele><time>2014-4-25T4:50:46Z</time></trkpt>
<trkpt lat="47.74352700" lon="-2.84386200"><ele></ele><time>2014-4-25T4:50:49Z</time></trkpt>
<trkpt lat="47.74362800" lon="-2.84426400"><ele></ele><time>2014-4-25T4:50:52Z</time></trkpt>
<trkpt lat="47.74370600" lon="-2.84482000"><ele></ele><time>2014-4-25T4:50:55Z</time></trkpt>
<trkpt lat="47.74371600" lon="-2.84489500"><ele></ele><time>2014-4-25T4:50:58Z</time></trkpt>
<trkpt lat="47.74373500" lon="-2.84520600"><ele></ele><time>2014-4-25T4:51:1Z</time></trkpt>
<trkpt lat="47.74384900" lon="-2.84594200"><ele></ele><time>2014-4-25T4:51:4Z</time></trkpt>
<trkpt lat="47.74392600" lon="-2.84647900"><ele></ele><time>2014-4-25T4:51:7Z</time></trkpt>
<trkpt lat="47.74399500" lon="-2.84692600"><ele></ele><time>2014-4-25T4:51:10Z</time></trkpt>
<trkpt lat="47.74408200" lon="-2.84743700"><ele></ele><time>2014-4-25T4:51:13Z</time></trkpt>
<trkpt lat="47.74416200" lon="-2.84767300"><ele></ele><time>2014-4-25T4:51:16Z</time></trkpt>
<trkpt lat="47.74424800" lon="-2.84764000"><ele></ele><time>2014-4-25T4:51:19Z</time></trkpt>
<trkpt lat="47.74448700" lon="-2.84747600"><ele></ele><time>2014-4-25T4:51:22Z</time></trkpt>
<trkpt lat="47.74456100" lon="-2.84742900"><ele></ele><time>2014-4-25T4:51:25Z</time></trkpt>
<trkpt lat="47.74484000" lon="-2.84726200"><ele></ele><time>2014-4-25T4:51:28Z</time></trkpt>
<trkpt lat="47.74514700" lon="-2.84704100"><ele></ele><time>2014-4-25T4:51:31Z</time></trkpt>
<trkpt lat="47.74540800" lon="-2.84680300"><ele></ele><time>2014-4-25T4:51:34Z</time></trkpt>
<trkpt lat="47.74556400" lon="-2.84668100"><ele></ele><time>2014-4-25T4:51:37Z</time></trkpt>
<trkpt lat="47.74578900" lon="-2.84655400"><ele></ele><time>2014-4-25T4:51:40Z</time></trkpt>
<trkpt lat="47.74599400" lon="-2.84645000"><ele></ele><time>2014-4-25T4:51:43Z</time></trkpt>
<trkpt lat="47.74610700" lon="-2.84639300"><ele></ele><time>2014-4-25T4:51:46Z</time></trkpt>
<trkpt lat="47.74628600" lon="-2.84630100"><ele></ele><time>2014-4-25T4:51:49Z</time></trkpt>
<trkpt lat="47.74630100" lon="-2.84629500"><ele></ele><time>2014-4-25T4:51:52Z</time></trkpt>
<trkpt lat="47.74640800" lon="-2.84626600"><ele></ele><time>2014-4-25T4:51:55Z</time></trkpt>
<trkpt lat="47.74657900" lon="-2.84619000"><ele></ele><time>2014-4-25T4:51:58Z</time></trkpt>
<trkpt lat="47.74677600" lon="-2.84608500"><ele></ele><time>2014-4-25T4:52:1Z</time></trkpt>
<trkpt lat="47.74692700" lon="-2.84601400"><ele></ele><time>2014-4-25T4:52:4Z</time></trkpt>
<trkpt lat="47.74705800" lon="-2.84593600"><ele></ele><time>2014-4-25T4:52:7Z</time></trkpt>
<trkpt lat="47.74715000" lon="-2.84589900"><ele></ele><time>2014-4-25T4:52:10Z</time></trkpt>
<trkpt lat="47.74719600" lon="-2.84589800"><ele></ele><time>2014-4-25T4:52:13Z</time></trkpt>
<trkpt lat="47.74730100" lon="-2.84582900"><ele></ele><time>2014-4-25T4:52:16Z</time></trkpt>
<trkpt lat="47.74734400" lon="-2.84580600"><ele></ele><time>2014-4-25T4:52:19Z</time></trkpt>
<trkpt lat="47.74740400" lon="-2.84576800"><ele></ele><time>2014-4-25T4:52:22Z</time></trkpt>
<trkpt lat="47.74743000" lon="-2.84574700"><ele></ele><time>2014-4-25T4:52:25Z</time></trkpt>
<trkpt lat="47.74749500" lon="-2.84576900"><ele></ele><time>2014-4-25T4:52:28Z</time></trkpt>
<trkpt lat="47.74751600" lon="-2.84575200"><ele></ele><time>2014-4-25T4:52:31Z</time></trkpt>
<trkpt lat="47.74757400" lon="-2.84564300"><ele></ele><time>2014-4-25T4:52:34Z</time></trkpt>
<trkpt lat="47.74769800" lon="-2.84558500"><ele></ele><time>2014-4-25T4:52:37Z</time></trkpt>
<trkpt lat="47.74778100" lon="-2.84556600"><ele></ele><time>2014-4-25T4:52:40Z</time></trkpt>
<trkpt lat="47.74788500" lon="-2.84555500"><ele></ele><time>2014-4-25T4:52:43Z</time></trkpt>
<trkpt lat="47.74801800" lon="-2.84546800"><ele></ele><time>2014-4-25T4:52:46Z</time></trkpt>
<trkpt lat="47.74808800" lon="-2.84543700"><ele></ele><time>2014-4-25T4:52:49Z</time></trkpt>
<trkpt lat="47.74812100" lon="-2.84538000"><ele></ele><time>2014-4-25T4:52:52Z</time></trkpt>
<trkpt lat="47.74823200" lon="-2.84535800"><ele></ele><time>2014-4-25T4:52:55Z</time></trkpt>
<trkpt lat="47.74834000" lon="-2.84558800"><ele></ele><time>2014-4-25T4:52:58Z</time></trkpt>
<trkpt lat="47.74847900" lon="-2.84589300"><ele></ele><time>2014-4-25T4:53:1Z</time></trkpt>
<trkpt lat="47.74867500" lon="-2.84637500"><ele></ele><time>2014-4-25T4:53:4Z</time></trkpt>
<trkpt lat="47.74878600" lon="-2.84665800"><ele></ele><time>2014-4-25T4:53:7Z</time></trkpt>
<trkpt lat="47.74897000" lon="-2.84710700"><ele></ele><time>2014-4-25T4:53:10Z</time></trkpt>
<trkpt lat="47.74899500" lon="-2.84715900"><ele></ele><time>2014-4-25T4:53:13Z</time></trkpt>
<trkpt lat="47.74914100" lon="-2.84727300"><ele></ele><time>2014-4-25T4:53:16Z</time></trkpt>
<trkpt lat="47.74918600" lon="-2.84726400"><ele></ele><time>2014-4-25T4:53:19Z</time></trkpt>
<trkpt lat="47.74940200" lon="-2.84718700"><ele></ele><time>2014-4-25T4:53:22Z</time></trkpt>
<trkpt lat="47.74972800" lon="-2.84705200"><ele></ele><time>2014-4-25T4:53:25Z</time></trkpt>
<trkpt lat="47.74991000" lon="-2.84709000"><ele></ele><time>2014-4-25T4:53:28Z</time></trkpt>
<trkpt lat="47.74992600" lon="-2.84715200"><ele></ele><time>2014-4-25T4:53:31Z</time></trkpt>
<trkpt lat="47.74989100" lon="-2.84711000"><ele></ele><time>2014-4-25T4:53:34Z</time></trkpt>
<trkpt lat="47.74980000" lon="-2.84703400"><ele></ele><time>2014-4-25T4:53:37Z</time></trkpt>
<trkpt lat="47.74978000" lon="-2.84701000"><ele></ele><time>2014-4-25T4:53:40Z</time></trkpt>
<trkpt lat="47.74977600" lon="-2.84697700"><ele></ele><time>2014-4-25T4:53:43Z</time></trkpt>
<trkpt lat="47.74981300" lon="-2.84689800"><ele></ele><time>2014-4-25T4:53:46Z</time></trkpt>
<trkpt lat="47.74983600" lon="-2.84685000"><ele></ele><time>2014-4-25T4:53:49Z</time></trkpt>
<trkpt lat="47.74986100" lon="-2.84679800"><ele></ele><time>2014-4-25T4:53:52Z</time></trkpt>
<trkpt lat="47.74992400" lon="-2.84667900"><ele></ele><time>2014-4-25T4:53:55Z</time></trkpt>
<trkpt lat="47.75005000" lon="-2.84653800"><ele></ele><time>2014-4-25T4:53:58Z</time></trkpt>
<trkpt lat="47.75011100" lon="-2.84640200"><ele></ele><time>2014-4-25T4:54:1Z</time></trkpt>
<trkpt lat="47.75021700" lon="-2.84619800"><ele></ele><time>2014-4-25T4:54:4Z</time></trkpt>
<trkpt lat="47.75032400" lon="-2.84611700"><ele></ele><time>2014-4-25T4:54:7Z</time></trkpt>
<trkpt lat="47.75042200" lon="-2.84595100"><ele></ele><time>2014-4-25T4:54:10Z</time></trkpt>
<trkpt lat="47.75037900" lon="-2.84579000"><ele></ele><time>2014-4-25T4:54:13Z</time></trkpt>
<trkpt lat="47.75031100" lon="-2.84554700"><ele></ele><time>2014-4-25T4:54:16Z</time></trkpt>
<trkpt lat="47.75025700" lon="-2.84531700"><ele></ele><time>2014-4-25T4:54:19Z</time></trkpt>
<trkpt lat="47.75022700" lon="-2.84513700"><ele></ele><time>2014-4-25T4:54:22Z</time></trkpt>
<trkpt lat="47.75022100" lon="-2.84504900"><ele></ele><time>2014-4-25T4:54:25Z</time></trkpt>
<trkpt lat="47.75029200" lon="-2.84497400"><ele></ele><time>2014-4-25T4:54:28Z</time></trkpt>
<trkpt lat="47.75041900" lon="-2.84490200"><ele></ele><time>2014-4-25T4:54:31Z</time></trkpt>
<trkpt lat="47.75055500" lon="-2.84482500"><ele></ele><time>2014-4-25T4:54:34Z</time></trkpt>
<trkpt lat="47.75064200" lon="-2.84476000"><ele></ele><time>2014-4-25T4:54:37Z</time></trkpt>
<trkpt lat="47.75076900" lon="-2.84470400"><ele></ele><time>2014-4-25T4:54:40Z</time></trkpt>
<trkpt lat="47.75097500" lon="-2.84460800"><ele></ele><time>2014-4-25T4:54:43Z</time></trkpt>
<trkpt lat="47.75115800" lon="-2.84452100"><ele></ele><time>2014-4-25T4:54:46Z</time></trkpt>
<trkpt lat="47.75136400" lon="-2.84441900"><ele></ele><time>2014-4-25T4:54:49Z</time></trkpt>
<trkpt lat="47.75151500" lon="-2.84442200"><ele></ele><time>2014-4-25T4:54:52Z</time></trkpt>
<trkpt lat="47.75153800" lon="-2.84453200"><ele></ele><time>2014-4-25T4:54:55Z</time></trkpt>
<trkpt lat="47.75150800" lon="-2.84477200"><ele></ele><time>2014-4-25T4:54:58Z</time></trkpt>
<trkpt lat="47.75147100" lon="-2.84518200"><ele></ele><time>2014-4-25T4:55:1Z</time></trkpt>
<trkpt lat="47.75144400" lon="-2.84554200"><ele></ele><time>2014-4-25T4:55:4Z</time></trkpt>
<trkpt lat="47.75142100" lon="-2.84591300"><ele></ele><time>2014-4-25T4:55:7Z</time></trkpt>
<trkpt lat="47.75144300" lon="-2.84616900"><ele></ele><time>2014-4-25T4:55:10Z</time></trkpt>
<trkpt lat="47.75148000" lon="-2.84648300"><ele></ele><time>2014-4-25T4:55:13Z</time></trkpt>
<trkpt lat="47.75148800" lon="-2.84683900"><ele></ele><time>2014-4-25T4:55:16Z</time></trkpt>
<trkpt lat="47.75152200" lon="-2.84716900"><ele></ele><time>2014-4-25T4:55:19Z</time></trkpt>
<trkpt lat="47.75158000" lon="-2.84734800"><ele></ele><time>2014-4-25T4:55:22Z</time></trkpt>
<trkpt lat="47.75152000" lon="-2.84753900"><ele></ele><time>2014-4-25T4:55:25Z</time></trkpt>
<trkpt lat="47.75136700" lon="-2.84771800"><ele></ele><time>2014-4-25T4:55:28Z</time></trkpt>
<trkpt lat="47.75108100" lon="-2.84776800"><ele></ele><time>2014-4-25T4:55:31Z</time></trkpt>
<trkpt lat="47.75083000" lon="-2.84770600"><ele></ele><time>2014-4-25T4:55:34Z</time></trkpt>
<trkpt lat="47.75057800" lon="-2.84783000"><ele></ele><time>2014-4-25T4:55:37Z</time></trkpt>
<trkpt lat="47.75028400" lon="-2.84786600"><ele></ele><time>2014-4-25T4:55:40Z</time></trkpt>
<trkpt lat="47.75015700" lon="-2.84778400"><ele></ele><time>2014-4-25T4:55:43Z</time></trkpt>
<trkpt lat="47.75007600" lon="-2.84764700"><ele></ele><time>2014-4-25T4:55:46Z</time></trkpt>
<trkpt lat="47.75002600" lon="-2.84740100"><ele></ele><time>2014-4-25T4:55:49Z</time></trkpt>
<trkpt lat="47.74996500" lon="-2.84726800"><ele></ele><time>2014-4-25T4:55:52Z</time></trkpt>
<trkpt lat="47.74992700" lon="-2.84731800"><ele></ele><time>2014-4-25T4:55:55Z</time></trkpt>
<trkpt lat="47.74995600" lon="-2.84757300"><ele></ele><time>2014-4-25T4:55:58Z</time></trkpt>
<trkpt lat="47.74997000" lon="-2.84800100"><ele></ele><time>2014-4-25T4:56:1Z</time></trkpt>
<trkpt lat="47.74994900" lon="-2.84830700"><ele></ele><time>2014-4-25T4:56:4Z</time></trkpt>
<trkpt lat="47.74986900" lon="-2.84865800"><ele></ele><time>2014-4-25T4:56:7Z</time></trkpt>
<trkpt lat="47.74975600" lon="-2.84917100"><ele></ele><time>2014-4-25T4:56:10Z</time></trkpt>
<trkpt lat="47.74971800" lon="-2.84952900"><ele></ele><time>2014-4-25T4:56:13Z</time></trkpt>
<trkpt lat="47.74976000" lon="-2.84990200"><ele></ele><time>2014-4-25T4:56:16Z</time></trkpt>
<trkpt lat="47.74987200" lon="-2.85035300"><ele></ele><time>2014-4-25T4:56:19Z</time></trkpt>
<trkpt lat="47.75006400" lon="-2.85069400"><ele></ele><time>2014-4-25T4:56:22Z</time></trkpt>
<trkpt lat="47.75020300" lon="-2.85097000"><ele></ele><time>2014-4-25T4:56:25Z</time></trkpt>
<trkpt lat="47.75029800" lon="-2.85139000"><ele></ele><time>2014-4-25T4:56:28Z</time></trkpt>
<trkpt lat="47.75036700" lon="-2.85173800"><ele></ele><time>2014-4-25T4:56:31Z</time></trkpt>
<trkpt lat="47.75041900" lon="-2.85197300"><ele></ele><time>2014-4-25T4:56:34Z</time></trkpt>
<trkpt lat="47.75053500" lon="-2.85212500"><ele></ele><time>2014-4-25T4:56:37Z</time></trkpt>
<trkpt lat="47.75062400" lon="-2.85206500"><ele></ele><time>2014-4-25T4:56:40Z</time></trkpt>
<trkpt lat="47.75101200" lon="-2.85176300"><ele></ele><time>2014-4-25T4:56:43Z</time></trkpt>
<trkpt lat="47.75125900" lon="-2.85156400"><ele></ele><time>2014-4-25T4:56:46Z</time></trkpt>
<trkpt lat="47.75148900" lon="-2.85139100"><ele></ele><time>2014-4-25T4:56:49Z</time></trkpt>
<trkpt lat="47.75162600" lon="-2.85130200"><ele></ele><time>2014-4-25T4:56:52Z</time></trkpt>
<trkpt lat="47.75175400" lon="-2.85122500"><ele></ele><time>2014-4-25T4:56:55Z</time></trkpt>
<trkpt lat="47.75198600" lon="-2.85108700"><ele></ele><time>2014-4-25T4:56:58Z</time></trkpt>
<trkpt lat="47.75215300" lon="-2.85097000"><ele></ele><time>2014-4-25T4:57:1Z</time></trkpt>
<trkpt lat="47.75235400" lon="-2.85085300"><ele></ele><time>2014-4-25T4:57:4Z</time></trkpt>
<trkpt lat="47.75252800" lon="-2.85070300"><ele></ele><time>2014-4-25T4:57:7Z</time></trkpt>
<trkpt lat="47.75268100" lon="-2.85054100"><ele></ele><time>2014-4-25T4:57:10Z</time></trkpt>
<trkpt lat="47.75281100" lon="-2.85045700"><ele></ele><time>2014-4-25T4:57:13Z</time></trkpt>
<trkpt lat="47.75293800" lon="-2.85036200"><ele></ele><time>2014-4-25T4:57:16Z</time></trkpt>
<trkpt lat="47.75316000" lon="-2.85018000"><ele></ele><time>2014-4-25T4:57:19Z</time></trkpt>
<trkpt lat="47.75338300" lon="-2.85003300"><ele></ele><time>2014-4-25T4:57:22Z</time></trkpt>
<trkpt lat="47.75354900" lon="-2.84993300"><ele></ele><time>2014-4-25T4:57:25Z</time></trkpt>
<trkpt lat="47.75370500" lon="-2.84983600"><ele></ele><time>2014-4-25T4:57:28Z</time></trkpt>
<trkpt lat="47.75388700" lon="-2.84969100"><ele></ele><time>2014-4-25T4:57:31Z</time></trkpt>
<trkpt lat="47.75401000" lon="-2.84959800"><ele></ele><time>2014-4-25T4:57:34Z</time></trkpt>
<trkpt lat="47.75412200" lon="-2.84948700"><ele></ele><time>2014-4-25T4:57:37Z</time></trkpt>
<trkpt lat="47.75431800" lon="-2.84932200"><ele></ele><time>2014-4-25T4:57:40Z</time></trkpt>
<trkpt lat="47.75448000" lon="-2.84923500"><ele></ele><time>2014-4-25T4:57:43Z</time></trkpt>
<trkpt lat="47.75469900" lon="-2.84911400"><ele></ele><time>2014-4-25T4:57:46Z</time></trkpt>
<trkpt lat="47.75478900" lon="-2.84907800"><ele></ele><time>2014-4-25T4:57:49Z</time></trkpt>
<trkpt lat="47.75483300" lon="-2.84913500"><ele></ele><time>2014-4-25T4:57:52Z</time></trkpt>
<trkpt lat="47.75481000" lon="-2.84917500"><ele></ele><time>2014-4-25T4:57:55Z</time></trkpt>
<trkpt lat="47.75469000" lon="-2.84937400"><ele></ele><time>2014-4-25T4:57:58Z</time></trkpt>
<trkpt lat="47.75465200" lon="-2.84946900"><ele></ele><time>2014-4-25T4:58:1Z</time></trkpt>
<trkpt lat="47.75471000" lon="-2.84942900"><ele></ele><time>2014-4-25T4:58:4Z</time></trkpt>
<trkpt lat="47.75471100" lon="-2.84942500"><ele></ele><time>2014-4-25T4:58:7Z</time></trkpt>
<trkpt lat="47.75471100" lon="-2.84942200"><ele></ele><time>2014-4-25T4:58:10Z</time></trkpt>
<trkpt lat="47.75470200" lon="-2.84939600"><ele></ele><time>2014-4-25T4:58:13Z</time></trkpt>
<trkpt lat="47.75470000" lon="-2.84939600"><ele></ele><time>2014-4-25T4:58:16Z</time></trkpt>
<trkpt lat="47.75468900" lon="-2.84940200"><ele></ele><time>2014-4-25T4:58:19Z</time></trkpt>
<trkpt lat="47.75469100" lon="-2.84939900"><ele></ele><time>2014-4-25T4:58:22Z</time></trkpt>
<trkpt lat="47.75468100" lon="-2.84945900"><ele></ele><time>2014-4-25T4:58:25Z</time></trkpt>
<trkpt lat="47.75468000" lon="-2.84945800"><ele></ele><time>2014-4-25T4:58:28Z</time></trkpt>
<trkpt lat="47.75468100" lon="-2.84945800"><ele></ele><time>2014-4-25T4:58:31Z</time></trkpt>
<trkpt lat="47.75468200" lon="-2.84945800"><ele></ele><time>2014-4-25T4:58:34Z</time></trkpt>
<trkpt lat="47.75468200" lon="-2.84945700"><ele></ele><time>2014-4-25T4:58:37Z</time></trkpt>
<trkpt lat="47.75467800" lon="-2.84945900"><ele></ele><time>2014-4-25T4:58:40Z</time></trkpt>
<trkpt lat="47.75466000" lon="-2.84957500"><ele></ele><time>2014-4-25T4:58:43Z</time></trkpt>
<trkpt lat="47.75473800" lon="-2.84979200"><ele></ele><time>2014-4-25T4:58:46Z</time></trkpt>
<trkpt lat="47.75478600" lon="-2.84994000"><ele></ele><time>2014-4-25T4:58:49Z</time></trkpt>
<trkpt lat="47.75492800" lon="-2.85028400"><ele></ele><time>2014-4-25T4:58:52Z</time></trkpt>
<trkpt lat="47.75488200" lon="-2.85048600"><ele></ele><time>2014-4-25T4:58:55Z</time></trkpt>
<trkpt lat="47.75470600" lon="-2.85068700"><ele></ele><time>2014-4-25T4:58:58Z</time></trkpt>
<trkpt lat="47.75457600" lon="-2.85080100"><ele></ele><time>2014-4-25T4:59:1Z</time></trkpt>
<trkpt lat="47.75443400" lon="-2.85096900"><ele></ele><time>2014-4-25T4:59:4Z</time></trkpt>
<trkpt lat="47.75432800" lon="-2.85127400"><ele></ele><time>2014-4-25T4:59:7Z</time></trkpt>
<trkpt lat="47.75430300" lon="-2.85146800"><ele></ele><time>2014-4-25T4:59:10Z</time></trkpt>
<trkpt lat="47.75439800" lon="-2.85168900"><ele></ele><time>2014-4-25T4:59:13Z</time></trkpt>
<trkpt lat="47.75444800" lon="-2.85176700"><ele></ele><time>2014-4-25T4:59:16Z</time></trkpt>
<trkpt lat="47.75460000" lon="-2.85198300"><ele></ele><time>2014-4-25T4:59:19Z</time></trkpt>
<trkpt lat="47.75468100" lon="-2.85212900"><ele></ele><time>2014-4-25T4:59:22Z</time></trkpt>
<trkpt lat="47.75469300" lon="-2.85229100"><ele></ele><time>2014-4-25T4:59:25Z</time></trkpt>
<trkpt lat="47.75475100" lon="-2.85244500"><ele></ele><time>2014-4-25T4:59:28Z</time></trkpt>
<trkpt lat="47.75488100" lon="-2.85263900"><ele></ele><time>2014-4-25T4:59:31Z</time></trkpt>
<trkpt lat="47.75500400" lon="-2.85284900"><ele></ele><time>2014-4-25T4:59:34Z</time></trkpt>
<trkpt lat="47.75501800" lon="-2.85297100"><ele></ele><time>2014-4-25T4:59:37Z</time></trkpt>
<trkpt lat="47.75499300" lon="-2.85319700"><ele></ele><time>2014-4-25T4:59:40Z</time></trkpt>
<trkpt lat="47.75494200" lon="-2.85341400"><ele></ele><time>2014-4-25T4:59:43Z</time></trkpt>
<trkpt lat="47.75485100" lon="-2.85372500"><ele></ele><time>2014-4-25T4:59:46Z</time></trkpt>
<trkpt lat="47.75482400" lon="-2.85397600"><ele></ele><time>2014-4-25T4:59:49Z</time></trkpt>
<trkpt lat="47.75472800" lon="-2.85425100"><ele></ele><time>2014-4-25T4:59:52Z</time></trkpt>
<trkpt lat="47.75466700" lon="-2.85445300"><ele></ele><time>2014-4-25T4:59:55Z</time></trkpt>
<trkpt lat="47.75463300" lon="-2.85461300"><ele></ele><time>2014-4-25T4:59:58Z</time></trkpt>
<trkpt lat="47.75450700" lon="-2.85486900"><ele></ele><time>2014-4-25T5:0:1Z</time></trkpt>
<trkpt lat="47.75438700" lon="-2.85505400"><ele></ele><time>2014-4-25T5:0:4Z</time></trkpt>
<trkpt lat="47.75429400" lon="-2.85532100"><ele></ele><time>2014-4-25T5:0:7Z</time></trkpt>
<trkpt lat="47.75430700" lon="-2.85552500"><ele></ele><time>2014-4-25T5:0:10Z</time></trkpt>
<trkpt lat="47.75436700" lon="-2.85558400"><ele></ele><time>2014-4-25T5:0:13Z</time></trkpt>
<trkpt lat="47.75438400" lon="-2.85557800"><ele></ele><time>2014-4-25T5:0:16Z</time></trkpt>
<trkpt lat="47.75444100" lon="-2.85554500"><ele></ele><time>2014-4-25T5:0:19Z</time></trkpt>
<trkpt lat="47.75449000" lon="-2.85540000"><ele></ele><time>2014-4-25T5:0:22Z</time></trkpt>
<trkpt lat="47.75455100" lon="-2.85526100"><ele></ele><time>2014-4-25T5:0:25Z</time></trkpt>
<trkpt lat="47.75457400" lon="-2.85525000"><ele></ele><time>2014-4-25T5:0:28Z</time></trkpt>
<trkpt lat="47.75479900" lon="-2.85522900"><ele></ele><time>2014-4-25T5:0:31Z</time></trkpt>
<trkpt lat="47.75498100" lon="-2.85521600"><ele></ele><time>2014-4-25T5:0:34Z</time></trkpt>
<trkpt lat="47.75517600" lon="-2.85521900"><ele></ele><time>2014-4-25T5:0:37Z</time></trkpt>
<trkpt lat="47.75542900" lon="-2.85525600"><ele></ele><time>2014-4-25T5:0:40Z</time></trkpt>
<trkpt lat="47.75569100" lon="-2.85524600"><ele></ele><time>2014-4-25T5:0:43Z</time></trkpt>
<trkpt lat="47.75577800" lon="-2.85528700"><ele></ele><time>2014-4-25T5:0:46Z</time></trkpt>
<trkpt lat="47.75598700" lon="-2.85541900"><ele></ele><time>2014-4-25T5:0:49Z</time></trkpt>
<trkpt lat="47.75609400" lon="-2.85546300"><ele></ele><time>2014-4-25T5:0:52Z</time></trkpt>
<trkpt lat="47.75616800" lon="-2.85553400"><ele></ele><time>2014-4-25T5:0:55Z</time></trkpt>
<trkpt lat="47.75616200" lon="-2.85546500"><ele></ele><time>2014-4-25T5:0:58Z</time></trkpt>
<trkpt lat="47.75615200" lon="-2.85530200"><ele></ele><time>2014-4-25T5:1:1Z</time></trkpt>
<trkpt lat="47.75617000" lon="-2.85517900"><ele></ele><time>2014-4-25T5:1:4Z</time></trkpt>
<trkpt lat="47.75621800" lon="-2.85513000"><ele></ele><time>2014-4-25T5:1:7Z</time></trkpt>
<trkpt lat="47.75633200" lon="-2.85514800"><ele></ele><time>2014-4-25T5:1:10Z</time></trkpt>
<trkpt lat="47.75636400" lon="-2.85516000"><ele></ele><time>2014-4-25T5:1:13Z</time></trkpt>
<trkpt lat="47.75643800" lon="-2.85514800"><ele></ele><time>2014-4-25T5:1:16Z</time></trkpt>
<trkpt lat="47.75664000" lon="-2.85509600"><ele></ele><time>2014-4-25T5:1:19Z</time></trkpt>
<trkpt lat="47.75673800" lon="-2.85508500"><ele></ele><time>2014-4-25T5:1:22Z</time></trkpt>
<trkpt lat="47.75706700" lon="-2.85490400"><ele></ele><time>2014-4-25T5:1:25Z</time></trkpt>
<trkpt lat="47.75716100" lon="-2.85476100"><ele></ele><time>2014-4-25T5:1:28Z</time></trkpt>
<trkpt lat="47.75706600" lon="-2.85477500"><ele></ele><time>2014-4-25T5:1:31Z</time></trkpt>
<trkpt lat="47.75706200" lon="-2.85478200"><ele></ele><time>2014-4-25T5:1:34Z</time></trkpt>
<trkpt lat="47.75703900" lon="-2.85481300"><ele></ele><time>2014-4-25T5:1:37Z</time></trkpt>
<trkpt lat="47.75702100" lon="-2.85483900"><ele></ele><time>2014-4-25T5:1:40Z</time></trkpt>
<trkpt lat="47.75696300" lon="-2.85500200"><ele></ele><time>2014-4-25T5:1:43Z</time></trkpt>
<trkpt lat="47.75695000" lon="-2.85503500"><ele></ele><time>2014-4-25T5:1:46Z</time></trkpt>
<trkpt lat="47.75685500" lon="-2.85523200"><ele></ele><time>2014-4-25T5:1:49Z</time></trkpt>
<trkpt lat="47.75678000" lon="-2.85530600"><ele></ele><time>2014-4-25T5:1:52Z</time></trkpt>
<trkpt lat="47.75658600" lon="-2.85550700"><ele></ele><time>2014-4-25T5:1:55Z</time></trkpt>
<trkpt lat="47.75634100" lon="-2.85579900"><ele></ele><time>2014-4-25T5:1:58Z</time></trkpt>
<trkpt lat="47.75631200" lon="-2.85583800"><ele></ele><time>2014-4-25T5:2:1Z</time></trkpt>
<trkpt lat="47.75630100" lon="-2.85601700"><ele></ele><time>2014-4-25T5:2:4Z</time></trkpt>
<trkpt lat="47.75622900" lon="-2.85619200"><ele></ele><time>2014-4-25T5:2:7Z</time></trkpt>
<trkpt lat="47.75605700" lon="-2.85642800"><ele></ele><time>2014-4-25T5:2:10Z</time></trkpt>
<trkpt lat="47.75589200" lon="-2.85662700"><ele></ele><time>2014-4-25T5:2:13Z</time></trkpt>
<trkpt lat="47.75568200" lon="-2.85695900"><ele></ele><time>2014-4-25T5:2:16Z</time></trkpt>
<trkpt lat="47.75554800" lon="-2.85714400"><ele></ele><time>2014-4-25T5:2:19Z</time></trkpt>
<trkpt lat="47.75529300" lon="-2.85746500"><ele></ele><time>2014-4-25T5:2:22Z</time></trkpt>
<trkpt lat="47.75499800" lon="-2.85787300"><ele></ele><time>2014-4-25T5:2:25Z</time></trkpt>
<trkpt lat="47.75473500" lon="-2.85827200"><ele></ele><time>2014-4-25T5:2:28Z</time></trkpt>
<trkpt lat="47.75456100" lon="-2.85858900"><ele></ele><time>2014-4-25T5:2:31Z</time></trkpt>
<trkpt lat="47.75438800" lon="-2.85879500"><ele></ele><time>2014-4-25T5:2:34Z</time></trkpt>
<trkpt lat="47.75416500" lon="-2.85907000"><ele></ele><time>2014-4-25T5:2:37Z</time></trkpt>
<trkpt lat="47.75410700" lon="-2.85918900"><ele></ele><time>2014-4-25T5:2:40Z</time></trkpt>
<trkpt lat="47.75396300" lon="-2.85947800"><ele></ele><time>2014-4-25T5:2:43Z</time></trkpt>
<trkpt lat="47.75369000" lon="-2.85993000"><ele></ele><time>2014-4-25T5:2:46Z</time></trkpt>
<trkpt lat="47.75353700" lon="-2.86019000"><ele></ele><time>2014-4-25T5:2:49Z</time></trkpt>
<trkpt lat="47.75335000" lon="-2.86049900"><ele></ele><time>2014-4-25T5:2:52Z</time></trkpt>
<trkpt lat="47.75314900" lon="-2.86084200"><ele></ele><time>2014-4-25T5:2:55Z</time></trkpt>
<trkpt lat="47.75308000" lon="-2.86097800"><ele></ele><time>2014-4-25T5:2:58Z</time></trkpt>
<trkpt lat="47.75294600" lon="-2.86132800"><ele></ele><time>2014-4-25T5:3:1Z</time></trkpt>
<trkpt lat="47.75292700" lon="-2.86164200"><ele></ele><time>2014-4-25T5:3:4Z</time></trkpt>
<trkpt lat="47.75293900" lon="-2.86184800"><ele></ele><time>2014-4-25T5:3:7Z</time></trkpt>
<trkpt lat="47.75285000" lon="-2.86214100"><ele></ele><time>2014-4-25T5:3:10Z</time></trkpt>
<trkpt lat="47.75270700" lon="-2.86234200"><ele></ele><time>2014-4-25T5:3:13Z</time></trkpt>
<trkpt lat="47.75256900" lon="-2.86252500"><ele></ele><time>2014-4-25T5:3:16Z</time></trkpt>
<trkpt lat="47.75246700" lon="-2.86266900"><ele></ele><time>2014-4-25T5:3:19Z</time></trkpt>
<trkpt lat="47.75215000" lon="-2.86286300"><ele></ele><time>2014-4-25T5:3:22Z</time></trkpt>
<trkpt lat="47.75192800" lon="-2.86284800"><ele></ele><time>2014-4-25T5:3:25Z</time></trkpt>
<trkpt lat="47.75161200" lon="-2.86290400"><ele></ele><time>2014-4-25T5:3:28Z</time></trkpt>
<trkpt lat="47.75154900" lon="-2.86315300"><ele></ele><time>2014-4-25T5:3:31Z</time></trkpt>
<trkpt lat="47.75155200" lon="-2.86324400"><ele></ele><time>2014-4-25T5:3:34Z</time></trkpt>
<trkpt lat="47.75158800" lon="-2.86367800"><ele></ele><time>2014-4-25T5:3:37Z</time></trkpt>
<trkpt lat="47.75159600" lon="-2.86376100"><ele></ele><time>2014-4-25T5:3:40Z</time></trkpt>
<trkpt lat="47.75170500" lon="-2.86405200"><ele></ele><time>2014-4-25T5:3:43Z</time></trkpt>
<trkpt lat="47.75180700" lon="-2.86406300"><ele></ele><time>2014-4-25T5:3:46Z</time></trkpt>
<trkpt lat="47.75189300" lon="-2.86402100"><ele></ele><time>2014-4-25T5:3:49Z</time></trkpt>
<trkpt lat="47.75209500" lon="-2.86390600"><ele></ele><time>2014-4-25T5:3:52Z</time></trkpt>
<trkpt lat="47.75225500" lon="-2.86380800"><ele></ele><time>2014-4-25T5:3:55Z</time></trkpt>
<trkpt lat="47.75244500" lon="-2.86378900"><ele></ele><time>2014-4-25T5:3:58Z</time></trkpt>
<trkpt lat="47.75258000" lon="-2.86393100"><ele></ele><time>2014-4-25T5:4:1Z</time></trkpt>
<trkpt lat="47.75274600" lon="-2.86419500"><ele></ele><time>2014-4-25T5:4:4Z</time></trkpt>
<trkpt lat="47.75287600" lon="-2.86423900"><ele></ele><time>2014-4-25T5:4:7Z</time></trkpt>
<trkpt lat="47.75310000" lon="-2.86419100"><ele></ele><time>2014-4-25T5:4:10Z</time></trkpt>
<trkpt lat="47.75330900" lon="-2.86413100"><ele></ele><time>2014-4-25T5:4:13Z</time></trkpt>
<trkpt lat="47.75355800" lon="-2.86407400"><ele></ele><time>2014-4-25T5:4:16Z</time></trkpt>
<trkpt lat="47.75376900" lon="-2.86404600"><ele></ele><time>2014-4-25T5:4:19Z</time></trkpt>
<trkpt lat="47.75389900" lon="-2.86402900"><ele></ele><time>2014-4-25T5:4:22Z</time></trkpt>
<trkpt lat="47.75402100" lon="-2.86399100"><ele></ele><time>2014-4-25T5:4:25Z</time></trkpt>
<trkpt lat="47.75405300" lon="-2.86397700"><ele></ele><time>2014-4-25T5:4:28Z</time></trkpt>
<trkpt lat="47.75416600" lon="-2.86391300"><ele></ele><time>2014-4-25T5:4:31Z</time></trkpt>
<trkpt lat="47.75427900" lon="-2.86383000"><ele></ele><time>2014-4-25T5:4:34Z</time></trkpt>
<trkpt lat="47.75442000" lon="-2.86372100"><ele></ele><time>2014-4-25T5:4:37Z</time></trkpt>
<trkpt lat="47.75460500" lon="-2.86357400"><ele></ele><time>2014-4-25T5:4:40Z</time></trkpt>
<trkpt lat="47.75482600" lon="-2.86343500"><ele></ele><time>2014-4-25T5:4:43Z</time></trkpt>
<trkpt lat="47.75501900" lon="-2.86342700"><ele></ele><time>2014-4-25T5:4:46Z</time></trkpt>
<trkpt lat="47.75527300" lon="-2.86349300"><ele></ele><time>2014-4-25T5:4:49Z</time></trkpt>
<trkpt lat="47.75552300" lon="-2.86359200"><ele></ele><time>2014-4-25T5:4:52Z</time></trkpt>
<trkpt lat="47.75578200" lon="-2.86362700"><ele></ele><time>2014-4-25T5:4:55Z</time></trkpt>
<trkpt lat="47.75605800" lon="-2.86359700"><ele></ele><time>2014-4-25T5:4:58Z</time></trkpt>
<trkpt lat="47.75630600" lon="-2.86353500"><ele></ele><time>2014-4-25T5:5:1Z</time></trkpt>
<trkpt lat="47.75646700" lon="-2.86340800"><ele></ele><time>2014-4-25T5:5:4Z</time></trkpt>
<trkpt lat="47.75669700" lon="-2.86327700"><ele></ele><time>2014-4-25T5:5:7Z</time></trkpt>
<trkpt lat="47.75688800" lon="-2.86311400"><ele></ele><time>2014-4-25T5:5:10Z</time></trkpt>
<trkpt lat="47.75700200" lon="-2.86284100"><ele></ele><time>2014-4-25T5:5:13Z</time></trkpt>
<trkpt lat="47.75712100" lon="-2.86270900"><ele></ele><time>2014-4-25T5:5:16Z</time></trkpt>
<trkpt lat="47.75729900" lon="-2.86277700"><ele></ele><time>2014-4-25T5:5:19Z</time></trkpt>
<trkpt lat="47.75735800" lon="-2.86277800"><ele></ele><time>2014-4-25T5:5:22Z</time></trkpt>
<trkpt lat="47.75741200" lon="-2.86266500"><ele></ele><time>2014-4-25T5:5:25Z</time></trkpt>
<trkpt lat="47.75738400" lon="-2.86230300"><ele></ele><time>2014-4-25T5:5:28Z</time></trkpt>
<trkpt lat="47.75733800" lon="-2.86173000"><ele></ele><time>2014-4-25T5:5:31Z</time></trkpt>
<trkpt lat="47.75730100" lon="-2.86128000"><ele></ele><time>2014-4-25T5:5:34Z</time></trkpt>
<trkpt lat="47.75724500" lon="-2.86077500"><ele></ele><time>2014-4-25T5:5:37Z</time></trkpt>
<trkpt lat="47.75717800" lon="-2.86023600"><ele></ele><time>2014-4-25T5:5:40Z</time></trkpt>
<trkpt lat="47.75707400" lon="-2.85982200"><ele></ele><time>2014-4-25T5:5:43Z</time></trkpt>
<trkpt lat="47.75704200" lon="-2.85949100"><ele></ele><time>2014-4-25T5:5:46Z</time></trkpt>
<trkpt lat="47.75711600" lon="-2.85926200"><ele></ele><time>2014-4-25T5:5:49Z</time></trkpt>
<trkpt lat="47.75724300" lon="-2.85919200"><ele></ele><time>2014-4-25T5:5:52Z</time></trkpt>
<trkpt lat="47.75748700" lon="-2.85915600"><ele></ele><time>2014-4-25T5:5:55Z</time></trkpt>
<trkpt lat="47.75786900" lon="-2.85908000"><ele></ele><time>2014-4-25T5:5:58Z</time></trkpt>
<trkpt lat="47.75822400" lon="-2.85900800"><ele></ele><time>2014-4-25T5:6:1Z</time></trkpt>
<trkpt lat="47.75856700" lon="-2.85894300"><ele></ele><time>2014-4-25T5:6:4Z</time></trkpt>
<trkpt lat="47.75891000" lon="-2.85886900"><ele></ele><time>2014-4-25T5:6:7Z</time></trkpt>
<trkpt lat="47.75911800" lon="-2.85883600"><ele></ele><time>2014-4-25T5:6:10Z</time></trkpt>
<trkpt lat="47.75934600" lon="-2.85878300"><ele></ele><time>2014-4-25T5:6:13Z</time></trkpt>
<trkpt lat="47.75945000" lon="-2.85877500"><ele></ele><time>2014-4-25T5:6:16Z</time></trkpt>
<trkpt lat="47.75949300" lon="-2.85882800"><ele></ele><time>2014-4-25T5:6:19Z</time></trkpt>
<trkpt lat="47.75951800" lon="-2.85889300"><ele></ele><time>2014-4-25T5:6:22Z</time></trkpt>
<trkpt lat="47.75953000" lon="-2.85900100"><ele></ele><time>2014-4-25T5:6:25Z</time></trkpt>
<trkpt lat="47.75953300" lon="-2.85910000"><ele></ele><time>2014-4-25T5:6:28Z</time></trkpt>
<trkpt lat="47.75952800" lon="-2.85911400"><ele></ele><time>2014-4-25T5:6:31Z</time></trkpt>
</trkseg></trk></gpx>